<?xml version='1.0' encoding='UTF-8'?><gpx version="1.1" creator="JPX - https://github.com/jenetics/jpx" xmlns="http://www.topografix.com/GPX/1/1"><trk><trkseg><trkpt lat="41.92554000735471" lon="15.875745549202351"><ele>60.99999999999999</ele><time>2026-03-29T05:52:02Z</time></trkpt><trkpt lat="41.92553929105582" lon="15.875652488527045"><ele>61.0</ele><time>2026-03-29T05:52:13Z</time></trkpt><trkpt lat="41.92562297278177" lon="15.87568217258991"><ele>60.99999999999999</ele><time>2026-03-29T05:52:20Z</time></trkpt><trkpt lat="41.92569340516128" lon="15.875683952924133"><ele>60.99999999999999</ele><time>2026-03-29T05:52:29.001Z</time></trkpt><trkpt lat="41.92564298780793" lon="15.875739272871058"><ele>61.0</ele><time>2026-03-29T05:52:52.001Z</time></trkpt><trkpt lat="41.92557814794274" lon="15.875775592806383"><ele>60.99999999999999</ele><time>2026-03-29T05:53:29.002Z</time></trkpt><trkpt lat="41.925616321417614" lon="15.875703293569126"><ele>60.99999999999999</ele><time>2026-03-29T05:53:53.002Z</time></trkpt><trkpt lat="41.92569070760627" lon="15.875745616770137"><ele>60.99999999999999</ele><time>2026-03-29T05:54:39.003Z</time></trkpt><trkpt lat="41.92565739955292" lon="15.87584134720467"><ele>61.0</ele><time>2026-03-29T05:54:41.003Z</time></trkpt><trkpt lat="41.925621525592646" lon="15.875915027370407"><ele>61.0</ele><time>2026-03-29T05:54:42.003Z</time></trkpt><trkpt lat="41.92557477088773" lon="15.8760415297543"><ele>61.0</ele><time>2026-03-29T05:54:44.003Z</time></trkpt><trkpt lat="41.925499339813186" lon="15.876136593994817"><ele>60.99999999999999</ele><time>2026-03-29T05:54:46.003Z</time></trkpt><trkpt lat="41.92542507237017" lon="15.876154144804694"><ele>61.0</ele><time>2026-03-29T05:54:47.003Z</time></trkpt><trkpt lat="41.925335658491484" lon="15.876154525687994"><ele>61.4</ele><time>2026-03-29T05:54:48.003Z</time></trkpt><trkpt lat="41.92524242290557" lon="15.876161827665058"><ele>61.8</ele><time>2026-03-29T05:54:49.003Z</time></trkpt><trkpt lat="41.92514941845538" lon="15.876182382538788"><ele>62.199999999999996</ele><time>2026-03-29T05:54:50.003Z</time></trkpt><trkpt lat="41.925051718271895" lon="15.876203268064966"><ele>62.599999999999994</ele><time>2026-03-29T05:54:51.003Z</time></trkpt><trkpt lat="41.92497370703818" lon="15.876197058696295"><ele>63.0</ele><time>2026-03-29T05:54:52.003Z</time></trkpt><trkpt lat="41.92487502644536" lon="15.876170387164787"><ele>63.0</ele><time>2026-03-29T05:54:54.003Z</time></trkpt><trkpt lat="41.92480210788884" lon="15.876045452826792"><ele>63.0</ele><time>2026-03-29T05:54:56.003Z</time></trkpt><trkpt lat="41.924764784711705" lon="15.875976053637704"><ele>63.0</ele><time>2026-03-29T05:54:57.003Z</time></trkpt><trkpt lat="41.92473009059783" lon="15.875864899172333"><ele>63.0</ele><time>2026-03-29T05:54:58.003Z</time></trkpt><trkpt lat="41.92469344805489" lon="15.875759896825887"><ele>63.0</ele><time>2026-03-29T05:54:59.003Z</time></trkpt><trkpt lat="41.9246566089495" lon="15.875662019604464"><ele>63.0</ele><time>2026-03-29T05:55:00.003Z</time></trkpt><trkpt lat="41.92461281710966" lon="15.875597000674137"><ele>61.5</ele><time>2026-03-29T05:55:01.003Z</time></trkpt><trkpt lat="41.924564562960015" lon="15.875523201502588"><ele>60.0</ele><time>2026-03-29T05:55:02.003Z</time></trkpt><trkpt lat="41.92452101839679" lon="15.875458939646402"><ele>58.5</ele><time>2026-03-29T05:55:03.003Z</time></trkpt><trkpt lat="41.92447374845982" lon="15.87539351595131"><ele>57.0</ele><time>2026-03-29T05:55:04.003Z</time></trkpt><trkpt lat="41.92438853532424" lon="15.875296743727795"><ele>55.5</ele><time>2026-03-29T05:55:06.003Z</time></trkpt><trkpt lat="41.92433852402706" lon="15.875228604068461"><ele>54.0</ele><time>2026-03-29T05:55:07.003Z</time></trkpt><trkpt lat="41.924267105987425" lon="15.875143248643699"><ele>53.0</ele><time>2026-03-29T05:55:09.003Z</time></trkpt><trkpt lat="41.924171251588774" lon="15.875051113330837"><ele>52.00000000000001</ele><time>2026-03-29T05:55:11.004Z</time></trkpt><trkpt lat="41.9241001166023" lon="15.875003335963706"><ele>51.0</ele><time>2026-03-29T05:55:12.004Z</time></trkpt><trkpt lat="41.92398421609403" lon="15.874923761502618"><ele>50.0</ele><time>2026-03-29T05:55:14.004Z</time></trkpt><trkpt lat="41.92390788058745" lon="15.87488841631641"><ele>49.0</ele><time>2026-03-29T05:55:16.004Z</time></trkpt><trkpt lat="41.92384661391165" lon="15.874776934533486"><ele>48.99999999999999</ele><time>2026-03-29T05:55:18.004Z</time></trkpt><trkpt lat="41.923818989142035" lon="15.874689275613749"><ele>49.0</ele><time>2026-03-29T05:55:19.004Z</time></trkpt><trkpt lat="41.92378480452049" lon="15.874603507514486"><ele>49.0</ele><time>2026-03-29T05:55:20.004Z</time></trkpt><trkpt lat="41.92375092431001" lon="15.874513123103172"><ele>49.0</ele><time>2026-03-29T05:55:21.004Z</time></trkpt><trkpt lat="41.92370247502835" lon="15.87442449924051"><ele>48.99999999999999</ele><time>2026-03-29T05:55:22.004Z</time></trkpt><trkpt lat="41.923632684339694" lon="15.874349222587936"><ele>49.0</ele><time>2026-03-29T05:55:23.004Z</time></trkpt><trkpt lat="41.9235455878023" lon="15.874288120732412"><ele>48.400000000000006</ele><time>2026-03-29T05:55:24.004Z</time></trkpt><trkpt lat="41.9234534031186" lon="15.874229839507443"><ele>47.8</ele><time>2026-03-29T05:55:25.004Z</time></trkpt><trkpt lat="41.92336571714958" lon="15.874179736832055"><ele>47.2</ele><time>2026-03-29T05:55:26.004Z</time></trkpt><trkpt lat="41.92325778968527" lon="15.874135084882148"><ele>46.599999999999994</ele><time>2026-03-29T05:55:27.004Z</time></trkpt><trkpt lat="41.92314653963449" lon="15.8741201408031"><ele>46.0</ele><time>2026-03-29T05:55:28.004Z</time></trkpt><trkpt lat="41.92302420699059" lon="15.874141598326489"><ele>47.75</ele><time>2026-03-29T05:55:29.004Z</time></trkpt><trkpt lat="41.92290801525503" lon="15.874188644174495"><ele>49.5</ele><time>2026-03-29T05:55:30.004Z</time></trkpt><trkpt lat="41.92278790711554" lon="15.874241570608698"><ele>51.25</ele><time>2026-03-29T05:55:31.004Z</time></trkpt><trkpt lat="41.922671585763744" lon="15.874305387736989"><ele>53.0</ele><time>2026-03-29T05:55:32.004Z</time></trkpt><trkpt lat="41.922537388514755" lon="15.874371966294612"><ele>55.0</ele><time>2026-03-29T05:55:33.004Z</time></trkpt><trkpt lat="41.92240712322499" lon="15.874424741890541"><ele>57.0</ele><time>2026-03-29T05:55:34.004Z</time></trkpt><trkpt lat="41.92227403866762" lon="15.87448024454673"><ele>59.0</ele><time>2026-03-29T05:55:35.004Z</time></trkpt><trkpt lat="41.922144362563806" lon="15.874525593719463"><ele>61.0</ele><time>2026-03-29T05:55:36.004Z</time></trkpt><trkpt lat="41.922018238205766" lon="15.874578459520695"><ele>61.0</ele><time>2026-03-29T05:55:37.004Z</time></trkpt><trkpt lat="41.921895303935685" lon="15.874618503915126"><ele>61.0</ele><time>2026-03-29T05:55:38.004Z</time></trkpt><trkpt lat="41.92177619830067" lon="15.874631466597553"><ele>61.0</ele><time>2026-03-29T05:55:39.004Z</time></trkpt><trkpt lat="41.921672095116655" lon="15.87460800620386"><ele>61.0</ele><time>2026-03-29T05:55:40.004Z</time></trkpt><trkpt lat="41.92157847750804" lon="15.874564512230782"><ele>61.0</ele><time>2026-03-29T05:55:41.004Z</time></trkpt><trkpt lat="41.92150195860647" lon="15.874476629966477"><ele>60.99999999999999</ele><time>2026-03-29T05:55:42.004Z</time></trkpt><trkpt lat="41.92142671118103" lon="15.874375595805027"><ele>60.99999999999999</ele><time>2026-03-29T05:55:43.004Z</time></trkpt><trkpt lat="41.92136516556527" lon="15.874265891112836"><ele>61.0</ele><time>2026-03-29T05:55:44.004Z</time></trkpt><trkpt lat="41.921320099110694" lon="15.87413179123313"><ele>61.0</ele><time>2026-03-29T05:55:45.004Z</time></trkpt><trkpt lat="41.92131394108921" lon="15.873989616408865"><ele>59.5</ele><time>2026-03-29T05:55:46.004Z</time></trkpt><trkpt lat="41.92133024151835" lon="15.87382505360009"><ele>58.0</ele><time>2026-03-29T05:55:47.004Z</time></trkpt><trkpt lat="41.921368175325284" lon="15.873674580434328"><ele>56.5</ele><time>2026-03-29T05:55:48.004Z</time></trkpt><trkpt lat="41.921418155619655" lon="15.873531909699633"><ele>55.0</ele><time>2026-03-29T05:55:49.004Z</time></trkpt><trkpt lat="41.921452982572816" lon="15.873389973077499"><ele>54.8</ele><time>2026-03-29T05:55:50.004Z</time></trkpt><trkpt lat="41.921469430207495" lon="15.873265104922751"><ele>54.6</ele><time>2026-03-29T05:55:51.004Z</time></trkpt><trkpt lat="41.921435446105654" lon="15.87314965636753"><ele>54.400000000000006</ele><time>2026-03-29T05:55:52.004Z</time></trkpt><trkpt lat="41.92135983601072" lon="15.873050455278477"><ele>54.2</ele><time>2026-03-29T05:55:53.004Z</time></trkpt><trkpt lat="41.92125890170502" lon="15.872957519477104"><ele>54.0</ele><time>2026-03-29T05:55:54.004Z</time></trkpt><trkpt lat="41.921143949418294" lon="15.87288957385454"><ele>54.0</ele><time>2026-03-29T05:55:55.004Z</time></trkpt><trkpt lat="41.92101260242373" lon="15.872855028443936"><ele>54.0</ele><time>2026-03-29T05:55:56.004Z</time></trkpt><trkpt lat="41.92088911264636" lon="15.872841440025136"><ele>54.0</ele><time>2026-03-29T05:55:57.004Z</time></trkpt><trkpt lat="41.92075596512764" lon="15.872842751725942"><ele>54.0</ele><time>2026-03-29T05:55:58.004Z</time></trkpt><trkpt lat="41.92062689847684" lon="15.872826373455336"><ele>55.6</ele><time>2026-03-29T05:55:59.004Z</time></trkpt><trkpt lat="41.92050403484309" lon="15.872802301201919"><ele>57.2</ele><time>2026-03-29T05:56:00.004Z</time></trkpt><trkpt lat="41.92039340632137" lon="15.87275391307523"><ele>58.800000000000004</ele><time>2026-03-29T05:56:01.004Z</time></trkpt><trkpt lat="41.92029857619534" lon="15.872697034845745"><ele>60.400000000000006</ele><time>2026-03-29T05:56:02.004Z</time></trkpt><trkpt lat="41.92021575927966" lon="15.872636620672345"><ele>62.0</ele><time>2026-03-29T05:56:03.004Z</time></trkpt><trkpt lat="41.920145769604886" lon="15.872580405172004"><ele>62.00000000000001</ele><time>2026-03-29T05:56:04.004Z</time></trkpt><trkpt lat="41.9200846538613" lon="15.872528832207333"><ele>62.0</ele><time>2026-03-29T05:56:05.004Z</time></trkpt><trkpt lat="41.920016744827976" lon="15.872488048178294"><ele>62.0</ele><time>2026-03-29T05:56:06.004Z</time></trkpt><trkpt lat="41.91991895405184" lon="15.872564384820878"><ele>62.0</ele><time>2026-03-29T05:56:08.004Z</time></trkpt><trkpt lat="41.9198977412817" lon="15.872652338171244"><ele>62.00000000000001</ele><time>2026-03-29T05:56:09.005Z</time></trkpt><trkpt lat="41.919907042471905" lon="15.87276714326016"><ele>62.0</ele><time>2026-03-29T05:56:10.005Z</time></trkpt><trkpt lat="41.919933136332794" lon="15.872862752486762"><ele>63.2</ele><time>2026-03-29T05:56:11.005Z</time></trkpt><trkpt lat="41.91998098020692" lon="15.872970848435473"><ele>64.4</ele><time>2026-03-29T05:56:12.005Z</time></trkpt><trkpt lat="41.92002514296145" lon="15.873075414344077"><ele>65.6</ele><time>2026-03-29T05:56:13.005Z</time></trkpt><trkpt lat="41.92006938491523" lon="15.873178420018249"><ele>66.8</ele><time>2026-03-29T05:56:14.005Z</time></trkpt><trkpt lat="41.920112831816176" lon="15.873285772254826"><ele>68.0</ele><time>2026-03-29T05:56:15.005Z</time></trkpt><trkpt lat="41.92015849626205" lon="15.87338586121112"><ele>67.4</ele><time>2026-03-29T05:56:16.005Z</time></trkpt><trkpt lat="41.92020110970162" lon="15.87349463833971"><ele>66.8</ele><time>2026-03-29T05:56:17.005Z</time></trkpt><trkpt lat="41.92024274420484" lon="15.87360177635874"><ele>66.2</ele><time>2026-03-29T05:56:18.005Z</time></trkpt><trkpt lat="41.920276513345904" lon="15.87370652912958"><ele>65.6</ele><time>2026-03-29T05:56:19.005Z</time></trkpt><trkpt lat="41.92030284356851" lon="15.873831970574448"><ele>65.0</ele><time>2026-03-29T05:56:20.005Z</time></trkpt><trkpt lat="41.920317193192616" lon="15.873948678104279"><ele>65.0</ele><time>2026-03-29T05:56:21.005Z</time></trkpt><trkpt lat="41.92030337734392" lon="15.874055585321408"><ele>65.0</ele><time>2026-03-29T05:56:22.005Z</time></trkpt><trkpt lat="41.92028180196476" lon="15.874144916655904"><ele>65.0</ele><time>2026-03-29T05:56:23.005Z</time></trkpt><trkpt lat="41.920214557436374" lon="15.8742718686016"><ele>65.0</ele><time>2026-03-29T05:56:25.005Z</time></trkpt><trkpt lat="41.92018320361108" lon="15.874354138649114"><ele>65.0</ele><time>2026-03-29T05:56:26.005Z</time></trkpt><trkpt lat="41.92013040547564" lon="15.874422099411897"><ele>65.0</ele><time>2026-03-29T05:56:27.005Z</time></trkpt><trkpt lat="41.92005435911961" lon="15.874489771239789"><ele>66.4</ele><time>2026-03-29T05:56:28.005Z</time></trkpt><trkpt lat="41.919967974090014" lon="15.874557418441006"><ele>67.8</ele><time>2026-03-29T05:56:29.005Z</time></trkpt><trkpt lat="41.919875292204686" lon="15.874622846814143"><ele>69.2</ele><time>2026-03-29T05:56:30.005Z</time></trkpt><trkpt lat="41.91978116431096" lon="15.874687692976753"><ele>70.6</ele><time>2026-03-29T05:56:31.005Z</time></trkpt><trkpt lat="41.91968683569157" lon="15.874759908887125"><ele>72.0</ele><time>2026-03-29T05:56:32.005Z</time></trkpt><trkpt lat="41.919591532805434" lon="15.874828349323217"><ele>72.0</ele><time>2026-03-29T05:56:33.005Z</time></trkpt><trkpt lat="41.91948481860146" lon="15.874902962843736"><ele>72.0</ele><time>2026-03-29T05:56:34.005Z</time></trkpt><trkpt lat="41.9193701053739" lon="15.874984691564869"><ele>72.0</ele><time>2026-03-29T05:56:35.005Z</time></trkpt><trkpt lat="41.91925928485037" lon="15.875064863806118"><ele>72.0</ele><time>2026-03-29T05:56:36.005Z</time></trkpt><trkpt lat="41.919149110773944" lon="15.875152193627478"><ele>73.5</ele><time>2026-03-29T05:56:37.005Z</time></trkpt><trkpt lat="41.919042254089376" lon="15.875232295213433"><ele>75.0</ele><time>2026-03-29T05:56:38.005Z</time></trkpt><trkpt lat="41.918942490017116" lon="15.875314211126605"><ele>76.5</ele><time>2026-03-29T05:56:39.005Z</time></trkpt><trkpt lat="41.91886286429284" lon="15.875401629238272"><ele>78.0</ele><time>2026-03-29T05:56:40.005Z</time></trkpt><trkpt lat="41.91877435759956" lon="15.875499146721538"><ele>78.0</ele><time>2026-03-29T05:56:41.005Z</time></trkpt><trkpt lat="41.91868603036046" lon="15.875596481500562"><ele>78.0</ele><time>2026-03-29T05:56:42.005Z</time></trkpt><trkpt lat="41.9186074860081" lon="15.875708661652425"><ele>78.0</ele><time>2026-03-29T05:56:43.005Z</time></trkpt><trkpt lat="41.918538110960526" lon="15.875835987180132"><ele>78.0</ele><time>2026-03-29T05:56:44.005Z</time></trkpt><trkpt lat="41.91847899706919" lon="15.875979405371524"><ele>77.5</ele><time>2026-03-29T05:56:45.005Z</time></trkpt><trkpt lat="41.91841018763076" lon="15.876132790807935"><ele>77.0</ele><time>2026-03-29T05:56:46.005Z</time></trkpt><trkpt lat="41.91834027149697" lon="15.87629448493682"><ele>76.5</ele><time>2026-03-29T05:56:47.005Z</time></trkpt><trkpt lat="41.918270994245965" lon="15.87644635964714"><ele>76.0</ele><time>2026-03-29T05:56:48.005Z</time></trkpt><trkpt lat="41.91820499185979" lon="15.876593679419443"><ele>78.75</ele><time>2026-03-29T05:56:49.005Z</time></trkpt><trkpt lat="41.91813164861824" lon="15.876747097893476"><ele>81.5</ele><time>2026-03-29T05:56:50.005Z</time></trkpt><trkpt lat="41.91804170949812" lon="15.876889406354262"><ele>84.25</ele><time>2026-03-29T05:56:51.005Z</time></trkpt><trkpt lat="41.917966344818936" lon="15.877035767750744"><ele>87.0</ele><time>2026-03-29T05:56:52.005Z</time></trkpt><trkpt lat="41.917889240153244" lon="15.877179572449684"><ele>87.0</ele><time>2026-03-29T05:56:53.005Z</time></trkpt><trkpt lat="41.91783015847767" lon="15.877335899027877"><ele>87.0</ele><time>2026-03-29T05:56:54.005Z</time></trkpt><trkpt lat="41.917774647290614" lon="15.877491913907486"><ele>87.0</ele><time>2026-03-29T05:56:55.005Z</time></trkpt><trkpt lat="41.91773663880246" lon="15.877646740922993"><ele>87.0</ele><time>2026-03-29T05:56:56.005Z</time></trkpt><trkpt lat="41.917684809447735" lon="15.87782325975218"><ele>90.0</ele><time>2026-03-29T05:56:57.005Z</time></trkpt><trkpt lat="41.917660469156395" lon="15.878016431904591"><ele>93.0</ele><time>2026-03-29T05:56:58.005Z</time></trkpt><trkpt lat="41.917668807974145" lon="15.87824034467072"><ele>96.0</ele><time>2026-03-29T05:56:59.005Z</time></trkpt><trkpt lat="41.91771112966898" lon="15.878438041767609"><ele>98.75</ele><time>2026-03-29T05:57:00.005Z</time></trkpt><trkpt lat="41.91778311863927" lon="15.878594676775277"><ele>101.5</ele><time>2026-03-29T05:57:01.005Z</time></trkpt><trkpt lat="41.91787336920669" lon="15.878716355499607"><ele>104.25</ele><time>2026-03-29T05:57:02.005Z</time></trkpt><trkpt lat="41.91796971400152" lon="15.87880218645312"><ele>107.0</ele><time>2026-03-29T05:57:03.005Z</time></trkpt><trkpt lat="41.918074057016206" lon="15.878833309201948"><ele>107.0</ele><time>2026-03-29T05:57:04.005Z</time></trkpt><trkpt lat="41.91816865910087" lon="15.878832663037405"><ele>106.99999999999999</ele><time>2026-03-29T05:57:05.005Z</time></trkpt><trkpt lat="41.91826909143089" lon="15.878784577556077"><ele>106.99999999999999</ele><time>2026-03-29T05:57:06.005Z</time></trkpt><trkpt lat="41.91834212517369" lon="15.878755375516379"><ele>107.0</ele><time>2026-03-29T05:57:07.005Z</time></trkpt><trkpt lat="41.91842511544042" lon="15.878797002899308"><ele>107.0</ele><time>2026-03-29T05:57:09.006Z</time></trkpt><trkpt lat="41.91847348294264" lon="15.878896318493116"><ele>107.19999999999999</ele><time>2026-03-29T05:57:11.006Z</time></trkpt><trkpt lat="41.91854632817294" lon="15.879006373301841"><ele>107.39999999999999</ele><time>2026-03-29T05:57:13.006Z</time></trkpt><trkpt lat="41.91859454524609" lon="15.87907967104305"><ele>107.60000000000001</ele><time>2026-03-29T05:57:14.006Z</time></trkpt><trkpt lat="41.918640145434935" lon="15.879181359146422"><ele>107.80000000000001</ele><time>2026-03-29T05:57:15.006Z</time></trkpt><trkpt lat="41.9186735004971" lon="15.879307055792395"><ele>108.0</ele><time>2026-03-29T05:57:16.006Z</time></trkpt><trkpt lat="41.91867986903385" lon="15.879449684980901"><ele>108.75</ele><time>2026-03-29T05:57:17.006Z</time></trkpt><trkpt lat="41.91867646259797" lon="15.87959728694417"><ele>109.5</ele><time>2026-03-29T05:57:18.006Z</time></trkpt><trkpt lat="41.9186608240386" lon="15.879742535264254"><ele>110.25</ele><time>2026-03-29T05:57:19.006Z</time></trkpt><trkpt lat="41.91864005519387" lon="15.87988684936186"><ele>111.0</ele><time>2026-03-29T05:57:20.006Z</time></trkpt><trkpt lat="41.91859816928182" lon="15.880061816917662"><ele>111.6</ele><time>2026-03-29T05:57:21.006Z</time></trkpt><trkpt lat="41.918578133600526" lon="15.880223045926824"><ele>112.19999999999999</ele><time>2026-03-29T05:57:22.006Z</time></trkpt><trkpt lat="41.91854744322551" lon="15.880340773369987"><ele>112.80000000000001</ele><time>2026-03-29T05:57:23.006Z</time></trkpt><trkpt lat="41.91849974338191" lon="15.880450100974286"><ele>113.4</ele><time>2026-03-29T05:57:25.006Z</time></trkpt><trkpt lat="41.91842462990896" lon="15.880450934430996"><ele>114.0</ele><time>2026-03-29T05:57:27.006Z</time></trkpt><trkpt lat="41.918304356586674" lon="15.880495226218237"><ele>116.66666666666667</ele><time>2026-03-29T05:57:29.006Z</time></trkpt><trkpt lat="41.918231607624925" lon="15.880569671655262"><ele>119.33333333333334</ele><time>2026-03-29T05:57:30.006Z</time></trkpt><trkpt lat="41.918156508491336" lon="15.880664003051274"><ele>122.0</ele><time>2026-03-29T05:57:31.006Z</time></trkpt><trkpt lat="41.918096622918306" lon="15.880753668981342"><ele>124.66666666666667</ele><time>2026-03-29T05:57:32.006Z</time></trkpt><trkpt lat="41.918051327041695" lon="15.880818212236822"><ele>127.33333333333334</ele><time>2026-03-29T05:57:33.006Z</time></trkpt><trkpt lat="41.91800186750755" lon="15.880904727883864"><ele>130.0</ele><time>2026-03-29T05:57:34.006Z</time></trkpt><trkpt lat="41.917912252887405" lon="15.880950169324601"><ele>130.4</ele><time>2026-03-29T05:57:35.006Z</time></trkpt><trkpt lat="41.9177999061361" lon="15.880960206490874"><ele>130.8</ele><time>2026-03-29T05:57:36.006Z</time></trkpt><trkpt lat="41.91768887855653" lon="15.880960691164468"><ele>131.2</ele><time>2026-03-29T05:57:37.006Z</time></trkpt><trkpt lat="41.91758785868147" lon="15.880940122576034"><ele>131.6</ele><time>2026-03-29T05:57:38.006Z</time></trkpt><trkpt lat="41.91750950584087" lon="15.880881726671568"><ele>132.0</ele><time>2026-03-29T05:57:39.006Z</time></trkpt><trkpt lat="41.91742076734102" lon="15.880793348429158"><ele>132.0</ele><time>2026-03-29T05:57:40.006Z</time></trkpt><trkpt lat="41.917367041738586" lon="15.880739017570217"><ele>132.0</ele><time>2026-03-29T05:57:41.006Z</time></trkpt><trkpt lat="41.91729156115495" lon="15.880682360617683"><ele>132.0</ele><time>2026-03-29T05:57:43.006Z</time></trkpt><trkpt lat="41.917200681432234" lon="15.88068410889584"><ele>132.0</ele><time>2026-03-29T05:57:45.006Z</time></trkpt><trkpt lat="41.917132554880375" lon="15.880703254956982"><ele>132.0</ele><time>2026-03-29T05:57:46.006Z</time></trkpt><trkpt lat="41.917081559065814" lon="15.880646537632343"><ele>132.0</ele><time>2026-03-29T05:57:51.006Z</time></trkpt><trkpt lat="41.91700534489803" lon="15.880628534030809"><ele>132.0</ele><time>2026-03-29T05:57:55.006Z</time></trkpt><trkpt lat="41.91694481106523" lon="15.880600035507806"><ele>132.0</ele><time>2026-03-29T05:57:58.006Z</time></trkpt><trkpt lat="41.91689517319455" lon="15.880535772059519"><ele>132.0</ele><time>2026-03-29T05:58:01.006Z</time></trkpt><trkpt lat="41.91681500329709" lon="15.880418814233503"><ele>132.0</ele><time>2026-03-29T05:58:05.006Z</time></trkpt><trkpt lat="41.916762122256294" lon="15.880370845862215"><ele>132.0</ele><time>2026-03-29T05:58:06.007Z</time></trkpt><trkpt lat="41.916682045088" lon="15.88029911356251"><ele>132.0</ele><time>2026-03-29T05:58:08.007Z</time></trkpt><trkpt lat="41.916600209075966" lon="15.88031571555133"><ele>134.66666666666666</ele><time>2026-03-29T05:58:11.007Z</time></trkpt><trkpt lat="41.91655833944907" lon="15.880379253682111"><ele>137.33333333333334</ele><time>2026-03-29T05:58:13.007Z</time></trkpt><trkpt lat="41.91648544832359" lon="15.8804186127206"><ele>140.0</ele><time>2026-03-29T05:58:15.007Z</time></trkpt><trkpt lat="41.91638903956903" lon="15.880357385156618"><ele>142.66666666666669</ele><time>2026-03-29T05:58:17.007Z</time></trkpt><trkpt lat="41.91630681408504" lon="15.880401476490512"><ele>145.33333333333334</ele><time>2026-03-29T05:58:21.007Z</time></trkpt><trkpt lat="41.9163117033476" lon="15.880536192951615"><ele>148.0</ele><time>2026-03-29T05:58:23.007Z</time></trkpt><trkpt lat="41.916332827718215" lon="15.880620250979689"><ele>148.0</ele><time>2026-03-29T05:58:24.007Z</time></trkpt><trkpt lat="41.9163599235969" lon="15.880707268555266"><ele>148.0</ele><time>2026-03-29T05:58:25.007Z</time></trkpt><trkpt lat="41.91640233440418" lon="15.880810458012862"><ele>148.0</ele><time>2026-03-29T05:58:26.007Z</time></trkpt><trkpt lat="41.916439951774365" lon="15.88089922167288"><ele>148.0</ele><time>2026-03-29T05:58:27.007Z</time></trkpt><trkpt lat="41.91647339651429" lon="15.880982400489625"><ele>148.0</ele><time>2026-03-29T05:58:28.007Z</time></trkpt><trkpt lat="41.91650946007693" lon="15.881083250763032"><ele>148.0</ele><time>2026-03-29T05:58:29.007Z</time></trkpt><trkpt lat="41.91652264180427" lon="15.881168563110032"><ele>150.5</ele><time>2026-03-29T05:58:30.007Z</time></trkpt><trkpt lat="41.91654414639769" lon="15.881256635099856"><ele>153.0</ele><time>2026-03-29T05:58:31.007Z</time></trkpt><trkpt lat="41.91650996953155" lon="15.88137633912929"><ele>155.5</ele><time>2026-03-29T05:58:34.007Z</time></trkpt><trkpt lat="41.91648754662172" lon="15.88146309248152"><ele>158.0</ele><time>2026-03-29T05:58:36.007Z</time></trkpt><trkpt lat="41.91654635277037" lon="15.881572724359064"><ele>160.5</ele><time>2026-03-29T05:58:38.007Z</time></trkpt><trkpt lat="41.91660117117241" lon="15.881690799524476"><ele>163.0</ele><time>2026-03-29T05:58:39.007Z</time></trkpt><trkpt lat="41.916632958075205" lon="15.881825872089351"><ele>166.2</ele><time>2026-03-29T05:58:40.007Z</time></trkpt><trkpt lat="41.916638901503795" lon="15.88194715425632"><ele>169.4</ele><time>2026-03-29T05:58:41.007Z</time></trkpt><trkpt lat="41.91664315723282" lon="15.882078776726722"><ele>172.6</ele><time>2026-03-29T05:58:42.007Z</time></trkpt><trkpt lat="41.91664157560918" lon="15.882210932047578"><ele>175.79999999999998</ele><time>2026-03-29T05:58:43.007Z</time></trkpt><trkpt lat="41.91665665129637" lon="15.882356855138227"><ele>179.0</ele><time>2026-03-29T05:58:44.007Z</time></trkpt><trkpt lat="41.91670000987901" lon="15.882500907257693"><ele>181.39999999999998</ele><time>2026-03-29T05:58:45.007Z</time></trkpt><trkpt lat="41.91674738120825" lon="15.882637132753123"><ele>183.8</ele><time>2026-03-29T05:58:46.007Z</time></trkpt><trkpt lat="41.916798551740875" lon="15.882777781959895"><ele>186.2</ele><time>2026-03-29T05:58:47.007Z</time></trkpt><trkpt lat="41.91681813145525" lon="15.88289584760036"><ele>188.60000000000002</ele><time>2026-03-29T05:58:48.007Z</time></trkpt><trkpt lat="41.91683676178734" lon="15.882991313692255"><ele>191.0</ele><time>2026-03-29T05:58:49.007Z</time></trkpt><trkpt lat="41.91689153282099" lon="15.883089199744306"><ele>191.0</ele><time>2026-03-29T05:58:51.007Z</time></trkpt><trkpt lat="41.91696996438987" lon="15.883086336557854"><ele>191.0</ele><time>2026-03-29T05:58:52.007Z</time></trkpt><trkpt lat="41.91704715406694" lon="15.883137301342863"><ele>191.0</ele><time>2026-03-29T05:58:53.007Z</time></trkpt><trkpt lat="41.91707643960749" lon="15.883217415757063"><ele>191.0</ele><time>2026-03-29T05:58:56.007Z</time></trkpt><trkpt lat="41.91700564808496" lon="15.883268782043745"><ele>191.0</ele><time>2026-03-29T05:58:59.007Z</time></trkpt><trkpt lat="41.916937397600385" lon="15.883276349584149"><ele>191.0</ele><time>2026-03-29T05:59:00.007Z</time></trkpt><trkpt lat="41.916836252903515" lon="15.883381404038063"><ele>192.60000000000002</ele><time>2026-03-29T05:59:02.007Z</time></trkpt><trkpt lat="41.916794260352155" lon="15.883478595996667"><ele>194.2</ele><time>2026-03-29T05:59:03.007Z</time></trkpt><trkpt lat="41.91676391338798" lon="15.883591496026305"><ele>195.8</ele><time>2026-03-29T05:59:04.007Z</time></trkpt><trkpt lat="41.91675335335625" lon="15.88370482687431"><ele>197.39999999999998</ele><time>2026-03-29T05:59:05.008Z</time></trkpt><trkpt lat="41.91676283433734" lon="15.883855517516974"><ele>199.0</ele><time>2026-03-29T05:59:06.008Z</time></trkpt><trkpt lat="41.91677173124871" lon="15.884041454034703"><ele>199.0</ele><time>2026-03-29T05:59:07.008Z</time></trkpt><trkpt lat="41.916802156774665" lon="15.884147362851577"><ele>199.0</ele><time>2026-03-29T05:59:08.008Z</time></trkpt><trkpt lat="41.91684230621815" lon="15.88424731993861"><ele>199.0</ele><time>2026-03-29T05:59:09.008Z</time></trkpt><trkpt lat="41.91689657389545" lon="15.884368101969626"><ele>199.0</ele><time>2026-03-29T05:59:10.008Z</time></trkpt><trkpt lat="41.91692948437329" lon="15.884514826077554"><ele>199.0</ele><time>2026-03-29T05:59:11.008Z</time></trkpt><trkpt lat="41.91696904503372" lon="15.884698811626084"><ele>199.5</ele><time>2026-03-29T05:59:12.008Z</time></trkpt><trkpt lat="41.917006864088236" lon="15.884870030047978"><ele>200.0</ele><time>2026-03-29T05:59:13.008Z</time></trkpt><trkpt lat="41.91702064751492" lon="15.885028811890198"><ele>200.5</ele><time>2026-03-29T05:59:14.008Z</time></trkpt><trkpt lat="41.91700573130601" lon="15.885193908439565"><ele>201.0</ele><time>2026-03-29T05:59:15.008Z</time></trkpt><trkpt lat="41.91700295931701" lon="15.885341705259666"><ele>201.60000000000002</ele><time>2026-03-29T05:59:16.008Z</time></trkpt><trkpt lat="41.917010568448504" lon="15.885469181422327"><ele>202.2</ele><time>2026-03-29T05:59:17.008Z</time></trkpt><trkpt lat="41.91701650896056" lon="15.885578082933888"><ele>202.8</ele><time>2026-03-29T05:59:19.008Z</time></trkpt><trkpt lat="41.91705067100425" lon="15.885684134140503"><ele>203.39999999999998</ele><time>2026-03-29T05:59:21.008Z</time></trkpt><trkpt lat="41.916985306798814" lon="15.885809531596202"><ele>204.0</ele><time>2026-03-29T05:59:23.008Z</time></trkpt><trkpt lat="41.91693584181795" lon="15.885890608991408"><ele>201.75</ele><time>2026-03-29T05:59:24.008Z</time></trkpt><trkpt lat="41.916832530404974" lon="15.885986170871723"><ele>199.5</ele><time>2026-03-29T05:59:25.008Z</time></trkpt><trkpt lat="41.91674151108304" lon="15.8861258213647"><ele>197.25</ele><time>2026-03-29T05:59:26.008Z</time></trkpt><trkpt lat="41.916656896813876" lon="15.886254075376128"><ele>195.0</ele><time>2026-03-29T05:59:27.008Z</time></trkpt><trkpt lat="41.916550837002504" lon="15.886365215023494"><ele>199.0</ele><time>2026-03-29T05:59:28.008Z</time></trkpt><trkpt lat="41.91646420217312" lon="15.886459070261834"><ele>203.0</ele><time>2026-03-29T05:59:29.008Z</time></trkpt><trkpt lat="41.91639314208467" lon="15.88653348789226"><ele>207.0</ele><time>2026-03-29T05:59:30.008Z</time></trkpt><trkpt lat="41.91632445178275" lon="15.886589652846258"><ele>211.0</ele><time>2026-03-29T05:59:31.008Z</time></trkpt><trkpt lat="41.916236563697936" lon="15.886658872292186"><ele>215.0</ele><time>2026-03-29T05:59:32.008Z</time></trkpt><trkpt lat="41.916159589991494" lon="15.88674376836555"><ele>216.5</ele><time>2026-03-29T05:59:33.008Z</time></trkpt><trkpt lat="41.916080847382574" lon="15.886863930665628"><ele>218.0</ele><time>2026-03-29T05:59:34.008Z</time></trkpt><trkpt lat="41.91600589327776" lon="15.886991750126871"><ele>219.5</ele><time>2026-03-29T05:59:35.008Z</time></trkpt><trkpt lat="41.91593017787767" lon="15.88710023366583"><ele>221.0</ele><time>2026-03-29T05:59:36.008Z</time></trkpt><trkpt lat="41.9158494816184" lon="15.887179803744829"><ele>221.0</ele><time>2026-03-29T05:59:37.008Z</time></trkpt><trkpt lat="41.915763128675245" lon="15.887256070141387"><ele>221.00000000000003</ele><time>2026-03-29T05:59:38.008Z</time></trkpt><trkpt lat="41.91568502317211" lon="15.887337981422192"><ele>221.00000000000003</ele><time>2026-03-29T05:59:39.008Z</time></trkpt><trkpt lat="41.91559143272018" lon="15.88740156009233"><ele>221.0</ele><time>2026-03-29T05:59:40.008Z</time></trkpt><trkpt lat="41.915493782991724" lon="15.887452612887259"><ele>221.0</ele><time>2026-03-29T05:59:41.008Z</time></trkpt><trkpt lat="41.91539408186786" lon="15.88748776545967"><ele>221.0</ele><time>2026-03-29T05:59:42.008Z</time></trkpt><trkpt lat="41.91527919121087" lon="15.887486851185413"><ele>221.0</ele><time>2026-03-29T05:59:43.008Z</time></trkpt><trkpt lat="41.91515576136903" lon="15.887484333402393"><ele>221.0</ele><time>2026-03-29T05:59:44.008Z</time></trkpt><trkpt lat="41.915025748922645" lon="15.887493520727945"><ele>221.0</ele><time>2026-03-29T05:59:45.008Z</time></trkpt><trkpt lat="41.914909580101295" lon="15.88749321364209"><ele>223.5</ele><time>2026-03-29T05:59:46.008Z</time></trkpt><trkpt lat="41.91480404970503" lon="15.887463241787165"><ele>226.0</ele><time>2026-03-29T05:59:47.008Z</time></trkpt><trkpt lat="41.91469924292612" lon="15.88740751420357"><ele>228.5</ele><time>2026-03-29T05:59:48.008Z</time></trkpt><trkpt lat="41.914585155688826" lon="15.887343259090526"><ele>231.0</ele><time>2026-03-29T05:59:49.008Z</time></trkpt><trkpt lat="41.914479000018424" lon="15.887282839328314"><ele>231.0</ele><time>2026-03-29T05:59:50.008Z</time></trkpt><trkpt lat="41.914359303495175" lon="15.887254075028329"><ele>231.0</ele><time>2026-03-29T05:59:51.008Z</time></trkpt><trkpt lat="41.9142520027726" lon="15.887269553708267"><ele>231.0</ele><time>2026-03-29T05:59:52.008Z</time></trkpt><trkpt lat="41.91411732839332" lon="15.887325275721496"><ele>231.0</ele><time>2026-03-29T05:59:53.008Z</time></trkpt><trkpt lat="41.914016526859335" lon="15.887399246204495"><ele>232.8</ele><time>2026-03-29T05:59:54.008Z</time></trkpt><trkpt lat="41.91393517146637" lon="15.887475871244536"><ele>234.60000000000002</ele><time>2026-03-29T05:59:55.008Z</time></trkpt><trkpt lat="41.913870341317946" lon="15.887578625591225"><ele>236.4</ele><time>2026-03-29T05:59:56.008Z</time></trkpt><trkpt lat="41.91379570833044" lon="15.887694041248002"><ele>238.2</ele><time>2026-03-29T05:59:57.008Z</time></trkpt><trkpt lat="41.91371045462149" lon="15.887802407031824"><ele>240.0</ele><time>2026-03-29T05:59:58.008Z</time></trkpt><trkpt lat="41.91360959440133" lon="15.88787079809382"><ele>241.8</ele><time>2026-03-29T05:59:59.008Z</time></trkpt><trkpt lat="41.91350948098304" lon="15.887924510355008"><ele>243.6</ele><time>2026-03-29T06:00:00.008Z</time></trkpt><trkpt lat="41.91340957968173" lon="15.88796013815016"><ele>245.39999999999998</ele><time>2026-03-29T06:00:01.008Z</time></trkpt><trkpt lat="41.91330144322382" lon="15.887981391521375"><ele>247.2</ele><time>2026-03-29T06:00:02.008Z</time></trkpt><trkpt lat="41.913183189960115" lon="15.887987096975518"><ele>249.0</ele><time>2026-03-29T06:00:03.008Z</time></trkpt><trkpt lat="41.913059572396776" lon="15.887961170078222"><ele>249.25</ele><time>2026-03-29T06:00:04.009Z</time></trkpt><trkpt lat="41.91292417805965" lon="15.887900623326308"><ele>249.5</ele><time>2026-03-29T06:00:05.009Z</time></trkpt><trkpt lat="41.91278688388653" lon="15.887817017715054"><ele>249.75</ele><time>2026-03-29T06:00:06.009Z</time></trkpt><trkpt lat="41.91265821175403" lon="15.887737314687671"><ele>250.0</ele><time>2026-03-29T06:00:07.009Z</time></trkpt><trkpt lat="41.91252856300802" lon="15.887677774789037"><ele>251.0</ele><time>2026-03-29T06:00:08.009Z</time></trkpt><trkpt lat="41.91239392347362" lon="15.887650220769023"><ele>252.0</ele><time>2026-03-29T06:00:09.009Z</time></trkpt><trkpt lat="41.91222821570293" lon="15.887610107216085"><ele>253.0</ele><time>2026-03-29T06:00:10.009Z</time></trkpt><trkpt lat="41.912077480266376" lon="15.887579116453432"><ele>253.0</ele><time>2026-03-29T06:00:11.009Z</time></trkpt><trkpt lat="41.91195753704227" lon="15.88756163104521"><ele>253.0</ele><time>2026-03-29T06:00:12.009Z</time></trkpt><trkpt lat="41.9118567181766" lon="15.887536317241112"><ele>253.0</ele><time>2026-03-29T06:00:13.009Z</time></trkpt><trkpt lat="41.911785694447154" lon="15.887525217222482"><ele>253.0</ele><time>2026-03-29T06:00:14.009Z</time></trkpt><trkpt lat="41.91176606242344" lon="15.887617266480582"><ele>253.0</ele><time>2026-03-29T06:00:18.009Z</time></trkpt><trkpt lat="41.911837999813365" lon="15.887747899763077"><ele>253.0</ele><time>2026-03-29T06:00:20.009Z</time></trkpt><trkpt lat="41.9119188397443" lon="15.887850856747361"><ele>253.0</ele><time>2026-03-29T06:00:21.009Z</time></trkpt><trkpt lat="41.91200596068529" lon="15.887950312370709"><ele>253.0</ele><time>2026-03-29T06:00:22.009Z</time></trkpt><trkpt lat="41.91210459650858" lon="15.88804408437576"><ele>253.0</ele><time>2026-03-29T06:00:23.009Z</time></trkpt><trkpt lat="41.91221759443573" lon="15.888143698391476"><ele>253.0</ele><time>2026-03-29T06:00:24.009Z</time></trkpt><trkpt lat="41.912319607160114" lon="15.888243135303812"><ele>253.0</ele><time>2026-03-29T06:00:25.009Z</time></trkpt><trkpt lat="41.91239442582307" lon="15.888332600533841"><ele>253.0</ele><time>2026-03-29T06:00:26.009Z</time></trkpt><trkpt lat="41.91247024422337" lon="15.88845453443951"><ele>253.0</ele><time>2026-03-29T06:00:27.009Z</time></trkpt><trkpt lat="41.91253899004976" lon="15.888596921703213"><ele>256.0</ele><time>2026-03-29T06:00:28.009Z</time></trkpt><trkpt lat="41.912608425938124" lon="15.88874773171486"><ele>259.0</ele><time>2026-03-29T06:00:29.009Z</time></trkpt><trkpt lat="41.91269147137" lon="15.888928883950046"><ele>262.0</ele><time>2026-03-29T06:00:30.009Z</time></trkpt><trkpt lat="41.912779020898256" lon="15.889099227558503"><ele>265.0</ele><time>2026-03-29T06:00:31.009Z</time></trkpt><trkpt lat="41.91285371360659" lon="15.889271945836265"><ele>266.5</ele><time>2026-03-29T06:00:32.009Z</time></trkpt><trkpt lat="41.91293632889742" lon="15.889429911278263"><ele>268.0</ele><time>2026-03-29T06:00:33.009Z</time></trkpt><trkpt lat="41.91301349474267" lon="15.889587976183218"><ele>269.5</ele><time>2026-03-29T06:00:34.009Z</time></trkpt><trkpt lat="41.91309540291889" lon="15.889754305649229"><ele>271.0</ele><time>2026-03-29T06:00:35.009Z</time></trkpt><trkpt lat="41.91316889440325" lon="15.889943509536687"><ele>271.0</ele><time>2026-03-29T06:00:36.009Z</time></trkpt><trkpt lat="41.91323350308151" lon="15.890145543817418"><ele>271.0</ele><time>2026-03-29T06:00:37.009Z</time></trkpt><trkpt lat="41.913313856437846" lon="15.890354472827086"><ele>271.0</ele><time>2026-03-29T06:00:38.009Z</time></trkpt><trkpt lat="41.91339456333915" lon="15.890525401613731"><ele>268.2</ele><time>2026-03-29T06:00:39.009Z</time></trkpt><trkpt lat="41.91346852380337" lon="15.890661160644372"><ele>265.40000000000003</ele><time>2026-03-29T06:00:40.009Z</time></trkpt><trkpt lat="41.91352008103846" lon="15.890771259759017"><ele>262.6</ele><time>2026-03-29T06:00:41.009Z</time></trkpt><trkpt lat="41.91354179956739" lon="15.890883196872455"><ele>259.8</ele><time>2026-03-29T06:00:42.009Z</time></trkpt><trkpt lat="41.9135311356714" lon="15.891009361798488"><ele>257.0</ele><time>2026-03-29T06:00:43.009Z</time></trkpt><trkpt lat="41.9134995681641" lon="15.891140844237766"><ele>254.33333333333334</ele><time>2026-03-29T06:00:44.009Z</time></trkpt><trkpt lat="41.91347095897794" lon="15.891304073747198"><ele>251.66666666666669</ele><time>2026-03-29T06:00:45.009Z</time></trkpt><trkpt lat="41.913440113086615" lon="15.891502395666134"><ele>249.0</ele><time>2026-03-29T06:00:46.009Z</time></trkpt><trkpt lat="41.913416781292554" lon="15.891745757890856"><ele>255.66666666666669</ele><time>2026-03-29T06:00:47.009Z</time></trkpt><trkpt lat="41.91339906045967" lon="15.891983269489518"><ele>262.33333333333337</ele><time>2026-03-29T06:00:48.009Z</time></trkpt><trkpt lat="41.91338655958476" lon="15.892186621904482"><ele>269.0</ele><time>2026-03-29T06:00:49.009Z</time></trkpt><trkpt lat="41.91338224776392" lon="15.892365855902685"><ele>269.0</ele><time>2026-03-29T06:00:50.009Z</time></trkpt><trkpt lat="41.91338791724354" lon="15.89256209260073"><ele>269.0</ele><time>2026-03-29T06:00:51.009Z</time></trkpt><trkpt lat="41.913409817343066" lon="15.892754694300297"><ele>269.0</ele><time>2026-03-29T06:00:52.009Z</time></trkpt><trkpt lat="41.913448870326825" lon="15.89295135791275"><ele>269.0</ele><time>2026-03-29T06:00:53.009Z</time></trkpt><trkpt lat="41.9134722348557" lon="15.893147756389185"><ele>267.75</ele><time>2026-03-29T06:00:54.009Z</time></trkpt><trkpt lat="41.91352324181955" lon="15.893321989456659"><ele>266.5</ele><time>2026-03-29T06:00:55.009Z</time></trkpt><trkpt lat="41.91356468892235" lon="15.893463227664322"><ele>265.25</ele><time>2026-03-29T06:00:56.009Z</time></trkpt><trkpt lat="41.91364729266446" lon="15.89360406753949"><ele>264.0</ele><time>2026-03-29T06:00:57.009Z</time></trkpt><trkpt lat="41.91374365523914" lon="15.893727512220776"><ele>264.0</ele><time>2026-03-29T06:00:58.009Z</time></trkpt><trkpt lat="41.913844683001116" lon="15.893810555943585"><ele>264.0</ele><time>2026-03-29T06:00:59.009Z</time></trkpt><trkpt lat="41.91393068128234" lon="15.893913696340002"><ele>264.0</ele><time>2026-03-29T06:01:00.009Z</time></trkpt><trkpt lat="41.91399303158996" lon="15.894026011526204"><ele>264.0</ele><time>2026-03-29T06:01:01.009Z</time></trkpt><trkpt lat="41.91403935295344" lon="15.89417859026199"><ele>263.3333333333333</ele><time>2026-03-29T06:01:02.01Z</time></trkpt><trkpt lat="41.91407652217993" lon="15.894356530017863"><ele>262.66666666666663</ele><time>2026-03-29T06:01:03.01Z</time></trkpt><trkpt lat="41.914157934895115" lon="15.894557999560428"><ele>262.0</ele><time>2026-03-29T06:01:04.01Z</time></trkpt><trkpt lat="41.91422999289362" lon="15.894740300239377"><ele>263.5</ele><time>2026-03-29T06:01:05.01Z</time></trkpt><trkpt lat="41.91430742117407" lon="15.89489768142926"><ele>265.0</ele><time>2026-03-29T06:01:06.01Z</time></trkpt><trkpt lat="41.91436779515748" lon="15.895002710394294"><ele>266.5</ele><time>2026-03-29T06:01:07.01Z</time></trkpt><trkpt lat="41.91446747261806" lon="15.895110052103945"><ele>268.0</ele><time>2026-03-29T06:01:08.01Z</time></trkpt><trkpt lat="41.91458234351856" lon="15.895204766066673"><ele>268.0</ele><time>2026-03-29T06:01:09.01Z</time></trkpt><trkpt lat="41.91467662712419" lon="15.895287387960304"><ele>268.0</ele><time>2026-03-29T06:01:10.01Z</time></trkpt><trkpt lat="41.91476053507954" lon="15.895424031991082"><ele>268.0</ele><time>2026-03-29T06:01:11.01Z</time></trkpt><trkpt lat="41.91483089938364" lon="15.895585101094383"><ele>268.0</ele><time>2026-03-29T06:01:12.01Z</time></trkpt><trkpt lat="41.914894891099856" lon="15.895769654370037"><ele>268.25</ele><time>2026-03-29T06:01:13.01Z</time></trkpt><trkpt lat="41.91495641367594" lon="15.895950949795248"><ele>268.5</ele><time>2026-03-29T06:01:14.01Z</time></trkpt><trkpt lat="41.914999377598264" lon="15.896121904040992"><ele>268.75</ele><time>2026-03-29T06:01:15.01Z</time></trkpt><trkpt lat="41.9150090702279" lon="15.896284837248837"><ele>269.0</ele><time>2026-03-29T06:01:16.01Z</time></trkpt><trkpt lat="41.91498652499209" lon="15.89644896568738"><ele>269.0</ele><time>2026-03-29T06:01:17.01Z</time></trkpt><trkpt lat="41.91493776352792" lon="15.896631965910208"><ele>269.0</ele><time>2026-03-29T06:01:18.01Z</time></trkpt><trkpt lat="41.91491720674485" lon="15.896832428343172"><ele>269.0</ele><time>2026-03-29T06:01:19.01Z</time></trkpt><trkpt lat="41.91488868587828" lon="15.897060123904014"><ele>270.33333333333337</ele><time>2026-03-29T06:01:20.01Z</time></trkpt><trkpt lat="41.91485325444114" lon="15.897279197626839"><ele>271.6666666666667</ele><time>2026-03-29T06:01:21.01Z</time></trkpt><trkpt lat="41.91482628162846" lon="15.897503700154394"><ele>273.0</ele><time>2026-03-29T06:01:22.01Z</time></trkpt><trkpt lat="41.91477418659189" lon="15.897744717559243"><ele>275.0</ele><time>2026-03-29T06:01:23.01Z</time></trkpt><trkpt lat="41.91472590813661" lon="15.897998501318266"><ele>277.0</ele><time>2026-03-29T06:01:24.01Z</time></trkpt><trkpt lat="41.91467175801752" lon="15.89827826611466"><ele>279.0</ele><time>2026-03-29T06:01:25.01Z</time></trkpt><trkpt lat="41.91463218821204" lon="15.898503040169503"><ele>279.6666666666667</ele><time>2026-03-29T06:01:26.01Z</time></trkpt><trkpt lat="41.91461567035914" lon="15.898717247640189"><ele>280.33333333333337</ele><time>2026-03-29T06:01:27.01Z</time></trkpt><trkpt lat="41.914579264921954" lon="15.898960168693902"><ele>281.0</ele><time>2026-03-29T06:01:28.01Z</time></trkpt><trkpt lat="41.914522511717976" lon="15.8991552512637"><ele>279.33333333333337</ele><time>2026-03-29T06:01:29.01Z</time></trkpt><trkpt lat="41.91444552995427" lon="15.899335406482942"><ele>277.6666666666667</ele><time>2026-03-29T06:01:30.01Z</time></trkpt><trkpt lat="41.914363109056445" lon="15.899510541634308"><ele>276.0</ele><time>2026-03-29T06:01:31.01Z</time></trkpt><trkpt lat="41.914287653374416" lon="15.899677408855824"><ele>277.0</ele><time>2026-03-29T06:01:32.01Z</time></trkpt><trkpt lat="41.91420682009399" lon="15.899850274993275"><ele>278.0</ele><time>2026-03-29T06:01:33.01Z</time></trkpt><trkpt lat="41.91413070717876" lon="15.899982378732535"><ele>279.0</ele><time>2026-03-29T06:01:34.01Z</time></trkpt><trkpt lat="41.914072490723925" lon="15.900133621940078"><ele>280.0</ele><time>2026-03-29T06:01:35.01Z</time></trkpt><trkpt lat="41.914011033730276" lon="15.900279545321386"><ele>280.0</ele><time>2026-03-29T06:01:36.01Z</time></trkpt><trkpt lat="41.91394952199631" lon="15.900457221219893"><ele>280.0</ele><time>2026-03-29T06:01:37.01Z</time></trkpt><trkpt lat="41.91389234101616" lon="15.900641042528424"><ele>280.0</ele><time>2026-03-29T06:01:38.01Z</time></trkpt><trkpt lat="41.913863140048846" lon="15.90085322973221"><ele>279.0</ele><time>2026-03-29T06:01:39.01Z</time></trkpt><trkpt lat="41.91382460781739" lon="15.901046061266133"><ele>278.0</ele><time>2026-03-29T06:01:40.01Z</time></trkpt><trkpt lat="41.91379734986697" lon="15.901234851393637"><ele>277.0</ele><time>2026-03-29T06:01:41.01Z</time></trkpt><trkpt lat="41.913792895206655" lon="15.901422515780062"><ele>276.0</ele><time>2026-03-29T06:01:42.01Z</time></trkpt><trkpt lat="41.91381336833702" lon="15.901597256635892"><ele>275.75</ele><time>2026-03-29T06:01:43.01Z</time></trkpt><trkpt lat="41.913860265060265" lon="15.901771130087617"><ele>275.5</ele><time>2026-03-29T06:01:44.01Z</time></trkpt><trkpt lat="41.913918657243286" lon="15.901924107031203"><ele>275.25</ele><time>2026-03-29T06:01:45.01Z</time></trkpt><trkpt lat="41.913969237538055" lon="15.902076198854639"><ele>275.0</ele><time>2026-03-29T06:01:46.01Z</time></trkpt><trkpt lat="41.913997297089935" lon="15.902228079632536"><ele>275.0</ele><time>2026-03-29T06:01:47.01Z</time></trkpt><trkpt lat="41.91400112376786" lon="15.902401985723658"><ele>275.0</ele><time>2026-03-29T06:01:48.01Z</time></trkpt><trkpt lat="41.91401675237609" lon="15.902623998344389"><ele>275.0</ele><time>2026-03-29T06:01:49.01Z</time></trkpt><trkpt lat="41.91399768038557" lon="15.902876935296845"><ele>272.33333333333337</ele><time>2026-03-29T06:01:50.01Z</time></trkpt><trkpt lat="41.913987597545834" lon="15.90312183169078"><ele>269.6666666666667</ele><time>2026-03-29T06:01:51.01Z</time></trkpt><trkpt lat="41.913967999267314" lon="15.903355033135117"><ele>267.0</ele><time>2026-03-29T06:01:52.01Z</time></trkpt><trkpt lat="41.91395675104941" lon="15.903546566598315"><ele>266.0</ele><time>2026-03-29T06:01:53.01Z</time></trkpt><trkpt lat="41.913930975121104" lon="15.903712735137907"><ele>265.0</ele><time>2026-03-29T06:01:54.01Z</time></trkpt><trkpt lat="41.913901455156996" lon="15.903864040257915"><ele>264.0</ele><time>2026-03-29T06:01:55.01Z</time></trkpt><trkpt lat="41.91391248137919" lon="15.9040172015579"><ele>263.0</ele><time>2026-03-29T06:01:56.01Z</time></trkpt><trkpt lat="41.91390303911883" lon="15.904138484462269"><ele>262.0</ele><time>2026-03-29T06:01:57.01Z</time></trkpt><trkpt lat="41.91391133477954" lon="15.904281401363647"><ele>261.4</ele><time>2026-03-29T06:01:58.01Z</time></trkpt><trkpt lat="41.9139288746734" lon="15.904402659282306"><ele>260.79999999999995</ele><time>2026-03-29T06:01:59.01Z</time></trkpt><trkpt lat="41.91395954967358" lon="15.904530121353824"><ele>260.2</ele><time>2026-03-29T06:02:00.01Z</time></trkpt><trkpt lat="41.91397795084612" lon="15.904663384412466"><ele>259.59999999999997</ele><time>2026-03-29T06:02:01.011Z</time></trkpt><trkpt lat="41.91397700297685" lon="15.904818072291233"><ele>259.0</ele><time>2026-03-29T06:02:02.011Z</time></trkpt><trkpt lat="41.913966974699" lon="15.904934210866935"><ele>259.0</ele><time>2026-03-29T06:02:03.011Z</time></trkpt><trkpt lat="41.91396613076483" lon="15.905030217493461"><ele>259.0</ele><time>2026-03-29T06:02:04.011Z</time></trkpt><trkpt lat="41.914038355287445" lon="15.905119892140323"><ele>259.0</ele><time>2026-03-29T06:02:06.011Z</time></trkpt><trkpt lat="41.91409834222738" lon="15.905156214261993"><ele>259.0</ele><time>2026-03-29T06:02:07.011Z</time></trkpt><trkpt lat="41.91421395109507" lon="15.905174660581514"><ele>259.0</ele><time>2026-03-29T06:02:08.011Z</time></trkpt><trkpt lat="41.91435526859328" lon="15.905232651118201"><ele>262.5</ele><time>2026-03-29T06:02:09.011Z</time></trkpt><trkpt lat="41.91450336530034" lon="15.90530313852431"><ele>266.0</ele><time>2026-03-29T06:02:10.011Z</time></trkpt><trkpt lat="41.91462916435679" lon="15.905393394207554"><ele>269.5</ele><time>2026-03-29T06:02:11.011Z</time></trkpt><trkpt lat="41.914733289670686" lon="15.90550031851501"><ele>273.0</ele><time>2026-03-29T06:02:12.011Z</time></trkpt><trkpt lat="41.91483896729173" lon="15.905624568195531"><ele>273.0</ele><time>2026-03-29T06:02:13.011Z</time></trkpt><trkpt lat="41.914934942874964" lon="15.905760316608"><ele>273.0</ele><time>2026-03-29T06:02:14.011Z</time></trkpt><trkpt lat="41.91502066123398" lon="15.905845807232708"><ele>273.0</ele><time>2026-03-29T06:02:15.011Z</time></trkpt><trkpt lat="41.91509331891951" lon="15.905926874599139"><ele>273.0</ele><time>2026-03-29T06:02:16.011Z</time></trkpt><trkpt lat="41.91509587545372" lon="15.906070129069116"><ele>273.0</ele><time>2026-03-29T06:02:18.011Z</time></trkpt><trkpt lat="41.91505906502772" lon="15.906214631243492"><ele>274.4</ele><time>2026-03-29T06:02:20.011Z</time></trkpt><trkpt lat="41.91502472898002" lon="15.906327593484582"><ele>275.8</ele><time>2026-03-29T06:02:21.011Z</time></trkpt><trkpt lat="41.914974410610256" lon="15.906462032594284"><ele>277.2</ele><time>2026-03-29T06:02:22.011Z</time></trkpt><trkpt lat="41.91494199953309" lon="15.906607762050061"><ele>278.6</ele><time>2026-03-29T06:02:23.011Z</time></trkpt><trkpt lat="41.914933460559986" lon="15.90677308622028"><ele>280.0</ele><time>2026-03-29T06:02:24.011Z</time></trkpt><trkpt lat="41.91492812993702" lon="15.90694016831252"><ele>282.66666666666663</ele><time>2026-03-29T06:02:25.011Z</time></trkpt><trkpt lat="41.914927648941216" lon="15.907133479275554"><ele>285.3333333333333</ele><time>2026-03-29T06:02:26.011Z</time></trkpt><trkpt lat="41.914933110740165" lon="15.907353536462953"><ele>288.0</ele><time>2026-03-29T06:02:27.011Z</time></trkpt><trkpt lat="41.9149309173428" lon="15.907578140154396"><ele>290.6666666666667</ele><time>2026-03-29T06:02:28.011Z</time></trkpt><trkpt lat="41.914932224030196" lon="15.907803184357489"><ele>293.33333333333337</ele><time>2026-03-29T06:02:29.011Z</time></trkpt><trkpt lat="41.9149598939956" lon="15.907997246493242"><ele>296.0</ele><time>2026-03-29T06:02:30.011Z</time></trkpt><trkpt lat="41.91498441717257" lon="15.908183209434732"><ele>296.0</ele><time>2026-03-29T06:02:31.011Z</time></trkpt><trkpt lat="41.91497990036063" lon="15.908366758543385"><ele>296.0</ele><time>2026-03-29T06:02:32.011Z</time></trkpt><trkpt lat="41.91497305303991" lon="15.908550165675969"><ele>296.0</ele><time>2026-03-29T06:02:33.011Z</time></trkpt><trkpt lat="41.91496653667216" lon="15.9087713324394"><ele>296.0</ele><time>2026-03-29T06:02:34.011Z</time></trkpt><trkpt lat="41.914950210792746" lon="15.908980424551945"><ele>296.0</ele><time>2026-03-29T06:02:35.011Z</time></trkpt><trkpt lat="41.914934795511684" lon="15.909172863582555"><ele>296.0</ele><time>2026-03-29T06:02:36.011Z</time></trkpt><trkpt lat="41.91492929242077" lon="15.909367139590312"><ele>296.0</ele><time>2026-03-29T06:02:37.011Z</time></trkpt><trkpt lat="41.91492828659778" lon="15.909573339613061"><ele>296.0</ele><time>2026-03-29T06:02:38.011Z</time></trkpt><trkpt lat="41.914948714295946" lon="15.909772937554607"><ele>296.0</ele><time>2026-03-29T06:02:39.011Z</time></trkpt><trkpt lat="41.914948212767555" lon="15.909970647119518"><ele>296.0</ele><time>2026-03-29T06:02:40.011Z</time></trkpt><trkpt lat="41.91495761320102" lon="15.91015416143593"><ele>296.0</ele><time>2026-03-29T06:02:41.011Z</time></trkpt><trkpt lat="41.91495452464782" lon="15.91032641918728"><ele>296.0</ele><time>2026-03-29T06:02:42.011Z</time></trkpt><trkpt lat="41.91496374741856" lon="15.910490194013738"><ele>295.75</ele><time>2026-03-29T06:02:43.011Z</time></trkpt><trkpt lat="41.91494998241439" lon="15.910673921052668"><ele>295.5</ele><time>2026-03-29T06:02:44.011Z</time></trkpt><trkpt lat="41.914893761106306" lon="15.910844693419083"><ele>295.25</ele><time>2026-03-29T06:02:45.011Z</time></trkpt><trkpt lat="41.91481791531335" lon="15.911016808828418"><ele>295.0</ele><time>2026-03-29T06:02:46.011Z</time></trkpt><trkpt lat="41.91475573770374" lon="15.911186927444938"><ele>295.5</ele><time>2026-03-29T06:02:47.011Z</time></trkpt><trkpt lat="41.91466090702868" lon="15.911360111537949"><ele>296.0</ele><time>2026-03-29T06:02:48.011Z</time></trkpt><trkpt lat="41.91457049705307" lon="15.911510269568508"><ele>296.5</ele><time>2026-03-29T06:02:49.011Z</time></trkpt><trkpt lat="41.91446751879712" lon="15.911632701787676"><ele>297.0</ele><time>2026-03-29T06:02:50.011Z</time></trkpt><trkpt lat="41.91437629429945" lon="15.911753940086124"><ele>296.0</ele><time>2026-03-29T06:02:51.011Z</time></trkpt><trkpt lat="41.914301238749644" lon="15.911878307814014"><ele>295.0</ele><time>2026-03-29T06:02:52.011Z</time></trkpt><trkpt lat="41.91422970184425" lon="15.912031323389343"><ele>294.0</ele><time>2026-03-29T06:02:53.011Z</time></trkpt><trkpt lat="41.91417045605815" lon="15.912202193198116"><ele>293.0</ele><time>2026-03-29T06:02:54.011Z</time></trkpt><trkpt lat="41.914117061250025" lon="15.912386952352252"><ele>295.25</ele><time>2026-03-29T06:02:55.011Z</time></trkpt><trkpt lat="41.91407811944678" lon="15.912556028765119"><ele>297.5</ele><time>2026-03-29T06:02:56.011Z</time></trkpt><trkpt lat="41.914054729493245" lon="15.912731641876665"><ele>299.75</ele><time>2026-03-29T06:02:57.011Z</time></trkpt><trkpt lat="41.91403703707364" lon="15.91289434573348"><ele>302.0</ele><time>2026-03-29T06:02:58.011Z</time></trkpt><trkpt lat="41.91402033728885" lon="15.913059920852202"><ele>302.0</ele><time>2026-03-29T06:02:59.011Z</time></trkpt><trkpt lat="41.91399394346648" lon="15.91320630409482"><ele>302.0</ele><time>2026-03-29T06:03:00.012Z</time></trkpt><trkpt lat="41.91394181517781" lon="15.913332997924037"><ele>302.0</ele><time>2026-03-29T06:03:01.012Z</time></trkpt><trkpt lat="41.91389005238069" lon="15.913442541251609"><ele>302.0</ele><time>2026-03-29T06:03:02.012Z</time></trkpt><trkpt lat="41.9138505054599" lon="15.913549911279738"><ele>302.0</ele><time>2026-03-29T06:03:03.012Z</time></trkpt><trkpt lat="41.91382586122818" lon="15.913647777621167"><ele>300.8</ele><time>2026-03-29T06:03:04.012Z</time></trkpt><trkpt lat="41.91381149240378" lon="15.91376067473357"><ele>299.6</ele><time>2026-03-29T06:03:05.012Z</time></trkpt><trkpt lat="41.913808268892744" lon="15.913881592549085"><ele>298.40000000000003</ele><time>2026-03-29T06:03:06.012Z</time></trkpt><trkpt lat="41.91380240040672" lon="15.914020259215265"><ele>297.2</ele><time>2026-03-29T06:03:07.012Z</time></trkpt><trkpt lat="41.91379758392726" lon="15.914171689206242"><ele>296.0</ele><time>2026-03-29T06:03:08.012Z</time></trkpt><trkpt lat="41.91379982727668" lon="15.914318068294165"><ele>295.5</ele><time>2026-03-29T06:03:09.012Z</time></trkpt><trkpt lat="41.913793922680135" lon="15.91444445848157"><ele>295.0</ele><time>2026-03-29T06:03:10.012Z</time></trkpt><trkpt lat="41.9137952023203" lon="15.914556857493782"><ele>294.5</ele><time>2026-03-29T06:03:11.012Z</time></trkpt><trkpt lat="41.91382344293463" lon="15.914673390464008"><ele>294.0</ele><time>2026-03-29T06:03:13.012Z</time></trkpt><trkpt lat="41.91389937696748" lon="15.914705660651473"><ele>293.5</ele><time>2026-03-29T06:03:15.012Z</time></trkpt><trkpt lat="41.91388708350569" lon="15.914813878154462"><ele>293.0</ele><time>2026-03-29T06:03:17.012Z</time></trkpt><trkpt lat="41.913921803938436" lon="15.914894109901757"><ele>293.0</ele><time>2026-03-29T06:03:49.012Z</time></trkpt><trkpt lat="41.913904853730244" lon="15.914984854232507"><ele>293.0</ele><time>2026-03-29T06:03:52.012Z</time></trkpt><trkpt lat="41.91386180529701" lon="15.915087913606314"><ele>293.0</ele><time>2026-03-29T06:03:54.012Z</time></trkpt><trkpt lat="41.91381271626425" lon="15.915268117232404"><ele>293.0</ele><time>2026-03-29T06:03:55.012Z</time></trkpt><trkpt lat="41.91376306814397" lon="15.915412935351721"><ele>293.0</ele><time>2026-03-29T06:03:56.012Z</time></trkpt><trkpt lat="41.91372258463676" lon="15.915553153588656"><ele>292.5</ele><time>2026-03-29T06:03:57.012Z</time></trkpt><trkpt lat="41.91368202982708" lon="15.915638165446147"><ele>292.0</ele><time>2026-03-29T06:03:58.012Z</time></trkpt><trkpt lat="41.91363837228065" lon="15.915713164001552"><ele>291.5</ele><time>2026-03-29T06:03:59.013Z</time></trkpt><trkpt lat="41.913616860777665" lon="15.915798242302234"><ele>291.0</ele><time>2026-03-29T06:04:00.013Z</time></trkpt><trkpt lat="41.913629181403465" lon="15.91589263774135"><ele>290.5</ele><time>2026-03-29T06:04:38.013Z</time></trkpt><trkpt lat="41.91361627218025" lon="15.916042907276692"><ele>290.0</ele><time>2026-03-29T06:04:40.013Z</time></trkpt><trkpt lat="41.91359414519405" lon="15.91613996586137"><ele>289.8</ele><time>2026-03-29T06:04:42.013Z</time></trkpt><trkpt lat="41.91354909145216" lon="15.916222113112067"><ele>289.6</ele><time>2026-03-29T06:04:46.013Z</time></trkpt><trkpt lat="41.91352010567694" lon="15.91630675486638"><ele>289.4</ele><time>2026-03-29T06:04:49.013Z</time></trkpt><trkpt lat="41.91345378801805" lon="15.91644531231521"><ele>289.2</ele><time>2026-03-29T06:04:52.013Z</time></trkpt><trkpt lat="41.91340691456194" lon="15.916556343033186"><ele>289.0</ele><time>2026-03-29T06:04:53.013Z</time></trkpt><trkpt lat="41.91334338774973" lon="15.916681525302668"><ele>293.0</ele><time>2026-03-29T06:04:54.013Z</time></trkpt><trkpt lat="41.91328641930191" lon="15.916819745254482"><ele>297.0</ele><time>2026-03-29T06:04:55.013Z</time></trkpt><trkpt lat="41.91326018268608" lon="15.916963323232576"><ele>301.0</ele><time>2026-03-29T06:04:56.013Z</time></trkpt><trkpt lat="41.913253453431004" lon="15.917116503029154"><ele>305.0</ele><time>2026-03-29T06:04:57.014Z</time></trkpt><trkpt lat="41.91327613405331" lon="15.917288568176144"><ele>305.0</ele><time>2026-03-29T06:04:58.014Z</time></trkpt><trkpt lat="41.91330981181273" lon="15.917465385729352"><ele>305.0</ele><time>2026-03-29T06:04:59.014Z</time></trkpt><trkpt lat="41.91333379702157" lon="15.91763357743657"><ele>305.0</ele><time>2026-03-29T06:05:00.014Z</time></trkpt><trkpt lat="41.913344052423085" lon="15.917763743898655"><ele>305.0</ele><time>2026-03-29T06:05:01.014Z</time></trkpt><trkpt lat="41.91335035000109" lon="15.917872313982924"><ele>305.0</ele><time>2026-03-29T06:05:02.014Z</time></trkpt><trkpt lat="41.91340710919145" lon="15.917949170458376"><ele>302.75</ele><time>2026-03-29T06:05:04.014Z</time></trkpt><trkpt lat="41.91352552812217" lon="15.917946347839395"><ele>300.5</ele><time>2026-03-29T06:05:06.014Z</time></trkpt><trkpt lat="41.91365152261294" lon="15.917920677728407"><ele>298.25</ele><time>2026-03-29T06:05:07.014Z</time></trkpt><trkpt lat="41.91376333843761" lon="15.917899087431545"><ele>296.0</ele><time>2026-03-29T06:05:08.014Z</time></trkpt><trkpt lat="41.913862497150845" lon="15.917874221489305"><ele>296.0</ele><time>2026-03-29T06:05:09.014Z</time></trkpt><trkpt lat="41.913944365415134" lon="15.917817863694152"><ele>296.0</ele><time>2026-03-29T06:05:10.014Z</time></trkpt><trkpt lat="41.91401331813254" lon="15.917739895226402"><ele>296.0</ele><time>2026-03-29T06:05:11.014Z</time></trkpt><trkpt lat="41.914084231585065" lon="15.917670162941254"><ele>296.0</ele><time>2026-03-29T06:05:12.014Z</time></trkpt><trkpt lat="41.91416122460398" lon="15.917603976764394"><ele>296.0</ele><time>2026-03-29T06:05:13.014Z</time></trkpt><trkpt lat="41.91423590895839" lon="15.917557800945866"><ele>296.0</ele><time>2026-03-29T06:05:14.014Z</time></trkpt><trkpt lat="41.91432670405058" lon="15.917519778199292"><ele>292.5</ele><time>2026-03-29T06:05:15.014Z</time></trkpt><trkpt lat="41.91443136941433" lon="15.917491159095707"><ele>289.0</ele><time>2026-03-29T06:05:16.014Z</time></trkpt><trkpt lat="41.914551293504566" lon="15.917483772346602"><ele>285.5</ele><time>2026-03-29T06:05:17.014Z</time></trkpt><trkpt lat="41.9146775289529" lon="15.91748054078151"><ele>282.0</ele><time>2026-03-29T06:05:18.014Z</time></trkpt><trkpt lat="41.914805473160115" lon="15.917460292453594"><ele>282.0</ele><time>2026-03-29T06:05:19.014Z</time></trkpt><trkpt lat="41.914925218026305" lon="15.91744967227548"><ele>282.0</ele><time>2026-03-29T06:05:20.014Z</time></trkpt><trkpt lat="41.91504843352899" lon="15.917449710845242"><ele>282.0</ele><time>2026-03-29T06:05:21.014Z</time></trkpt><trkpt lat="41.9151423301413" lon="15.917451483829899"><ele>282.0</ele><time>2026-03-29T06:05:22.014Z</time></trkpt><trkpt lat="41.915220900892265" lon="15.917458800317187"><ele>282.0</ele><time>2026-03-29T06:05:23.014Z</time></trkpt><trkpt lat="41.915294409686055" lon="15.917471849124635"><ele>279.4</ele><time>2026-03-29T06:05:24.014Z</time></trkpt><trkpt lat="41.915388080761275" lon="15.917522130998275"><ele>276.79999999999995</ele><time>2026-03-29T06:05:26.014Z</time></trkpt><trkpt lat="41.9154458822078" lon="15.917657074998782"><ele>274.2</ele><time>2026-03-29T06:05:28.014Z</time></trkpt><trkpt lat="41.915445694654686" lon="15.917775504716035"><ele>271.59999999999997</ele><time>2026-03-29T06:05:29.014Z</time></trkpt><trkpt lat="41.915421367977245" lon="15.91788042129537"><ele>269.0</ele><time>2026-03-29T06:05:30.014Z</time></trkpt><trkpt lat="41.915397232852676" lon="15.917974100479295"><ele>266.5</ele><time>2026-03-29T06:05:31.014Z</time></trkpt><trkpt lat="41.91536035816061" lon="15.9180834884271"><ele>264.0</ele><time>2026-03-29T06:05:32.014Z</time></trkpt><trkpt lat="41.91533100423373" lon="15.918197180964084"><ele>261.5</ele><time>2026-03-29T06:05:33.014Z</time></trkpt><trkpt lat="41.91531125079824" lon="15.918299811529897"><ele>259.0</ele><time>2026-03-29T06:05:34.014Z</time></trkpt><trkpt lat="41.91530471144441" lon="15.918428710246038"><ele>256.5</ele><time>2026-03-29T06:05:35.014Z</time></trkpt><trkpt lat="41.9153027138403" lon="15.918551687692347"><ele>254.0</ele><time>2026-03-29T06:05:36.014Z</time></trkpt><trkpt lat="41.915292247848164" lon="15.918677914455095"><ele>250.2</ele><time>2026-03-29T06:05:37.014Z</time></trkpt><trkpt lat="41.915273996013994" lon="15.9187973403688"><ele>246.39999999999998</ele><time>2026-03-29T06:05:38.014Z</time></trkpt><trkpt lat="41.915254337288566" lon="15.91893606554321"><ele>242.6</ele><time>2026-03-29T06:05:39.014Z</time></trkpt><trkpt lat="41.915239438140745" lon="15.919055452961354"><ele>238.8</ele><time>2026-03-29T06:05:40.014Z</time></trkpt><trkpt lat="41.9152037348056" lon="15.919190531497142"><ele>235.0</ele><time>2026-03-29T06:05:41.014Z</time></trkpt><trkpt lat="41.91516545455106" lon="15.919308294404932"><ele>234.8</ele><time>2026-03-29T06:05:42.014Z</time></trkpt><trkpt lat="41.91510615926969" lon="15.919411622084873"><ele>234.6</ele><time>2026-03-29T06:05:43.014Z</time></trkpt><trkpt lat="41.915066275916224" lon="15.919484661889259"><ele>234.39999999999998</ele><time>2026-03-29T06:05:44.014Z</time></trkpt><trkpt lat="41.915011089572616" lon="15.919598864973164"><ele>234.2</ele><time>2026-03-29T06:05:45.014Z</time></trkpt><trkpt lat="41.9149567615911" lon="15.91971571188764"><ele>234.0</ele><time>2026-03-29T06:05:46.014Z</time></trkpt><trkpt lat="41.91492046295223" lon="15.919820153218266"><ele>236.6</ele><time>2026-03-29T06:05:47.014Z</time></trkpt><trkpt lat="41.914901154776885" lon="15.919928682571658"><ele>239.2</ele><time>2026-03-29T06:05:48.014Z</time></trkpt><trkpt lat="41.91487083223454" lon="15.92005831271196"><ele>241.79999999999998</ele><time>2026-03-29T06:05:49.014Z</time></trkpt><trkpt lat="41.91485675311778" lon="15.920184786300721"><ele>244.39999999999998</ele><time>2026-03-29T06:05:50.014Z</time></trkpt><trkpt lat="41.91483511623129" lon="15.920286830763272"><ele>247.0</ele><time>2026-03-29T06:05:51.014Z</time></trkpt><trkpt lat="41.91480715129219" lon="15.920404581506578"><ele>247.2</ele><time>2026-03-29T06:05:52.014Z</time></trkpt><trkpt lat="41.91478468240604" lon="15.920531247251597"><ele>247.39999999999998</ele><time>2026-03-29T06:05:53.014Z</time></trkpt><trkpt lat="41.91478682172815" lon="15.920674788462666"><ele>247.60000000000002</ele><time>2026-03-29T06:05:54.014Z</time></trkpt><trkpt lat="41.914799765972795" lon="15.920789365358006"><ele>247.8</ele><time>2026-03-29T06:05:55.014Z</time></trkpt><trkpt lat="41.91483548053852" lon="15.920898518451633"><ele>248.0</ele><time>2026-03-29T06:05:56.015Z</time></trkpt><trkpt lat="41.914901471895014" lon="15.921014577452766"><ele>249.4</ele><time>2026-03-29T06:05:57.015Z</time></trkpt><trkpt lat="41.91498415259048" lon="15.921143925047764"><ele>250.8</ele><time>2026-03-29T06:05:58.015Z</time></trkpt><trkpt lat="41.91506061170893" lon="15.921260621332232"><ele>252.2</ele><time>2026-03-29T06:05:59.015Z</time></trkpt><trkpt lat="41.915108958876516" lon="15.921345854928934"><ele>253.6</ele><time>2026-03-29T06:06:00.015Z</time></trkpt><trkpt lat="41.91517596985427" lon="15.921364547546325"><ele>255.0</ele><time>2026-03-29T06:06:02.015Z</time></trkpt><trkpt lat="41.91523434274153" lon="15.921223140459338"><ele>252.2</ele><time>2026-03-29T06:06:04.015Z</time></trkpt><trkpt lat="41.91528047127981" lon="15.921126805578632"><ele>249.4</ele><time>2026-03-29T06:06:05.015Z</time></trkpt><trkpt lat="41.91533991367938" lon="15.92103637156065"><ele>246.60000000000002</ele><time>2026-03-29T06:06:06.015Z</time></trkpt><trkpt lat="41.91542824132098" lon="15.920941843306128"><ele>243.8</ele><time>2026-03-29T06:06:07.015Z</time></trkpt><trkpt lat="41.915500950504196" lon="15.920872536912908"><ele>241.0</ele><time>2026-03-29T06:06:08.015Z</time></trkpt><trkpt lat="41.91556904679568" lon="15.920805227828705"><ele>240.99999999999997</ele><time>2026-03-29T06:06:09.015Z</time></trkpt><trkpt lat="41.91562156302754" lon="15.920742248896289"><ele>241.0</ele><time>2026-03-29T06:06:10.015Z</time></trkpt><trkpt lat="41.91567983004757" lon="15.92067279642116"><ele>241.0</ele><time>2026-03-29T06:06:11.015Z</time></trkpt><trkpt lat="41.91573551909268" lon="15.920576451510499"><ele>241.0</ele><time>2026-03-29T06:06:12.015Z</time></trkpt><trkpt lat="41.91578457768458" lon="15.920504051806027"><ele>240.99999999999997</ele><time>2026-03-29T06:06:13.015Z</time></trkpt><trkpt lat="41.91585081464975" lon="15.92044548780587"><ele>241.0</ele><time>2026-03-29T06:06:14.015Z</time></trkpt><trkpt lat="41.91591080525248" lon="15.92040337596341"><ele>239.83333333333331</ele><time>2026-03-29T06:06:15.015Z</time></trkpt><trkpt lat="41.91597567781892" lon="15.9203412590831"><ele>238.66666666666666</ele><time>2026-03-29T06:06:16.015Z</time></trkpt><trkpt lat="41.916057420605206" lon="15.920268188157008"><ele>237.5</ele><time>2026-03-29T06:06:17.015Z</time></trkpt><trkpt lat="41.91614254107446" lon="15.920207781574044"><ele>236.33333333333331</ele><time>2026-03-29T06:06:18.015Z</time></trkpt><trkpt lat="41.916214268876246" lon="15.920153311357602"><ele>235.16666666666666</ele><time>2026-03-29T06:06:19.015Z</time></trkpt><trkpt lat="41.916290457308214" lon="15.920109643814378"><ele>234.0</ele><time>2026-03-29T06:06:20.015Z</time></trkpt><trkpt lat="41.91636605773889" lon="15.920075147577528"><ele>233.0</ele><time>2026-03-29T06:06:21.015Z</time></trkpt><trkpt lat="41.916423139693826" lon="15.920028856750577"><ele>232.0</ele><time>2026-03-29T06:06:22.015Z</time></trkpt><trkpt lat="41.916500474155846" lon="15.919953064884346"><ele>231.0</ele><time>2026-03-29T06:06:24.015Z</time></trkpt><trkpt lat="41.91656025694999" lon="15.91988037623151"><ele>230.0</ele><time>2026-03-29T06:06:26.015Z</time></trkpt><trkpt lat="41.91662278098892" lon="15.919782580505718"><ele>229.0</ele><time>2026-03-29T06:06:28.015Z</time></trkpt><trkpt lat="41.91666273505317" lon="15.919705854822377"><ele>228.0</ele><time>2026-03-29T06:06:29.015Z</time></trkpt><trkpt lat="41.91670158388018" lon="15.919605387732165"><ele>226.66666666666666</ele><time>2026-03-29T06:06:30.015Z</time></trkpt><trkpt lat="41.91675297057106" lon="15.919502538163975"><ele>225.33333333333331</ele><time>2026-03-29T06:06:31.015Z</time></trkpt><trkpt lat="41.91681405042354" lon="15.919414201122366"><ele>224.0</ele><time>2026-03-29T06:06:32.015Z</time></trkpt><trkpt lat="41.91687562166678" lon="15.919340329350833"><ele>222.66666666666666</ele><time>2026-03-29T06:06:33.015Z</time></trkpt><trkpt lat="41.91694478981927" lon="15.919266877876389"><ele>221.33333333333331</ele><time>2026-03-29T06:06:34.015Z</time></trkpt><trkpt lat="41.91701181818907" lon="15.919189660634165"><ele>220.0</ele><time>2026-03-29T06:06:35.015Z</time></trkpt><trkpt lat="41.917056528046416" lon="15.91912425386273"><ele>218.4</ele><time>2026-03-29T06:06:36.015Z</time></trkpt><trkpt lat="41.91712537989526" lon="15.918986227746434"><ele>216.8</ele><time>2026-03-29T06:06:38.015Z</time></trkpt><trkpt lat="41.91720256314445" lon="15.918842441412112"><ele>215.2</ele><time>2026-03-29T06:06:40.015Z</time></trkpt><trkpt lat="41.91725582530921" lon="15.91876244891674"><ele>213.6</ele><time>2026-03-29T06:06:41.015Z</time></trkpt><trkpt lat="41.917292593712205" lon="15.918683666268931"><ele>212.0</ele><time>2026-03-29T06:06:42.015Z</time></trkpt><trkpt lat="41.91733558837648" lon="15.918601212422974"><ele>212.00000000000003</ele><time>2026-03-29T06:06:43.015Z</time></trkpt><trkpt lat="41.9173972986597" lon="15.9185271505998"><ele>212.0</ele><time>2026-03-29T06:06:44.015Z</time></trkpt><trkpt lat="41.917493207952624" lon="15.918476822332613"><ele>212.0</ele><time>2026-03-29T06:06:45.015Z</time></trkpt><trkpt lat="41.91756601115272" lon="15.918457766945156"><ele>212.0</ele><time>2026-03-29T06:06:46.015Z</time></trkpt><trkpt lat="41.917665799251765" lon="15.918463381657125"><ele>212.00000000000003</ele><time>2026-03-29T06:06:48.015Z</time></trkpt><trkpt lat="41.91773876439755" lon="15.918474053099557"><ele>212.0</ele><time>2026-03-29T06:07:01.016Z</time></trkpt><trkpt lat="41.91783495677142" lon="15.918551091455534"><ele>207.0</ele><time>2026-03-29T06:07:03.016Z</time></trkpt><trkpt lat="41.91787742291746" lon="15.91862345681641"><ele>202.0</ele><time>2026-03-29T06:07:04.016Z</time></trkpt><trkpt lat="41.91788395237988" lon="15.918726235744106"><ele>197.0</ele><time>2026-03-29T06:07:05.016Z</time></trkpt><trkpt lat="41.91787687850999" lon="15.918859676456178"><ele>192.0</ele><time>2026-03-29T06:07:06.016Z</time></trkpt><trkpt lat="41.917869569755" lon="15.919036701342085"><ele>187.0</ele><time>2026-03-29T06:07:07.016Z</time></trkpt><trkpt lat="41.9178738377941" lon="15.919201371055523"><ele>186.75</ele><time>2026-03-29T06:07:08.016Z</time></trkpt><trkpt lat="41.91787725696936" lon="15.919406142700794"><ele>186.5</ele><time>2026-03-29T06:07:09.016Z</time></trkpt><trkpt lat="41.91788679070187" lon="15.919558211622974"><ele>186.25</ele><time>2026-03-29T06:07:10.016Z</time></trkpt><trkpt lat="41.91788149891959" lon="15.9197214292704"><ele>186.0</ele><time>2026-03-29T06:07:11.016Z</time></trkpt><trkpt lat="41.91787787166887" lon="15.919859599580972"><ele>186.0</ele><time>2026-03-29T06:07:12.016Z</time></trkpt><trkpt lat="41.91788661941164" lon="15.920015037219269"><ele>186.0</ele><time>2026-03-29T06:07:13.016Z</time></trkpt><trkpt lat="41.91788666642594" lon="15.920161538173563"><ele>186.0</ele><time>2026-03-29T06:07:14.016Z</time></trkpt><trkpt lat="41.917899528967965" lon="15.920317534674892"><ele>186.0</ele><time>2026-03-29T06:07:15.016Z</time></trkpt><trkpt lat="41.9179103888188" lon="15.920454462760922"><ele>186.0</ele><time>2026-03-29T06:07:16.016Z</time></trkpt><trkpt lat="41.91792248232025" lon="15.920603045614934"><ele>186.33333333333334</ele><time>2026-03-29T06:07:17.016Z</time></trkpt><trkpt lat="41.917964522168866" lon="15.92072347924577"><ele>186.66666666666666</ele><time>2026-03-29T06:07:18.016Z</time></trkpt><trkpt lat="41.91799075830891" lon="15.920820024044492"><ele>187.0</ele><time>2026-03-29T06:07:19.016Z</time></trkpt><trkpt lat="41.91804537095422" lon="15.920880717149576"><ele>187.33333333333331</ele><time>2026-03-29T06:07:20.016Z</time></trkpt><trkpt lat="41.918138229697014" lon="15.92093777284725"><ele>187.66666666666666</ele><time>2026-03-29T06:07:21.016Z</time></trkpt><trkpt lat="41.91823078394728" lon="15.920974297318244"><ele>188.0</ele><time>2026-03-29T06:07:22.016Z</time></trkpt><trkpt lat="41.91833183368029" lon="15.921016336303982"><ele>183.60000000000002</ele><time>2026-03-29T06:07:23.016Z</time></trkpt><trkpt lat="41.91843326146852" lon="15.921047883832461"><ele>179.20000000000002</ele><time>2026-03-29T06:07:24.016Z</time></trkpt><trkpt lat="41.91852740026547" lon="15.921094162383206"><ele>174.8</ele><time>2026-03-29T06:07:25.016Z</time></trkpt><trkpt lat="41.918624555145016" lon="15.921151334451697"><ele>170.4</ele><time>2026-03-29T06:07:26.016Z</time></trkpt><trkpt lat="41.91871319873307" lon="15.921230498135042"><ele>166.0</ele><time>2026-03-29T06:07:27.016Z</time></trkpt><trkpt lat="41.91879735342107" lon="15.921313126380504"><ele>166.0</ele><time>2026-03-29T06:07:28.016Z</time></trkpt><trkpt lat="41.91889255866904" lon="15.921380979016114"><ele>166.0</ele><time>2026-03-29T06:07:29.016Z</time></trkpt><trkpt lat="41.918995830057696" lon="15.92144119701202"><ele>166.0</ele><time>2026-03-29T06:07:30.016Z</time></trkpt><trkpt lat="41.91910825326932" lon="15.921499481226524"><ele>166.0</ele><time>2026-03-29T06:07:31.016Z</time></trkpt><trkpt lat="41.91924428841084" lon="15.921555022329386"><ele>162.66666666666669</ele><time>2026-03-29T06:07:32.016Z</time></trkpt><trkpt lat="41.919392967086644" lon="15.921635038948962"><ele>159.33333333333334</ele><time>2026-03-29T06:07:33.016Z</time></trkpt><trkpt lat="41.919526129543385" lon="15.921729574499802"><ele>156.0</ele><time>2026-03-29T06:07:34.016Z</time></trkpt><trkpt lat="41.91965829576252" lon="15.921805135879879"><ele>156.0</ele><time>2026-03-29T06:07:35.016Z</time></trkpt><trkpt lat="41.91978207668306" lon="15.921878654984416"><ele>156.0</ele><time>2026-03-29T06:07:36.016Z</time></trkpt><trkpt lat="41.91988332909464" lon="15.921934618704709"><ele>156.0</ele><time>2026-03-29T06:07:37.016Z</time></trkpt><trkpt lat="41.91996845086429" lon="15.921990626903012"><ele>156.0</ele><time>2026-03-29T06:07:38.016Z</time></trkpt><trkpt lat="41.92004590336267" lon="15.92204358680047"><ele>156.0</ele><time>2026-03-29T06:07:39.016Z</time></trkpt><trkpt lat="41.92011157563339" lon="15.922130421136876"><ele>153.0</ele><time>2026-03-29T06:07:40.016Z</time></trkpt><trkpt lat="41.92019879708394" lon="15.922269400293517"><ele>150.0</ele><time>2026-03-29T06:07:41.016Z</time></trkpt><trkpt lat="41.92030101869197" lon="15.922437219451306"><ele>147.0</ele><time>2026-03-29T06:07:42.016Z</time></trkpt><trkpt lat="41.920379146945045" lon="15.922601726210411"><ele>144.0</ele><time>2026-03-29T06:07:43.016Z</time></trkpt><trkpt lat="41.92045112986644" lon="15.922728633960627"><ele>144.0</ele><time>2026-03-29T06:07:44.016Z</time></trkpt><trkpt lat="41.920523515858406" lon="15.922818222024265"><ele>144.0</ele><time>2026-03-29T06:07:45.016Z</time></trkpt><trkpt lat="41.92057674137211" lon="15.922897664824424"><ele>144.0</ele><time>2026-03-29T06:07:46.016Z</time></trkpt><trkpt lat="41.92069067701093" lon="15.922960037539818"><ele>144.0</ele><time>2026-03-29T06:07:48.016Z</time></trkpt><trkpt lat="41.92078640406564" lon="15.92296312807497"><ele>144.0</ele><time>2026-03-29T06:07:49.016Z</time></trkpt><trkpt lat="41.920894456764366" lon="15.922989503381391"><ele>141.0</ele><time>2026-03-29T06:07:50.016Z</time></trkpt><trkpt lat="41.92102129074735" lon="15.923022457863299"><ele>138.0</ele><time>2026-03-29T06:07:51.016Z</time></trkpt><trkpt lat="41.92115204691504" lon="15.923051958495188"><ele>135.0</ele><time>2026-03-29T06:07:52.016Z</time></trkpt><trkpt lat="41.92127766137219" lon="15.923078879070319"><ele>132.0</ele><time>2026-03-29T06:07:53.017Z</time></trkpt><trkpt lat="41.9213957781755" lon="15.923102424707626"><ele>132.0</ele><time>2026-03-29T06:07:54.017Z</time></trkpt><trkpt lat="41.921514700238234" lon="15.92312269089539"><ele>132.0</ele><time>2026-03-29T06:07:55.017Z</time></trkpt><trkpt lat="41.921616651591094" lon="15.923149134699024"><ele>132.0</ele><time>2026-03-29T06:07:56.017Z</time></trkpt><trkpt lat="41.92170556435463" lon="15.923159068357332"><ele>132.0</ele><time>2026-03-29T06:07:57.017Z</time></trkpt><trkpt lat="41.92179572571598" lon="15.923168879982835"><ele>132.0</ele><time>2026-03-29T06:07:58.017Z</time></trkpt><trkpt lat="41.9218872289848" lon="15.923180011747144"><ele>129.83333333333334</ele><time>2026-03-29T06:07:59.017Z</time></trkpt><trkpt lat="41.92197737508468" lon="15.923231284991804"><ele>127.66666666666666</ele><time>2026-03-29T06:08:00.017Z</time></trkpt><trkpt lat="41.922067321927614" lon="15.923305577098319"><ele>125.5</ele><time>2026-03-29T06:08:01.017Z</time></trkpt><trkpt lat="41.92214158053811" lon="15.923343062812329"><ele>123.33333333333333</ele><time>2026-03-29T06:08:02.017Z</time></trkpt><trkpt lat="41.92221239099478" lon="15.923365156780001"><ele>121.16666666666666</ele><time>2026-03-29T06:08:03.017Z</time></trkpt><trkpt lat="41.9222904261099" lon="15.923352134054825"><ele>119.0</ele><time>2026-03-29T06:08:04.017Z</time></trkpt><trkpt lat="41.92238294272432" lon="15.923282563471043"><ele>119.0</ele><time>2026-03-29T06:08:05.017Z</time></trkpt><trkpt lat="41.92246627242609" lon="15.92323541396907"><ele>119.0</ele><time>2026-03-29T06:08:06.017Z</time></trkpt><trkpt lat="41.922529946242335" lon="15.923191131074919"><ele>119.0</ele><time>2026-03-29T06:08:07.017Z</time></trkpt><trkpt lat="41.92262351391428" lon="15.923064575314804"><ele>119.0</ele><time>2026-03-29T06:08:09.017Z</time></trkpt><trkpt lat="41.92266876643731" lon="15.922971382470912"><ele>119.0</ele><time>2026-03-29T06:08:10.017Z</time></trkpt><trkpt lat="41.92272370889606" lon="15.922877148994376"><ele>117.66666666666666</ele><time>2026-03-29T06:08:11.017Z</time></trkpt><trkpt lat="41.92278305853991" lon="15.922811048675575"><ele>116.33333333333333</ele><time>2026-03-29T06:08:12.017Z</time></trkpt><trkpt lat="41.92286243808634" lon="15.922740665998106"><ele>115.0</ele><time>2026-03-29T06:08:13.017Z</time></trkpt><trkpt lat="41.92292837880404" lon="15.922693768324166"><ele>113.66666666666666</ele><time>2026-03-29T06:08:14.017Z</time></trkpt><trkpt lat="41.92299178372922" lon="15.92264820759716"><ele>112.33333333333333</ele><time>2026-03-29T06:08:16.017Z</time></trkpt><trkpt lat="41.92304165832643" lon="15.922595505702274"><ele>111.0</ele><time>2026-03-29T06:08:25.017Z</time></trkpt><trkpt lat="41.923181366785926" lon="15.92250808302132"><ele>111.0</ele><time>2026-03-29T06:08:27.017Z</time></trkpt><trkpt lat="41.92326676936535" lon="15.922452213526032"><ele>111.0</ele><time>2026-03-29T06:08:28.017Z</time></trkpt><trkpt lat="41.923365043196576" lon="15.922375437628164"><ele>111.0</ele><time>2026-03-29T06:08:29.017Z</time></trkpt><trkpt lat="41.9234564218136" lon="15.922303763541645"><ele>111.0</ele><time>2026-03-29T06:08:30.017Z</time></trkpt><trkpt lat="41.92355324678614" lon="15.92224361124516"><ele>111.0</ele><time>2026-03-29T06:08:31.017Z</time></trkpt><trkpt lat="41.92365419693841" lon="15.922192806647717"><ele>109.19999999999999</ele><time>2026-03-29T06:08:32.017Z</time></trkpt><trkpt lat="41.923756306926464" lon="15.92215755579777"><ele>107.39999999999999</ele><time>2026-03-29T06:08:33.017Z</time></trkpt><trkpt lat="41.92385447213761" lon="15.922122655160244"><ele>105.6</ele><time>2026-03-29T06:08:34.017Z</time></trkpt><trkpt lat="41.923961201478114" lon="15.922104697051632"><ele>103.8</ele><time>2026-03-29T06:08:35.017Z</time></trkpt><trkpt lat="41.92406207739323" lon="15.92208372525081"><ele>102.0</ele><time>2026-03-29T06:08:36.017Z</time></trkpt><trkpt lat="41.92415492545814" lon="15.922053513284816"><ele>101.0</ele><time>2026-03-29T06:08:37.017Z</time></trkpt><trkpt lat="41.92423543998093" lon="15.922011019166463"><ele>100.0</ele><time>2026-03-29T06:08:38.017Z</time></trkpt><trkpt lat="41.924303763718314" lon="15.921945002327865"><ele>99.0</ele><time>2026-03-29T06:08:39.017Z</time></trkpt><trkpt lat="41.92436781769598" lon="15.92187622715779"><ele>98.0</ele><time>2026-03-29T06:08:40.017Z</time></trkpt><trkpt lat="41.92444021088328" lon="15.92178984758682"><ele>97.0</ele><time>2026-03-29T06:08:41.017Z</time></trkpt><trkpt lat="41.92451464596943" lon="15.921716187396548"><ele>96.0</ele><time>2026-03-29T06:08:42.017Z</time></trkpt><trkpt lat="41.92460454922278" lon="15.921646382222358"><ele>96.0</ele><time>2026-03-29T06:08:43.017Z</time></trkpt><trkpt lat="41.92470931611935" lon="15.921590099981373"><ele>96.0</ele><time>2026-03-29T06:08:44.017Z</time></trkpt><trkpt lat="41.924823567931305" lon="15.921533247663373"><ele>96.0</ele><time>2026-03-29T06:08:45.017Z</time></trkpt><trkpt lat="41.92493309654308" lon="15.92146517159388"><ele>96.0</ele><time>2026-03-29T06:08:46.017Z</time></trkpt><trkpt lat="41.92502840183746" lon="15.92142038315549"><ele>94.19999999999999</ele><time>2026-03-29T06:08:47.017Z</time></trkpt><trkpt lat="41.92513098531044" lon="15.921366140335333"><ele>92.39999999999999</ele><time>2026-03-29T06:08:48.017Z</time></trkpt><trkpt lat="41.92522444418137" lon="15.921334571655034"><ele>90.6</ele><time>2026-03-29T06:08:49.017Z</time></trkpt><trkpt lat="41.92531372580214" lon="15.921331228475891"><ele>88.8</ele><time>2026-03-29T06:08:50.017Z</time></trkpt><trkpt lat="41.92539082711676" lon="15.921342642140832"><ele>87.0</ele><time>2026-03-29T06:08:51.017Z</time></trkpt><trkpt lat="41.92547652816062" lon="15.921353862022293"><ele>87.0</ele><time>2026-03-29T06:08:52.018Z</time></trkpt><trkpt lat="41.925573191995085" lon="15.92133527922792"><ele>87.0</ele><time>2026-03-29T06:08:53.018Z</time></trkpt><trkpt lat="41.92569019341791" lon="15.92127745689483"><ele>87.0</ele><time>2026-03-29T06:08:54.018Z</time></trkpt><trkpt lat="41.92581220530057" lon="15.921217612187126"><ele>87.0</ele><time>2026-03-29T06:08:55.018Z</time></trkpt><trkpt lat="41.925923371174335" lon="15.921166431571548"><ele>84.6</ele><time>2026-03-29T06:08:56.018Z</time></trkpt><trkpt lat="41.9260185419507" lon="15.921113705836282"><ele>82.19999999999999</ele><time>2026-03-29T06:08:57.018Z</time></trkpt><trkpt lat="41.92610035107889" lon="15.921058317234898"><ele>79.8</ele><time>2026-03-29T06:08:58.018Z</time></trkpt><trkpt lat="41.92617833739337" lon="15.920997383503037"><ele>77.4</ele><time>2026-03-29T06:08:59.018Z</time></trkpt><trkpt lat="41.92625769491511" lon="15.920965794431316"><ele>75.0</ele><time>2026-03-29T06:09:00.018Z</time></trkpt><trkpt lat="41.92634019580398" lon="15.92096151095426"><ele>75.0</ele><time>2026-03-29T06:09:01.018Z</time></trkpt><trkpt lat="41.92642710979041" lon="15.920978504028774"><ele>75.0</ele><time>2026-03-29T06:09:02.018Z</time></trkpt><trkpt lat="41.9265355756401" lon="15.921007211715109"><ele>75.0</ele><time>2026-03-29T06:09:03.018Z</time></trkpt><trkpt lat="41.926679941975344" lon="15.921060138946222"><ele>75.0</ele><time>2026-03-29T06:09:04.018Z</time></trkpt><trkpt lat="41.92684528080456" lon="15.92110101085392"><ele>69.33333333333333</ele><time>2026-03-29T06:09:05.018Z</time></trkpt><trkpt lat="41.9270284210127" lon="15.921117847294822"><ele>63.666666666666664</ele><time>2026-03-29T06:09:06.018Z</time></trkpt><trkpt lat="41.92718440552748" lon="15.921143922693874"><ele>58.0</ele><time>2026-03-29T06:09:07.018Z</time></trkpt><trkpt lat="41.927327197430515" lon="15.921160806078799"><ele>58.0</ele><time>2026-03-29T06:09:08.018Z</time></trkpt><trkpt lat="41.92746488338972" lon="15.921171296241365"><ele>58.0</ele><time>2026-03-29T06:09:09.018Z</time></trkpt><trkpt lat="41.92758166974828" lon="15.921173397452879"><ele>58.0</ele><time>2026-03-29T06:09:10.018Z</time></trkpt><trkpt lat="41.92769036112183" lon="15.921173657077457"><ele>58.0</ele><time>2026-03-29T06:09:11.018Z</time></trkpt><trkpt lat="41.927785134611376" lon="15.921165774255492"><ele>55.166666666666664</ele><time>2026-03-29T06:09:12.018Z</time></trkpt><trkpt lat="41.9278511800799" lon="15.921153171439814"><ele>52.33333333333333</ele><time>2026-03-29T06:09:13.018Z</time></trkpt><trkpt lat="41.92795911033752" lon="15.921071665942726"><ele>49.5</ele><time>2026-03-29T06:09:15.018Z</time></trkpt><trkpt lat="41.92799670910706" lon="15.92099578491281"><ele>46.666666666666664</ele><time>2026-03-29T06:09:16.018Z</time></trkpt><trkpt lat="41.928030381832876" lon="15.920901161283052"><ele>43.83333333333333</ele><time>2026-03-29T06:09:17.018Z</time></trkpt><trkpt lat="41.928066876092785" lon="15.920807210162835"><ele>41.0</ele><time>2026-03-29T06:09:18.018Z</time></trkpt><trkpt lat="41.92809626421271" lon="15.920706969327439"><ele>40.666666666666664</ele><time>2026-03-29T06:09:19.018Z</time></trkpt><trkpt lat="41.92812093355049" lon="15.92062057341189"><ele>40.33333333333333</ele><time>2026-03-29T06:09:20.018Z</time></trkpt><trkpt lat="41.92815779549051" lon="15.920542553581466"><ele>40.0</ele><time>2026-03-29T06:09:21.018Z</time></trkpt><trkpt lat="41.92823394856525" lon="15.920438626189158"><ele>39.666666666666664</ele><time>2026-03-29T06:09:23.018Z</time></trkpt><trkpt lat="41.928311117358994" lon="15.92037185693582"><ele>39.333333333333336</ele><time>2026-03-29T06:09:24.018Z</time></trkpt><trkpt lat="41.92840607865777" lon="15.92034053231592"><ele>39.0</ele><time>2026-03-29T06:09:25.018Z</time></trkpt><trkpt lat="41.92852696600638" lon="15.920307187791645"><ele>38.5</ele><time>2026-03-29T06:09:26.018Z</time></trkpt><trkpt lat="41.928639938937444" lon="15.920309718042466"><ele>38.0</ele><time>2026-03-29T06:09:27.018Z</time></trkpt><trkpt lat="41.92872437990144" lon="15.920304446057997"><ele>37.5</ele><time>2026-03-29T06:09:28.018Z</time></trkpt><trkpt lat="41.92881137417487" lon="15.92029680642755"><ele>37.0</ele><time>2026-03-29T06:09:30.018Z</time></trkpt><trkpt lat="41.92887655765252" lon="15.920352814410373"><ele>36.5</ele><time>2026-03-29T06:09:34.018Z</time></trkpt><trkpt lat="41.928931215158336" lon="15.920425255905318"><ele>36.0</ele><time>2026-03-29T06:09:36.018Z</time></trkpt><trkpt lat="41.92901952376955" lon="15.92051056430271"><ele>36.0</ele><time>2026-03-29T06:09:38.018Z</time></trkpt><trkpt lat="41.929096093985784" lon="15.920546951879565"><ele>36.0</ele><time>2026-03-29T06:09:39.018Z</time></trkpt><trkpt lat="41.929208092370544" lon="15.920585535160123"><ele>36.0</ele><time>2026-03-29T06:09:40.018Z</time></trkpt><trkpt lat="41.929340421270076" lon="15.920594839267416"><ele>36.0</ele><time>2026-03-29T06:09:41.018Z</time></trkpt><trkpt lat="41.929478448788" lon="15.920562945902764"><ele>36.0</ele><time>2026-03-29T06:09:42.018Z</time></trkpt><trkpt lat="41.929590483599284" lon="15.920548956418568"><ele>36.0</ele><time>2026-03-29T06:09:43.018Z</time></trkpt><trkpt lat="41.929677434194346" lon="15.920586146835902"><ele>36.0</ele><time>2026-03-29T06:09:45.018Z</time></trkpt><trkpt lat="41.929694511280495" lon="15.920668664058029"><ele>36.0</ele><time>2026-03-29T06:09:46.018Z</time></trkpt><trkpt lat="41.929672959652535" lon="15.920750460402774"><ele>36.0</ele><time>2026-03-29T06:09:47.018Z</time></trkpt><trkpt lat="41.92961626092049" lon="15.920825321165813"><ele>36.0</ele><time>2026-03-29T06:09:48.018Z</time></trkpt><trkpt lat="41.92954937652022" lon="15.920936055847761"><ele>36.0</ele><time>2026-03-29T06:09:49.018Z</time></trkpt><trkpt lat="41.92950606179368" lon="15.921050674244327"><ele>36.0</ele><time>2026-03-29T06:09:50.018Z</time></trkpt><trkpt lat="41.92948331766057" lon="15.921173810458658"><ele>36.0</ele><time>2026-03-29T06:09:51.019Z</time></trkpt><trkpt lat="41.929471534278434" lon="15.921263276179454"><ele>36.0</ele><time>2026-03-29T06:09:52.019Z</time></trkpt><trkpt lat="41.929524564760186" lon="15.921428172805241"><ele>36.0</ele><time>2026-03-29T06:09:54.019Z</time></trkpt><trkpt lat="41.929601316642255" lon="15.921512701053882"><ele>36.0</ele><time>2026-03-29T06:09:55.019Z</time></trkpt><trkpt lat="41.92967944131887" lon="15.921606865021733"><ele>36.0</ele><time>2026-03-29T06:09:56.019Z</time></trkpt><trkpt lat="41.92976292057215" lon="15.921738300957996"><ele>36.0</ele><time>2026-03-29T06:09:57.019Z</time></trkpt><trkpt lat="41.92983037420119" lon="15.921853035996818"><ele>36.0</ele><time>2026-03-29T06:09:58.019Z</time></trkpt><trkpt lat="41.9298859088182" lon="15.92195934233427"><ele>36.0</ele><time>2026-03-29T06:09:59.019Z</time></trkpt><trkpt lat="41.92988207884573" lon="15.92210727672687"><ele>36.5</ele><time>2026-03-29T06:10:00.019Z</time></trkpt><trkpt lat="41.92988474108226" lon="15.922226345000762"><ele>37.0</ele><time>2026-03-29T06:10:01.019Z</time></trkpt><trkpt lat="41.929869772404295" lon="15.922342414622625"><ele>37.5</ele><time>2026-03-29T06:10:02.019Z</time></trkpt><trkpt lat="41.92985639538584" lon="15.92242857998007"><ele>38.0</ele><time>2026-03-29T06:10:03.019Z</time></trkpt><trkpt lat="41.92990945543736" lon="15.922522962138185"><ele>38.5</ele><time>2026-03-29T06:10:05.019Z</time></trkpt><trkpt lat="41.92997704809629" lon="15.92253198013843"><ele>39.0</ele><time>2026-03-29T06:10:06.019Z</time></trkpt><trkpt lat="41.930067482989976" lon="15.9225000680132"><ele>36.4</ele><time>2026-03-29T06:10:07.019Z</time></trkpt><trkpt lat="41.93015501767173" lon="15.922471275210686"><ele>33.8</ele><time>2026-03-29T06:10:08.019Z</time></trkpt><trkpt lat="41.930228344134335" lon="15.92244113736477"><ele>31.200000000000003</ele><time>2026-03-29T06:10:09.019Z</time></trkpt><trkpt lat="41.93029930978353" lon="15.922338187911468"><ele>28.6</ele><time>2026-03-29T06:10:11.019Z</time></trkpt><trkpt lat="41.93029651065546" lon="15.922177451782154"><ele>26.0</ele><time>2026-03-29T06:10:13.019Z</time></trkpt><trkpt lat="41.93036295266905" lon="15.922072695760333"><ele>26.0</ele><time>2026-03-29T06:10:15.019Z</time></trkpt><trkpt lat="41.9304302729479" lon="15.922045184744691"><ele>26.0</ele><time>2026-03-29T06:10:16.019Z</time></trkpt><trkpt lat="41.930494064444034" lon="15.92205536563608"><ele>26.0</ele><time>2026-03-29T06:10:17.019Z</time></trkpt><trkpt lat="41.930548426698486" lon="15.922105265096697"><ele>26.0</ele><time>2026-03-29T06:10:18.019Z</time></trkpt><trkpt lat="41.93057833363048" lon="15.922179751566885"><ele>26.0</ele><time>2026-03-29T06:10:19.019Z</time></trkpt><trkpt lat="41.93061908747622" lon="15.922293964985116"><ele>26.0</ele><time>2026-03-29T06:10:20.019Z</time></trkpt><trkpt lat="41.930664623598" lon="15.922359604402159"><ele>26.0</ele><time>2026-03-29T06:10:21.019Z</time></trkpt><trkpt lat="41.93074767224447" lon="15.922391689627313"><ele>26.0</ele><time>2026-03-29T06:10:22.019Z</time></trkpt><trkpt lat="41.93083654648238" lon="15.922406362540062"><ele>26.0</ele><time>2026-03-29T06:10:23.019Z</time></trkpt><trkpt lat="41.93092138661187" lon="15.92239159548261"><ele>26.0</ele><time>2026-03-29T06:10:24.019Z</time></trkpt><trkpt lat="41.93101106369261" lon="15.922339605616912"><ele>26.0</ele><time>2026-03-29T06:10:25.019Z</time></trkpt><trkpt lat="41.93111258618789" lon="15.922286986370606"><ele>26.0</ele><time>2026-03-29T06:10:26.019Z</time></trkpt><trkpt lat="41.931224137005806" lon="15.92224864391606"><ele>24.5</ele><time>2026-03-29T06:10:27.019Z</time></trkpt><trkpt lat="41.931326705068706" lon="15.922244529951751"><ele>23.0</ele><time>2026-03-29T06:10:28.019Z</time></trkpt><trkpt lat="41.9314448408652" lon="15.922279194643826"><ele>21.5</ele><time>2026-03-29T06:10:29.019Z</time></trkpt><trkpt lat="41.93157136283619" lon="15.922311317344718"><ele>20.0</ele><time>2026-03-29T06:10:30.019Z</time></trkpt><trkpt lat="41.931679699895156" lon="15.92232492217996"><ele>18.2</ele><time>2026-03-29T06:10:31.019Z</time></trkpt><trkpt lat="41.93178562322832" lon="15.922324259691344"><ele>16.4</ele><time>2026-03-29T06:10:32.019Z</time></trkpt><trkpt lat="41.93188855025135" lon="15.922286960298049"><ele>14.600000000000001</ele><time>2026-03-29T06:10:33.019Z</time></trkpt><trkpt lat="41.931988039647585" lon="15.922230090550737"><ele>12.8</ele><time>2026-03-29T06:10:34.019Z</time></trkpt><trkpt lat="41.932093709494666" lon="15.922160122846027"><ele>11.0</ele><time>2026-03-29T06:10:35.019Z</time></trkpt><trkpt lat="41.93219125282162" lon="15.922121520569442"><ele>11.0</ele><time>2026-03-29T06:10:36.019Z</time></trkpt><trkpt lat="41.93228179530594" lon="15.922085990023303"><ele>11.0</ele><time>2026-03-29T06:10:37.019Z</time></trkpt><trkpt lat="41.932376907810585" lon="15.922060627815085"><ele>11.0</ele><time>2026-03-29T06:10:38.019Z</time></trkpt><trkpt lat="41.93246380562379" lon="15.922035261390812"><ele>11.0</ele><time>2026-03-29T06:10:39.019Z</time></trkpt><trkpt lat="41.93253840693986" lon="15.922008470210708"><ele>11.0</ele><time>2026-03-29T06:10:40.019Z</time></trkpt><trkpt lat="41.93261481758221" lon="15.921998395658619"><ele>11.0</ele><time>2026-03-29T06:10:41.019Z</time></trkpt><trkpt lat="41.93271228242038" lon="15.922032248080024"><ele>9.200000000000001</ele><time>2026-03-29T06:10:43.019Z</time></trkpt><trkpt lat="41.932741958093" lon="15.922192559889178"><ele>7.4</ele><time>2026-03-29T06:10:45.019Z</time></trkpt><trkpt lat="41.93274512353363" lon="15.922282966398683"><ele>5.6000000000000005</ele><time>2026-03-29T06:10:46.019Z</time></trkpt><trkpt lat="41.93275987685543" lon="15.922425936335218"><ele>3.8000000000000003</ele><time>2026-03-29T06:10:48.019Z</time></trkpt><trkpt lat="41.93281630353792" lon="15.922492344631857"><ele>2.0</ele><time>2026-03-29T06:10:51.02Z</time></trkpt><trkpt lat="41.93287068264456" lon="15.922604340808505"><ele>1.75</ele><time>2026-03-29T06:10:53.02Z</time></trkpt><trkpt lat="41.93287245323353" lon="15.92271608717028"><ele>1.5</ele><time>2026-03-29T06:10:54.02Z</time></trkpt><trkpt lat="41.93289456525991" lon="15.922906511657022"><ele>1.25</ele><time>2026-03-29T06:10:55.02Z</time></trkpt><trkpt lat="41.93291026602737" lon="15.923144381052944"><ele>1.0</ele><time>2026-03-29T06:10:56.02Z</time></trkpt><trkpt lat="41.93293025534037" lon="15.92338246497013"><ele>0.6666666666666666</ele><time>2026-03-29T06:10:57.02Z</time></trkpt><trkpt lat="41.9329579032527" lon="15.92364139211229"><ele>0.3333333333333333</ele><time>2026-03-29T06:10:58.02Z</time></trkpt><trkpt lat="41.93298302398793" lon="15.923917652273866"><ele>0.0</ele><time>2026-03-29T06:10:59.02Z</time></trkpt><trkpt lat="41.93301649989787" lon="15.92420080512695"><ele>0.6666666666666666</ele><time>2026-03-29T06:11:00.02Z</time></trkpt><trkpt lat="41.93304016873592" lon="15.924477086183842"><ele>1.3333333333333333</ele><time>2026-03-29T06:11:01.02Z</time></trkpt><trkpt lat="41.93306709616738" lon="15.924758321810002"><ele>2.0</ele><time>2026-03-29T06:11:02.02Z</time></trkpt><trkpt lat="41.93310643431188" lon="15.925057827453273"><ele>3.5</ele><time>2026-03-29T06:11:03.02Z</time></trkpt><trkpt lat="41.93314845665662" lon="15.925361956912074"><ele>5.0</ele><time>2026-03-29T06:11:04.02Z</time></trkpt><trkpt lat="41.93318650427571" lon="15.925657838121934"><ele>5.666666666666667</ele><time>2026-03-29T06:11:05.02Z</time></trkpt><trkpt lat="41.93322513620795" lon="15.92593416869383"><ele>6.333333333333334</ele><time>2026-03-29T06:11:06.02Z</time></trkpt><trkpt lat="41.93326008230484" lon="15.926203174140847"><ele>7.0</ele><time>2026-03-29T06:11:07.02Z</time></trkpt><trkpt lat="41.933297077811815" lon="15.926465819702548"><ele>9.0</ele><time>2026-03-29T06:11:08.02Z</time></trkpt><trkpt lat="41.93333723008577" lon="15.92673884663091"><ele>11.0</ele><time>2026-03-29T06:11:09.02Z</time></trkpt><trkpt lat="41.93337889298091" lon="15.927023019727958"><ele>13.0</ele><time>2026-03-29T06:11:10.02Z</time></trkpt><trkpt lat="41.93342225237449" lon="15.927321805438222"><ele>8.666666666666666</ele><time>2026-03-29T06:11:11.02Z</time></trkpt><trkpt lat="41.933464853565624" lon="15.927613381944584"><ele>4.333333333333333</ele><time>2026-03-29T06:11:12.02Z</time></trkpt><trkpt lat="41.933507033080595" lon="15.927909527238418"><ele>0.0</ele><time>2026-03-29T06:11:13.02Z</time></trkpt><trkpt lat="41.933540612776284" lon="15.928195796569366"><ele>0.0</ele><time>2026-03-29T06:11:14.02Z</time></trkpt><trkpt lat="41.93358134427597" lon="15.928478653884437"><ele>0.0</ele><time>2026-03-29T06:11:15.02Z</time></trkpt><trkpt lat="41.933621499744014" lon="15.928757950233573"><ele>0.0</ele><time>2026-03-29T06:11:16.02Z</time></trkpt><trkpt lat="41.93365571831036" lon="15.929043190500861"><ele>0.0</ele><time>2026-03-29T06:11:17.02Z</time></trkpt><trkpt lat="41.93369507487615" lon="15.929325443476479"><ele>0.0</ele><time>2026-03-29T06:11:18.02Z</time></trkpt><trkpt lat="41.9337264117851" lon="15.929596538084633"><ele>0.0</ele><time>2026-03-29T06:11:19.02Z</time></trkpt><trkpt lat="41.93376161712037" lon="15.929854696902522"><ele>0.6666666666666666</ele><time>2026-03-29T06:11:20.02Z</time></trkpt><trkpt lat="41.93379913104412" lon="15.930115912312061"><ele>1.3333333333333333</ele><time>2026-03-29T06:11:21.02Z</time></trkpt><trkpt lat="41.933844236545916" lon="15.930383583366869"><ele>2.0</ele><time>2026-03-29T06:11:22.02Z</time></trkpt><trkpt lat="41.93388962208782" lon="15.930659859127498"><ele>2.6666666666666665</ele><time>2026-03-29T06:11:23.02Z</time></trkpt><trkpt lat="41.93393400659808" lon="15.93093462918427"><ele>3.333333333333333</ele><time>2026-03-29T06:11:24.02Z</time></trkpt><trkpt lat="41.93398208848548" lon="15.931208000138954"><ele>4.0</ele><time>2026-03-29T06:11:25.02Z</time></trkpt><trkpt lat="41.93402274948541" lon="15.931460979172845"><ele>5.333333333333333</ele><time>2026-03-29T06:11:26.02Z</time></trkpt><trkpt lat="41.93407697052673" lon="15.9317410343345"><ele>6.666666666666666</ele><time>2026-03-29T06:11:27.02Z</time></trkpt><trkpt lat="41.93412737520222" lon="15.932024434204786"><ele>8.0</ele><time>2026-03-29T06:11:28.02Z</time></trkpt><trkpt lat="41.93417080727831" lon="15.932295298371361"><ele>8.0</ele><time>2026-03-29T06:11:29.02Z</time></trkpt><trkpt lat="41.934215504567085" lon="15.932548423924516"><ele>8.0</ele><time>2026-03-29T06:11:30.02Z</time></trkpt><trkpt lat="41.93425842550726" lon="15.932810925947088"><ele>8.0</ele><time>2026-03-29T06:11:31.02Z</time></trkpt><trkpt lat="41.934303623547684" lon="15.933068966538185"><ele>5.333333333333333</ele><time>2026-03-29T06:11:32.02Z</time></trkpt><trkpt lat="41.93434645226809" lon="15.933317907620697"><ele>2.6666666666666665</ele><time>2026-03-29T06:11:33.02Z</time></trkpt><trkpt lat="41.93438637663813" lon="15.93358945278825"><ele>0.0</ele><time>2026-03-29T06:11:34.02Z</time></trkpt><trkpt lat="41.93441832927854" lon="15.933842983986226"><ele>0.0</ele><time>2026-03-29T06:11:35.02Z</time></trkpt><trkpt lat="41.93444943262107" lon="15.934102179688207"><ele>0.0</ele><time>2026-03-29T06:11:36.02Z</time></trkpt><trkpt lat="41.93448719461774" lon="15.934402275340707"><ele>0.0</ele><time>2026-03-29T06:11:37.02Z</time></trkpt><trkpt lat="41.93450613788416" lon="15.934688694376744"><ele>0.3333333333333333</ele><time>2026-03-29T06:11:38.02Z</time></trkpt><trkpt lat="41.934543583164086" lon="15.934978558566577"><ele>0.6666666666666666</ele><time>2026-03-29T06:11:39.02Z</time></trkpt><trkpt lat="41.93457538467871" lon="15.935244770720486"><ele>1.0</ele><time>2026-03-29T06:11:40.02Z</time></trkpt><trkpt lat="41.934601938160306" lon="15.935523196958925"><ele>1.0</ele><time>2026-03-29T06:11:41.02Z</time></trkpt><trkpt lat="41.93462244541113" lon="15.935791201875176"><ele>1.0</ele><time>2026-03-29T06:11:42.02Z</time></trkpt><trkpt lat="41.93464680166241" lon="15.936051817129032"><ele>1.0</ele><time>2026-03-29T06:11:43.02Z</time></trkpt><trkpt lat="41.9346712539273" lon="15.936308670068716"><ele>1.3333333333333333</ele><time>2026-03-29T06:11:44.02Z</time></trkpt><trkpt lat="41.93468628864122" lon="15.936566621268888"><ele>1.6666666666666665</ele><time>2026-03-29T06:11:45.02Z</time></trkpt><trkpt lat="41.934716961589324" lon="15.936826216035781"><ele>2.0</ele><time>2026-03-29T06:11:46.02Z</time></trkpt><trkpt lat="41.93475052349155" lon="15.937103825311565"><ele>2.5</ele><time>2026-03-29T06:11:47.02Z</time></trkpt><trkpt lat="41.93478694877114" lon="15.937405889562708"><ele>3.0</ele><time>2026-03-29T06:11:48.021Z</time></trkpt><trkpt lat="41.93482440497202" lon="15.937729545752374"><ele>3.5</ele><time>2026-03-29T06:11:49.021Z</time></trkpt><trkpt lat="41.93485741376346" lon="15.938066703137771"><ele>4.0</ele><time>2026-03-29T06:11:50.021Z</time></trkpt><trkpt lat="41.93489023141365" lon="15.938368325662326"><ele>4.5</ele><time>2026-03-29T06:11:51.021Z</time></trkpt><trkpt lat="41.93492750546074" lon="15.938677614393761"><ele>5.0</ele><time>2026-03-29T06:11:52.021Z</time></trkpt><trkpt lat="41.934955560145234" lon="15.938973875046353"><ele>5.333333333333334</ele><time>2026-03-29T06:11:53.021Z</time></trkpt><trkpt lat="41.93497783158014" lon="15.939253811928678"><ele>5.666666666666667</ele><time>2026-03-29T06:11:54.021Z</time></trkpt><trkpt lat="41.93501603392045" lon="15.939510447371195"><ele>6.0</ele><time>2026-03-29T06:11:55.021Z</time></trkpt><trkpt lat="41.93504289746976" lon="15.939801374188566"><ele>4.333333333333333</ele><time>2026-03-29T06:11:56.021Z</time></trkpt><trkpt lat="41.935071205461774" lon="15.940084384285093"><ele>2.6666666666666665</ele><time>2026-03-29T06:11:57.021Z</time></trkpt><trkpt lat="41.93510562160923" lon="15.940363459184304"><ele>1.0</ele><time>2026-03-29T06:11:58.021Z</time></trkpt><trkpt lat="41.9351500247678" lon="15.94065971231297"><ele>1.0</ele><time>2026-03-29T06:11:59.021Z</time></trkpt><trkpt lat="41.935196966834035" lon="15.940959629532152"><ele>1.0</ele><time>2026-03-29T06:12:00.021Z</time></trkpt><trkpt lat="41.93525288628552" lon="15.941273423971166"><ele>1.0</ele><time>2026-03-29T06:12:01.021Z</time></trkpt><trkpt lat="41.93530290801994" lon="15.941571960926535"><ele>1.0</ele><time>2026-03-29T06:12:02.021Z</time></trkpt><trkpt lat="41.93536080391703" lon="15.941853972401853"><ele>1.0</ele><time>2026-03-29T06:12:03.021Z</time></trkpt><trkpt lat="41.93541496691699" lon="15.942103814620765"><ele>1.0</ele><time>2026-03-29T06:12:04.039Z</time></trkpt><trkpt lat="41.93549143077927" lon="15.942336149676793"><ele>1.0</ele><time>2026-03-29T06:12:05.039Z</time></trkpt><trkpt lat="41.935597103737464" lon="15.942581633135298"><ele>1.0</ele><time>2026-03-29T06:12:06.039Z</time></trkpt><trkpt lat="41.93568406227403" lon="15.942832170584502"><ele>0.6666666666666666</ele><time>2026-03-29T06:12:07.039Z</time></trkpt><trkpt lat="41.935756984410034" lon="15.943058211026486"><ele>0.3333333333333333</ele><time>2026-03-29T06:12:08.039Z</time></trkpt><trkpt lat="41.93582357383943" lon="15.94328808713195"><ele>0.0</ele><time>2026-03-29T06:12:09.039Z</time></trkpt><trkpt lat="41.9358954052256" lon="15.943526209866521"><ele>0.0</ele><time>2026-03-29T06:12:10.039Z</time></trkpt><trkpt lat="41.93592074974263" lon="15.943843938677478"><ele>0.0</ele><time>2026-03-29T06:12:11.039Z</time></trkpt><trkpt lat="41.93593247847274" lon="15.944180568855487"><ele>0.0</ele><time>2026-03-29T06:12:12.039Z</time></trkpt><trkpt lat="41.93596141788312" lon="15.944519737265345"><ele>0.0</ele><time>2026-03-29T06:12:13.039Z</time></trkpt><trkpt lat="41.935993149316666" lon="15.944841811113314"><ele>0.0</ele><time>2026-03-29T06:12:14.039Z</time></trkpt><trkpt lat="41.936012147838916" lon="15.945141096561413"><ele>0.0</ele><time>2026-03-29T06:12:15.039Z</time></trkpt><trkpt lat="41.93603228687299" lon="15.945427820392176"><ele>0.0</ele><time>2026-03-29T06:12:16.039Z</time></trkpt><trkpt lat="41.93606503378075" lon="15.945712339195824"><ele>0.0</ele><time>2026-03-29T06:12:17.039Z</time></trkpt><trkpt lat="41.93610283644323" lon="15.94600661087792"><ele>0.0</ele><time>2026-03-29T06:12:18.039Z</time></trkpt><trkpt lat="41.93613499542743" lon="15.94631012700887"><ele>0.0</ele><time>2026-03-29T06:12:19.039Z</time></trkpt><trkpt lat="41.93617974256483" lon="15.946651767443432"><ele>0.0</ele><time>2026-03-29T06:12:20.04Z</time></trkpt><trkpt lat="41.936204468235815" lon="15.94698345859354"><ele>0.0</ele><time>2026-03-29T06:12:21.04Z</time></trkpt><trkpt lat="41.93623273621447" lon="15.947306207187555"><ele>0.0</ele><time>2026-03-29T06:12:22.04Z</time></trkpt><trkpt lat="41.93626343726008" lon="15.947594981044459"><ele>0.0</ele><time>2026-03-29T06:12:23.04Z</time></trkpt><trkpt lat="41.93629963603719" lon="15.947886089023465"><ele>0.0</ele><time>2026-03-29T06:12:24.04Z</time></trkpt><trkpt lat="41.93633748393613" lon="15.948176546439559"><ele>0.0</ele><time>2026-03-29T06:12:25.04Z</time></trkpt><trkpt lat="41.936368324902986" lon="15.948453201741746"><ele>0.6666666666666666</ele><time>2026-03-29T06:12:26.04Z</time></trkpt><trkpt lat="41.936390756421446" lon="15.94869998256855"><ele>1.3333333333333333</ele><time>2026-03-29T06:12:27.04Z</time></trkpt><trkpt lat="41.93642123598012" lon="15.94891121499857"><ele>2.0</ele><time>2026-03-29T06:12:28.04Z</time></trkpt><trkpt lat="41.93643961879714" lon="15.949091718100904"><ele>2.4000000000000004</ele><time>2026-03-29T06:12:29.04Z</time></trkpt><trkpt lat="41.936440390459424" lon="15.949245024686405"><ele>2.8000000000000003</ele><time>2026-03-29T06:12:30.04Z</time></trkpt><trkpt lat="41.93643292979672" lon="15.94938334901835"><ele>3.2</ele><time>2026-03-29T06:12:31.04Z</time></trkpt><trkpt lat="41.936414984056015" lon="15.949505165952612"><ele>3.6</ele><time>2026-03-29T06:12:32.04Z</time></trkpt><trkpt lat="41.93641044196236" lon="15.949650695723898"><ele>4.0</ele><time>2026-03-29T06:12:33.04Z</time></trkpt><trkpt lat="41.93642748231096" lon="15.949825469459306"><ele>4.0</ele><time>2026-03-29T06:12:34.04Z</time></trkpt><trkpt lat="41.936471953751756" lon="15.950036862117479"><ele>4.0</ele><time>2026-03-29T06:12:35.04Z</time></trkpt><trkpt lat="41.93654134970935" lon="15.950280754715026"><ele>4.0</ele><time>2026-03-29T06:12:36.04Z</time></trkpt><trkpt lat="41.93660039969846" lon="15.950483630717118"><ele>4.0</ele><time>2026-03-29T06:12:37.04Z</time></trkpt><trkpt lat="41.93663001307453" lon="15.950696143283547"><ele>4.0</ele><time>2026-03-29T06:12:38.04Z</time></trkpt><trkpt lat="41.93667120042636" lon="15.950940196199776"><ele>4.0</ele><time>2026-03-29T06:12:39.04Z</time></trkpt><trkpt lat="41.9367154955139" lon="15.95121627695474"><ele>2.0</ele><time>2026-03-29T06:12:40.04Z</time></trkpt><trkpt lat="41.93675746777727" lon="15.951540866803754"><ele>0.0</ele><time>2026-03-29T06:12:41.04Z</time></trkpt><trkpt lat="41.93679772783477" lon="15.951881852548393"><ele>0.0</ele><time>2026-03-29T06:12:42.04Z</time></trkpt><trkpt lat="41.93684806568805" lon="15.952233902554234"><ele>0.0</ele><time>2026-03-29T06:12:43.04Z</time></trkpt><trkpt lat="41.93688770030857" lon="15.952556971268217"><ele>0.3333333333333333</ele><time>2026-03-29T06:12:44.04Z</time></trkpt><trkpt lat="41.936935807858454" lon="15.952859247669377"><ele>0.6666666666666666</ele><time>2026-03-29T06:12:45.04Z</time></trkpt><trkpt lat="41.936970173365026" lon="15.953131781715554"><ele>1.0</ele><time>2026-03-29T06:12:46.04Z</time></trkpt><trkpt lat="41.93699355605393" lon="15.953370992458742"><ele>1.25</ele><time>2026-03-29T06:12:47.04Z</time></trkpt><trkpt lat="41.93702107123571" lon="15.953569895230656"><ele>1.5</ele><time>2026-03-29T06:12:48.04Z</time></trkpt><trkpt lat="41.93703880630674" lon="15.953750656417299"><ele>1.75</ele><time>2026-03-29T06:12:49.042Z</time></trkpt><trkpt lat="41.93705933936947" lon="15.953895030566299"><ele>2.0</ele><time>2026-03-29T06:12:50.042Z</time></trkpt><trkpt lat="41.937075470321425" lon="15.954045123121531"><ele>2.0</ele><time>2026-03-29T06:12:51.042Z</time></trkpt><trkpt lat="41.93707691289398" lon="15.954170815580168"><ele>2.0</ele><time>2026-03-29T06:12:52.042Z</time></trkpt><trkpt lat="41.93703465750514" lon="15.954252271896857"><ele>2.0</ele><time>2026-03-29T06:12:54.042Z</time></trkpt><trkpt lat="41.93690109781639" lon="15.954270700763015"><ele>2.0</ele><time>2026-03-29T06:12:56.043Z</time></trkpt><trkpt lat="41.9368054672646" lon="15.954295374505731"><ele>2.0</ele><time>2026-03-29T06:12:57.043Z</time></trkpt><trkpt lat="41.93667922293876" lon="15.954296930202391"><ele>4.4</ele><time>2026-03-29T06:12:58.042Z</time></trkpt><trkpt lat="41.936551877473136" lon="15.954318579421914"><ele>6.8</ele><time>2026-03-29T06:12:59.043Z</time></trkpt><trkpt lat="41.9364204212702" lon="15.954310028532776"><ele>9.2</ele><time>2026-03-29T06:13:00.043Z</time></trkpt><trkpt lat="41.93630488656564" lon="15.954313601214883"><ele>11.6</ele><time>2026-03-29T06:13:01.042Z</time></trkpt><trkpt lat="41.936291216737565" lon="15.954408110902198"><ele>14.0</ele><time>2026-03-29T06:13:05.042Z</time></trkpt><trkpt lat="41.93629333679046" lon="15.954537634393915"><ele>14.0</ele><time>2026-03-29T06:13:06.042Z</time></trkpt><trkpt lat="41.93630350735191" lon="15.954716954467806"><ele>14.0</ele><time>2026-03-29T06:13:07.042Z</time></trkpt><trkpt lat="41.93633085655226" lon="15.954930428739573"><ele>14.0</ele><time>2026-03-29T06:13:08.042Z</time></trkpt><trkpt lat="41.936364785045185" lon="15.955097600661814"><ele>14.0</ele><time>2026-03-29T06:13:09.042Z</time></trkpt><trkpt lat="41.9363371268291" lon="15.955197849954528"><ele>13.2</ele><time>2026-03-29T06:13:10.042Z</time></trkpt><trkpt lat="41.936289935689985" lon="15.955272813722916"><ele>12.399999999999999</ele><time>2026-03-29T06:13:12.042Z</time></trkpt><trkpt lat="41.9361307532399" lon="15.955294295031479"><ele>11.6</ele><time>2026-03-29T06:13:14.042Z</time></trkpt><trkpt lat="41.93601141024922" lon="15.955298281220966"><ele>10.8</ele><time>2026-03-29T06:13:15.042Z</time></trkpt><trkpt lat="41.93592036363348" lon="15.955306257904555"><ele>10.0</ele><time>2026-03-29T06:13:16.042Z</time></trkpt><trkpt lat="41.93584657531827" lon="15.955334256806452"><ele>12.0</ele><time>2026-03-29T06:13:17.042Z</time></trkpt><trkpt lat="41.935788566106595" lon="15.95540181499226"><ele>14.0</ele><time>2026-03-29T06:13:18.042Z</time></trkpt><trkpt lat="41.9357255208612" lon="15.955555800459367"><ele>16.0</ele><time>2026-03-29T06:13:19.042Z</time></trkpt><trkpt lat="41.93563362104619" lon="15.955704685525749"><ele>18.0</ele><time>2026-03-29T06:13:20.042Z</time></trkpt><trkpt lat="41.93555075858564" lon="15.955815517479818"><ele>17.5</ele><time>2026-03-29T06:13:21.042Z</time></trkpt><trkpt lat="41.93545996156987" lon="15.955908433571238"><ele>17.0</ele><time>2026-03-29T06:13:22.042Z</time></trkpt><trkpt lat="41.93538670787335" lon="15.955981850695856"><ele>16.5</ele><time>2026-03-29T06:13:23.042Z</time></trkpt><trkpt lat="41.93532341824488" lon="15.956039004767629"><ele>16.0</ele><time>2026-03-29T06:13:24.042Z</time></trkpt><trkpt lat="41.935267119800315" lon="15.956095276783433"><ele>15.5</ele><time>2026-03-29T06:13:25.042Z</time></trkpt><trkpt lat="41.93520764913194" lon="15.956128906353783"><ele>15.0</ele><time>2026-03-29T06:13:26.042Z</time></trkpt><trkpt lat="41.935151006880076" lon="15.956206335341479"><ele>15.0</ele><time>2026-03-29T06:13:27.042Z</time></trkpt><trkpt lat="41.935095790245455" lon="15.956282802176158"><ele>15.0</ele><time>2026-03-29T06:13:28.042Z</time></trkpt><trkpt lat="41.93503075868968" lon="15.956358452911774"><ele>15.0</ele><time>2026-03-29T06:13:30.042Z</time></trkpt><trkpt lat="41.934916241760284" lon="15.956314524758916"><ele>15.0</ele><time>2026-03-29T06:13:33.042Z</time></trkpt><trkpt lat="41.93484904860572" lon="15.956296856423348"><ele>15.0</ele><time>2026-03-29T06:13:34.042Z</time></trkpt><trkpt lat="41.93474752737544" lon="15.956316887418431"><ele>17.2</ele><time>2026-03-29T06:13:35.042Z</time></trkpt><trkpt lat="41.93466684177497" lon="15.956348148098987"><ele>19.4</ele><time>2026-03-29T06:13:36.042Z</time></trkpt><trkpt lat="41.934570842322486" lon="15.956392863727435"><ele>21.6</ele><time>2026-03-29T06:13:37.042Z</time></trkpt><trkpt lat="41.934471847707584" lon="15.956412492977828"><ele>23.8</ele><time>2026-03-29T06:13:38.043Z</time></trkpt><trkpt lat="41.93438701313447" lon="15.956458202866333"><ele>26.0</ele><time>2026-03-29T06:13:39.043Z</time></trkpt><trkpt lat="41.93427659089398" lon="15.95651991276488"><ele>27.4</ele><time>2026-03-29T06:13:40.043Z</time></trkpt><trkpt lat="41.934162199480554" lon="15.956625421930285"><ele>28.8</ele><time>2026-03-29T06:13:41.043Z</time></trkpt><trkpt lat="41.93407415680186" lon="15.956712612165305"><ele>30.199999999999996</ele><time>2026-03-29T06:13:42.043Z</time></trkpt><trkpt lat="41.93400560301254" lon="15.95674311821152"><ele>31.599999999999998</ele><time>2026-03-29T06:13:43.043Z</time></trkpt><trkpt lat="41.93398495696855" lon="15.956866992155454"><ele>33.0</ele><time>2026-03-29T06:13:46.043Z</time></trkpt><trkpt lat="41.93395054984595" lon="15.956939341178487"><ele>33.0</ele><time>2026-03-29T06:14:23.043Z</time></trkpt><trkpt lat="41.933947867798786" lon="15.95684499313285"><ele>33.0</ele><time>2026-03-29T06:30:11.076Z</time></trkpt><trkpt lat="41.934033112885245" lon="15.95673172686592"><ele>33.0</ele><time>2026-03-29T06:30:14.076Z</time></trkpt><trkpt lat="41.93414041080557" lon="15.956652405928898"><ele>33.0</ele><time>2026-03-29T06:30:16.076Z</time></trkpt><trkpt lat="41.93422774969593" lon="15.956595637645083"><ele>33.0</ele><time>2026-03-29T06:30:18.076Z</time></trkpt><trkpt lat="41.934318603286165" lon="15.95652600539049"><ele>31.599999999999998</ele><time>2026-03-29T06:30:20.076Z</time></trkpt><trkpt lat="41.93443658666379" lon="15.956483832427457"><ele>30.199999999999996</ele><time>2026-03-29T06:30:22.076Z</time></trkpt><trkpt lat="41.934528007583474" lon="15.95645204389696"><ele>28.8</ele><time>2026-03-29T06:30:24.076Z</time></trkpt><trkpt lat="41.93463257967983" lon="15.956399523085336"><ele>27.4</ele><time>2026-03-29T06:30:26.076Z</time></trkpt><trkpt lat="41.934722145960926" lon="15.956364296951943"><ele>26.0</ele><time>2026-03-29T06:30:28.076Z</time></trkpt><trkpt lat="41.93480760380633" lon="15.95633928149563"><ele>25.999999999999996</ele><time>2026-03-29T06:30:30.076Z</time></trkpt><trkpt lat="41.93487474213523" lon="15.956323588093444"><ele>26.0</ele><time>2026-03-29T06:30:32.076Z</time></trkpt><trkpt lat="41.934916497396785" lon="15.956402001198185"><ele>26.0</ele><time>2026-03-29T06:30:33.076Z</time></trkpt><trkpt lat="41.93494382885866" lon="15.956500024412177"><ele>26.0</ele><time>2026-03-29T06:30:34.076Z</time></trkpt><trkpt lat="41.934985817893256" lon="15.956626001817488"><ele>25.999999999999996</ele><time>2026-03-29T06:30:36.076Z</time></trkpt><trkpt lat="41.93504937251668" lon="15.956710687664355"><ele>26.0</ele><time>2026-03-29T06:30:37.076Z</time></trkpt><trkpt lat="41.93510955841938" lon="15.956828158301953"><ele>24.166666666666664</ele><time>2026-03-29T06:30:39.076Z</time></trkpt><trkpt lat="41.935155055779" lon="15.956902894273151"><ele>22.333333333333332</ele><time>2026-03-29T06:30:42.076Z</time></trkpt><trkpt lat="41.93515875898464" lon="15.957014076529987"><ele>20.5</ele><time>2026-03-29T06:30:44.076Z</time></trkpt><trkpt lat="41.93512139599249" lon="15.957092008071864"><ele>18.666666666666664</ele><time>2026-03-29T06:30:45.076Z</time></trkpt><trkpt lat="41.93509700658495" lon="15.957176403458021"><ele>16.833333333333332</ele><time>2026-03-29T06:30:46.076Z</time></trkpt><trkpt lat="41.93509839817099" lon="15.957277302462973"><ele>15.0</ele><time>2026-03-29T06:30:47.076Z</time></trkpt><trkpt lat="41.9351447620528" lon="15.957404359077664"><ele>15.0</ele><time>2026-03-29T06:30:48.076Z</time></trkpt><trkpt lat="41.935198963309155" lon="15.957469829759601"><ele>15.0</ele><time>2026-03-29T06:30:49.076Z</time></trkpt><trkpt lat="41.935286875771915" lon="15.957580194784063"><ele>15.0</ele><time>2026-03-29T06:30:51.076Z</time></trkpt><trkpt lat="41.93531922043388" lon="15.957662847126558"><ele>15.0</ele><time>2026-03-29T06:30:52.076Z</time></trkpt><trkpt lat="41.93529238019091" lon="15.957806503490353"><ele>15.0</ele><time>2026-03-29T06:30:54.077Z</time></trkpt><trkpt lat="41.93526123644985" lon="15.957883896473929"><ele>15.0</ele><time>2026-03-29T06:30:55.077Z</time></trkpt><trkpt lat="41.935225838357425" lon="15.957996995311493"><ele>16.6</ele><time>2026-03-29T06:30:56.077Z</time></trkpt><trkpt lat="41.935151828445996" lon="15.958084445165808"><ele>18.2</ele><time>2026-03-29T06:30:57.077Z</time></trkpt><trkpt lat="41.9350785214334" lon="15.958175894128209"><ele>19.799999999999997</ele><time>2026-03-29T06:30:58.077Z</time></trkpt><trkpt lat="41.935023909227894" lon="15.958266285154828"><ele>21.4</ele><time>2026-03-29T06:30:59.077Z</time></trkpt><trkpt lat="41.93494570007385" lon="15.958350804761823"><ele>23.0</ele><time>2026-03-29T06:31:00.077Z</time></trkpt><trkpt lat="41.93485818951532" lon="15.958423505984783"><ele>24.599999999999998</ele><time>2026-03-29T06:31:01.077Z</time></trkpt><trkpt lat="41.934764594912636" lon="15.958489781724749"><ele>26.2</ele><time>2026-03-29T06:31:02.077Z</time></trkpt><trkpt lat="41.934683041635985" lon="15.95854696398134"><ele>27.8</ele><time>2026-03-29T06:31:03.077Z</time></trkpt><trkpt lat="41.93457981255468" lon="15.95860682298623"><ele>29.4</ele><time>2026-03-29T06:31:04.077Z</time></trkpt><trkpt lat="41.934489011996384" lon="15.95866485882808"><ele>31.0</ele><time>2026-03-29T06:31:05.077Z</time></trkpt><trkpt lat="41.934393103406244" lon="15.958726403480645"><ele>31.0</ele><time>2026-03-29T06:31:06.077Z</time></trkpt><trkpt lat="41.93430147258801" lon="15.958778644577727"><ele>31.0</ele><time>2026-03-29T06:31:07.077Z</time></trkpt><trkpt lat="41.93420026232451" lon="15.958831099510919"><ele>31.0</ele><time>2026-03-29T06:31:08.077Z</time></trkpt><trkpt lat="41.93409035253063" lon="15.958875569604015"><ele>31.0</ele><time>2026-03-29T06:31:09.077Z</time></trkpt><trkpt lat="41.93399436715018" lon="15.958930071881072"><ele>31.0</ele><time>2026-03-29T06:31:10.077Z</time></trkpt><trkpt lat="41.93389888772869" lon="15.95897634552902"><ele>30.833333333333336</ele><time>2026-03-29T06:31:11.077Z</time></trkpt><trkpt lat="41.93381647158815" lon="15.959019522303869"><ele>30.666666666666668</ele><time>2026-03-29T06:31:12.077Z</time></trkpt><trkpt lat="41.93374394038401" lon="15.959058367907424"><ele>30.5</ele><time>2026-03-29T06:31:13.077Z</time></trkpt><trkpt lat="41.93369516028661" lon="15.959139669472828"><ele>30.333333333333336</ele><time>2026-03-29T06:31:15.077Z</time></trkpt><trkpt lat="41.93363213938566" lon="15.959180176581889"><ele>30.166666666666668</ele><time>2026-03-29T06:31:17.077Z</time></trkpt><trkpt lat="41.933662535035715" lon="15.959309454420284"><ele>30.0</ele><time>2026-03-29T06:31:20.077Z</time></trkpt><trkpt lat="41.93369861284495" lon="15.959417990942494"><ele>31.333333333333332</ele><time>2026-03-29T06:31:21.077Z</time></trkpt><trkpt lat="41.933746042654406" lon="15.959486731004837"><ele>32.666666666666664</ele><time>2026-03-29T06:31:22.077Z</time></trkpt><trkpt lat="41.93380615377781" lon="15.959569258281809"><ele>34.0</ele><time>2026-03-29T06:31:23.077Z</time></trkpt><trkpt lat="41.93391141163642" lon="15.959717525314552"><ele>35.33333333333333</ele><time>2026-03-29T06:31:25.077Z</time></trkpt><trkpt lat="41.93395099719494" lon="15.959798071009807"><ele>36.666666666666664</ele><time>2026-03-29T06:31:26.077Z</time></trkpt><trkpt lat="41.93399757961562" lon="15.959860593965466"><ele>38.0</ele><time>2026-03-29T06:31:27.077Z</time></trkpt><trkpt lat="41.933999745805636" lon="15.959952724248808"><ele>41.0</ele><time>2026-03-29T06:31:29.077Z</time></trkpt><trkpt lat="41.93395629473547" lon="15.960052692794065"><ele>44.0</ele><time>2026-03-29T06:31:30.077Z</time></trkpt><trkpt lat="41.933884103699455" lon="15.9601525907023"><ele>47.0</ele><time>2026-03-29T06:31:31.077Z</time></trkpt><trkpt lat="41.933791062796736" lon="15.960270176721773"><ele>50.0</ele><time>2026-03-29T06:31:32.077Z</time></trkpt><trkpt lat="41.93369509175578" lon="15.960391050335012"><ele>53.0</ele><time>2026-03-29T06:31:33.077Z</time></trkpt><trkpt lat="41.933608268617" lon="15.960513710239137"><ele>53.0</ele><time>2026-03-29T06:31:34.077Z</time></trkpt><trkpt lat="41.93352627717605" lon="15.960620397082204"><ele>53.0</ele><time>2026-03-29T06:31:35.077Z</time></trkpt><trkpt lat="41.93345240670665" lon="15.96073819892858"><ele>53.0</ele><time>2026-03-29T06:31:36.077Z</time></trkpt><trkpt lat="41.93338791621255" lon="15.960852392156864"><ele>53.0</ele><time>2026-03-29T06:31:37.077Z</time></trkpt><trkpt lat="41.93331415037955" lon="15.960951585904743"><ele>53.0</ele><time>2026-03-29T06:31:38.077Z</time></trkpt><trkpt lat="41.933227286078406" lon="15.961045238588351"><ele>53.599999999999994</ele><time>2026-03-29T06:31:39.077Z</time></trkpt><trkpt lat="41.9331703871526" lon="15.961126285901615"><ele>54.199999999999996</ele><time>2026-03-29T06:31:40.077Z</time></trkpt><trkpt lat="41.93309875507237" lon="15.961257641759198"><ele>54.8</ele><time>2026-03-29T06:31:42.079Z</time></trkpt><trkpt lat="41.93308477164489" lon="15.961362692585665"><ele>55.4</ele><time>2026-03-29T06:31:44.079Z</time></trkpt><trkpt lat="41.933145595295095" lon="15.961470087008394"><ele>56.0</ele><time>2026-03-29T06:31:46.079Z</time></trkpt><trkpt lat="41.933165183453745" lon="15.96158376174054"><ele>56.00000000000001</ele><time>2026-03-29T06:31:48.08Z</time></trkpt><trkpt lat="41.93313394136937" lon="15.961661896436963"><ele>56.0</ele><time>2026-03-29T06:31:49.079Z</time></trkpt><trkpt lat="41.93304342326421" lon="15.96178788169138"><ele>56.0</ele><time>2026-03-29T06:31:50.079Z</time></trkpt><trkpt lat="41.93297554469799" lon="15.961872012301736"><ele>56.0</ele><time>2026-03-29T06:31:51.079Z</time></trkpt><trkpt lat="41.93290391935399" lon="15.961952357771851"><ele>56.00000000000001</ele><time>2026-03-29T06:31:52.079Z</time></trkpt><trkpt lat="41.932850177006706" lon="15.96200086675903"><ele>56.0</ele><time>2026-03-29T06:31:53.079Z</time></trkpt><trkpt lat="41.932821597443336" lon="15.96208524151423"><ele>57.50000000000001</ele><time>2026-03-29T06:31:55.079Z</time></trkpt><trkpt lat="41.932800628428694" lon="15.962173569079669"><ele>59.0</ele><time>2026-03-29T06:31:57.079Z</time></trkpt><trkpt lat="41.93275981799576" lon="15.962243806822006"><ele>60.5</ele><time>2026-03-29T06:31:58.079Z</time></trkpt><trkpt lat="41.93269523704788" lon="15.962321134122364"><ele>62.0</ele><time>2026-03-29T06:31:59.08Z</time></trkpt><trkpt lat="41.93263070734955" lon="15.96236251969108"><ele>63.50000000000001</ele><time>2026-03-29T06:32:00.08Z</time></trkpt><trkpt lat="41.932539376065264" lon="15.962364571772627"><ele>65.0</ele><time>2026-03-29T06:32:01.08Z</time></trkpt><trkpt lat="41.93243033263132" lon="15.962355504868107"><ele>65.0</ele><time>2026-03-29T06:32:02.08Z</time></trkpt><trkpt lat="41.932292576312456" lon="15.962339521063397"><ele>65.0</ele><time>2026-03-29T06:32:03.08Z</time></trkpt><trkpt lat="41.93214083594641" lon="15.962314816988751"><ele>65.0</ele><time>2026-03-29T06:32:04.08Z</time></trkpt><trkpt lat="41.93197565891502" lon="15.962325315276455"><ele>65.0</ele><time>2026-03-29T06:32:05.08Z</time></trkpt><trkpt lat="41.93184391376133" lon="15.962368146249336"><ele>65.0</ele><time>2026-03-29T06:32:06.08Z</time></trkpt><trkpt lat="41.93172550281334" lon="15.962402778047947"><ele>65.0</ele><time>2026-03-29T06:32:07.08Z</time></trkpt><trkpt lat="41.9316184976231" lon="15.962454978810957"><ele>65.0</ele><time>2026-03-29T06:32:08.08Z</time></trkpt><trkpt lat="41.931495379090855" lon="15.962504864062527"><ele>68.5</ele><time>2026-03-29T06:32:09.08Z</time></trkpt><trkpt lat="41.93139378949888" lon="15.962591521918396"><ele>72.0</ele><time>2026-03-29T06:32:10.08Z</time></trkpt><trkpt lat="41.9313034097091" lon="15.962667889587113"><ele>75.5</ele><time>2026-03-29T06:32:11.08Z</time></trkpt><trkpt lat="41.93121908221269" lon="15.96275375284854"><ele>79.0</ele><time>2026-03-29T06:32:12.08Z</time></trkpt><trkpt lat="41.93113949911488" lon="15.962872488530579"><ele>79.0</ele><time>2026-03-29T06:32:13.08Z</time></trkpt><trkpt lat="41.93105807243612" lon="15.962990766545957"><ele>79.0</ele><time>2026-03-29T06:32:14.08Z</time></trkpt><trkpt lat="41.93094937254494" lon="15.963085669497508"><ele>79.0</ele><time>2026-03-29T06:32:15.08Z</time></trkpt><trkpt lat="41.930809296339824" lon="15.963149415504748"><ele>79.0</ele><time>2026-03-29T06:32:16.08Z</time></trkpt><trkpt lat="41.93069021555593" lon="15.963201497352912"><ele>80.0</ele><time>2026-03-29T06:32:17.08Z</time></trkpt><trkpt lat="41.930552166842084" lon="15.963252044351211"><ele>81.0</ele><time>2026-03-29T06:32:18.08Z</time></trkpt><trkpt lat="41.93041398755479" lon="15.96331569741598"><ele>82.0</ele><time>2026-03-29T06:32:19.08Z</time></trkpt><trkpt lat="41.93028615084359" lon="15.963411051455953"><ele>83.0</ele><time>2026-03-29T06:32:20.08Z</time></trkpt><trkpt lat="41.93016601874149" lon="15.963533882592808"><ele>83.0</ele><time>2026-03-29T06:32:21.08Z</time></trkpt><trkpt lat="41.930061569386794" lon="15.963671648996138"><ele>83.0</ele><time>2026-03-29T06:32:22.08Z</time></trkpt><trkpt lat="41.92996748857732" lon="15.963794143350498"><ele>83.0</ele><time>2026-03-29T06:32:23.08Z</time></trkpt><trkpt lat="41.9298944923072" lon="15.963896372516341"><ele>83.0</ele><time>2026-03-29T06:32:24.08Z</time></trkpt><trkpt lat="41.92982704640226" lon="15.964000643414353"><ele>83.33333333333334</ele><time>2026-03-29T06:32:25.08Z</time></trkpt><trkpt lat="41.92978232246464" lon="15.964086174304033"><ele>83.66666666666667</ele><time>2026-03-29T06:32:26.08Z</time></trkpt><trkpt lat="41.92974053210503" lon="15.964171660461641"><ele>84.0</ele><time>2026-03-29T06:32:27.08Z</time></trkpt><trkpt lat="41.9296996746407" lon="15.9643010090566"><ele>84.33333333333333</ele><time>2026-03-29T06:32:29.08Z</time></trkpt><trkpt lat="41.92966694336285" lon="15.964403679146114"><ele>84.66666666666666</ele><time>2026-03-29T06:32:32.08Z</time></trkpt><trkpt lat="41.929595398288214" lon="15.964499890190654"><ele>85.0</ele><time>2026-03-29T06:32:35.08Z</time></trkpt><trkpt lat="41.92954166710559" lon="15.964597220652552"><ele>85.0</ele><time>2026-03-29T06:32:37.08Z</time></trkpt><trkpt lat="41.92948919879252" lon="15.964645469708175"><ele>85.0</ele><time>2026-03-29T06:32:38.08Z</time></trkpt><trkpt lat="41.92943395715289" lon="15.964717876299527"><ele>85.0</ele><time>2026-03-29T06:32:40.08Z</time></trkpt><trkpt lat="41.92937208421842" lon="15.96480320926023"><ele>85.0</ele><time>2026-03-29T06:32:42.08Z</time></trkpt><trkpt lat="41.92925849600605" lon="15.964894069301659"><ele>85.0</ele><time>2026-03-29T06:32:44.08Z</time></trkpt><trkpt lat="41.929202545802724" lon="15.964954383662997"><ele>85.0</ele><time>2026-03-29T06:32:45.08Z</time></trkpt><trkpt lat="41.92912145942754" lon="15.965071959231237"><ele>86.4</ele><time>2026-03-29T06:32:47.08Z</time></trkpt><trkpt lat="41.929041412287575" lon="15.965179979871206"><ele>87.8</ele><time>2026-03-29T06:32:49.08Z</time></trkpt><trkpt lat="41.928974683251234" lon="15.965251902630547"><ele>89.19999999999999</ele><time>2026-03-29T06:32:51.08Z</time></trkpt><trkpt lat="41.92893904565066" lon="15.965366846085278"><ele>90.6</ele><time>2026-03-29T06:32:53.08Z</time></trkpt><trkpt lat="41.928918372615335" lon="15.965490112125586"><ele>92.0</ele><time>2026-03-29T06:32:55.08Z</time></trkpt><trkpt lat="41.92889021443762" lon="15.965607318203839"><ele>92.0</ele><time>2026-03-29T06:32:57.081Z</time></trkpt><trkpt lat="41.92888125137683" lon="15.9657039064999"><ele>92.0</ele><time>2026-03-29T06:32:58.081Z</time></trkpt><trkpt lat="41.928883086206255" lon="15.965793125747236"><ele>92.0</ele><time>2026-03-29T06:32:59.081Z</time></trkpt><trkpt lat="41.92888603735512" lon="15.965906896653445"><ele>92.0</ele><time>2026-03-29T06:33:01.081Z</time></trkpt><trkpt lat="41.92891369078291" lon="15.966011682830402"><ele>92.0</ele><time>2026-03-29T06:33:04.081Z</time></trkpt><trkpt lat="41.928970761353064" lon="15.966081567865704"><ele>92.0</ele><time>2026-03-29T06:33:07.081Z</time></trkpt><trkpt lat="41.92899098406595" lon="15.966164133667794"><ele>92.0</ele><time>2026-03-29T06:33:10.081Z</time></trkpt><trkpt lat="41.929021568275495" lon="15.966252866788958"><ele>92.83333333333334</ele><time>2026-03-29T06:33:12.081Z</time></trkpt><trkpt lat="41.92906329455829" lon="15.96632234862325"><ele>93.66666666666667</ele><time>2026-03-29T06:33:14.081Z</time></trkpt><trkpt lat="41.9290484376466" lon="15.966435900694604"><ele>94.5</ele><time>2026-03-29T06:33:17.081Z</time></trkpt><trkpt lat="41.929082575790574" lon="15.966559982329198"><ele>95.33333333333334</ele><time>2026-03-29T06:33:20.081Z</time></trkpt><trkpt lat="41.929120493046604" lon="15.966650046817572"><ele>96.16666666666667</ele><time>2026-03-29T06:33:22.081Z</time></trkpt><trkpt lat="41.929158848947374" lon="15.966742616644378"><ele>97.0</ele><time>2026-03-29T06:33:24.081Z</time></trkpt><trkpt lat="41.92918863024742" lon="15.966879181899438"><ele>98.6</ele><time>2026-03-29T06:33:26.081Z</time></trkpt><trkpt lat="41.929225548155856" lon="15.967024829334646"><ele>100.19999999999999</ele><time>2026-03-29T06:33:28.081Z</time></trkpt><trkpt lat="41.92925532443008" lon="15.967172936917617"><ele>101.8</ele><time>2026-03-29T06:33:30.081Z</time></trkpt><trkpt lat="41.92925551919706" lon="15.96726241195583"><ele>103.4</ele><time>2026-03-29T06:33:31.081Z</time></trkpt><trkpt lat="41.92925219558587" lon="15.967346969809334"><ele>105.0</ele><time>2026-03-29T06:33:32.081Z</time></trkpt><trkpt lat="41.92929767059253" lon="15.967540175268935"><ele>111.0</ele><time>2026-03-29T06:33:34.081Z</time></trkpt><trkpt lat="41.929307906011005" lon="15.967712048656066"><ele>117.0</ele><time>2026-03-29T06:33:36.081Z</time></trkpt><trkpt lat="41.92930372690887" lon="15.967868786516581"><ele>123.0</ele><time>2026-03-29T06:33:38.081Z</time></trkpt><trkpt lat="41.92931572688773" lon="15.968010735764517"><ele>129.0</ele><time>2026-03-29T06:33:40.081Z</time></trkpt><trkpt lat="41.92936325384872" lon="15.968140296708368"><ele>129.0</ele><time>2026-03-29T06:33:42.081Z</time></trkpt><trkpt lat="41.92937971415483" lon="15.968241375996186"><ele>129.0</ele><time>2026-03-29T06:33:43.081Z</time></trkpt><trkpt lat="41.92938105588999" lon="15.968363774648038"><ele>129.0</ele><time>2026-03-29T06:33:45.081Z</time></trkpt><trkpt lat="41.92938663655081" lon="15.968483919475842"><ele>129.0</ele><time>2026-03-29T06:33:47.08Z</time></trkpt><trkpt lat="41.92938097298927" lon="15.968573249182114"><ele>129.0</ele><time>2026-03-29T06:33:49.079Z</time></trkpt><trkpt lat="41.9293815248504" lon="15.968659230753996"><ele>129.0</ele><time>2026-03-29T06:33:51.076Z</time></trkpt><trkpt lat="41.929435748413646" lon="15.968747552373397"><ele>131.66666666666666</ele><time>2026-03-29T06:33:53.074Z</time></trkpt><trkpt lat="41.9294640173832" lon="15.9688521553878"><ele>134.33333333333334</ele><time>2026-03-29T06:33:55.071Z</time></trkpt><trkpt lat="41.92947768306983" lon="15.968953638923168"><ele>137.0</ele><time>2026-03-29T06:33:57.069Z</time></trkpt><trkpt lat="41.92951703422725" lon="15.969066208101111"><ele>139.66666666666669</ele><time>2026-03-29T06:33:59.067Z</time></trkpt><trkpt lat="41.929542493827896" lon="15.969166647710386"><ele>142.33333333333334</ele><time>2026-03-29T06:34:01.065Z</time></trkpt><trkpt lat="41.92956425616964" lon="15.969299122482614"><ele>145.0</ele><time>2026-03-29T06:34:03.064Z</time></trkpt><trkpt lat="41.92958772858788" lon="15.969433767922542"><ele>146.4</ele><time>2026-03-29T06:34:05.063Z</time></trkpt><trkpt lat="41.92960144157155" lon="15.969557043635877"><ele>147.8</ele><time>2026-03-29T06:34:07.061Z</time></trkpt><trkpt lat="41.929644556486245" lon="15.969703322684369"><ele>149.2</ele><time>2026-03-29T06:34:09.061Z</time></trkpt><trkpt lat="41.92971186821159" lon="15.96984883232073"><ele>150.6</ele><time>2026-03-29T06:34:11.06Z</time></trkpt><trkpt lat="41.92976284058922" lon="15.969944381261422"><ele>152.0</ele><time>2026-03-29T06:34:12.059Z</time></trkpt><trkpt lat="41.92982749667831" lon="15.970007140419684"><ele>152.66666666666666</ele><time>2026-03-29T06:34:14.059Z</time></trkpt><trkpt lat="41.929903727916" lon="15.970065791742359"><ele>153.33333333333331</ele><time>2026-03-29T06:34:16.058Z</time></trkpt><trkpt lat="41.92997340330679" lon="15.970100555266042"><ele>154.0</ele><time>2026-03-29T06:34:19.057Z</time></trkpt><trkpt lat="41.93004713347613" lon="15.970155773073552"><ele>154.66666666666666</ele><time>2026-03-29T06:34:22.057Z</time></trkpt><trkpt lat="41.93010859338703" lon="15.970208175579138"><ele>155.33333333333334</ele><time>2026-03-29T06:34:25.056Z</time></trkpt><trkpt lat="41.930187917155784" lon="15.970201969137138"><ele>156.0</ele><time>2026-03-29T06:34:29.056Z</time></trkpt><trkpt lat="41.930237045422174" lon="15.970258134453909"><ele>156.0</ele><time>2026-03-29T06:34:36.055Z</time></trkpt><trkpt lat="41.93026248435424" lon="15.970355677706198"><ele>156.0</ele><time>2026-03-29T06:34:53.054Z</time></trkpt><trkpt lat="41.93031001670612" lon="15.970296751627972"><ele>156.0</ele><time>2026-03-29T06:35:00.054Z</time></trkpt><trkpt lat="41.93036112686563" lon="15.970219334987428"><ele>156.0</ele><time>2026-03-29T06:35:05.054Z</time></trkpt><trkpt lat="41.930419487620796" lon="15.97017274407303"><ele>156.0</ele><time>2026-03-29T06:35:08.054Z</time></trkpt><trkpt lat="41.93049713842429" lon="15.970075877695004"><ele>156.0</ele><time>2026-03-29T06:35:10.054Z</time></trkpt><trkpt lat="41.93058497946335" lon="15.969976118505034"><ele>157.5</ele><time>2026-03-29T06:35:12.054Z</time></trkpt><trkpt lat="41.93066075898525" lon="15.969880508566748"><ele>159.0</ele><time>2026-03-29T06:35:14.054Z</time></trkpt><trkpt lat="41.93072261892302" lon="15.969819020166703"><ele>160.5</ele><time>2026-03-29T06:35:16.054Z</time></trkpt><trkpt lat="41.93078217035525" lon="15.969784359677282"><ele>162.0</ele><time>2026-03-29T06:35:17.054Z</time></trkpt><trkpt lat="41.93087453811337" lon="15.969789240046527"><ele>163.5</ele><time>2026-03-29T06:35:19.054Z</time></trkpt><trkpt lat="41.930950404016826" lon="15.969771007049015"><ele>165.0</ele><time>2026-03-29T06:35:21.054Z</time></trkpt><trkpt lat="41.93087339789219" lon="15.969707810701689"><ele>165.0</ele><time>2026-03-29T06:35:28.054Z</time></trkpt><trkpt lat="41.93085759207219" lon="15.969621850035386"><ele>165.0</ele><time>2026-03-29T06:35:33.054Z</time></trkpt><trkpt lat="41.93095085997804" lon="15.969641172445389"><ele>165.0</ele><time>2026-03-29T06:36:21.056Z</time></trkpt><trkpt lat="41.93088987282075" lon="15.96960605241813"><ele>165.0</ele><time>2026-03-29T06:45:10.067Z</time></trkpt><trkpt lat="41.93098433032869" lon="15.969560468907755"><ele>165.0</ele><time>2026-03-29T06:46:21.067Z</time></trkpt><trkpt lat="41.93105139645285" lon="15.969630271530457"><ele>165.0</ele><time>2026-03-29T06:46:25.07Z</time></trkpt><trkpt lat="41.931098617718305" lon="15.969703928221294"><ele>165.0</ele><time>2026-03-29T06:46:28.069Z</time></trkpt><trkpt lat="41.93103960755868" lon="15.969785309978079"><ele>165.0</ele><time>2026-03-29T06:46:30.069Z</time></trkpt><trkpt lat="41.93094576255091" lon="15.969767248417336"><ele>165.0</ele><time>2026-03-29T06:46:32.069Z</time></trkpt><trkpt lat="41.930852401980616" lon="15.9697540541964"><ele>165.0</ele><time>2026-03-29T06:46:34.07Z</time></trkpt><trkpt lat="41.93078306668637" lon="15.969842905936982"><ele>165.0</ele><time>2026-03-29T06:46:36.069Z</time></trkpt><trkpt lat="41.930749223128075" lon="15.969930622252491"><ele>165.0</ele><time>2026-03-29T06:46:38.069Z</time></trkpt><trkpt lat="41.930688376225554" lon="15.970039335332945"><ele>163.5</ele><time>2026-03-29T06:46:40.069Z</time></trkpt><trkpt lat="41.930625179540215" lon="15.970115088564306"><ele>162.0</ele><time>2026-03-29T06:46:41.069Z</time></trkpt><trkpt lat="41.93056813535279" lon="15.970208557674908"><ele>160.5</ele><time>2026-03-29T06:46:42.069Z</time></trkpt><trkpt lat="41.930516854275446" lon="15.970289299459035"><ele>159.0</ele><time>2026-03-29T06:46:43.069Z</time></trkpt><trkpt lat="41.930453517235726" lon="15.970359126421616"><ele>157.5</ele><time>2026-03-29T06:46:44.069Z</time></trkpt><trkpt lat="41.930393683496035" lon="15.970437350986057"><ele>156.0</ele><time>2026-03-29T06:46:45.069Z</time></trkpt><trkpt lat="41.930328951133426" lon="15.970496212255657"><ele>156.0</ele><time>2026-03-29T06:46:46.069Z</time></trkpt><trkpt lat="41.93027200476997" lon="15.970562978622851"><ele>156.0</ele><time>2026-03-29T06:46:47.069Z</time></trkpt><trkpt lat="41.93021512156776" lon="15.970647222754463"><ele>156.0</ele><time>2026-03-29T06:46:49.069Z</time></trkpt><trkpt lat="41.930212329228354" lon="15.970779553454223"><ele>156.0</ele><time>2026-03-29T06:46:52.069Z</time></trkpt><trkpt lat="41.93020168159203" lon="15.970911062103356"><ele>156.0</ele><time>2026-03-29T06:46:55.069Z</time></trkpt><trkpt lat="41.930159090870575" lon="15.970997160494756"><ele>156.0</ele><time>2026-03-29T06:46:57.069Z</time></trkpt><trkpt lat="41.93011649483638" lon="15.971104808271388"><ele>154.6</ele><time>2026-03-29T06:46:59.069Z</time></trkpt><trkpt lat="41.93007061547993" lon="15.97122450244188"><ele>153.2</ele><time>2026-03-29T06:47:01.069Z</time></trkpt><trkpt lat="41.930106127581865" lon="15.971335274049553"><ele>151.8</ele><time>2026-03-29T06:47:03.069Z</time></trkpt><trkpt lat="41.93013139009881" lon="15.971434881200818"><ele>150.4</ele><time>2026-03-29T06:47:05.069Z</time></trkpt><trkpt lat="41.93010335711254" lon="15.97153870194252"><ele>149.0</ele><time>2026-03-29T06:47:07.069Z</time></trkpt><trkpt lat="41.930093508448515" lon="15.971682189981069"><ele>148.16666666666666</ele><time>2026-03-29T06:47:09.069Z</time></trkpt><trkpt lat="41.93004204756632" lon="15.971753892402024"><ele>147.33333333333331</ele><time>2026-03-29T06:47:11.069Z</time></trkpt><trkpt lat="41.92998142400074" lon="15.971864278542734"><ele>146.5</ele><time>2026-03-29T06:47:13.069Z</time></trkpt><trkpt lat="41.92998252596707" lon="15.971959324205008"><ele>145.66666666666666</ele><time>2026-03-29T06:47:15.069Z</time></trkpt><trkpt lat="41.92997497590075" lon="15.972054600128864"><ele>144.83333333333334</ele><time>2026-03-29T06:47:19.069Z</time></trkpt><trkpt lat="41.93001929418499" lon="15.972134105544724"><ele>144.0</ele><time>2026-03-29T06:47:23.069Z</time></trkpt><trkpt lat="41.930075151630255" lon="15.97224032504167"><ele>143.16666666666666</ele><time>2026-03-29T06:47:26.069Z</time></trkpt><trkpt lat="41.93010992102625" lon="15.972330630436007"><ele>142.33333333333334</ele><time>2026-03-29T06:47:28.069Z</time></trkpt><trkpt lat="41.93015174176579" lon="15.972401573911327"><ele>141.5</ele><time>2026-03-29T06:47:30.069Z</time></trkpt><trkpt lat="41.930182043779844" lon="15.972516587656393"><ele>140.66666666666669</ele><time>2026-03-29T06:47:32.069Z</time></trkpt><trkpt lat="41.93025148718281" lon="15.972656236309627"><ele>139.83333333333334</ele><time>2026-03-29T06:47:34.069Z</time></trkpt><trkpt lat="41.93029921786616" lon="15.972722559447337"><ele>139.0</ele><time>2026-03-29T06:47:35.069Z</time></trkpt><trkpt lat="41.93042894602421" lon="15.972886652497982"><ele>136.0</ele><time>2026-03-29T06:47:37.069Z</time></trkpt><trkpt lat="41.9304851966258" lon="15.972974719982163"><ele>133.0</ele><time>2026-03-29T06:47:38.069Z</time></trkpt><trkpt lat="41.930537055837576" lon="15.973099099289694"><ele>130.0</ele><time>2026-03-29T06:47:39.069Z</time></trkpt><trkpt lat="41.930612619406006" lon="15.973234963172317"><ele>127.0</ele><time>2026-03-29T06:47:41.069Z</time></trkpt><trkpt lat="41.93062705799917" lon="15.973356237773777"><ele>124.0</ele><time>2026-03-29T06:47:43.069Z</time></trkpt><trkpt lat="41.930634308798545" lon="15.973450643407723"><ele>122.33333333333334</ele><time>2026-03-29T06:47:44.069Z</time></trkpt><trkpt lat="41.930656872084" lon="15.973576426316745"><ele>120.66666666666667</ele><time>2026-03-29T06:47:46.069Z</time></trkpt><trkpt lat="41.93068189041057" lon="15.973656309659274"><ele>119.0</ele><time>2026-03-29T06:47:48.069Z</time></trkpt><trkpt lat="41.93068915489662" lon="15.973749542597329"><ele>117.33333333333334</ele><time>2026-03-29T06:47:50.069Z</time></trkpt><trkpt lat="41.93066325784191" lon="15.973857440725864"><ele>115.66666666666667</ele><time>2026-03-29T06:47:55.069Z</time></trkpt><trkpt lat="41.9306488879658" lon="15.973949818754031"><ele>114.0</ele><time>2026-03-29T06:48:03.069Z</time></trkpt><trkpt lat="41.9306694326753" lon="15.974033851274534"><ele>114.0</ele><time>2026-03-29T06:48:08.069Z</time></trkpt><trkpt lat="41.930614034430555" lon="15.973992654499238"><ele>114.0</ele><time>2026-03-29T06:48:15.069Z</time></trkpt><trkpt lat="41.93061561465716" lon="15.973897755887382"><ele>114.0</ele><time>2026-03-29T06:48:19.069Z</time></trkpt><trkpt lat="41.93068846969764" lon="15.973861440134156"><ele>114.0</ele><time>2026-03-29T06:48:25.069Z</time></trkpt><trkpt lat="41.93076301787671" lon="15.973942385247422"><ele>114.0</ele><time>2026-03-29T06:48:28.072Z</time></trkpt><trkpt lat="41.93084628675907" lon="15.973963517721964"><ele>114.0</ele><time>2026-03-29T06:48:30.071Z</time></trkpt><trkpt lat="41.93094338175145" lon="15.97393807798652"><ele>111.66666666666667</ele><time>2026-03-29T06:48:32.071Z</time></trkpt><trkpt lat="41.93101502446372" lon="15.973924629024253"><ele>109.33333333333334</ele><time>2026-03-29T06:48:36.071Z</time></trkpt><trkpt lat="41.93109207100846" lon="15.97392393080154"><ele>107.0</ele><time>2026-03-29T06:48:44.072Z</time></trkpt><trkpt lat="41.93119031943407" lon="15.973931774176256"><ele>104.66666666666667</ele><time>2026-03-29T06:48:47.072Z</time></trkpt><trkpt lat="41.93127488617019" lon="15.9739423785773"><ele>102.33333333333334</ele><time>2026-03-29T06:48:50.072Z</time></trkpt><trkpt lat="41.93135535366035" lon="15.973952960488045"><ele>100.0</ele><time>2026-03-29T06:48:54.072Z</time></trkpt><trkpt lat="41.931422404638305" lon="15.974005744403541"><ele>100.00000000000001</ele><time>2026-03-29T06:48:58.072Z</time></trkpt><trkpt lat="41.931492565832976" lon="15.974025605518522"><ele>100.0</ele><time>2026-03-29T06:49:02.072Z</time></trkpt><trkpt lat="41.93155474461885" lon="15.974068238322083"><ele>100.0</ele><time>2026-03-29T06:49:15.072Z</time></trkpt><trkpt lat="41.93163471345512" lon="15.974153467045234"><ele>100.0</ele><time>2026-03-29T06:49:44.072Z</time></trkpt><trkpt lat="41.93173085636747" lon="15.974230535538974"><ele>100.00000000000001</ele><time>2026-03-29T06:49:47.072Z</time></trkpt><trkpt lat="41.931789148536396" lon="15.974265995032283"><ele>100.0</ele><time>2026-03-29T06:49:48.072Z</time></trkpt><trkpt lat="41.93184249032376" lon="15.974318437549725"><ele>95.2</ele><time>2026-03-29T06:49:49.072Z</time></trkpt><trkpt lat="41.93190436273551" lon="15.974436743554358"><ele>90.4</ele><time>2026-03-29T06:49:51.072Z</time></trkpt><trkpt lat="41.93198614690556" lon="15.974563659531324"><ele>85.6</ele><time>2026-03-29T06:49:53.072Z</time></trkpt><trkpt lat="41.93207165413889" lon="15.97466985991839"><ele>80.8</ele><time>2026-03-29T06:49:55.072Z</time></trkpt><trkpt lat="41.93213726863012" lon="15.974758652117824"><ele>76.0</ele><time>2026-03-29T06:49:57.072Z</time></trkpt><trkpt lat="41.932211005933425" lon="15.9748985560539"><ele>76.0</ele><time>2026-03-29T06:49:59.072Z</time></trkpt><trkpt lat="41.932274132712934" lon="15.974984403407122"><ele>76.0</ele><time>2026-03-29T06:50:00.072Z</time></trkpt><trkpt lat="41.93234012242353" lon="15.975081710892924"><ele>76.0</ele><time>2026-03-29T06:50:01.072Z</time></trkpt><trkpt lat="41.93240187187687" lon="15.97517202711763"><ele>76.0</ele><time>2026-03-29T06:50:02.072Z</time></trkpt><trkpt lat="41.93246792359519" lon="15.975265055103495"><ele>76.0</ele><time>2026-03-29T06:50:03.072Z</time></trkpt><trkpt lat="41.93253234015544" lon="15.975358551869714"><ele>72.66666666666666</ele><time>2026-03-29T06:50:04.072Z</time></trkpt><trkpt lat="41.93258781319322" lon="15.975439531917514"><ele>69.33333333333333</ele><time>2026-03-29T06:50:05.072Z</time></trkpt><trkpt lat="41.93265200880508" lon="15.975512804226653"><ele>66.0</ele><time>2026-03-29T06:50:06.072Z</time></trkpt><trkpt lat="41.93271625243754" lon="15.975588691934234"><ele>62.66666666666667</ele><time>2026-03-29T06:50:07.072Z</time></trkpt><trkpt lat="41.932787426778205" lon="15.975657174227488"><ele>59.333333333333336</ele><time>2026-03-29T06:50:08.072Z</time></trkpt><trkpt lat="41.932847660901395" lon="15.975719078335253"><ele>56.0</ele><time>2026-03-29T06:50:09.072Z</time></trkpt><trkpt lat="41.9329135780864" lon="15.97578380686543"><ele>54.66666666666667</ele><time>2026-03-29T06:50:10.072Z</time></trkpt><trkpt lat="41.9329628155658" lon="15.975857253344927"><ele>53.333333333333336</ele><time>2026-03-29T06:50:11.072Z</time></trkpt><trkpt lat="41.933013498567995" lon="15.975943709533656"><ele>52.0</ele><time>2026-03-29T06:50:12.072Z</time></trkpt><trkpt lat="41.93306233916353" lon="15.975997431543362"><ele>50.66666666666667</ele><time>2026-03-29T06:50:13.072Z</time></trkpt><trkpt lat="41.93313721122818" lon="15.97608363183762"><ele>49.333333333333336</ele><time>2026-03-29T06:50:15.072Z</time></trkpt><trkpt lat="41.933201372058576" lon="15.976140455926304"><ele>48.0</ele><time>2026-03-29T06:50:17.072Z</time></trkpt><trkpt lat="41.933272192565525" lon="15.97617857950817"><ele>48.0</ele><time>2026-03-29T06:50:19.072Z</time></trkpt><trkpt lat="41.93336074165888" lon="15.976243316567134"><ele>48.0</ele><time>2026-03-29T06:50:21.072Z</time></trkpt><trkpt lat="41.93345700578147" lon="15.976294886524958"><ele>48.0</ele><time>2026-03-29T06:50:23.072Z</time></trkpt><trkpt lat="41.93355378563509" lon="15.976336924620071"><ele>48.0</ele><time>2026-03-29T06:50:25.072Z</time></trkpt><trkpt lat="41.93362188265995" lon="15.976424355827522"><ele>48.0</ele><time>2026-03-29T06:50:27.072Z</time></trkpt><trkpt lat="41.93360378089834" lon="15.976507862198897"><ele>47.833333333333336</ele><time>2026-03-29T06:50:32.072Z</time></trkpt><trkpt lat="41.93359018559332" lon="15.976591905041172"><ele>47.666666666666664</ele><time>2026-03-29T06:50:38.074Z</time></trkpt><trkpt lat="41.93354271151743" lon="15.976659746207014"><ele>47.5</ele><time>2026-03-29T06:50:42.074Z</time></trkpt><trkpt lat="41.93348731137705" lon="15.976740328947484"><ele>47.33333333333333</ele><time>2026-03-29T06:50:47.074Z</time></trkpt><trkpt lat="41.93342577124961" lon="15.976821271321509"><ele>47.166666666666664</ele><time>2026-03-29T06:50:50.074Z</time></trkpt><trkpt lat="41.93330654887188" lon="15.976857608782632"><ele>47.0</ele><time>2026-03-29T06:50:52.074Z</time></trkpt><trkpt lat="41.93321142963289" lon="15.976890110738253"><ele>45.0</ele><time>2026-03-29T06:50:53.074Z</time></trkpt><trkpt lat="41.93310702379714" lon="15.976924408331946"><ele>43.0</ele><time>2026-03-29T06:50:54.074Z</time></trkpt><trkpt lat="41.93299492293153" lon="15.976979882664981"><ele>41.0</ele><time>2026-03-29T06:50:55.074Z</time></trkpt><trkpt lat="41.93292737149246" lon="15.977005248105304"><ele>39.0</ele><time>2026-03-29T06:50:56.074Z</time></trkpt><trkpt lat="41.93285620187126" lon="15.977045146866526"><ele>37.0</ele><time>2026-03-29T06:50:57.074Z</time></trkpt><trkpt lat="41.932798671316284" lon="15.977097567231409"><ele>35.0</ele><time>2026-03-29T06:50:58.074Z</time></trkpt><trkpt lat="41.932729950804806" lon="15.977143046983764"><ele>35.0</ele><time>2026-03-29T06:51:00.074Z</time></trkpt><trkpt lat="41.93266576486398" lon="15.977192059827916"><ele>35.0</ele><time>2026-03-29T06:51:02.074Z</time></trkpt><trkpt lat="41.932611850730346" lon="15.977242217589954"><ele>35.0</ele><time>2026-03-29T06:51:04.074Z</time></trkpt><trkpt lat="41.93251397628165" lon="15.977336616795354"><ele>35.0</ele><time>2026-03-29T06:51:06.074Z</time></trkpt><trkpt lat="41.93246014856642" lon="15.97741077506063"><ele>35.0</ele><time>2026-03-29T06:51:07.074Z</time></trkpt><trkpt lat="41.93237894813788" lon="15.97750673451095"><ele>35.0</ele><time>2026-03-29T06:51:08.074Z</time></trkpt><trkpt lat="41.93232980952701" lon="15.977593760120783"><ele>34.6</ele><time>2026-03-29T06:51:09.074Z</time></trkpt><trkpt lat="41.932262674542734" lon="15.977695429666927"><ele>34.2</ele><time>2026-03-29T06:51:10.074Z</time></trkpt><trkpt lat="41.93218909429652" lon="15.977769537162617"><ele>33.8</ele><time>2026-03-29T06:51:11.074Z</time></trkpt><trkpt lat="41.93209680956814" lon="15.97787059713892"><ele>33.4</ele><time>2026-03-29T06:51:12.074Z</time></trkpt><trkpt lat="41.93200543193226" lon="15.977960812808393"><ele>33.0</ele><time>2026-03-29T06:51:13.074Z</time></trkpt><trkpt lat="41.93192111159374" lon="15.978049903708012"><ele>33.0</ele><time>2026-03-29T06:51:14.074Z</time></trkpt><trkpt lat="41.93186823496762" lon="15.978121319455058"><ele>33.0</ele><time>2026-03-29T06:51:15.074Z</time></trkpt><trkpt lat="41.931816026004526" lon="15.978179121068733"><ele>33.0</ele><time>2026-03-29T06:51:16.074Z</time></trkpt><trkpt lat="41.93176557814386" lon="15.978249006870993"><ele>33.0</ele><time>2026-03-29T06:51:17.074Z</time></trkpt><trkpt lat="41.93172179408776" lon="15.978360232284272"><ele>33.0</ele><time>2026-03-29T06:51:19.074Z</time></trkpt><trkpt lat="41.93165586120599" lon="15.978454194682508"><ele>33.0</ele><time>2026-03-29T06:51:21.074Z</time></trkpt><trkpt lat="41.93156842603673" lon="15.978534133975522"><ele>32.6</ele><time>2026-03-29T06:51:23.074Z</time></trkpt><trkpt lat="41.93148551353016" lon="15.978552279417162"><ele>32.199999999999996</ele><time>2026-03-29T06:51:26.074Z</time></trkpt><trkpt lat="41.931585768984334" lon="15.978634529889352"><ele>31.8</ele><time>2026-03-29T06:51:30.074Z</time></trkpt><trkpt lat="41.93167793441441" lon="15.978647404695547"><ele>31.4</ele><time>2026-03-29T06:51:31.074Z</time></trkpt><trkpt lat="41.931769647615766" lon="15.978666105857561"><ele>31.0</ele><time>2026-03-29T06:51:32.074Z</time></trkpt><trkpt lat="41.93185168964763" lon="15.978687113900854"><ele>29.833333333333336</ele><time>2026-03-29T06:51:33.074Z</time></trkpt><trkpt lat="41.93194070901297" lon="15.978723495021365"><ele>28.666666666666668</ele><time>2026-03-29T06:51:34.074Z</time></trkpt><trkpt lat="41.93201426322886" lon="15.978758903371933"><ele>27.5</ele><time>2026-03-29T06:51:35.074Z</time></trkpt><trkpt lat="41.93207131678787" lon="15.978824925150288"><ele>26.333333333333336</ele><time>2026-03-29T06:51:36.074Z</time></trkpt><trkpt lat="41.93211210217114" lon="15.978917492814608"><ele>25.166666666666668</ele><time>2026-03-29T06:51:37.074Z</time></trkpt><trkpt lat="41.93214341717069" lon="15.979026113745238"><ele>24.0</ele><time>2026-03-29T06:51:38.074Z</time></trkpt><trkpt lat="41.9321352220443" lon="15.97921910688501"><ele>24.0</ele><time>2026-03-29T06:51:39.074Z</time></trkpt><trkpt lat="41.932155372517435" lon="15.979439987775644"><ele>24.0</ele><time>2026-03-29T06:51:40.074Z</time></trkpt><trkpt lat="41.93216435926071" lon="15.979623122561557"><ele>24.0</ele><time>2026-03-29T06:51:41.074Z</time></trkpt><trkpt lat="41.93218030775133" lon="15.979770694087927"><ele>24.0</ele><time>2026-03-29T06:51:42.074Z</time></trkpt><trkpt lat="41.932214206119745" lon="15.979887041870144"><ele>24.0</ele><time>2026-03-29T06:51:43.074Z</time></trkpt><trkpt lat="41.932265764296005" lon="15.979991706695008"><ele>24.0</ele><time>2026-03-29T06:51:44.074Z</time></trkpt><trkpt lat="41.932342390445484" lon="15.980053768737319"><ele>24.0</ele><time>2026-03-29T06:51:45.074Z</time></trkpt><trkpt lat="41.932446645215954" lon="15.980102257075337"><ele>24.0</ele><time>2026-03-29T06:51:46.074Z</time></trkpt><trkpt lat="41.93253857087152" lon="15.980145520306968"><ele>24.0</ele><time>2026-03-29T06:51:47.074Z</time></trkpt><trkpt lat="41.93262125862084" lon="15.980188626557585"><ele>23.666666666666668</ele><time>2026-03-29T06:51:48.074Z</time></trkpt><trkpt lat="41.93271269011747" lon="15.980219100980808"><ele>23.333333333333332</ele><time>2026-03-29T06:51:49.074Z</time></trkpt><trkpt lat="41.932797792975386" lon="15.980219506930572"><ele>23.0</ele><time>2026-03-29T06:51:50.074Z</time></trkpt><trkpt lat="41.93287577675801" lon="15.980228099156184"><ele>22.666666666666664</ele><time>2026-03-29T06:51:51.074Z</time></trkpt><trkpt lat="41.932937909837236" lon="15.980254983979627"><ele>22.333333333333332</ele><time>2026-03-29T06:51:52.074Z</time></trkpt><trkpt lat="41.933003715019176" lon="15.980357016879609"><ele>22.0</ele><time>2026-03-29T06:51:54.074Z</time></trkpt><trkpt lat="41.933014877925025" lon="15.980456005102978"><ele>22.0</ele><time>2026-03-29T06:51:55.074Z</time></trkpt><trkpt lat="41.933004027131965" lon="15.980600798776145"><ele>22.0</ele><time>2026-03-29T06:51:56.074Z</time></trkpt><trkpt lat="41.93298610302142" lon="15.980797523905542"><ele>22.0</ele><time>2026-03-29T06:51:57.074Z</time></trkpt><trkpt lat="41.93295485511086" lon="15.981018673155448"><ele>22.0</ele><time>2026-03-29T06:51:58.074Z</time></trkpt><trkpt lat="41.932929950141144" lon="15.981235487255312"><ele>22.200000000000003</ele><time>2026-03-29T06:51:59.074Z</time></trkpt><trkpt lat="41.93290787291339" lon="15.981383357107157"><ele>22.4</ele><time>2026-03-29T06:52:00.074Z</time></trkpt><trkpt lat="41.93289931933572" lon="15.981482882475394"><ele>22.6</ele><time>2026-03-29T06:52:01.074Z</time></trkpt><trkpt lat="41.93288140251564" lon="15.981588089289424"><ele>22.799999999999997</ele><time>2026-03-29T06:52:02.074Z</time></trkpt><trkpt lat="41.932841497240005" lon="15.98171760833735"><ele>23.0</ele><time>2026-03-29T06:52:04.074Z</time></trkpt><trkpt lat="41.932735936262915" lon="15.981761222207572"><ele>23.0</ele><time>2026-03-29T06:52:06.074Z</time></trkpt><trkpt lat="41.9326340340541" lon="15.981786771653626"><ele>23.0</ele><time>2026-03-29T06:52:07.074Z</time></trkpt><trkpt lat="41.93251289349447" lon="15.981829582478518"><ele>23.0</ele><time>2026-03-29T06:52:08.074Z</time></trkpt><trkpt lat="41.93236817202402" lon="15.981878734057613"><ele>23.0</ele><time>2026-03-29T06:52:09.074Z</time></trkpt><trkpt lat="41.93225094037068" lon="15.981918239848598"><ele>24.0</ele><time>2026-03-29T06:52:10.074Z</time></trkpt><trkpt lat="41.93212431780204" lon="15.981926603899298"><ele>25.0</ele><time>2026-03-29T06:52:11.074Z</time></trkpt><trkpt lat="41.93197290933361" lon="15.981964214594617"><ele>26.0</ele><time>2026-03-29T06:52:12.074Z</time></trkpt><trkpt lat="41.93180668838734" lon="15.982026085787174"><ele>26.75</ele><time>2026-03-29T06:52:13.074Z</time></trkpt><trkpt lat="41.93165611398734" lon="15.98206790915232"><ele>27.5</ele><time>2026-03-29T06:52:14.074Z</time></trkpt><trkpt lat="41.93152499455616" lon="15.982098455815379"><ele>28.25</ele><time>2026-03-29T06:52:15.074Z</time></trkpt><trkpt lat="41.93139265850145" lon="15.982128115416328"><ele>29.0</ele><time>2026-03-29T06:52:16.074Z</time></trkpt><trkpt lat="41.93125738786787" lon="15.98217170659402"><ele>29.0</ele><time>2026-03-29T06:52:17.074Z</time></trkpt><trkpt lat="41.93112177208057" lon="15.982212511942222"><ele>29.0</ele><time>2026-03-29T06:52:18.074Z</time></trkpt><trkpt lat="41.93099656481033" lon="15.982239572818864"><ele>29.0</ele><time>2026-03-29T06:52:19.074Z</time></trkpt><trkpt lat="41.930866120029094" lon="15.98226652126392"><ele>29.0</ele><time>2026-03-29T06:52:20.074Z</time></trkpt><trkpt lat="41.93073622498168" lon="15.982301171655045"><ele>29.4</ele><time>2026-03-29T06:52:21.074Z</time></trkpt><trkpt lat="41.930635428652046" lon="15.982319002122042"><ele>29.799999999999997</ele><time>2026-03-29T06:52:22.074Z</time></trkpt><trkpt lat="41.93055143850378" lon="15.982314739025382"><ele>30.200000000000003</ele><time>2026-03-29T06:52:23.074Z</time></trkpt><trkpt lat="41.930477590332856" lon="15.982319345772032"><ele>30.6</ele><time>2026-03-29T06:52:24.074Z</time></trkpt><trkpt lat="41.93038034904702" lon="15.982301595030739"><ele>31.0</ele><time>2026-03-29T06:52:25.074Z</time></trkpt><trkpt lat="41.93028792639743" lon="15.982310241863281"><ele>31.0</ele><time>2026-03-29T06:52:26.074Z</time></trkpt><trkpt lat="41.93022563284587" lon="15.982294594454755"><ele>31.0</ele><time>2026-03-29T06:52:27.074Z</time></trkpt><trkpt lat="41.930151846792974" lon="15.982290238907582"><ele>31.0</ele><time>2026-03-29T06:52:28.074Z</time></trkpt><trkpt lat="41.930068692133" lon="15.982303981885712"><ele>31.0</ele><time>2026-03-29T06:52:29.074Z</time></trkpt><trkpt lat="41.9299612581214" lon="15.982366782704755"><ele>31.0</ele><time>2026-03-29T06:52:30.074Z</time></trkpt><trkpt lat="41.92983123070477" lon="15.982472657929884"><ele>31.666666666666668</ele><time>2026-03-29T06:52:31.074Z</time></trkpt><trkpt lat="41.92967457508406" lon="15.982603914984152"><ele>32.333333333333336</ele><time>2026-03-29T06:52:32.074Z</time></trkpt><trkpt lat="41.929512986580264" lon="15.982714699724328"><ele>33.0</ele><time>2026-03-29T06:52:33.074Z</time></trkpt><trkpt lat="41.9293614991737" lon="15.982804018330505"><ele>33.0</ele><time>2026-03-29T06:52:34.074Z</time></trkpt><trkpt lat="41.92923300835851" lon="15.982892914420885"><ele>33.0</ele><time>2026-03-29T06:52:35.074Z</time></trkpt><trkpt lat="41.92910545230601" lon="15.982978241710674"><ele>33.0</ele><time>2026-03-29T06:52:36.074Z</time></trkpt><trkpt lat="41.928979441226815" lon="15.983022516347978"><ele>33.0</ele><time>2026-03-29T06:52:37.074Z</time></trkpt><trkpt lat="41.92882947904152" lon="15.98304457828009"><ele>34.0</ele><time>2026-03-29T06:52:38.074Z</time></trkpt><trkpt lat="41.92868033132297" lon="15.983049312346834"><ele>35.0</ele><time>2026-03-29T06:52:39.074Z</time></trkpt><trkpt lat="41.92858307480626" lon="15.98305631776028"><ele>36.0</ele><time>2026-03-29T06:52:40.077Z</time></trkpt><trkpt lat="41.92851070200705" lon="15.98308744788249"><ele>37.0</ele><time>2026-03-29T06:52:41.076Z</time></trkpt><trkpt lat="41.9284292074951" lon="15.983154479942895"><ele>38.0</ele><time>2026-03-29T06:52:42.076Z</time></trkpt><trkpt lat="41.9283285963775" lon="15.983265399694478"><ele>38.4</ele><time>2026-03-29T06:52:43.076Z</time></trkpt><trkpt lat="41.928212392499134" lon="15.983358283067366"><ele>38.8</ele><time>2026-03-29T06:52:44.077Z</time></trkpt><trkpt lat="41.928097166965024" lon="15.98340569024159"><ele>39.2</ele><time>2026-03-29T06:52:45.077Z</time></trkpt><trkpt lat="41.92800224795022" lon="15.983413549833577"><ele>39.6</ele><time>2026-03-29T06:52:46.077Z</time></trkpt><trkpt lat="41.9279158641046" lon="15.983396522651418"><ele>40.0</ele><time>2026-03-29T06:52:47.076Z</time></trkpt><trkpt lat="41.92778297998343" lon="15.983339201139392"><ele>40.0</ele><time>2026-03-29T06:52:48.076Z</time></trkpt><trkpt lat="41.92764893350853" lon="15.983320742233746"><ele>40.0</ele><time>2026-03-29T06:52:49.076Z</time></trkpt><trkpt lat="41.92752860502767" lon="15.983331472965041"><ele>40.0</ele><time>2026-03-29T06:52:50.076Z</time></trkpt><trkpt lat="41.9274148089952" lon="15.983383280151266"><ele>40.0</ele><time>2026-03-29T06:52:51.076Z</time></trkpt><trkpt lat="41.92731900320738" lon="15.983421384862842"><ele>40.5</ele><time>2026-03-29T06:52:52.077Z</time></trkpt><trkpt lat="41.92724621184069" lon="15.983458824600083"><ele>41.0</ele><time>2026-03-29T06:52:53.077Z</time></trkpt><trkpt lat="41.927196266837754" lon="15.983527671803106"><ele>41.5</ele><time>2026-03-29T06:52:54.077Z</time></trkpt><trkpt lat="41.9271603760355" lon="15.983616591778148"><ele>42.0</ele><time>2026-03-29T06:52:55.077Z</time></trkpt><trkpt lat="41.927124254948396" lon="15.983720969194039"><ele>42.5</ele><time>2026-03-29T06:52:56.077Z</time></trkpt><trkpt lat="41.927061615612416" lon="15.983806344903853"><ele>43.0</ele><time>2026-03-29T06:52:57.077Z</time></trkpt><trkpt lat="41.926952810477104" lon="15.983908853705998"><ele>43.0</ele><time>2026-03-29T06:52:58.077Z</time></trkpt><trkpt lat="41.92683705637442" lon="15.983996631945095"><ele>43.0</ele><time>2026-03-29T06:52:59.077Z</time></trkpt><trkpt lat="41.92674358001418" lon="15.984076194310274"><ele>43.0</ele><time>2026-03-29T06:53:00.077Z</time></trkpt><trkpt lat="41.92665064170009" lon="15.984177683262276"><ele>43.0</ele><time>2026-03-29T06:53:01.077Z</time></trkpt><trkpt lat="41.92654744210737" lon="15.984292493134197"><ele>44.0</ele><time>2026-03-29T06:53:02.077Z</time></trkpt><trkpt lat="41.92642214723779" lon="15.98440121174551"><ele>45.0</ele><time>2026-03-29T06:53:03.077Z</time></trkpt><trkpt lat="41.926270563910926" lon="15.984518404859323"><ele>46.0</ele><time>2026-03-29T06:53:04.077Z</time></trkpt><trkpt lat="41.92611419518949" lon="15.984624699941994"><ele>46.0</ele><time>2026-03-29T06:53:05.077Z</time></trkpt><trkpt lat="41.92597459271815" lon="15.984719861511385"><ele>46.0</ele><time>2026-03-29T06:53:06.077Z</time></trkpt><trkpt lat="41.92584101603161" lon="15.984812861067923"><ele>46.0</ele><time>2026-03-29T06:53:07.077Z</time></trkpt><trkpt lat="41.925728137520615" lon="15.984881450687634"><ele>46.0</ele><time>2026-03-29T06:53:08.077Z</time></trkpt><trkpt lat="41.92559833279318" lon="15.984932059146265"><ele>47.333333333333336</ele><time>2026-03-29T06:53:09.077Z</time></trkpt><trkpt lat="41.925459956406044" lon="15.984992221657397"><ele>48.66666666666667</ele><time>2026-03-29T06:53:10.077Z</time></trkpt><trkpt lat="41.9253150787896" lon="15.985023887349373"><ele>50.0</ele><time>2026-03-29T06:53:11.077Z</time></trkpt><trkpt lat="41.92515246248937" lon="15.985031914662834"><ele>50.66666666666667</ele><time>2026-03-29T06:53:12.077Z</time></trkpt><trkpt lat="41.924979740728276" lon="15.985017338855728"><ele>51.33333333333333</ele><time>2026-03-29T06:53:13.077Z</time></trkpt><trkpt lat="41.92480341572004" lon="15.985009975776434"><ele>52.0</ele><time>2026-03-29T06:53:14.077Z</time></trkpt><trkpt lat="41.924647265603845" lon="15.984998289669045"><ele>52.0</ele><time>2026-03-29T06:53:15.077Z</time></trkpt><trkpt lat="41.92451291569173" lon="15.985005720267296"><ele>52.0</ele><time>2026-03-29T06:53:16.077Z</time></trkpt><trkpt lat="41.92438893530039" lon="15.98499566296667"><ele>52.0</ele><time>2026-03-29T06:53:17.077Z</time></trkpt><trkpt lat="41.92425522676091" lon="15.984970169675197"><ele>52.0</ele><time>2026-03-29T06:53:18.077Z</time></trkpt><trkpt lat="41.924138004654914" lon="15.984929356908756"><ele>52.0</ele><time>2026-03-29T06:53:19.077Z</time></trkpt><trkpt lat="41.92405233468388" lon="15.984882993869093"><ele>52.0</ele><time>2026-03-29T06:53:20.077Z</time></trkpt><trkpt lat="41.92397731330811" lon="15.984818797703417"><ele>52.0</ele><time>2026-03-29T06:53:21.077Z</time></trkpt><trkpt lat="41.92391012739748" lon="15.9846990128884"><ele>52.0</ele><time>2026-03-29T06:53:22.077Z</time></trkpt><trkpt lat="41.92383808558742" lon="15.984602062378752"><ele>52.0</ele><time>2026-03-29T06:53:23.077Z</time></trkpt><trkpt lat="41.923787169287415" lon="15.984541460058201"><ele>52.0</ele><time>2026-03-29T06:53:24.077Z</time></trkpt><trkpt lat="41.92369924852592" lon="15.984518006521267"><ele>52.0</ele><time>2026-03-29T06:53:25.077Z</time></trkpt><trkpt lat="41.92357301226062" lon="15.98450149071642"><ele>52.0</ele><time>2026-03-29T06:53:26.077Z</time></trkpt><trkpt lat="41.92345263236514" lon="15.984507758460191"><ele>52.0</ele><time>2026-03-29T06:53:27.077Z</time></trkpt><trkpt lat="41.92334212315059" lon="15.984535985754396"><ele>52.0</ele><time>2026-03-29T06:53:28.077Z</time></trkpt><trkpt lat="41.92324395882291" lon="15.984573968701936"><ele>52.33333333333333</ele><time>2026-03-29T06:53:29.077Z</time></trkpt><trkpt lat="41.92315509786134" lon="15.984628412923284"><ele>52.666666666666664</ele><time>2026-03-29T06:53:30.077Z</time></trkpt><trkpt lat="41.92306963152795" lon="15.984673281950492"><ele>53.0</ele><time>2026-03-29T06:53:31.077Z</time></trkpt><trkpt lat="41.92300704514986" lon="15.984695809915888"><ele>53.33333333333333</ele><time>2026-03-29T06:53:32.077Z</time></trkpt><trkpt lat="41.922924843168964" lon="15.984660141198063"><ele>53.666666666666664</ele><time>2026-03-29T06:53:48.077Z</time></trkpt><trkpt lat="41.92299866523866" lon="15.984634349737153"><ele>54.0</ele><time>2026-03-29T06:53:54.077Z</time></trkpt><trkpt lat="41.92308294422057" lon="15.984674602755447"><ele>54.0</ele><time>2026-03-29T06:53:56.077Z</time></trkpt><trkpt lat="41.92314536188809" lon="15.98465223640479"><ele>54.0</ele><time>2026-03-29T06:53:59.077Z</time></trkpt><trkpt lat="41.923199567393034" lon="15.9845963080339"><ele>54.0</ele><time>2026-03-29T06:54:00.077Z</time></trkpt><trkpt lat="41.923272865918975" lon="15.984540123521741"><ele>54.0</ele><time>2026-03-29T06:54:01.077Z</time></trkpt><trkpt lat="41.92333541084467" lon="15.98450349633871"><ele>54.0</ele><time>2026-03-29T06:54:02.077Z</time></trkpt><trkpt lat="41.923441526033336" lon="15.984508063913665"><ele>54.0</ele><time>2026-03-29T06:54:04.077Z</time></trkpt><trkpt lat="41.923557737194095" lon="15.984506090903952"><ele>53.6</ele><time>2026-03-29T06:54:06.077Z</time></trkpt><trkpt lat="41.923648415780264" lon="15.984552207435376"><ele>53.2</ele><time>2026-03-29T06:54:08.077Z</time></trkpt><trkpt lat="41.9237255396949" lon="15.984642292626956"><ele>52.800000000000004</ele><time>2026-03-29T06:54:10.077Z</time></trkpt><trkpt lat="41.92379152414346" lon="15.984780811090488"><ele>52.400000000000006</ele><time>2026-03-29T06:54:12.077Z</time></trkpt><trkpt lat="41.92385190532455" lon="15.984867355756627"><ele>52.0</ele><time>2026-03-29T06:54:13.077Z</time></trkpt><trkpt lat="41.92391250506102" lon="15.98493812646393"><ele>52.0</ele><time>2026-03-29T06:54:14.077Z</time></trkpt><trkpt lat="41.92398737971477" lon="15.98500010930135"><ele>52.0</ele><time>2026-03-29T06:54:15.077Z</time></trkpt><trkpt lat="41.92407704431785" lon="15.985043772860243"><ele>52.0</ele><time>2026-03-29T06:54:16.077Z</time></trkpt><trkpt lat="41.924178569776025" lon="15.985082821324983"><ele>52.0</ele><time>2026-03-29T06:54:17.077Z</time></trkpt><trkpt lat="41.9242769961766" lon="15.985115469061265"><ele>52.0</ele><time>2026-03-29T06:54:18.077Z</time></trkpt><trkpt lat="41.92438049025162" lon="15.985120322239737"><ele>52.0</ele><time>2026-03-29T06:54:19.077Z</time></trkpt><trkpt lat="41.92446895561465" lon="15.985112596084313"><ele>52.0</ele><time>2026-03-29T06:54:20.077Z</time></trkpt><trkpt lat="41.924591294105525" lon="15.9851220204709"><ele>52.0</ele><time>2026-03-29T06:54:21.077Z</time></trkpt><trkpt lat="41.924687805181996" lon="15.985131423690232"><ele>52.0</ele><time>2026-03-29T06:54:22.077Z</time></trkpt><trkpt lat="41.92477462830483" lon="15.98514722524845"><ele>52.0</ele><time>2026-03-29T06:54:24.077Z</time></trkpt><trkpt lat="41.92476603829474" lon="15.985272361003759"><ele>52.0</ele><time>2026-03-29T06:54:27.077Z</time></trkpt><trkpt lat="41.924656953206394" lon="15.985320813995207"><ele>52.0</ele><time>2026-03-29T06:54:29.077Z</time></trkpt><trkpt lat="41.924558250838054" lon="15.985337491658683"><ele>52.0</ele><time>2026-03-29T06:54:30.077Z</time></trkpt><trkpt lat="41.92447158646861" lon="15.985304316576798"><ele>52.0</ele><time>2026-03-29T06:54:31.077Z</time></trkpt><trkpt lat="41.92440399303025" lon="15.985249465873006"><ele>52.0</ele><time>2026-03-29T06:54:32.077Z</time></trkpt><trkpt lat="41.92434099078142" lon="15.985201280180577"><ele>52.0</ele><time>2026-03-29T06:54:33.077Z</time></trkpt><trkpt lat="41.92422759947267" lon="15.985181408130607"><ele>52.0</ele><time>2026-03-29T06:54:35.077Z</time></trkpt><trkpt lat="41.92412095235942" lon="15.98516901310457"><ele>52.0</ele><time>2026-03-29T06:54:37.077Z</time></trkpt><trkpt lat="41.92405498417043" lon="15.98514041234413"><ele>52.0</ele><time>2026-03-29T06:54:38.077Z</time></trkpt><trkpt lat="41.92398378303297" lon="15.98509418316789"><ele>52.0</ele><time>2026-03-29T06:54:39.077Z</time></trkpt><trkpt lat="41.9239015723934" lon="15.985055864260405"><ele>51.99999999999999</ele><time>2026-03-29T06:54:40.077Z</time></trkpt><trkpt lat="41.92384070333305" lon="15.985004276969597"><ele>52.0</ele><time>2026-03-29T06:54:41.077Z</time></trkpt><trkpt lat="41.923748874842204" lon="15.984922554545298"><ele>52.0</ele><time>2026-03-29T06:54:43.077Z</time></trkpt><trkpt lat="41.92368649632346" lon="15.984861352835676"><ele>52.0</ele><time>2026-03-29T06:54:45.077Z</time></trkpt><trkpt lat="41.92361850196112" lon="15.984782308750678"><ele>51.99999999999999</ele><time>2026-03-29T06:54:47.079Z</time></trkpt><trkpt lat="41.923537609088456" lon="15.984800331304374"><ele>52.0</ele><time>2026-03-29T06:54:49.079Z</time></trkpt><trkpt lat="41.92346571842314" lon="15.984844918536767"><ele>51.99999999999999</ele><time>2026-03-29T06:54:50.079Z</time></trkpt><trkpt lat="41.923400480043945" lon="15.984893169572937"><ele>52.0</ele><time>2026-03-29T06:54:51.079Z</time></trkpt><trkpt lat="41.92333200136013" lon="15.98494432787797"><ele>52.0</ele><time>2026-03-29T06:54:52.079Z</time></trkpt><trkpt lat="41.923264254887435" lon="15.98499337392013"><ele>52.0</ele><time>2026-03-29T06:54:53.079Z</time></trkpt><trkpt lat="41.9231844915074" lon="15.985021440208985"><ele>51.99999999999999</ele><time>2026-03-29T06:54:54.079Z</time></trkpt><trkpt lat="41.92311522005384" lon="15.985031833230293"><ele>52.0</ele><time>2026-03-29T06:54:55.079Z</time></trkpt><trkpt lat="41.92300105926884" lon="15.985021545954101"><ele>52.33333333333333</ele><time>2026-03-29T06:54:57.079Z</time></trkpt><trkpt lat="41.92292559671338" lon="15.985009276670278"><ele>52.666666666666664</ele><time>2026-03-29T06:54:59.079Z</time></trkpt><trkpt lat="41.92287486097505" lon="15.985145282879989"><ele>53.0</ele><time>2026-03-29T06:55:02.079Z</time></trkpt><trkpt lat="41.922859896645264" lon="15.985237389595529"><ele>53.33333333333333</ele><time>2026-03-29T06:55:06.079Z</time></trkpt><trkpt lat="41.92282721861996" lon="15.985340184496586"><ele>53.666666666666664</ele><time>2026-03-29T06:55:09.079Z</time></trkpt><trkpt lat="41.92280780813783" lon="15.985452490408955"><ele>54.0</ele><time>2026-03-29T06:55:11.079Z</time></trkpt><trkpt lat="41.92280397294225" lon="15.985555765177827"><ele>54.166666666666664</ele><time>2026-03-29T06:55:12.079Z</time></trkpt><trkpt lat="41.922828749175046" lon="15.985684650662625"><ele>54.33333333333333</ele><time>2026-03-29T06:55:13.079Z</time></trkpt><trkpt lat="41.92284969052392" lon="15.985796336076698"><ele>54.5</ele><time>2026-03-29T06:55:14.079Z</time></trkpt><trkpt lat="41.92287250773415" lon="15.985888611021943"><ele>54.666666666666664</ele><time>2026-03-29T06:55:15.079Z</time></trkpt><trkpt lat="41.922925582789375" lon="15.986027877549635"><ele>54.83333333333333</ele><time>2026-03-29T06:55:17.079Z</time></trkpt><trkpt lat="41.92295178365608" lon="15.98611567667737"><ele>55.0</ele><time>2026-03-29T06:55:19.079Z</time></trkpt><trkpt lat="41.92299303491793" lon="15.98618691868292"><ele>55.4</ele><time>2026-03-29T06:55:22.079Z</time></trkpt><trkpt lat="41.92300450264944" lon="15.986284821846214"><ele>55.8</ele><time>2026-03-29T06:55:29.079Z</time></trkpt><trkpt lat="41.92294917730712" lon="15.98632681348111"><ele>56.2</ele><time>2026-03-29T06:55:30.079Z</time></trkpt><trkpt lat="41.92286644617574" lon="15.986382135945025"><ele>56.6</ele><time>2026-03-29T06:55:31.079Z</time></trkpt><trkpt lat="41.922731994537294" lon="15.986455513256942"><ele>57.0</ele><time>2026-03-29T06:55:32.079Z</time></trkpt><trkpt lat="41.92259714350873" lon="15.986553889798575"><ele>57.33333333333333</ele><time>2026-03-29T06:55:33.079Z</time></trkpt><trkpt lat="41.922428543887015" lon="15.98666164198088"><ele>57.666666666666664</ele><time>2026-03-29T06:55:34.079Z</time></trkpt><trkpt lat="41.92227547886188" lon="15.986757122552994"><ele>58.0</ele><time>2026-03-29T06:55:35.079Z</time></trkpt><trkpt lat="41.922108722055896" lon="15.986830163555656"><ele>59.33333333333333</ele><time>2026-03-29T06:55:36.079Z</time></trkpt><trkpt lat="41.92196178178149" lon="15.986952700504217"><ele>60.66666666666667</ele><time>2026-03-29T06:55:37.079Z</time></trkpt><trkpt lat="41.921812349009414" lon="15.987049781023826"><ele>62.0</ele><time>2026-03-29T06:55:38.079Z</time></trkpt><trkpt lat="41.92167869693342" lon="15.987120774462685"><ele>62.0</ele><time>2026-03-29T06:55:39.079Z</time></trkpt><trkpt lat="41.921552631445095" lon="15.987206512934831"><ele>62.0</ele><time>2026-03-29T06:55:40.079Z</time></trkpt><trkpt lat="41.92143124040546" lon="15.987310719949761"><ele>62.0</ele><time>2026-03-29T06:55:41.079Z</time></trkpt><trkpt lat="41.9212871647086" lon="15.987415112331774"><ele>62.0</ele><time>2026-03-29T06:55:42.079Z</time></trkpt><trkpt lat="41.921123000648365" lon="15.98749918711128"><ele>63.25</ele><time>2026-03-29T06:55:43.079Z</time></trkpt><trkpt lat="41.920981442817215" lon="15.987592455913152"><ele>64.5</ele><time>2026-03-29T06:55:44.079Z</time></trkpt><trkpt lat="41.92085954105879" lon="15.987654431372444"><ele>65.75</ele><time>2026-03-29T06:55:45.079Z</time></trkpt><trkpt lat="41.920744064298184" lon="15.987702753053805"><ele>67.0</ele><time>2026-03-29T06:55:46.079Z</time></trkpt><trkpt lat="41.92061995004014" lon="15.987731902381547"><ele>67.0</ele><time>2026-03-29T06:55:47.079Z</time></trkpt><trkpt lat="41.920508268047186" lon="15.987739956058387"><ele>67.0</ele><time>2026-03-29T06:55:48.079Z</time></trkpt><trkpt lat="41.920427256070504" lon="15.987734223296304"><ele>67.0</ele><time>2026-03-29T06:55:49.079Z</time></trkpt><trkpt lat="41.92035289096703" lon="15.98771599434448"><ele>67.0</ele><time>2026-03-29T06:55:50.079Z</time></trkpt><trkpt lat="41.92029544137785" lon="15.98767723112901"><ele>67.0</ele><time>2026-03-29T06:55:51.079Z</time></trkpt><trkpt lat="41.92017812274972" lon="15.98763860936994"><ele>67.0</ele><time>2026-03-29T06:55:53.079Z</time></trkpt><trkpt lat="41.92010595220814" lon="15.987606222357677"><ele>67.0</ele><time>2026-03-29T06:55:54.079Z</time></trkpt><trkpt lat="41.91999174899439" lon="15.987549956759867"><ele>67.0</ele><time>2026-03-29T06:55:56.079Z</time></trkpt><trkpt lat="41.919927430615495" lon="15.987497447036096"><ele>67.0</ele><time>2026-03-29T06:55:59.079Z</time></trkpt><trkpt lat="41.919839742018" lon="15.987502647873827"><ele>67.0</ele><time>2026-03-29T06:56:03.079Z</time></trkpt><trkpt lat="41.91979467281292" lon="15.987589451188414"><ele>67.0</ele><time>2026-03-29T06:56:05.074Z</time></trkpt><trkpt lat="41.91970549228429" lon="15.987690683880057"><ele>67.16666666666666</ele><time>2026-03-29T06:56:07.069Z</time></trkpt><trkpt lat="41.91962149602373" lon="15.987755131569319"><ele>67.33333333333333</ele><time>2026-03-29T06:56:09.064Z</time></trkpt><trkpt lat="41.91956784197877" lon="15.98781867295304"><ele>67.5</ele><time>2026-03-29T06:56:10.062Z</time></trkpt><trkpt lat="41.91948942768861" lon="15.987859689336256"><ele>67.66666666666667</ele><time>2026-03-29T06:56:11.06Z</time></trkpt><trkpt lat="41.91942492177478" lon="15.987914608268783"><ele>67.83333333333334</ele><time>2026-03-29T06:56:12.058Z</time></trkpt><trkpt lat="41.91935165239541" lon="15.98797334214218"><ele>68.0</ele><time>2026-03-29T06:56:13.057Z</time></trkpt><trkpt lat="41.91927501019728" lon="15.988054130204139"><ele>68.6</ele><time>2026-03-29T06:56:14.055Z</time></trkpt><trkpt lat="41.919198155168466" lon="15.988120475759647"><ele>69.19999999999999</ele><time>2026-03-29T06:56:15.054Z</time></trkpt><trkpt lat="41.91913799517147" lon="15.988222936680819"><ele>69.8</ele><time>2026-03-29T06:56:16.052Z</time></trkpt><trkpt lat="41.9190934874065" lon="15.98830360923119"><ele>70.39999999999999</ele><time>2026-03-29T06:56:17.051Z</time></trkpt><trkpt lat="41.919016829641706" lon="15.98840734419879"><ele>71.0</ele><time>2026-03-29T06:56:19.049Z</time></trkpt><trkpt lat="41.91890042679718" lon="15.988470054488959"><ele>72.2</ele><time>2026-03-29T06:56:21.046Z</time></trkpt><trkpt lat="41.918822059086516" lon="15.988488295525304"><ele>73.39999999999999</ele><time>2026-03-29T06:56:22.045Z</time></trkpt><trkpt lat="41.918733805774195" lon="15.988490807229203"><ele>74.6</ele><time>2026-03-29T06:56:23.045Z</time></trkpt><trkpt lat="41.918630740306746" lon="15.98850829054515"><ele>75.8</ele><time>2026-03-29T06:56:24.044Z</time></trkpt><trkpt lat="41.9185351320209" lon="15.988542808753234"><ele>77.0</ele><time>2026-03-29T06:56:25.043Z</time></trkpt><trkpt lat="41.91842784167295" lon="15.988575964773856"><ele>76.6</ele><time>2026-03-29T06:56:26.042Z</time></trkpt><trkpt lat="41.91833394159091" lon="15.988636827498132"><ele>76.2</ele><time>2026-03-29T06:56:27.041Z</time></trkpt><trkpt lat="41.91823207994756" lon="15.988691726048591"><ele>75.8</ele><time>2026-03-29T06:56:28.041Z</time></trkpt><trkpt lat="41.91812979032148" lon="15.988746418311658"><ele>75.4</ele><time>2026-03-29T06:56:29.04Z</time></trkpt><trkpt lat="41.9180312440305" lon="15.988796588018023"><ele>75.0</ele><time>2026-03-29T06:56:30.04Z</time></trkpt><trkpt lat="41.91793410429322" lon="15.988845476082869"><ele>75.0</ele><time>2026-03-29T06:56:31.039Z</time></trkpt><trkpt lat="41.917839572752" lon="15.988898155750336"><ele>75.0</ele><time>2026-03-29T06:56:32.039Z</time></trkpt><trkpt lat="41.917737384315885" lon="15.988950446075622"><ele>75.0</ele><time>2026-03-29T06:56:33.038Z</time></trkpt><trkpt lat="41.917640769129925" lon="15.988998679868724"><ele>75.0</ele><time>2026-03-29T06:56:34.038Z</time></trkpt><trkpt lat="41.91753413863284" lon="15.989060011199756"><ele>75.0</ele><time>2026-03-29T06:56:35.037Z</time></trkpt><trkpt lat="41.91743520001003" lon="15.989106103771395"><ele>75.2</ele><time>2026-03-29T06:56:36.037Z</time></trkpt><trkpt lat="41.917331303521415" lon="15.989151513338726"><ele>75.4</ele><time>2026-03-29T06:56:37.036Z</time></trkpt><trkpt lat="41.91723040843829" lon="15.98918648733595"><ele>75.6</ele><time>2026-03-29T06:56:38.036Z</time></trkpt><trkpt lat="41.917123837562876" lon="15.98921935208642"><ele>75.8</ele><time>2026-03-29T06:56:39.036Z</time></trkpt><trkpt lat="41.917015385788204" lon="15.98926095068396"><ele>76.0</ele><time>2026-03-29T06:56:40.035Z</time></trkpt><trkpt lat="41.91693485045373" lon="15.989281914194725"><ele>76.83333333333333</ele><time>2026-03-29T06:56:41.035Z</time></trkpt><trkpt lat="41.91686768340389" lon="15.989308646773905"><ele>77.66666666666666</ele><time>2026-03-29T06:56:42.035Z</time></trkpt><trkpt lat="41.916742441852385" lon="15.989304304933176"><ele>78.5</ele><time>2026-03-29T06:56:45.034Z</time></trkpt><trkpt lat="41.91667031446817" lon="15.989312429963364"><ele>79.33333333333333</ele><time>2026-03-29T06:56:47.034Z</time></trkpt><trkpt lat="41.916609459320135" lon="15.989381744954374"><ele>80.16666666666667</ele><time>2026-03-29T06:56:54.035Z</time></trkpt><trkpt lat="41.9165859989499" lon="15.989503973890185"><ele>81.0</ele><time>2026-03-29T06:56:56.034Z</time></trkpt><trkpt lat="41.916562367571885" lon="15.989616021660249"><ele>81.0</ele><time>2026-03-29T06:56:58.035Z</time></trkpt><trkpt lat="41.91652808004029" lon="15.989703450062978"><ele>81.0</ele><time>2026-03-29T06:56:59.034Z</time></trkpt><trkpt lat="41.9164832843937" lon="15.989773335105086"><ele>81.0</ele><time>2026-03-29T06:57:00.034Z</time></trkpt><trkpt lat="41.91639978498403" lon="15.989823471093697"><ele>81.0</ele><time>2026-03-29T06:57:01.034Z</time></trkpt><trkpt lat="41.91631088775454" lon="15.989841454904491"><ele>81.0</ele><time>2026-03-29T06:57:02.034Z</time></trkpt><trkpt lat="41.91624763792842" lon="15.98986168341873"><ele>81.0</ele><time>2026-03-29T06:57:03.034Z</time></trkpt><trkpt lat="41.916148579548945" lon="15.989909031821842"><ele>81.0</ele><time>2026-03-29T06:57:05.034Z</time></trkpt><trkpt lat="41.91608738988992" lon="15.98997334744821"><ele>81.0</ele><time>2026-03-29T06:57:07.034Z</time></trkpt><trkpt lat="41.91601591276862" lon="15.990048231473416"><ele>81.0</ele><time>2026-03-29T06:57:10.034Z</time></trkpt><trkpt lat="41.91596149540728" lon="15.990108906796758"><ele>81.0</ele><time>2026-03-29T06:57:12.034Z</time></trkpt><trkpt lat="41.915905080745766" lon="15.990176797170689"><ele>81.0</ele><time>2026-03-29T06:57:14.034Z</time></trkpt><trkpt lat="41.91579954009382" lon="15.990283661688206"><ele>81.0</ele><time>2026-03-29T06:57:16.033Z</time></trkpt><trkpt lat="41.915704967241254" lon="15.990301904152664"><ele>82.4</ele><time>2026-03-29T06:57:18.033Z</time></trkpt><trkpt lat="41.91559744158528" lon="15.990237060310823"><ele>83.8</ele><time>2026-03-29T06:57:20.033Z</time></trkpt><trkpt lat="41.91551870110594" lon="15.990192200380502"><ele>85.2</ele><time>2026-03-29T06:57:21.033Z</time></trkpt><trkpt lat="41.91541067023877" lon="15.990110445133226"><ele>86.60000000000001</ele><time>2026-03-29T06:57:22.033Z</time></trkpt><trkpt lat="41.91533250099653" lon="15.990042136460714"><ele>88.0</ele><time>2026-03-29T06:57:23.033Z</time></trkpt><trkpt lat="41.91525914337052" lon="15.990019672996347"><ele>87.5</ele><time>2026-03-29T06:57:24.033Z</time></trkpt><trkpt lat="41.91518454396409" lon="15.989887716352237"><ele>87.0</ele><time>2026-03-29T06:57:26.033Z</time></trkpt><trkpt lat="41.91516132512532" lon="15.989801688925189"><ele>86.5</ele><time>2026-03-29T06:57:27.033Z</time></trkpt><trkpt lat="41.91512175649522" lon="15.989710639517396"><ele>86.0</ele><time>2026-03-29T06:57:28.033Z</time></trkpt><trkpt lat="41.91509390082297" lon="15.989629218893887"><ele>85.5</ele><time>2026-03-29T06:57:29.033Z</time></trkpt><trkpt lat="41.915012039644424" lon="15.989572895265805"><ele>85.0</ele><time>2026-03-29T06:57:31.033Z</time></trkpt><trkpt lat="41.91493753400736" lon="15.989562829060482"><ele>85.0</ele><time>2026-03-29T06:57:32.033Z</time></trkpt><trkpt lat="41.91484516127649" lon="15.989550846747314"><ele>85.0</ele><time>2026-03-29T06:57:33.033Z</time></trkpt><trkpt lat="41.91476131773274" lon="15.989543179105514"><ele>85.0</ele><time>2026-03-29T06:57:34.033Z</time></trkpt><trkpt lat="41.914666102305006" lon="15.989537625026779"><ele>85.0</ele><time>2026-03-29T06:57:35.033Z</time></trkpt><trkpt lat="41.91457709151714" lon="15.989553669509462"><ele>85.0</ele><time>2026-03-29T06:57:36.033Z</time></trkpt><trkpt lat="41.914440346635544" lon="15.989542547189233"><ele>85.0</ele><time>2026-03-29T06:57:37.033Z</time></trkpt><trkpt lat="41.91431910319077" lon="15.989548585847881"><ele>85.0</ele><time>2026-03-29T06:57:38.033Z</time></trkpt><trkpt lat="41.91421786509004" lon="15.989540616433173"><ele>85.0</ele><time>2026-03-29T06:57:39.033Z</time></trkpt><trkpt lat="41.91411661041982" lon="15.989516722666595"><ele>85.0</ele><time>2026-03-29T06:57:40.033Z</time></trkpt><trkpt lat="41.91400807316908" lon="15.989470462468946"><ele>85.0</ele><time>2026-03-29T06:57:41.033Z</time></trkpt><trkpt lat="41.913884241902224" lon="15.989447756524102"><ele>85.8</ele><time>2026-03-29T06:57:42.033Z</time></trkpt><trkpt lat="41.913787492452414" lon="15.989446945666344"><ele>86.6</ele><time>2026-03-29T06:57:43.033Z</time></trkpt><trkpt lat="41.91369938538318" lon="15.989440022566258"><ele>87.4</ele><time>2026-03-29T06:57:44.033Z</time></trkpt><trkpt lat="41.91360646411724" lon="15.989423850105712"><ele>88.2</ele><time>2026-03-29T06:57:45.033Z</time></trkpt><trkpt lat="41.91350936276191" lon="15.989409760257422"><ele>89.0</ele><time>2026-03-29T06:57:46.033Z</time></trkpt><trkpt lat="41.91340164660622" lon="15.989397656545108"><ele>89.4</ele><time>2026-03-29T06:57:47.033Z</time></trkpt><trkpt lat="41.91329091281175" lon="15.989393282463798"><ele>89.80000000000001</ele><time>2026-03-29T06:57:48.033Z</time></trkpt><trkpt lat="41.91318920211716" lon="15.989388595170583"><ele>90.19999999999999</ele><time>2026-03-29T06:57:49.033Z</time></trkpt><trkpt lat="41.91309797801391" lon="15.989367400162553"><ele>90.6</ele><time>2026-03-29T06:57:50.033Z</time></trkpt><trkpt lat="41.91301306876104" lon="15.989325145597821"><ele>91.0</ele><time>2026-03-29T06:57:51.033Z</time></trkpt><trkpt lat="41.912903853564984" lon="15.989294321589535"><ele>91.0</ele><time>2026-03-29T06:57:52.033Z</time></trkpt><trkpt lat="41.91278160564841" lon="15.989252973178756"><ele>91.0</ele><time>2026-03-29T06:57:53.033Z</time></trkpt><trkpt lat="41.91266728230116" lon="15.989211452871851"><ele>91.0</ele><time>2026-03-29T06:57:54.033Z</time></trkpt><trkpt lat="41.912566018791516" lon="15.989206576861825"><ele>91.0</ele><time>2026-03-29T06:57:55.033Z</time></trkpt><trkpt lat="41.91248216912372" lon="15.989194241365668"><ele>91.0</ele><time>2026-03-29T06:57:56.033Z</time></trkpt><trkpt lat="41.91241619717452" lon="15.989176920006669"><ele>91.16666666666666</ele><time>2026-03-29T06:57:57.033Z</time></trkpt><trkpt lat="41.91235467122929" lon="15.989151340754063"><ele>91.33333333333333</ele><time>2026-03-29T06:57:58.033Z</time></trkpt><trkpt lat="41.91228358360389" lon="15.989136352912965"><ele>91.5</ele><time>2026-03-29T06:57:59.033Z</time></trkpt><trkpt lat="41.91221123476605" lon="15.989115434792419"><ele>91.66666666666667</ele><time>2026-03-29T06:58:00.033Z</time></trkpt><trkpt lat="41.91209883523749" lon="15.989105037651955"><ele>91.83333333333334</ele><time>2026-03-29T06:58:02.033Z</time></trkpt><trkpt lat="41.91198439704061" lon="15.989112125440448"><ele>92.0</ele><time>2026-03-29T06:58:04.033Z</time></trkpt><trkpt lat="41.9119174847068" lon="15.989111716525546"><ele>92.0</ele><time>2026-03-29T06:58:05.033Z</time></trkpt><trkpt lat="41.91185211015096" lon="15.989104044919456"><ele>92.0</ele><time>2026-03-29T06:58:06.033Z</time></trkpt><trkpt lat="41.911786266741714" lon="15.989097920169474"><ele>92.0</ele><time>2026-03-29T06:58:07.033Z</time></trkpt><trkpt lat="41.91169968294947" lon="15.989103467073141"><ele>92.0</ele><time>2026-03-29T06:58:08.033Z</time></trkpt><trkpt lat="41.91160453480908" lon="15.989117769170862"><ele>92.0</ele><time>2026-03-29T06:58:09.032Z</time></trkpt><trkpt lat="41.91151725542747" lon="15.989144141961111"><ele>92.0</ele><time>2026-03-29T06:58:10.032Z</time></trkpt><trkpt lat="41.911425995842535" lon="15.98919769210664"><ele>92.83333333333334</ele><time>2026-03-29T06:58:12.032Z</time></trkpt><trkpt lat="41.91136299002898" lon="15.989255096786845"><ele>93.66666666666667</ele><time>2026-03-29T06:58:14.032Z</time></trkpt><trkpt lat="41.91130924006802" lon="15.989305248262216"><ele>94.5</ele><time>2026-03-29T06:58:15.032Z</time></trkpt><trkpt lat="41.911248710860185" lon="15.98936215748044"><ele>95.33333333333334</ele><time>2026-03-29T06:58:16.032Z</time></trkpt><trkpt lat="41.91118796781173" lon="15.989418849202194"><ele>96.16666666666667</ele><time>2026-03-29T06:58:17.032Z</time></trkpt><trkpt lat="41.911117939010644" lon="15.989490894127618"><ele>97.0</ele><time>2026-03-29T06:58:18.032Z</time></trkpt><trkpt lat="41.91103963180917" lon="15.989567351730162"><ele>97.0</ele><time>2026-03-29T06:58:19.032Z</time></trkpt><trkpt lat="41.91094977911878" lon="15.989643414042677"><ele>97.0</ele><time>2026-03-29T06:58:20.032Z</time></trkpt><trkpt lat="41.910845682534855" lon="15.98973390376431"><ele>97.0</ele><time>2026-03-29T06:58:21.032Z</time></trkpt><trkpt lat="41.9107263390524" lon="15.98982409980513"><ele>97.0</ele><time>2026-03-29T06:58:22.032Z</time></trkpt><trkpt lat="41.91062770348142" lon="15.989875439431035"><ele>97.6</ele><time>2026-03-29T06:58:23.032Z</time></trkpt><trkpt lat="41.91055366113232" lon="15.989899382843001"><ele>98.19999999999999</ele><time>2026-03-29T06:58:24.032Z</time></trkpt><trkpt lat="41.91048512002791" lon="15.98991182622006"><ele>98.8</ele><time>2026-03-29T06:58:25.032Z</time></trkpt><trkpt lat="41.91034980839217" lon="15.989906428332354"><ele>99.4</ele><time>2026-03-29T06:58:27.032Z</time></trkpt><trkpt lat="41.910281626663995" lon="15.989912430046653"><ele>100.0</ele><time>2026-03-29T06:58:28.032Z</time></trkpt><trkpt lat="41.91017235000036" lon="15.98992812929158"><ele>100.4</ele><time>2026-03-29T06:58:30.032Z</time></trkpt><trkpt lat="41.910070638280324" lon="15.989953592092144"><ele>100.8</ele><time>2026-03-29T06:58:32.032Z</time></trkpt><trkpt lat="41.910005927166935" lon="15.989966910983304"><ele>101.19999999999999</ele><time>2026-03-29T06:58:38.032Z</time></trkpt><trkpt lat="41.909896827435446" lon="15.989934214860748"><ele>101.6</ele><time>2026-03-29T06:58:40.032Z</time></trkpt><trkpt lat="41.909812219464825" lon="15.989905455105907"><ele>102.0</ele><time>2026-03-29T06:58:41.032Z</time></trkpt><trkpt lat="41.9097170995915" lon="15.989857972757356"><ele>102.0</ele><time>2026-03-29T06:58:42.032Z</time></trkpt><trkpt lat="41.90959665568575" lon="15.989803292604782"><ele>102.0</ele><time>2026-03-29T06:58:43.032Z</time></trkpt><trkpt lat="41.90948968534579" lon="15.989761615266888"><ele>102.0</ele><time>2026-03-29T06:58:44.032Z</time></trkpt><trkpt lat="41.9093870914877" lon="15.989717027021358"><ele>102.0</ele><time>2026-03-29T06:58:45.032Z</time></trkpt><trkpt lat="41.90929086368082" lon="15.989669756825409"><ele>102.0</ele><time>2026-03-29T06:58:46.032Z</time></trkpt><trkpt lat="41.90921287322009" lon="15.989619914982418"><ele>103.0</ele><time>2026-03-29T06:58:47.032Z</time></trkpt><trkpt lat="41.909151616182264" lon="15.989584325847828"><ele>104.0</ele><time>2026-03-29T06:58:48.032Z</time></trkpt><trkpt lat="41.909082299318804" lon="15.989550135092008"><ele>105.0</ele><time>2026-03-29T06:58:49.032Z</time></trkpt><trkpt lat="41.90900350225328" lon="15.989531444659018"><ele>106.0</ele><time>2026-03-29T06:58:50.032Z</time></trkpt><trkpt lat="41.908935669252735" lon="15.989522944510025"><ele>107.0</ele><time>2026-03-29T06:58:51.032Z</time></trkpt><trkpt lat="41.9087967891419" lon="15.98954867940473"><ele>108.0</ele><time>2026-03-29T06:58:53.032Z</time></trkpt><trkpt lat="41.90869630180044" lon="15.989561964773978"><ele>108.0</ele><time>2026-03-29T06:58:54.032Z</time></trkpt><trkpt lat="41.90858917896954" lon="15.989561536908015"><ele>108.0</ele><time>2026-03-29T06:58:55.032Z</time></trkpt><trkpt lat="41.90847124724778" lon="15.989565504179536"><ele>108.0</ele><time>2026-03-29T06:58:56.032Z</time></trkpt><trkpt lat="41.90835316529519" lon="15.98954713465444"><ele>108.0</ele><time>2026-03-29T06:58:57.033Z</time></trkpt><trkpt lat="41.90824724156067" lon="15.989526091424093"><ele>108.2</ele><time>2026-03-29T06:58:58.034Z</time></trkpt><trkpt lat="41.90815404461572" lon="15.989497489286094"><ele>108.4</ele><time>2026-03-29T06:58:59.034Z</time></trkpt><trkpt lat="41.90805217987268" lon="15.989457516736536"><ele>108.60000000000001</ele><time>2026-03-29T06:59:00.034Z</time></trkpt><trkpt lat="41.907936892713145" lon="15.98940840644232"><ele>108.80000000000001</ele><time>2026-03-29T06:59:01.033Z</time></trkpt><trkpt lat="41.90781958254799" lon="15.989364332474416"><ele>109.0</ele><time>2026-03-29T06:59:02.033Z</time></trkpt><trkpt lat="41.907718103047415" lon="15.989309811128335"><ele>109.00000000000001</ele><time>2026-03-29T06:59:03.034Z</time></trkpt><trkpt lat="41.907638026398025" lon="15.989268889366983"><ele>109.0</ele><time>2026-03-29T06:59:04.034Z</time></trkpt><trkpt lat="41.907573267030926" lon="15.989256668132498"><ele>109.0</ele><time>2026-03-29T06:59:05.034Z</time></trkpt><trkpt lat="41.90748836862497" lon="15.989250527232"><ele>109.0</ele><time>2026-03-29T06:59:07.033Z</time></trkpt><trkpt lat="41.90743439233499" lon="15.989300965212685"><ele>109.00000000000001</ele><time>2026-03-29T06:59:10.033Z</time></trkpt><trkpt lat="41.907362252957896" lon="15.989326112135522"><ele>109.0</ele><time>2026-03-29T06:59:51.033Z</time></trkpt><trkpt lat="41.907274405362735" lon="15.989411595105251"><ele>109.4</ele><time>2026-03-29T06:59:53.033Z</time></trkpt><trkpt lat="41.90719471230077" lon="15.989471977295706"><ele>109.80000000000001</ele><time>2026-03-29T06:59:54.033Z</time></trkpt><trkpt lat="41.907121006594586" lon="15.989521868511996"><ele>110.19999999999999</ele><time>2026-03-29T06:59:55.033Z</time></trkpt><trkpt lat="41.90703256433525" lon="15.989547062291777"><ele>110.6</ele><time>2026-03-29T06:59:56.033Z</time></trkpt><trkpt lat="41.906983210078224" lon="15.989699981532063"><ele>111.0</ele><time>2026-03-29T06:59:58.033Z</time></trkpt><trkpt lat="41.90700638006825" lon="15.9898246372282"><ele>111.0</ele><time>2026-03-29T06:59:59.033Z</time></trkpt><trkpt lat="41.90700724983304" lon="15.989990139258747"><ele>111.0</ele><time>2026-03-29T07:00:00.033Z</time></trkpt><trkpt lat="41.90700525498625" lon="15.990166124037719"><ele>111.0</ele><time>2026-03-29T07:00:01.033Z</time></trkpt><trkpt lat="41.90701314234622" lon="15.990368166395788"><ele>111.0</ele><time>2026-03-29T07:00:02.033Z</time></trkpt><trkpt lat="41.90702108533723" lon="15.990511250720017"><ele>112.33333333333333</ele><time>2026-03-29T07:00:03.033Z</time></trkpt><trkpt lat="41.90704591782532" lon="15.99062241343053"><ele>113.66666666666666</ele><time>2026-03-29T07:00:04.033Z</time></trkpt><trkpt lat="41.90705638846852" lon="15.990709847732175"><ele>115.0</ele><time>2026-03-29T07:00:05.033Z</time></trkpt><trkpt lat="41.90707301748531" lon="15.990796912934071"><ele>116.33333333333333</ele><time>2026-03-29T07:00:06.033Z</time></trkpt><trkpt lat="41.90715093440933" lon="15.990944806569926"><ele>117.66666666666666</ele><time>2026-03-29T07:00:08.033Z</time></trkpt><trkpt lat="41.907185041737506" lon="15.99102442434653"><ele>119.0</ele><time>2026-03-29T07:00:10.033Z</time></trkpt><trkpt lat="41.90722819373134" lon="15.991140183769808"><ele>121.80000000000001</ele><time>2026-03-29T07:00:13.033Z</time></trkpt><trkpt lat="41.90728363951718" lon="15.991239071026575"><ele>124.60000000000001</ele><time>2026-03-29T07:00:15.033Z</time></trkpt><trkpt lat="41.90730607594506" lon="15.991327380026108"><ele>127.4</ele><time>2026-03-29T07:00:17.033Z</time></trkpt><trkpt lat="41.907346940299604" lon="15.991457654015038"><ele>130.20000000000002</ele><time>2026-03-29T07:00:19.033Z</time></trkpt><trkpt lat="41.907417429603385" lon="15.99158480429618"><ele>133.0</ele><time>2026-03-29T07:00:21.033Z</time></trkpt><trkpt lat="41.90745029595426" lon="15.991680049370185"><ele>136.0</ele><time>2026-03-29T07:00:22.033Z</time></trkpt><trkpt lat="41.907470532690596" lon="15.991850840981625"><ele>139.0</ele><time>2026-03-29T07:00:24.033Z</time></trkpt><trkpt lat="41.907482732787315" lon="15.991957143203921"><ele>142.0</ele><time>2026-03-29T07:00:25.033Z</time></trkpt><trkpt lat="41.9074970710112" lon="15.992058514598744"><ele>145.0</ele><time>2026-03-29T07:00:26.033Z</time></trkpt><trkpt lat="41.90748836366025" lon="15.992168160927363"><ele>148.0</ele><time>2026-03-29T07:00:27.033Z</time></trkpt><trkpt lat="41.907485269836464" lon="15.99227997495204"><ele>148.0</ele><time>2026-03-29T07:00:28.033Z</time></trkpt><trkpt lat="41.907471225796165" lon="15.992393592778878"><ele>148.0</ele><time>2026-03-29T07:00:29.033Z</time></trkpt><trkpt lat="41.907461160091714" lon="15.99250585037768"><ele>148.0</ele><time>2026-03-29T07:00:30.033Z</time></trkpt><trkpt lat="41.90743220176134" lon="15.99262736709883"><ele>148.0</ele><time>2026-03-29T07:00:31.033Z</time></trkpt><trkpt lat="41.90744090061515" lon="15.992793929675269"><ele>148.0</ele><time>2026-03-29T07:00:32.033Z</time></trkpt><trkpt lat="41.90745213861455" lon="15.992965402581888"><ele>151.5</ele><time>2026-03-29T07:00:33.033Z</time></trkpt><trkpt lat="41.907437713540716" lon="15.993105424345819"><ele>155.0</ele><time>2026-03-29T07:00:34.032Z</time></trkpt><trkpt lat="41.907391719277236" lon="15.99326024385959"><ele>158.5</ele><time>2026-03-29T07:00:35.032Z</time></trkpt><trkpt lat="41.907351789411294" lon="15.993429861029377"><ele>162.0</ele><time>2026-03-29T07:00:36.032Z</time></trkpt><trkpt lat="41.907319603103836" lon="15.993602788673433"><ele>164.0</ele><time>2026-03-29T07:00:37.032Z</time></trkpt><trkpt lat="41.90726942660155" lon="15.993707219874043"><ele>166.0</ele><time>2026-03-29T07:00:38.032Z</time></trkpt><trkpt lat="41.90722023806737" lon="15.993802382075469"><ele>168.0</ele><time>2026-03-29T07:00:39.032Z</time></trkpt><trkpt lat="41.90718858105983" lon="15.993888450669898"><ele>170.0</ele><time>2026-03-29T07:00:40.032Z</time></trkpt><trkpt lat="41.90717743641187" lon="15.994007428126059"><ele>172.0</ele><time>2026-03-29T07:00:41.032Z</time></trkpt><trkpt lat="41.90716112092364" lon="15.994117665932652"><ele>174.0</ele><time>2026-03-29T07:00:42.032Z</time></trkpt><trkpt lat="41.90714783515661" lon="15.994237793633113"><ele>175.39999999999998</ele><time>2026-03-29T07:00:43.032Z</time></trkpt><trkpt lat="41.90715307619907" lon="15.99434416468179"><ele>176.8</ele><time>2026-03-29T07:00:44.032Z</time></trkpt><trkpt lat="41.90715018273805" lon="15.99447666958315"><ele>178.2</ele><time>2026-03-29T07:00:45.032Z</time></trkpt><trkpt lat="41.90711563166375" lon="15.994582717862723"><ele>179.60000000000002</ele><time>2026-03-29T07:00:46.032Z</time></trkpt><trkpt lat="41.907066416413" lon="15.994700785281035"><ele>181.0</ele><time>2026-03-29T07:00:47.032Z</time></trkpt><trkpt lat="41.906986204272016" lon="15.994829676711937"><ele>181.0</ele><time>2026-03-29T07:00:48.032Z</time></trkpt><trkpt lat="41.90691591815016" lon="15.994965023034705"><ele>181.0</ele><time>2026-03-29T07:00:49.032Z</time></trkpt><trkpt lat="41.90685308676971" lon="15.995061818408606"><ele>181.0</ele><time>2026-03-29T07:00:50.032Z</time></trkpt><trkpt lat="41.906801437331396" lon="15.99511603641388"><ele>181.0</ele><time>2026-03-29T07:00:51.032Z</time></trkpt><trkpt lat="41.90668019973521" lon="15.99513365040026"><ele>181.0</ele><time>2026-03-29T07:00:53.032Z</time></trkpt><trkpt lat="41.90661506476824" lon="15.995188147515591"><ele>185.8</ele><time>2026-03-29T07:00:54.032Z</time></trkpt><trkpt lat="41.906541958552395" lon="15.995272692543343"><ele>190.60000000000002</ele><time>2026-03-29T07:00:55.032Z</time></trkpt><trkpt lat="41.906443161808895" lon="15.995345469692424"><ele>195.4</ele><time>2026-03-29T07:00:56.032Z</time></trkpt><trkpt lat="41.9063496970888" lon="15.995439521440225"><ele>200.2</ele><time>2026-03-29T07:00:57.032Z</time></trkpt><trkpt lat="41.90626259921541" lon="15.995545373381601"><ele>205.0</ele><time>2026-03-29T07:00:58.032Z</time></trkpt><trkpt lat="41.90617941961423" lon="15.995649230780796"><ele>204.99999999999997</ele><time>2026-03-29T07:00:59.032Z</time></trkpt><trkpt lat="41.90612346254327" lon="15.995717610241053"><ele>205.0</ele><time>2026-03-29T07:01:00.032Z</time></trkpt><trkpt lat="41.90607839412962" lon="15.995808005952306"><ele>205.0</ele><time>2026-03-29T07:01:01.032Z</time></trkpt><trkpt lat="41.90604778428941" lon="15.995896711277952"><ele>205.0</ele><time>2026-03-29T07:01:02.032Z</time></trkpt><trkpt lat="41.90598506007147" lon="15.99598433780846"><ele>204.99999999999997</ele><time>2026-03-29T07:01:03.034Z</time></trkpt><trkpt lat="41.90592378839293" lon="15.996082317202518"><ele>205.0</ele><time>2026-03-29T07:01:04.034Z</time></trkpt><trkpt lat="41.90584861901492" lon="15.996163970981565"><ele>211.0</ele><time>2026-03-29T07:01:05.034Z</time></trkpt><trkpt lat="41.90576611782285" lon="15.99622678551925"><ele>217.0</ele><time>2026-03-29T07:01:06.034Z</time></trkpt><trkpt lat="41.90568840243253" lon="15.996276194448749"><ele>223.0</ele><time>2026-03-29T07:01:07.034Z</time></trkpt><trkpt lat="41.90560749460511" lon="15.996324417401182"><ele>229.0</ele><time>2026-03-29T07:01:09.035Z</time></trkpt><trkpt lat="41.905582121163526" lon="15.99648171474846"><ele>235.0</ele><time>2026-03-29T07:01:12.034Z</time></trkpt><trkpt lat="41.905544018653885" lon="15.996551110474682"><ele>234.99999999999997</ele><time>2026-03-29T07:01:13.034Z</time></trkpt><trkpt lat="41.90549680533328" lon="15.996660247631151"><ele>235.0</ele><time>2026-03-29T07:01:15.034Z</time></trkpt><trkpt lat="41.90545733365706" lon="15.996739530541259"><ele>235.0</ele><time>2026-03-29T07:01:17.034Z</time></trkpt><trkpt lat="41.9054556959833" lon="15.996858664789139"><ele>235.0</ele><time>2026-03-29T07:01:19.034Z</time></trkpt><trkpt lat="41.90545074960652" lon="15.996976323693255"><ele>234.99999999999997</ele><time>2026-03-29T07:01:21.034Z</time></trkpt><trkpt lat="41.90540990655283" lon="15.997058070984028"><ele>235.0</ele><time>2026-03-29T07:01:24.034Z</time></trkpt><trkpt lat="41.90535615253435" lon="15.997114247514697"><ele>235.6</ele><time>2026-03-29T07:01:29.034Z</time></trkpt><trkpt lat="41.90530326117991" lon="15.997167346305584"><ele>236.2</ele><time>2026-03-29T07:01:37.034Z</time></trkpt><trkpt lat="41.90523692597807" lon="15.997210549457536"><ele>236.8</ele><time>2026-03-29T07:02:00.034Z</time></trkpt><trkpt lat="41.90516399831853" lon="15.997195968739172"><ele>237.4</ele><time>2026-03-29T07:02:02.034Z</time></trkpt><trkpt lat="41.90507145583879" lon="15.997171154217709"><ele>238.0</ele><time>2026-03-29T07:02:04.034Z</time></trkpt><trkpt lat="41.90491841832582" lon="15.997158333824203"><ele>238.49999999999997</ele><time>2026-03-29T07:02:06.034Z</time></trkpt><trkpt lat="41.904842146864894" lon="15.997151976245014"><ele>239.0</ele><time>2026-03-29T07:02:07.034Z</time></trkpt><trkpt lat="41.90475886694783" lon="15.99710438160828"><ele>239.5</ele><time>2026-03-29T07:02:08.034Z</time></trkpt><trkpt lat="41.90467630373779" lon="15.997120181182698"><ele>240.0</ele><time>2026-03-29T07:02:09.034Z</time></trkpt><trkpt lat="41.9045866609053" lon="15.99711642623844"><ele>240.49999999999997</ele><time>2026-03-29T07:02:10.034Z</time></trkpt><trkpt lat="41.90451883030196" lon="15.997110047994662"><ele>241.0</ele><time>2026-03-29T07:02:11.034Z</time></trkpt><trkpt lat="41.90442016950138" lon="15.997149968362313"><ele>241.0</ele><time>2026-03-29T07:02:12.034Z</time></trkpt><trkpt lat="41.90428655284896" lon="15.997188699650087"><ele>241.0</ele><time>2026-03-29T07:02:13.034Z</time></trkpt><trkpt lat="41.90411603026758" lon="15.997162340248911"><ele>241.0</ele><time>2026-03-29T07:02:14.034Z</time></trkpt><trkpt lat="41.903956891922704" lon="15.997141902623865"><ele>242.0</ele><time>2026-03-29T07:02:15.034Z</time></trkpt><trkpt lat="41.903832118533366" lon="15.997111676047458"><ele>243.00000000000003</ele><time>2026-03-29T07:02:16.034Z</time></trkpt><trkpt lat="41.90372290384658" lon="15.997085724975499"><ele>244.00000000000003</ele><time>2026-03-29T07:02:17.034Z</time></trkpt><trkpt lat="41.90361418433539" lon="15.99705636820748"><ele>245.0</ele><time>2026-03-29T07:02:18.034Z</time></trkpt><trkpt lat="41.903516453654326" lon="15.997033684031662"><ele>246.0</ele><time>2026-03-29T07:02:19.034Z</time></trkpt><trkpt lat="41.90340080013508" lon="15.996979939404516"><ele>246.66666666666669</ele><time>2026-03-29T07:02:20.034Z</time></trkpt><trkpt lat="41.90328371550516" lon="15.996914892191839"><ele>247.33333333333334</ele><time>2026-03-29T07:02:21.034Z</time></trkpt><trkpt lat="41.9031158617108" lon="15.996834269901248"><ele>248.0</ele><time>2026-03-29T07:02:22.034Z</time></trkpt><trkpt lat="41.90298036158505" lon="15.996733214981475"><ele>248.25</ele><time>2026-03-29T07:02:23.034Z</time></trkpt><trkpt lat="41.902864789862576" lon="15.99665024433942"><ele>248.5</ele><time>2026-03-29T07:02:24.034Z</time></trkpt><trkpt lat="41.90273476379724" lon="15.996549312226911"><ele>248.75</ele><time>2026-03-29T07:02:25.034Z</time></trkpt><trkpt lat="41.902596148877436" lon="15.99645269231591"><ele>249.0</ele><time>2026-03-29T07:02:26.034Z</time></trkpt><trkpt lat="41.90245295664464" lon="15.996379686857633"><ele>249.5</ele><time>2026-03-29T07:02:27.034Z</time></trkpt><trkpt lat="41.90233105347817" lon="15.996318160282502"><ele>250.0</ele><time>2026-03-29T07:02:28.034Z</time></trkpt><trkpt lat="41.902222843579445" lon="15.996277290269601"><ele>250.5</ele><time>2026-03-29T07:02:29.034Z</time></trkpt><trkpt lat="41.90208390923522" lon="15.996224051047117"><ele>251.0</ele><time>2026-03-29T07:02:30.034Z</time></trkpt><trkpt lat="41.901966496596586" lon="15.996174112645878"><ele>251.0</ele><time>2026-03-29T07:02:31.034Z</time></trkpt><trkpt lat="41.901862735612326" lon="15.996078555184297"><ele>251.00000000000003</ele><time>2026-03-29T07:02:32.034Z</time></trkpt><trkpt lat="41.90177469356603" lon="15.996005864468792"><ele>251.00000000000003</ele><time>2026-03-29T07:02:33.034Z</time></trkpt><trkpt lat="41.90167213056066" lon="15.99594330003201"><ele>251.0</ele><time>2026-03-29T07:02:34.034Z</time></trkpt><trkpt lat="41.90157326363834" lon="15.99589223644919"><ele>251.0</ele><time>2026-03-29T07:02:35.034Z</time></trkpt><trkpt lat="41.901473323612336" lon="15.99586919237768"><ele>255.0</ele><time>2026-03-29T07:02:36.034Z</time></trkpt><trkpt lat="41.901355626842225" lon="15.995853929054299"><ele>259.0</ele><time>2026-03-29T07:02:37.034Z</time></trkpt><trkpt lat="41.90123361692583" lon="15.99590362250049"><ele>263.0</ele><time>2026-03-29T07:02:38.034Z</time></trkpt><trkpt lat="41.901099022558604" lon="15.995970130942219"><ele>267.0</ele><time>2026-03-29T07:02:39.034Z</time></trkpt><trkpt lat="41.900982448569565" lon="15.996058429567357"><ele>271.0</ele><time>2026-03-29T07:02:40.034Z</time></trkpt><trkpt lat="41.90087754457243" lon="15.996143713641166"><ele>275.0</ele><time>2026-03-29T07:02:41.034Z</time></trkpt><trkpt lat="41.90078276938433" lon="15.996247551051"><ele>279.0</ele><time>2026-03-29T07:02:42.034Z</time></trkpt><trkpt lat="41.90067321144392" lon="15.996407604869388"><ele>283.0</ele><time>2026-03-29T07:02:43.034Z</time></trkpt><trkpt lat="41.90053012535771" lon="15.996590463127749"><ele>281.6</ele><time>2026-03-29T07:02:44.034Z</time></trkpt><trkpt lat="41.900432682643874" lon="15.996692085479056"><ele>280.20000000000005</ele><time>2026-03-29T07:02:45.034Z</time></trkpt><trkpt lat="41.90036327125304" lon="15.996740850038769"><ele>278.8</ele><time>2026-03-29T07:02:46.034Z</time></trkpt><trkpt lat="41.900270427309856" lon="15.996778036253666"><ele>277.40000000000003</ele><time>2026-03-29T07:02:47.034Z</time></trkpt><trkpt lat="41.900171145554985" lon="15.996818655886496"><ele>276.0</ele><time>2026-03-29T07:02:48.034Z</time></trkpt><trkpt lat="41.90004773606868" lon="15.996823512735356"><ele>276.0</ele><time>2026-03-29T07:02:49.034Z</time></trkpt><trkpt lat="41.89991217517761" lon="15.996781384778728"><ele>276.0</ele><time>2026-03-29T07:02:50.034Z</time></trkpt><trkpt lat="41.899790692137636" lon="15.996724217949941"><ele>276.0</ele><time>2026-03-29T07:02:51.034Z</time></trkpt><trkpt lat="41.899647349960695" lon="15.996644596753287"><ele>276.0</ele><time>2026-03-29T07:02:52.034Z</time></trkpt><trkpt lat="41.89953748353836" lon="15.99658177412061"><ele>275.75</ele><time>2026-03-29T07:02:53.033Z</time></trkpt><trkpt lat="41.899449828925626" lon="15.996513509377285"><ele>275.5</ele><time>2026-03-29T07:02:54.033Z</time></trkpt><trkpt lat="41.899371822905" lon="15.996419457582803"><ele>275.25</ele><time>2026-03-29T07:02:55.033Z</time></trkpt><trkpt lat="41.89928980234017" lon="15.996285719582653"><ele>275.0</ele><time>2026-03-29T07:02:56.033Z</time></trkpt><trkpt lat="41.899214701932884" lon="15.996145320029573"><ele>275.0</ele><time>2026-03-29T07:02:57.033Z</time></trkpt><trkpt lat="41.89912201987485" lon="15.996045325208257"><ele>275.0</ele><time>2026-03-29T07:02:58.033Z</time></trkpt><trkpt lat="41.89902422493769" lon="15.995972989159139"><ele>275.0</ele><time>2026-03-29T07:02:59.033Z</time></trkpt><trkpt lat="41.89892585539302" lon="15.99590208690945"><ele>275.0</ele><time>2026-03-29T07:03:00.033Z</time></trkpt><trkpt lat="41.89882484478941" lon="15.995823428777454"><ele>274.2</ele><time>2026-03-29T07:03:01.033Z</time></trkpt><trkpt lat="41.89872788000445" lon="15.995731766371621"><ele>273.4</ele><time>2026-03-29T07:03:02.033Z</time></trkpt><trkpt lat="41.898644612597316" lon="15.99564940219236"><ele>272.6</ele><time>2026-03-29T07:03:03.033Z</time></trkpt><trkpt lat="41.8985703667774" lon="15.995545165206254"><ele>271.8</ele><time>2026-03-29T07:03:04.033Z</time></trkpt><trkpt lat="41.89850957281635" lon="15.995437848478161"><ele>271.0</ele><time>2026-03-29T07:03:05.033Z</time></trkpt><trkpt lat="41.89845336338868" lon="15.995333889344861"><ele>267.66666666666663</ele><time>2026-03-29T07:03:06.033Z</time></trkpt><trkpt lat="41.89837062932447" lon="15.995242742526017"><ele>264.3333333333333</ele><time>2026-03-29T07:03:07.033Z</time></trkpt><trkpt lat="41.898226155888445" lon="15.99514684897621"><ele>261.0</ele><time>2026-03-29T07:03:08.033Z</time></trkpt><trkpt lat="41.89803773559504" lon="15.995023541135186"><ele>260.3333333333333</ele><time>2026-03-29T07:03:09.035Z</time></trkpt><trkpt lat="41.897848237109365" lon="15.994933884391905"><ele>259.66666666666663</ele><time>2026-03-29T07:03:10.034Z</time></trkpt><trkpt lat="41.89768399561804" lon="15.994830550813177"><ele>259.0</ele><time>2026-03-29T07:03:11.034Z</time></trkpt><trkpt lat="41.89754420889518" lon="15.994744371336422"><ele>259.0</ele><time>2026-03-29T07:03:12.034Z</time></trkpt><trkpt lat="41.897424587891436" lon="15.994664086603118"><ele>259.0</ele><time>2026-03-29T07:03:13.035Z</time></trkpt><trkpt lat="41.89732939209147" lon="15.994636065587263"><ele>259.0</ele><time>2026-03-29T07:03:14.035Z</time></trkpt><trkpt lat="41.89723971576148" lon="15.994638069603663"><ele>259.0</ele><time>2026-03-29T07:03:15.035Z</time></trkpt><trkpt lat="41.89710628610984" lon="15.994684337199583"><ele>259.0</ele><time>2026-03-29T07:03:16.035Z</time></trkpt><trkpt lat="41.896945736944424" lon="15.994715968343098"><ele>259.0</ele><time>2026-03-29T07:03:17.035Z</time></trkpt><trkpt lat="41.89678373749426" lon="15.994748197244716"><ele>259.0</ele><time>2026-03-29T07:03:18.034Z</time></trkpt><trkpt lat="41.896647209362236" lon="15.994749151854185"><ele>261.3333333333333</ele><time>2026-03-29T07:03:19.035Z</time></trkpt><trkpt lat="41.896461968744426" lon="15.994755304434602"><ele>263.6666666666667</ele><time>2026-03-29T07:03:20.035Z</time></trkpt><trkpt lat="41.896296752258245" lon="15.994782260035945"><ele>266.0</ele><time>2026-03-29T07:03:21.035Z</time></trkpt><trkpt lat="41.89614878007759" lon="15.994815157446446"><ele>266.0</ele><time>2026-03-29T07:03:22.035Z</time></trkpt><trkpt lat="41.896012223305924" lon="15.99485643379296"><ele>266.0</ele><time>2026-03-29T07:03:23.035Z</time></trkpt><trkpt lat="41.895855664923914" lon="15.994901402504349"><ele>266.0</ele><time>2026-03-29T07:03:24.035Z</time></trkpt><trkpt lat="41.89568839553382" lon="15.994960180060781"><ele>265.75</ele><time>2026-03-29T07:03:25.035Z</time></trkpt><trkpt lat="41.8955283229225" lon="15.994995548952375"><ele>265.5</ele><time>2026-03-29T07:03:26.035Z</time></trkpt><trkpt lat="41.89538391816455" lon="15.995017470726543"><ele>265.25</ele><time>2026-03-29T07:03:27.035Z</time></trkpt><trkpt lat="41.89524355116158" lon="15.995009357376874"><ele>265.0</ele><time>2026-03-29T07:03:28.035Z</time></trkpt><trkpt lat="41.89512190650951" lon="15.995007908318117"><ele>268.25</ele><time>2026-03-29T07:03:29.035Z</time></trkpt><trkpt lat="41.89499583482466" lon="15.994995752154884"><ele>271.5</ele><time>2026-03-29T07:03:30.035Z</time></trkpt><trkpt lat="41.894859770402604" lon="15.994952233341841"><ele>274.75</ele><time>2026-03-29T07:03:31.035Z</time></trkpt><trkpt lat="41.89474565993545" lon="15.994871402833018"><ele>278.0</ele><time>2026-03-29T07:03:32.035Z</time></trkpt><trkpt lat="41.894636021063505" lon="15.994802226494965"><ele>278.0</ele><time>2026-03-29T07:03:33.035Z</time></trkpt><trkpt lat="41.89448578139813" lon="15.994702361426938"><ele>278.0</ele><time>2026-03-29T07:03:34.035Z</time></trkpt><trkpt lat="41.8943482386276" lon="15.99460925823378"><ele>278.0</ele><time>2026-03-29T07:03:35.035Z</time></trkpt><trkpt lat="41.894182801353274" lon="15.994497645019186"><ele>281.75</ele><time>2026-03-29T07:03:36.035Z</time></trkpt><trkpt lat="41.89403549385575" lon="15.99442203569621"><ele>285.5</ele><time>2026-03-29T07:03:37.035Z</time></trkpt><trkpt lat="41.89389720688959" lon="15.994334175747516"><ele>289.25</ele><time>2026-03-29T07:03:38.035Z</time></trkpt><trkpt lat="41.89378440784834" lon="15.994245660211764"><ele>293.0</ele><time>2026-03-29T07:03:39.035Z</time></trkpt><trkpt lat="41.8936864053635" lon="15.994181365484698"><ele>292.5</ele><time>2026-03-29T07:03:40.035Z</time></trkpt><trkpt lat="41.893582230075374" lon="15.994096063324276"><ele>292.0</ele><time>2026-03-29T07:03:41.035Z</time></trkpt><trkpt lat="41.893478214429955" lon="15.994031790020301"><ele>291.5</ele><time>2026-03-29T07:03:42.035Z</time></trkpt><trkpt lat="41.893371875737195" lon="15.993987722870052"><ele>291.0</ele><time>2026-03-29T07:03:43.035Z</time></trkpt><trkpt lat="41.893259034288604" lon="15.99393345528701"><ele>290.75</ele><time>2026-03-29T07:03:44.035Z</time></trkpt><trkpt lat="41.89313357994189" lon="15.993874623596014"><ele>290.5</ele><time>2026-03-29T07:03:45.035Z</time></trkpt><trkpt lat="41.89302085905369" lon="15.99384548000342"><ele>290.25</ele><time>2026-03-29T07:03:46.035Z</time></trkpt><trkpt lat="41.89286228162588" lon="15.993832211982975"><ele>290.0</ele><time>2026-03-29T07:03:47.035Z</time></trkpt><trkpt lat="41.89275320742874" lon="15.993833900175606"><ele>290.0</ele><time>2026-03-29T07:03:48.035Z</time></trkpt><trkpt lat="41.89263722748088" lon="15.993829854426963"><ele>290.0</ele><time>2026-03-29T07:03:49.035Z</time></trkpt><trkpt lat="41.89252505806088" lon="15.993870584165991"><ele>290.0</ele><time>2026-03-29T07:03:50.035Z</time></trkpt><trkpt lat="41.89237357424944" lon="15.993892773172728"><ele>290.0</ele><time>2026-03-29T07:03:51.035Z</time></trkpt><trkpt lat="41.892175785267455" lon="15.993891228967078"><ele>289.0</ele><time>2026-03-29T07:03:52.035Z</time></trkpt><trkpt lat="41.89197465924772" lon="15.993902065430063"><ele>288.0</ele><time>2026-03-29T07:03:53.035Z</time></trkpt><trkpt lat="41.89179029152636" lon="15.993902673410476"><ele>287.0</ele><time>2026-03-29T07:03:54.035Z</time></trkpt><trkpt lat="41.89156400072134" lon="15.993870538052922"><ele>290.33333333333337</ele><time>2026-03-29T07:03:55.035Z</time></trkpt><trkpt lat="41.89137779446374" lon="15.993837810175734"><ele>293.6666666666667</ele><time>2026-03-29T07:03:56.035Z</time></trkpt><trkpt lat="41.89117406043468" lon="15.993845053678276"><ele>297.0</ele><time>2026-03-29T07:03:57.035Z</time></trkpt><trkpt lat="41.89098440533209" lon="15.993858178764267"><ele>298.75</ele><time>2026-03-29T07:03:58.035Z</time></trkpt><trkpt lat="41.89083489339295" lon="15.993892331301387"><ele>300.5</ele><time>2026-03-29T07:03:59.035Z</time></trkpt><trkpt lat="41.89069714972819" lon="15.993944512059839"><ele>302.25</ele><time>2026-03-29T07:04:00.035Z</time></trkpt><trkpt lat="41.890568685191504" lon="15.993994034244933"><ele>304.0</ele><time>2026-03-29T07:04:01.035Z</time></trkpt><trkpt lat="41.89042344418291" lon="15.99401800588058"><ele>304.0</ele><time>2026-03-29T07:04:02.035Z</time></trkpt><trkpt lat="41.89025982177812" lon="15.993990074462635"><ele>304.0</ele><time>2026-03-29T07:04:03.035Z</time></trkpt><trkpt lat="41.89012306787925" lon="15.993940911425645"><ele>304.0</ele><time>2026-03-29T07:04:04.035Z</time></trkpt><trkpt lat="41.89000244589337" lon="15.993907824419402"><ele>304.0</ele><time>2026-03-29T07:04:05.035Z</time></trkpt><trkpt lat="41.889869646829005" lon="15.993897354206307"><ele>304.59999999999997</ele><time>2026-03-29T07:04:06.034Z</time></trkpt><trkpt lat="41.88977272541198" lon="15.993886704813425"><ele>305.2</ele><time>2026-03-29T07:04:07.034Z</time></trkpt><trkpt lat="41.88966010969582" lon="15.993884871011616"><ele>305.79999999999995</ele><time>2026-03-29T07:04:09.034Z</time></trkpt><trkpt lat="41.88956724635301" lon="15.993903730790256"><ele>306.4</ele><time>2026-03-29T07:04:12.034Z</time></trkpt><trkpt lat="41.8894747175456" lon="15.993934640001816"><ele>307.0</ele><time>2026-03-29T07:04:41.034Z</time></trkpt><trkpt lat="41.88938651088882" lon="15.993967528956805"><ele>307.0</ele><time>2026-03-29T07:04:42.034Z</time></trkpt><trkpt lat="41.889293920038604" lon="15.99398696211995"><ele>307.0</ele><time>2026-03-29T07:04:43.034Z</time></trkpt><trkpt lat="41.88919064761049" lon="15.993987521093398"><ele>307.0</ele><time>2026-03-29T07:04:44.034Z</time></trkpt><trkpt lat="41.88909139726535" lon="15.993907064759382"><ele>307.0</ele><time>2026-03-29T07:04:45.034Z</time></trkpt><trkpt lat="41.88899740572633" lon="15.993907515849743"><ele>307.0</ele><time>2026-03-29T07:04:46.034Z</time></trkpt><trkpt lat="41.88887919250831" lon="15.993908643804899"><ele>309.66666666666663</ele><time>2026-03-29T07:04:47.034Z</time></trkpt><trkpt lat="41.88872361393782" lon="15.99395853098695"><ele>312.3333333333333</ele><time>2026-03-29T07:04:48.034Z</time></trkpt><trkpt lat="41.88856102352191" lon="15.993976865300791"><ele>315.0</ele><time>2026-03-29T07:04:49.034Z</time></trkpt><trkpt lat="41.88836109044654" lon="15.993989676887246"><ele>318.3333333333333</ele><time>2026-03-29T07:04:50.034Z</time></trkpt><trkpt lat="41.88817520415625" lon="15.994002923528631"><ele>321.66666666666663</ele><time>2026-03-29T07:04:51.034Z</time></trkpt><trkpt lat="41.88800830824051" lon="15.994010362251968"><ele>325.0</ele><time>2026-03-29T07:04:52.034Z</time></trkpt><trkpt lat="41.88785288794665" lon="15.994024890270879"><ele>325.0</ele><time>2026-03-29T07:04:53.034Z</time></trkpt><trkpt lat="41.88771647013591" lon="15.994056606980903"><ele>325.0</ele><time>2026-03-29T07:04:54.034Z</time></trkpt><trkpt lat="41.887584125413234" lon="15.994082465144052"><ele>325.0</ele><time>2026-03-29T07:04:55.034Z</time></trkpt><trkpt lat="41.8874537666086" lon="15.994128815730377"><ele>325.0</ele><time>2026-03-29T07:04:56.034Z</time></trkpt><trkpt lat="41.88732160036386" lon="15.994181719807875"><ele>325.0</ele><time>2026-03-29T07:04:57.034Z</time></trkpt><trkpt lat="41.88717254003647" lon="15.994287831790981"><ele>325.0</ele><time>2026-03-29T07:04:58.034Z</time></trkpt><trkpt lat="41.88702108560351" lon="15.994347602431986"><ele>325.0</ele><time>2026-03-29T07:04:59.034Z</time></trkpt><trkpt lat="41.88687698757307" lon="15.994368252240166"><ele>325.5</ele><time>2026-03-29T07:05:00.034Z</time></trkpt><trkpt lat="41.88671960903985" lon="15.994365489764684"><ele>326.0</ele><time>2026-03-29T07:05:01.034Z</time></trkpt><trkpt lat="41.88658626654145" lon="15.994356937121635"><ele>326.5</ele><time>2026-03-29T07:05:02.034Z</time></trkpt><trkpt lat="41.886472246736574" lon="15.99437771976275"><ele>327.0</ele><time>2026-03-29T07:05:03.034Z</time></trkpt><trkpt lat="41.88634262997298" lon="15.994431383105699"><ele>327.0</ele><time>2026-03-29T07:05:04.034Z</time></trkpt><trkpt lat="41.88617923280742" lon="15.994558993286104"><ele>327.0</ele><time>2026-03-29T07:05:05.034Z</time></trkpt><trkpt lat="41.8860285783036" lon="15.994626162256"><ele>327.0</ele><time>2026-03-29T07:05:06.034Z</time></trkpt><trkpt lat="41.88587878373314" lon="15.994699855273465"><ele>332.0</ele><time>2026-03-29T07:05:07.034Z</time></trkpt><trkpt lat="41.88573458648091" lon="15.99478480570896"><ele>337.0</ele><time>2026-03-29T07:05:08.034Z</time></trkpt><trkpt lat="41.885573162007645" lon="15.994883980261243"><ele>342.0</ele><time>2026-03-29T07:05:09.034Z</time></trkpt><trkpt lat="41.88541151006404" lon="15.994978672243544"><ele>341.0</ele><time>2026-03-29T07:05:10.034Z</time></trkpt><trkpt lat="41.885218314466215" lon="15.995040579315921"><ele>340.0</ele><time>2026-03-29T07:05:11.034Z</time></trkpt><trkpt lat="41.88504656118048" lon="15.995056353135269"><ele>339.0</ele><time>2026-03-29T07:05:12.034Z</time></trkpt><trkpt lat="41.88487851856075" lon="15.995072589238154"><ele>343.0</ele><time>2026-03-29T07:05:13.034Z</time></trkpt><trkpt lat="41.88473162940462" lon="15.995064617127506"><ele>347.0</ele><time>2026-03-29T07:05:14.034Z</time></trkpt><trkpt lat="41.88459228651787" lon="15.99508714136354"><ele>351.0</ele><time>2026-03-29T07:05:15.035Z</time></trkpt><trkpt lat="41.88445704830032" lon="15.995098596930484"><ele>355.0</ele><time>2026-03-29T07:05:16.036Z</time></trkpt><trkpt lat="41.88431582014311" lon="15.995085839351415"><ele>353.66666666666663</ele><time>2026-03-29T07:05:17.036Z</time></trkpt><trkpt lat="41.884184434627336" lon="15.995043512721438"><ele>352.3333333333333</ele><time>2026-03-29T07:05:18.036Z</time></trkpt><trkpt lat="41.88400099803506" lon="15.994948141311468"><ele>351.0</ele><time>2026-03-29T07:05:19.036Z</time></trkpt><trkpt lat="41.883881460638875" lon="15.994903145432232"><ele>353.0</ele><time>2026-03-29T07:05:20.036Z</time></trkpt><trkpt lat="41.883793023834166" lon="15.99486886630491"><ele>355.0</ele><time>2026-03-29T07:05:21.036Z</time></trkpt><trkpt lat="41.883682459190496" lon="15.9948543747142"><ele>357.0</ele><time>2026-03-29T07:05:22.035Z</time></trkpt><trkpt lat="41.88352622417477" lon="15.994883310738372"><ele>359.0</ele><time>2026-03-29T07:05:23.035Z</time></trkpt><trkpt lat="41.88334125759376" lon="15.99487873378003"><ele>360.33333333333337</ele><time>2026-03-29T07:05:24.036Z</time></trkpt><trkpt lat="41.8831670722998" lon="15.994839318226276"><ele>361.6666666666667</ele><time>2026-03-29T07:05:25.035Z</time></trkpt><trkpt lat="41.883018730615326" lon="15.99480506545888"><ele>363.0</ele><time>2026-03-29T07:05:26.035Z</time></trkpt><trkpt lat="41.88289770756653" lon="15.994748577720323"><ele>363.0</ele><time>2026-03-29T07:05:27.036Z</time></trkpt><trkpt lat="41.88277389991179" lon="15.994706925689481"><ele>363.0</ele><time>2026-03-29T07:05:28.035Z</time></trkpt><trkpt lat="41.88261836399304" lon="15.994686131793232"><ele>363.0</ele><time>2026-03-29T07:05:29.035Z</time></trkpt><trkpt lat="41.88239100731214" lon="15.99465153347951"><ele>365.0</ele><time>2026-03-29T07:05:30.035Z</time></trkpt><trkpt lat="41.882197230811826" lon="15.994612890694775"><ele>367.0</ele><time>2026-03-29T07:05:31.035Z</time></trkpt><trkpt lat="41.88202949120997" lon="15.994571436847894"><ele>369.0</ele><time>2026-03-29T07:05:32.035Z</time></trkpt><trkpt lat="41.88184279460182" lon="15.994536410388152"><ele>373.6666666666667</ele><time>2026-03-29T07:05:33.035Z</time></trkpt><trkpt lat="41.88168374470989" lon="15.99452699367772"><ele>378.33333333333337</ele><time>2026-03-29T07:05:34.035Z</time></trkpt><trkpt lat="41.88150739564303" lon="15.994512066374098"><ele>383.0</ele><time>2026-03-29T07:05:35.035Z</time></trkpt><trkpt lat="41.881335442456695" lon="15.994498906755634"><ele>383.0</ele><time>2026-03-29T07:05:36.035Z</time></trkpt><trkpt lat="41.88117449063717" lon="15.994468997016522"><ele>383.0</ele><time>2026-03-29T07:05:37.035Z</time></trkpt><trkpt lat="41.88100307152555" lon="15.994430148509533"><ele>383.0</ele><time>2026-03-29T07:05:38.035Z</time></trkpt><trkpt lat="41.88080186368858" lon="15.994349421661461"><ele>388.0</ele><time>2026-03-29T07:05:39.035Z</time></trkpt><trkpt lat="41.88062941748646" lon="15.99426818658206"><ele>393.0</ele><time>2026-03-29T07:05:40.035Z</time></trkpt><trkpt lat="41.88049111147628" lon="15.994156145364176"><ele>398.0</ele><time>2026-03-29T07:05:41.035Z</time></trkpt><trkpt lat="41.880336419827415" lon="15.994089866202524"><ele>398.0</ele><time>2026-03-29T07:05:42.035Z</time></trkpt><trkpt lat="41.88019063595676" lon="15.994021294646116"><ele>398.0</ele><time>2026-03-29T07:05:43.035Z</time></trkpt><trkpt lat="41.88005532111308" lon="15.993974906031237"><ele>398.0</ele><time>2026-03-29T07:05:44.035Z</time></trkpt><trkpt lat="41.87989145459718" lon="15.993898029645347"><ele>403.25</ele><time>2026-03-29T07:05:45.035Z</time></trkpt><trkpt lat="41.879765968498575" lon="15.993817921107775"><ele>408.5</ele><time>2026-03-29T07:05:46.035Z</time></trkpt><trkpt lat="41.87963684092308" lon="15.993739499231285"><ele>413.75</ele><time>2026-03-29T07:05:47.035Z</time></trkpt><trkpt lat="41.87950943501237" lon="15.99367300610841"><ele>419.0</ele><time>2026-03-29T07:05:48.035Z</time></trkpt><trkpt lat="41.87940554238364" lon="15.993612058617039"><ele>418.99999999999994</ele><time>2026-03-29T07:05:49.035Z</time></trkpt><trkpt lat="41.87933142234354" lon="15.99354562006834"><ele>419.0</ele><time>2026-03-29T07:05:50.035Z</time></trkpt><trkpt lat="41.87929172812859" lon="15.993470307675915"><ele>419.0</ele><time>2026-03-29T07:05:51.035Z</time></trkpt><trkpt lat="41.87926660979068" lon="15.993368032207735"><ele>419.0</ele><time>2026-03-29T07:05:52.035Z</time></trkpt><trkpt lat="41.87924260455409" lon="15.993226004619666"><ele>418.99999999999994</ele><time>2026-03-29T07:05:53.035Z</time></trkpt><trkpt lat="41.87920868147923" lon="15.993140744092921"><ele>419.0</ele><time>2026-03-29T07:05:54.035Z</time></trkpt><trkpt lat="41.87912759361291" lon="15.993038174637428"><ele>421.75</ele><time>2026-03-29T07:05:55.035Z</time></trkpt><trkpt lat="41.87902023879557" lon="15.992965553293704"><ele>424.5</ele><time>2026-03-29T07:05:56.035Z</time></trkpt><trkpt lat="41.87888859290385" lon="15.992883610977694"><ele>427.25</ele><time>2026-03-29T07:05:57.035Z</time></trkpt><trkpt lat="41.87874687571796" lon="15.992753643821647"><ele>430.0</ele><time>2026-03-29T07:05:58.035Z</time></trkpt><trkpt lat="41.878580064381346" lon="15.99258564760262"><ele>434.33333333333337</ele><time>2026-03-29T07:05:59.035Z</time></trkpt><trkpt lat="41.87841950162752" lon="15.992409126568607"><ele>438.66666666666663</ele><time>2026-03-29T07:06:00.035Z</time></trkpt><trkpt lat="41.87827711695863" lon="15.992237797208366"><ele>443.0</ele><time>2026-03-29T07:06:01.035Z</time></trkpt><trkpt lat="41.87816292214082" lon="15.992109153286057"><ele>443.0</ele><time>2026-03-29T07:06:02.035Z</time></trkpt><trkpt lat="41.87803775266735" lon="15.99199288775222"><ele>443.0</ele><time>2026-03-29T07:06:03.035Z</time></trkpt><trkpt lat="41.87791638878641" lon="15.991901281408671"><ele>443.0</ele><time>2026-03-29T07:06:04.035Z</time></trkpt><trkpt lat="41.87778463816866" lon="15.991819226186497"><ele>443.0</ele><time>2026-03-29T07:06:05.035Z</time></trkpt><trkpt lat="41.87764640722924" lon="15.991755220794026"><ele>442.0</ele><time>2026-03-29T07:06:06.035Z</time></trkpt><trkpt lat="41.8775242516015" lon="15.991706156289467"><ele>441.0</ele><time>2026-03-29T07:06:07.035Z</time></trkpt><trkpt lat="41.87740273453376" lon="15.991671417295573"><ele>440.0</ele><time>2026-03-29T07:06:08.035Z</time></trkpt><trkpt lat="41.87724416846042" lon="15.99162158238935"><ele>439.0</ele><time>2026-03-29T07:06:09.035Z</time></trkpt><trkpt lat="41.877097848220174" lon="15.991609794297851"><ele>440.75</ele><time>2026-03-29T07:06:10.035Z</time></trkpt><trkpt lat="41.87694938316309" lon="15.99162411058171"><ele>442.5</ele><time>2026-03-29T07:06:11.034Z</time></trkpt><trkpt lat="41.87680696993033" lon="15.991648891982235"><ele>444.25</ele><time>2026-03-29T07:06:12.034Z</time></trkpt><trkpt lat="41.87667082763712" lon="15.991705568959949"><ele>446.0</ele><time>2026-03-29T07:06:13.034Z</time></trkpt><trkpt lat="41.87654825117852" lon="15.991742418029435"><ele>446.0</ele><time>2026-03-29T07:06:14.034Z</time></trkpt><trkpt lat="41.87645880318534" lon="15.991785344537362"><ele>446.0</ele><time>2026-03-29T07:06:15.034Z</time></trkpt><trkpt lat="41.87636687850611" lon="15.991809310352213"><ele>446.0</ele><time>2026-03-29T07:06:16.034Z</time></trkpt><trkpt lat="41.876279209219845" lon="15.991862717066931"><ele>446.0</ele><time>2026-03-29T07:06:17.034Z</time></trkpt><trkpt lat="41.8761737392361" lon="15.991939475956519"><ele>446.0</ele><time>2026-03-29T07:06:18.034Z</time></trkpt><trkpt lat="41.876016231946345" lon="15.992044668944873"><ele>451.0</ele><time>2026-03-29T07:06:19.034Z</time></trkpt><trkpt lat="41.87586383205778" lon="15.992108957874018"><ele>456.0</ele><time>2026-03-29T07:06:20.034Z</time></trkpt><trkpt lat="41.87572792303749" lon="15.992174879240466"><ele>461.0</ele><time>2026-03-29T07:06:21.034Z</time></trkpt><trkpt lat="41.8755857946743" lon="15.99221524501575"><ele>466.0</ele><time>2026-03-29T07:06:22.034Z</time></trkpt><trkpt lat="41.87544905433223" lon="15.9922754196867"><ele>466.0</ele><time>2026-03-29T07:06:23.034Z</time></trkpt><trkpt lat="41.87529996926084" lon="15.992304398096532"><ele>466.0</ele><time>2026-03-29T07:06:24.034Z</time></trkpt><trkpt lat="41.87511976671636" lon="15.992297909187378"><ele>466.0</ele><time>2026-03-29T07:06:25.034Z</time></trkpt><trkpt lat="41.87495506593295" lon="15.992299157378806"><ele>465.0</ele><time>2026-03-29T07:06:26.034Z</time></trkpt><trkpt lat="41.87479494244154" lon="15.99226363322344"><ele>464.0</ele><time>2026-03-29T07:06:27.034Z</time></trkpt><trkpt lat="41.87464091213642" lon="15.99217848947383"><ele>463.0</ele><time>2026-03-29T07:06:28.034Z</time></trkpt><trkpt lat="41.87450686025439" lon="15.992058522413048"><ele>463.0</ele><time>2026-03-29T07:06:29.034Z</time></trkpt><trkpt lat="41.874367355947705" lon="15.991969687058711"><ele>463.0</ele><time>2026-03-29T07:06:30.034Z</time></trkpt><trkpt lat="41.87423977724579" lon="15.991895451991876"><ele>463.0</ele><time>2026-03-29T07:06:31.034Z</time></trkpt><trkpt lat="41.87412152599877" lon="15.991837424080979"><ele>463.0</ele><time>2026-03-29T07:06:32.034Z</time></trkpt><trkpt lat="41.87402556213916" lon="15.991796879360066"><ele>462.2</ele><time>2026-03-29T07:06:33.034Z</time></trkpt><trkpt lat="41.8739329938966" lon="15.991779195136237"><ele>461.4</ele><time>2026-03-29T07:06:34.034Z</time></trkpt><trkpt lat="41.87384279105501" lon="15.991783198314826"><ele>460.59999999999997</ele><time>2026-03-29T07:06:35.034Z</time></trkpt><trkpt lat="41.8737324066433" lon="15.991794323728685"><ele>459.79999999999995</ele><time>2026-03-29T07:06:36.034Z</time></trkpt><trkpt lat="41.87362289926814" lon="15.99184338246854"><ele>459.0</ele><time>2026-03-29T07:06:37.034Z</time></trkpt><trkpt lat="41.873520524027654" lon="15.991845806654021"><ele>459.33333333333337</ele><time>2026-03-29T07:06:38.034Z</time></trkpt><trkpt lat="41.873358688501455" lon="15.991849155885994"><ele>459.6666666666667</ele><time>2026-03-29T07:06:39.034Z</time></trkpt><trkpt lat="41.87318857193304" lon="15.991874854075164"><ele>460.0</ele><time>2026-03-29T07:06:40.034Z</time></trkpt><trkpt lat="41.87298352684029" lon="15.991893192068527"><ele>460.0</ele><time>2026-03-29T07:06:41.034Z</time></trkpt><trkpt lat="41.872770624156836" lon="15.991906669561399"><ele>460.0</ele><time>2026-03-29T07:06:42.034Z</time></trkpt><trkpt lat="41.872564907161355" lon="15.991899970824685"><ele>460.0</ele><time>2026-03-29T07:06:43.034Z</time></trkpt><trkpt lat="41.87235680207299" lon="15.991873012058283"><ele>466.33333333333337</ele><time>2026-03-29T07:06:44.034Z</time></trkpt><trkpt lat="41.87217824167926" lon="15.99186164972286"><ele>472.66666666666663</ele><time>2026-03-29T07:06:45.034Z</time></trkpt><trkpt lat="41.872031063877564" lon="15.991816590410624"><ele>479.0</ele><time>2026-03-29T07:06:46.034Z</time></trkpt><trkpt lat="41.87187551621282" lon="15.99172901894912"><ele>482.3333333333333</ele><time>2026-03-29T07:06:47.034Z</time></trkpt><trkpt lat="41.871700014630505" lon="15.991623886707558"><ele>485.66666666666663</ele><time>2026-03-29T07:06:48.034Z</time></trkpt><trkpt lat="41.87148595280835" lon="15.99149158655782"><ele>489.0</ele><time>2026-03-29T07:06:49.034Z</time></trkpt><trkpt lat="41.87130028813177" lon="15.991344101662348"><ele>489.0</ele><time>2026-03-29T07:06:50.034Z</time></trkpt><trkpt lat="41.871144675088985" lon="15.991226033349422"><ele>489.0</ele><time>2026-03-29T07:06:51.034Z</time></trkpt><trkpt lat="41.871009947897754" lon="15.991137638159381"><ele>489.0</ele><time>2026-03-29T07:06:52.034Z</time></trkpt><trkpt lat="41.87082130165475" lon="15.991087537785923"><ele>494.33333333333337</ele><time>2026-03-29T07:06:53.034Z</time></trkpt><trkpt lat="41.87061705772797" lon="15.991046035781652"><ele>499.6666666666667</ele><time>2026-03-29T07:06:54.034Z</time></trkpt><trkpt lat="41.87041459711763" lon="15.99101646172334"><ele>505.0</ele><time>2026-03-29T07:06:55.034Z</time></trkpt><trkpt lat="41.870242911157014" lon="15.990967371676886"><ele>506.25</ele><time>2026-03-29T07:06:56.034Z</time></trkpt><trkpt lat="41.87008997118955" lon="15.990957450222973"><ele>507.5</ele><time>2026-03-29T07:06:57.034Z</time></trkpt><trkpt lat="41.86995077413639" lon="15.990932556265891"><ele>508.75</ele><time>2026-03-29T07:06:58.034Z</time></trkpt><trkpt lat="41.86982815275235" lon="15.990931595317255"><ele>510.0</ele><time>2026-03-29T07:06:59.034Z</time></trkpt><trkpt lat="41.869716849285126" lon="15.99097702319359"><ele>510.0</ele><time>2026-03-29T07:07:00.034Z</time></trkpt><trkpt lat="41.86957346595751" lon="15.990985620779066"><ele>510.0</ele><time>2026-03-29T07:07:01.034Z</time></trkpt><trkpt lat="41.86944281379504" lon="15.99102718243188"><ele>510.0</ele><time>2026-03-29T07:07:02.034Z</time></trkpt><trkpt lat="41.869278495511054" lon="15.991100467059484"><ele>509.0</ele><time>2026-03-29T07:07:03.034Z</time></trkpt><trkpt lat="41.86907495322722" lon="15.991159343551812"><ele>508.0</ele><time>2026-03-29T07:07:04.034Z</time></trkpt><trkpt lat="41.868870112537714" lon="15.991201722421444"><ele>507.0</ele><time>2026-03-29T07:07:05.034Z</time></trkpt><trkpt lat="41.86868594662092" lon="15.991258456037526"><ele>507.0</ele><time>2026-03-29T07:07:06.034Z</time></trkpt><trkpt lat="41.8685143266451" lon="15.991315067519537"><ele>507.0</ele><time>2026-03-29T07:07:07.034Z</time></trkpt><trkpt lat="41.868353203117984" lon="15.991395025980244"><ele>507.0</ele><time>2026-03-29T07:07:08.034Z</time></trkpt><trkpt lat="41.868125848314875" lon="15.991458278128057"><ele>508.0</ele><time>2026-03-29T07:07:09.034Z</time></trkpt><trkpt lat="41.867878886310784" lon="15.991556945469778"><ele>509.0</ele><time>2026-03-29T07:07:10.034Z</time></trkpt><trkpt lat="41.86766385786741" lon="15.991602654149954"><ele>510.0</ele><time>2026-03-29T07:07:11.034Z</time></trkpt><trkpt lat="41.86748163685155" lon="15.991652202842744"><ele>511.0</ele><time>2026-03-29T07:07:12.034Z</time></trkpt><trkpt lat="41.86728437393089" lon="15.991727477197404"><ele>512.0</ele><time>2026-03-29T07:07:13.034Z</time></trkpt><trkpt lat="41.86709321269936" lon="15.991819473757232"><ele>512.0</ele><time>2026-03-29T07:07:14.034Z</time></trkpt><trkpt lat="41.86690506765534" lon="15.991881755932951"><ele>512.0</ele><time>2026-03-29T07:07:15.034Z</time></trkpt><trkpt lat="41.86677748651874" lon="15.99191078424552"><ele>512.0</ele><time>2026-03-29T07:07:16.034Z</time></trkpt><trkpt lat="41.866632281667805" lon="15.9919200554002"><ele>518.6666666666666</ele><time>2026-03-29T07:07:17.034Z</time></trkpt><trkpt lat="41.86649093051101" lon="15.991922940767198"><ele>525.3333333333334</ele><time>2026-03-29T07:07:18.034Z</time></trkpt><trkpt lat="41.86634901242391" lon="15.991892521431856"><ele>532.0</ele><time>2026-03-29T07:07:19.034Z</time></trkpt><trkpt lat="41.86618325739692" lon="15.991819985775614"><ele>532.0</ele><time>2026-03-29T07:07:20.034Z</time></trkpt><trkpt lat="41.86602710508701" lon="15.991770781752484"><ele>532.0</ele><time>2026-03-29T07:07:21.036Z</time></trkpt><trkpt lat="41.86588451255486" lon="15.991749618060915"><ele>532.0</ele><time>2026-03-29T07:07:22.036Z</time></trkpt><trkpt lat="41.86571972934269" lon="15.991751214791828"><ele>534.4</ele><time>2026-03-29T07:07:23.036Z</time></trkpt><trkpt lat="41.86559004190171" lon="15.991768072127007"><ele>536.8000000000001</ele><time>2026-03-29T07:07:24.036Z</time></trkpt><trkpt lat="41.86546816199059" lon="15.991754038591953"><ele>539.2</ele><time>2026-03-29T07:07:25.036Z</time></trkpt><trkpt lat="41.86536397245243" lon="15.99175174547853"><ele>541.6</ele><time>2026-03-29T07:07:26.036Z</time></trkpt><trkpt lat="41.865287604615" lon="15.991769292975047"><ele>544.0</ele><time>2026-03-29T07:07:27.036Z</time></trkpt><trkpt lat="41.86520909356514" lon="15.991812921353596"><ele>544.0</ele><time>2026-03-29T07:07:28.036Z</time></trkpt><trkpt lat="41.865118524181774" lon="15.991904678899528"><ele>544.0</ele><time>2026-03-29T07:07:29.036Z</time></trkpt><trkpt lat="41.865034387409736" lon="15.99194516900003"><ele>544.0</ele><time>2026-03-29T07:07:30.037Z</time></trkpt><trkpt lat="41.8649551634578" lon="15.991929561574524"><ele>544.0</ele><time>2026-03-29T07:07:31.036Z</time></trkpt><trkpt lat="41.86485054546319" lon="15.991861618497532"><ele>544.0</ele><time>2026-03-29T07:07:32.036Z</time></trkpt><trkpt lat="41.86475340332535" lon="15.991775465597437"><ele>543.8</ele><time>2026-03-29T07:07:33.036Z</time></trkpt><trkpt lat="41.86465223108502" lon="15.991692375507153"><ele>543.5999999999999</ele><time>2026-03-29T07:07:34.036Z</time></trkpt><trkpt lat="41.86456714180858" lon="15.991643240050971"><ele>543.4</ele><time>2026-03-29T07:07:35.036Z</time></trkpt><trkpt lat="41.86445719245755" lon="15.991599081533058"><ele>543.1999999999999</ele><time>2026-03-29T07:07:36.036Z</time></trkpt><trkpt lat="41.864379024398055" lon="15.991579449689594"><ele>543.0</ele><time>2026-03-29T07:07:37.036Z</time></trkpt><trkpt lat="41.86429704503176" lon="15.99148227737149"><ele>547.5</ele><time>2026-03-29T07:07:39.036Z</time></trkpt><trkpt lat="41.86422884948033" lon="15.991452166395595"><ele>552.0</ele><time>2026-03-29T07:08:01.036Z</time></trkpt><trkpt lat="41.864199298781614" lon="15.991348495813243"><ele>556.5</ele><time>2026-03-29T07:08:59.035Z</time></trkpt><trkpt lat="41.86414772926627" lon="15.991281939086374"><ele>561.0</ele><time>2026-03-29T07:09:00.035Z</time></trkpt><trkpt lat="41.864106388718554" lon="15.991193802971502"><ele>565.5</ele><time>2026-03-29T07:09:01.035Z</time></trkpt><trkpt lat="41.86405884223354" lon="15.99112366499672"><ele>570.0</ele><time>2026-03-29T07:09:02.035Z</time></trkpt><trkpt lat="41.863999558949644" lon="15.991024051066496"><ele>570.0</ele><time>2026-03-29T07:09:03.035Z</time></trkpt><trkpt lat="41.863956559779325" lon="15.990921545363884"><ele>570.0</ele><time>2026-03-29T07:09:04.035Z</time></trkpt><trkpt lat="41.86392154713675" lon="15.990790221144046"><ele>570.0</ele><time>2026-03-29T07:09:05.035Z</time></trkpt><trkpt lat="41.863867739670816" lon="15.990642995476867"><ele>570.0</ele><time>2026-03-29T07:09:06.035Z</time></trkpt><trkpt lat="41.86380737445418" lon="15.990497365340385"><ele>570.0</ele><time>2026-03-29T07:09:07.035Z</time></trkpt><trkpt lat="41.86374141285272" lon="15.990293007006114"><ele>569.0</ele><time>2026-03-29T07:09:08.035Z</time></trkpt><trkpt lat="41.863658042903694" lon="15.990062765898564"><ele>568.0</ele><time>2026-03-29T07:09:09.035Z</time></trkpt><trkpt lat="41.86357149948044" lon="15.989813698643147"><ele>567.0</ele><time>2026-03-29T07:09:10.035Z</time></trkpt><trkpt lat="41.8634931440004" lon="15.989506906025202"><ele>569.0</ele><time>2026-03-29T07:09:11.035Z</time></trkpt><trkpt lat="41.86342249433467" lon="15.989178577562113"><ele>571.0</ele><time>2026-03-29T07:09:12.035Z</time></trkpt><trkpt lat="41.86334969681361" lon="15.988868693032089"><ele>571.0</ele><time>2026-03-29T07:09:13.035Z</time></trkpt><trkpt lat="41.863302085832345" lon="15.988585358310594"><ele>571.0</ele><time>2026-03-29T07:09:14.035Z</time></trkpt><trkpt lat="41.863260066111714" lon="15.988317350316445"><ele>571.0</ele><time>2026-03-29T07:09:15.035Z</time></trkpt><trkpt lat="41.863216823956925" lon="15.9880651952982"><ele>570.6666666666667</ele><time>2026-03-29T07:09:16.035Z</time></trkpt><trkpt lat="41.863185572463806" lon="15.987796241360057"><ele>570.3333333333334</ele><time>2026-03-29T07:09:17.035Z</time></trkpt><trkpt lat="41.863151972924335" lon="15.987513577215516"><ele>570.0</ele><time>2026-03-29T07:09:18.035Z</time></trkpt><trkpt lat="41.86316305260676" lon="15.98718825379838"><ele>568.5</ele><time>2026-03-29T07:09:19.035Z</time></trkpt><trkpt lat="41.86315314263564" lon="15.986823600925009"><ele>567.0</ele><time>2026-03-29T07:09:20.035Z</time></trkpt><trkpt lat="41.86312901077773" lon="15.986496304764357"><ele>567.0</ele><time>2026-03-29T07:09:21.035Z</time></trkpt><trkpt lat="41.863108248230645" lon="15.986188592898763"><ele>567.0</ele><time>2026-03-29T07:09:22.035Z</time></trkpt><trkpt lat="41.86310635140514" lon="15.985910694071261"><ele>567.0</ele><time>2026-03-29T07:09:23.035Z</time></trkpt><trkpt lat="41.863103833837116" lon="15.985662552152334"><ele>566.3333333333334</ele><time>2026-03-29T07:09:24.035Z</time></trkpt><trkpt lat="41.863097040372004" lon="15.985413189817615"><ele>565.6666666666667</ele><time>2026-03-29T07:09:25.035Z</time></trkpt><trkpt lat="41.86309156110358" lon="15.985191486334125"><ele>565.0</ele><time>2026-03-29T07:09:26.035Z</time></trkpt><trkpt lat="41.8630835468009" lon="15.984972492638702"><ele>563.5</ele><time>2026-03-29T07:09:27.037Z</time></trkpt><trkpt lat="41.86305802392114" lon="15.984757954536027"><ele>562.0</ele><time>2026-03-29T07:09:28.037Z</time></trkpt><trkpt lat="41.863049037825725" lon="15.98456868239823"><ele>560.5</ele><time>2026-03-29T07:09:29.037Z</time></trkpt><trkpt lat="41.863036948500685" lon="15.984383895854933"><ele>559.0</ele><time>2026-03-29T07:09:30.037Z</time></trkpt><trkpt lat="41.863032350183154" lon="15.984199701560295"><ele>557.4</ele><time>2026-03-29T07:09:31.037Z</time></trkpt><trkpt lat="41.86303063602251" lon="15.984032449481031"><ele>555.8</ele><time>2026-03-29T07:09:32.037Z</time></trkpt><trkpt lat="41.86302333719614" lon="15.98386278293047"><ele>554.2</ele><time>2026-03-29T07:09:33.037Z</time></trkpt><trkpt lat="41.8630372759136" lon="15.983727247906458"><ele>552.6</ele><time>2026-03-29T07:09:34.036Z</time></trkpt><trkpt lat="41.86302804502499" lon="15.983609373271854"><ele>551.0</ele><time>2026-03-29T07:09:35.036Z</time></trkpt><trkpt lat="41.86303303623308" lon="15.983505981302818"><ele>551.0</ele><time>2026-03-29T07:09:36.037Z</time></trkpt><trkpt lat="41.86303705759373" lon="15.983418196339949"><ele>551.0</ele><time>2026-03-29T07:09:37.037Z</time></trkpt><trkpt lat="41.86300994041661" lon="15.98334015068718"><ele>551.0</ele><time>2026-03-29T07:09:39.037Z</time></trkpt><trkpt lat="41.863037530555445" lon="15.983244160436461"><ele>551.0</ele><time>2026-03-29T07:09:41.037Z</time></trkpt><trkpt lat="41.86296363941419" lon="15.983213962500892"><ele>551.0</ele><time>2026-03-29T07:09:44.037Z</time></trkpt><trkpt lat="41.86254890319581" lon="15.9826933935153"><ele>551.0</ele><time>2026-03-29T07:09:54.036Z</time></trkpt><trkpt lat="41.86254646181029" lon="15.982555995504102"><ele>551.0</ele><time>2026-03-29T07:09:55.036Z</time></trkpt><trkpt lat="41.862557641820814" lon="15.982380907234859"><ele>551.0</ele><time>2026-03-29T07:09:56.036Z</time></trkpt><trkpt lat="41.8625701977242" lon="15.982157948471942"><ele>551.0</ele><time>2026-03-29T07:09:57.036Z</time></trkpt><trkpt lat="41.86256698430389" lon="15.981977643393472"><ele>551.0</ele><time>2026-03-29T07:09:58.036Z</time></trkpt><trkpt lat="41.8625872274539" lon="15.98182273816755"><ele>551.0</ele><time>2026-03-29T07:09:59.036Z</time></trkpt><trkpt lat="41.862562702126645" lon="15.981710343139417"><ele>551.0</ele><time>2026-03-29T07:10:02.036Z</time></trkpt><trkpt lat="41.86249695054169" lon="15.981707004861219"><ele>551.0</ele><time>2026-03-29T07:10:05.036Z</time></trkpt><trkpt lat="41.8624506025939" lon="15.9818254607243"><ele>551.0</ele><time>2026-03-29T07:10:07.036Z</time></trkpt><trkpt lat="41.86242380189655" lon="15.981945564834739"><ele>551.0</ele><time>2026-03-29T07:10:08.036Z</time></trkpt><trkpt lat="41.86238367458428" lon="15.982043216291459"><ele>551.0</ele><time>2026-03-29T07:10:09.036Z</time></trkpt><trkpt lat="41.86232555417902" lon="15.982159238586265"><ele>551.0</ele><time>2026-03-29T07:10:10.036Z</time></trkpt><trkpt lat="41.86227299453019" lon="15.982253590946174"><ele>551.0</ele><time>2026-03-29T07:10:11.036Z</time></trkpt><trkpt lat="41.86220638038823" lon="15.982368308032536"><ele>551.0</ele><time>2026-03-29T07:10:12.036Z</time></trkpt><trkpt lat="41.86214368464839" lon="15.982450404118572"><ele>552.0</ele><time>2026-03-29T07:10:13.036Z</time></trkpt><trkpt lat="41.86209623325156" lon="15.982568244362252"><ele>553.0</ele><time>2026-03-29T07:10:14.036Z</time></trkpt><trkpt lat="41.86206072119606" lon="15.982652386448756"><ele>554.0</ele><time>2026-03-29T07:10:15.036Z</time></trkpt><trkpt lat="41.86201672004739" lon="15.982751606491416"><ele>555.0</ele><time>2026-03-29T07:10:16.036Z</time></trkpt><trkpt lat="41.861956437174264" lon="15.982865750110687"><ele>556.0</ele><time>2026-03-29T07:10:17.036Z</time></trkpt><trkpt lat="41.861893916464986" lon="15.982971253045367"><ele>556.0</ele><time>2026-03-29T07:10:18.036Z</time></trkpt><trkpt lat="41.86183502109029" lon="15.983064607283296"><ele>556.0</ele><time>2026-03-29T07:10:20.036Z</time></trkpt><trkpt lat="41.861781530744665" lon="15.98313338575368"><ele>556.0</ele><time>2026-03-29T07:10:23.036Z</time></trkpt><trkpt lat="41.861710050006245" lon="15.983169089043002"><ele>556.0</ele><time>2026-03-29T07:10:26.036Z</time></trkpt><trkpt lat="41.86163463434917" lon="15.983212451413145"><ele>556.0</ele><time>2026-03-29T07:10:29.036Z</time></trkpt><trkpt lat="41.861555600681584" lon="15.98324554976482"><ele>556.0</ele><time>2026-03-29T07:10:35.036Z</time></trkpt><trkpt lat="41.861493902666055" lon="15.983274802645917"><ele>551.6</ele><time>2026-03-29T07:10:38.036Z</time></trkpt><trkpt lat="41.86141181764608" lon="15.983310386392345"><ele>547.2</ele><time>2026-03-29T07:10:41.036Z</time></trkpt><trkpt lat="41.86132446496458" lon="15.98331390038005"><ele>542.8</ele><time>2026-03-29T07:10:43.036Z</time></trkpt><trkpt lat="41.861226805864035" lon="15.983328356179866"><ele>538.4</ele><time>2026-03-29T07:10:45.036Z</time></trkpt><trkpt lat="41.86115180480299" lon="15.983350497540028"><ele>534.0</ele><time>2026-03-29T07:10:47.036Z</time></trkpt><trkpt lat="41.86101961076417" lon="15.983349149704818"><ele>534.0</ele><time>2026-03-29T07:10:49.036Z</time></trkpt><trkpt lat="41.860953606428616" lon="15.98335044010172"><ele>534.0</ele><time>2026-03-29T07:10:50.036Z</time></trkpt><trkpt lat="41.8608195498873" lon="15.983306029433017"><ele>534.0</ele><time>2026-03-29T07:10:52.036Z</time></trkpt><trkpt lat="41.860762679078604" lon="15.98323950915966"><ele>534.0</ele><time>2026-03-29T07:10:54.036Z</time></trkpt><trkpt lat="41.86069852703954" lon="15.983186878912509"><ele>534.0</ele><time>2026-03-29T07:10:56.036Z</time></trkpt><trkpt lat="41.86062811194271" lon="15.983175522933886"><ele>534.0</ele><time>2026-03-29T07:10:58.036Z</time></trkpt><trkpt lat="41.86054682097042" lon="15.983166848203691"><ele>530.0</ele><time>2026-03-29T07:11:00.036Z</time></trkpt><trkpt lat="41.86043760031634" lon="15.983112585763125"><ele>526.0</ele><time>2026-03-29T07:11:02.036Z</time></trkpt><trkpt lat="41.86034780932981" lon="15.98303148122331"><ele>522.0</ele><time>2026-03-29T07:11:04.036Z</time></trkpt><trkpt lat="41.860272510985105" lon="15.98299739775979"><ele>518.0</ele><time>2026-03-29T07:11:07.036Z</time></trkpt><trkpt lat="41.860195557442616" lon="15.982942004516664"><ele>514.0</ele><time>2026-03-29T07:11:10.036Z</time></trkpt><trkpt lat="41.860111724733926" lon="15.982895683574553"><ele>514.0</ele><time>2026-03-29T07:11:12.036Z</time></trkpt><trkpt lat="41.86004656117167" lon="15.982823792817534"><ele>514.0</ele><time>2026-03-29T07:11:14.036Z</time></trkpt><trkpt lat="41.859988682337715" lon="15.982774562299342"><ele>514.0</ele><time>2026-03-29T07:11:16.036Z</time></trkpt><trkpt lat="41.85992919727874" lon="15.982656838555537"><ele>514.0</ele><time>2026-03-29T07:11:18.036Z</time></trkpt><trkpt lat="41.85980026551149" lon="15.982537144330509"><ele>514.0</ele><time>2026-03-29T07:11:20.036Z</time></trkpt><trkpt lat="41.85971539218322" lon="15.982474742302745"><ele>515.75</ele><time>2026-03-29T07:11:21.036Z</time></trkpt><trkpt lat="41.859620033409264" lon="15.982414731968772"><ele>517.5</ele><time>2026-03-29T07:11:22.036Z</time></trkpt><trkpt lat="41.859475158999935" lon="15.982307883283557"><ele>519.25</ele><time>2026-03-29T07:11:23.036Z</time></trkpt><trkpt lat="41.85934926502398" lon="15.982187372953884"><ele>521.0</ele><time>2026-03-29T07:11:24.036Z</time></trkpt><trkpt lat="41.85922178949982" lon="15.982076089404684"><ele>521.0</ele><time>2026-03-29T07:11:25.036Z</time></trkpt><trkpt lat="41.8590937900048" lon="15.981955048119765"><ele>521.0</ele><time>2026-03-29T07:11:26.035Z</time></trkpt><trkpt lat="41.85900997265052" lon="15.981859264068877"><ele>521.0</ele><time>2026-03-29T07:11:27.035Z</time></trkpt><trkpt lat="41.85893891661373" lon="15.98180315706351"><ele>521.0</ele><time>2026-03-29T07:11:28.035Z</time></trkpt><trkpt lat="41.858878022680365" lon="15.98175547275123"><ele>521.0</ele><time>2026-03-29T07:11:29.035Z</time></trkpt><trkpt lat="41.85881092538581" lon="15.981704136257479"><ele>519.8</ele><time>2026-03-29T07:11:31.035Z</time></trkpt><trkpt lat="41.85872034847906" lon="15.98160599288041"><ele>518.6</ele><time>2026-03-29T07:11:33.037Z</time></trkpt><trkpt lat="41.8586577235722" lon="15.981556484735153"><ele>517.4</ele><time>2026-03-29T07:11:34.037Z</time></trkpt><trkpt lat="41.85858423740587" lon="15.981491170716229"><ele>516.2</ele><time>2026-03-29T07:11:35.038Z</time></trkpt><trkpt lat="41.858500391794045" lon="15.98139972668007"><ele>515.0</ele><time>2026-03-29T07:11:36.037Z</time></trkpt><trkpt lat="41.85841157156268" lon="15.981289795337487"><ele>515.0</ele><time>2026-03-29T07:11:37.037Z</time></trkpt><trkpt lat="41.85829737839356" lon="15.981184396571784"><ele>515.0</ele><time>2026-03-29T07:11:38.038Z</time></trkpt><trkpt lat="41.85819556009963" lon="15.98109950785739"><ele>515.0</ele><time>2026-03-29T07:11:39.037Z</time></trkpt><trkpt lat="41.85813779797716" lon="15.981050702105998"><ele>515.0</ele><time>2026-03-29T07:11:40.037Z</time></trkpt><trkpt lat="41.85806892828383" lon="15.980994638806953"><ele>515.0</ele><time>2026-03-29T07:11:41.037Z</time></trkpt><trkpt lat="41.85798387661067" lon="15.980940188585357"><ele>515.0</ele><time>2026-03-29T07:11:42.038Z</time></trkpt><trkpt lat="41.85790172953447" lon="15.980880971883572"><ele>515.0</ele><time>2026-03-29T07:11:43.038Z</time></trkpt><trkpt lat="41.857818844572456" lon="15.980819304214135"><ele>515.0</ele><time>2026-03-29T07:11:44.038Z</time></trkpt><trkpt lat="41.85771781474063" lon="15.980768989051292"><ele>515.0</ele><time>2026-03-29T07:11:45.038Z</time></trkpt><trkpt lat="41.85761482997951" lon="15.980712931336429"><ele>515.0</ele><time>2026-03-29T07:11:46.038Z</time></trkpt><trkpt lat="41.85752607826141" lon="15.980655797279024"><ele>514.3333333333333</ele><time>2026-03-29T07:11:47.038Z</time></trkpt><trkpt lat="41.85743283609976" lon="15.980601227129153"><ele>513.6666666666666</ele><time>2026-03-29T07:11:48.038Z</time></trkpt><trkpt lat="41.85734429526772" lon="15.98057179097776"><ele>513.0</ele><time>2026-03-29T07:11:49.038Z</time></trkpt><trkpt lat="41.85725534512426" lon="15.980491220070915"><ele>512.3333333333334</ele><time>2026-03-29T07:11:51.038Z</time></trkpt><trkpt lat="41.85720991374724" lon="15.980426722084829"><ele>511.6666666666667</ele><time>2026-03-29T07:11:52.038Z</time></trkpt><trkpt lat="41.85714778616448" lon="15.980379311666741"><ele>511.0</ele><time>2026-03-29T07:11:54.038Z</time></trkpt><trkpt lat="41.85707731850486" lon="15.98034157780409"><ele>511.0</ele><time>2026-03-29T07:11:55.038Z</time></trkpt><trkpt lat="41.85696556477057" lon="15.980310050640744"><ele>511.0</ele><time>2026-03-29T07:11:57.038Z</time></trkpt><trkpt lat="41.85681946234248" lon="15.980297675841877"><ele>511.0</ele><time>2026-03-29T07:11:59.038Z</time></trkpt><trkpt lat="41.85672627039554" lon="15.980330023976057"><ele>511.0</ele><time>2026-03-29T07:12:00.038Z</time></trkpt><trkpt lat="41.85663280845837" lon="15.980348176441204"><ele>510.8</ele><time>2026-03-29T07:12:01.038Z</time></trkpt><trkpt lat="41.85655117505767" lon="15.980374282649805"><ele>510.6</ele><time>2026-03-29T07:12:02.038Z</time></trkpt><trkpt lat="41.856438942746784" lon="15.980428049850703"><ele>510.4</ele><time>2026-03-29T07:12:04.038Z</time></trkpt><trkpt lat="41.856356729560034" lon="15.98048317640353"><ele>510.2</ele><time>2026-03-29T07:12:06.038Z</time></trkpt><trkpt lat="41.85628847714413" lon="15.980508530405853"><ele>510.0</ele><time>2026-03-29T07:12:08.037Z</time></trkpt><trkpt lat="41.856182705880975" lon="15.980495582696811"><ele>510.0</ele><time>2026-03-29T07:12:13.037Z</time></trkpt><trkpt lat="41.85611114310307" lon="15.980504912536318"><ele>510.0</ele><time>2026-03-29T07:12:15.037Z</time></trkpt><trkpt lat="41.85602653031538" lon="15.980585111353244"><ele>510.0</ele><time>2026-03-29T07:12:20.037Z</time></trkpt><trkpt lat="41.85595835418965" lon="15.980659996927479"><ele>510.0</ele><time>2026-03-29T07:12:22.037Z</time></trkpt><trkpt lat="41.85588319545795" lon="15.980677590001456"><ele>510.0</ele><time>2026-03-29T07:12:23.037Z</time></trkpt><trkpt lat="41.855818707030224" lon="15.980682729530571"><ele>510.0</ele><time>2026-03-29T07:12:24.037Z</time></trkpt><trkpt lat="41.855748733211854" lon="15.980606851639818"><ele>507.8</ele><time>2026-03-29T07:12:25.037Z</time></trkpt><trkpt lat="41.85570557104923" lon="15.9805157944389"><ele>505.6</ele><time>2026-03-29T07:12:27.037Z</time></trkpt><trkpt lat="41.85577674781218" lon="15.980441630954738"><ele>503.4</ele><time>2026-03-29T07:12:29.037Z</time></trkpt><trkpt lat="41.85582963926854" lon="15.980304678397347"><ele>501.2</ele><time>2026-03-29T07:12:31.037Z</time></trkpt><trkpt lat="41.855839437561244" lon="15.980184859761168"><ele>499.0</ele><time>2026-03-29T07:12:32.037Z</time></trkpt><trkpt lat="41.855861091112416" lon="15.980040412781984"><ele>499.0</ele><time>2026-03-29T07:12:33.037Z</time></trkpt><trkpt lat="41.85591172944954" lon="15.979927446613983"><ele>499.0</ele><time>2026-03-29T07:12:34.037Z</time></trkpt><trkpt lat="41.85597961628506" lon="15.979799490110972"><ele>499.0</ele><time>2026-03-29T07:12:35.037Z</time></trkpt><trkpt lat="41.856067662446186" lon="15.979657723534544"><ele>499.0</ele><time>2026-03-29T07:12:36.037Z</time></trkpt><trkpt lat="41.85614158887902" lon="15.979520946555473"><ele>498.4</ele><time>2026-03-29T07:12:37.037Z</time></trkpt><trkpt lat="41.856206368022185" lon="15.979371482857259"><ele>497.79999999999995</ele><time>2026-03-29T07:12:38.037Z</time></trkpt><trkpt lat="41.856229321123784" lon="15.979242582835166"><ele>497.20000000000005</ele><time>2026-03-29T07:12:39.037Z</time></trkpt><trkpt lat="41.85622162390464" lon="15.979153624791067"><ele>496.6</ele><time>2026-03-29T07:12:40.037Z</time></trkpt><trkpt lat="41.85616491567733" lon="15.979061281383135"><ele>496.0</ele><time>2026-03-29T07:12:41.037Z</time></trkpt><trkpt lat="41.85609951535103" lon="15.978981370879035"><ele>496.0</ele><time>2026-03-29T07:12:42.037Z</time></trkpt><trkpt lat="41.85604132411877" lon="15.978941699718616"><ele>496.0</ele><time>2026-03-29T07:12:43.037Z</time></trkpt><trkpt lat="41.85595409315769" lon="15.978936095074515"><ele>496.0</ele><time>2026-03-29T07:12:44.037Z</time></trkpt><trkpt lat="41.8558446239768" lon="15.978947317173587"><ele>496.0</ele><time>2026-03-29T07:12:45.037Z</time></trkpt><trkpt lat="41.85571823299683" lon="15.978952844177902"><ele>496.0</ele><time>2026-03-29T07:12:46.037Z</time></trkpt><trkpt lat="41.85558160289251" lon="15.978940091814012"><ele>501.6666666666667</ele><time>2026-03-29T07:12:47.037Z</time></trkpt><trkpt lat="41.85543543770181" lon="15.978947209742596"><ele>507.33333333333337</ele><time>2026-03-29T07:12:48.037Z</time></trkpt><trkpt lat="41.85527284354288" lon="15.978957402815771"><ele>513.0</ele><time>2026-03-29T07:12:49.037Z</time></trkpt><trkpt lat="41.85511350404354" lon="15.978973198957915"><ele>516.75</ele><time>2026-03-29T07:12:50.037Z</time></trkpt><trkpt lat="41.85495587080259" lon="15.978998843311349"><ele>520.5</ele><time>2026-03-29T07:12:51.037Z</time></trkpt><trkpt lat="41.85481322806184" lon="15.979019074928122"><ele>524.25</ele><time>2026-03-29T07:12:52.037Z</time></trkpt><trkpt lat="41.85467908474429" lon="15.979008933015882"><ele>528.0</ele><time>2026-03-29T07:12:53.037Z</time></trkpt><trkpt lat="41.85451772195779" lon="15.978980940340385"><ele>528.0</ele><time>2026-03-29T07:12:54.037Z</time></trkpt><trkpt lat="41.854335594945844" lon="15.978950856307417"><ele>528.0</ele><time>2026-03-29T07:12:55.037Z</time></trkpt><trkpt lat="41.85415506530171" lon="15.97893265621347"><ele>528.0</ele><time>2026-03-29T07:12:56.037Z</time></trkpt><trkpt lat="41.85398548029667" lon="15.978919457716636"><ele>535.0</ele><time>2026-03-29T07:12:57.037Z</time></trkpt><trkpt lat="41.853835292155296" lon="15.978885332612451"><ele>542.0</ele><time>2026-03-29T07:12:58.037Z</time></trkpt><trkpt lat="41.853662221596075" lon="15.978847253903671"><ele>549.0</ele><time>2026-03-29T07:12:59.037Z</time></trkpt><trkpt lat="41.853495438793374" lon="15.978797779844033"><ele>555.75</ele><time>2026-03-29T07:13:00.037Z</time></trkpt><trkpt lat="41.85334809798908" lon="15.97875847461868"><ele>562.5</ele><time>2026-03-29T07:13:01.037Z</time></trkpt><trkpt lat="41.85324455884583" lon="15.978745444515896"><ele>569.25</ele><time>2026-03-29T07:13:02.037Z</time></trkpt><trkpt lat="41.85316610691278" lon="15.978756655017364"><ele>576.0</ele><time>2026-03-29T07:13:03.037Z</time></trkpt><trkpt lat="41.853037602679855" lon="15.978837056347645"><ele>576.0</ele><time>2026-03-29T07:13:05.037Z</time></trkpt><trkpt lat="41.85293336848575" lon="15.97889039039854"><ele>576.0</ele><time>2026-03-29T07:13:06.037Z</time></trkpt><trkpt lat="41.85283756654198" lon="15.978918069297805"><ele>576.0</ele><time>2026-03-29T07:13:07.037Z</time></trkpt><trkpt lat="41.85273824319337" lon="15.978943930528969"><ele>576.0</ele><time>2026-03-29T07:13:08.037Z</time></trkpt><trkpt lat="41.852623211029524" lon="15.978958033784481"><ele>576.0</ele><time>2026-03-29T07:13:09.037Z</time></trkpt><trkpt lat="41.85255059649981" lon="15.978998457417546"><ele>578.2</ele><time>2026-03-29T07:13:10.037Z</time></trkpt><trkpt lat="41.85247485293051" lon="15.979064768136485"><ele>580.4000000000001</ele><time>2026-03-29T07:13:11.037Z</time></trkpt><trkpt lat="41.85237954348753" lon="15.979119574635579"><ele>582.6</ele><time>2026-03-29T07:13:12.037Z</time></trkpt><trkpt lat="41.85226847075816" lon="15.979166695583107"><ele>584.8000000000001</ele><time>2026-03-29T07:13:13.037Z</time></trkpt><trkpt lat="41.85214357919945" lon="15.979218149878584"><ele>587.0</ele><time>2026-03-29T07:13:14.037Z</time></trkpt><trkpt lat="41.85204259507068" lon="15.979289405442758"><ele>587.0</ele><time>2026-03-29T07:13:15.037Z</time></trkpt><trkpt lat="41.851951533779896" lon="15.979369286323102"><ele>587.0</ele><time>2026-03-29T07:13:16.037Z</time></trkpt><trkpt lat="41.85184380021786" lon="15.979438541855014"><ele>587.0</ele><time>2026-03-29T07:13:17.037Z</time></trkpt><trkpt lat="41.85173559002141" lon="15.97953497036894"><ele>587.0</ele><time>2026-03-29T07:13:18.037Z</time></trkpt><trkpt lat="41.851629645710084" lon="15.979652571627241"><ele>590.6666666666666</ele><time>2026-03-29T07:13:19.037Z</time></trkpt><trkpt lat="41.85156058022419" lon="15.97975278639968"><ele>594.3333333333333</ele><time>2026-03-29T07:13:20.037Z</time></trkpt><trkpt lat="41.85151092643459" lon="15.979806653857965"><ele>598.0</ele><time>2026-03-29T07:13:21.037Z</time></trkpt><trkpt lat="41.85140666455862" lon="15.979831359139387"><ele>601.6666666666666</ele><time>2026-03-29T07:13:23.037Z</time></trkpt><trkpt lat="41.85132649213792" lon="15.9798298215683"><ele>605.3333333333334</ele><time>2026-03-29T07:13:24.037Z</time></trkpt><trkpt lat="41.85124148093834" lon="15.979848977799294"><ele>609.0</ele><time>2026-03-29T07:13:25.037Z</time></trkpt><trkpt lat="41.85113927433914" lon="15.979861584873465"><ele>609.0</ele><time>2026-03-29T07:13:26.037Z</time></trkpt><trkpt lat="41.85102394817688" lon="15.979877540265386"><ele>609.0</ele><time>2026-03-29T07:13:27.037Z</time></trkpt><trkpt lat="41.850907252856146" lon="15.979877915791622"><ele>609.0</ele><time>2026-03-29T07:13:28.037Z</time></trkpt><trkpt lat="41.85078759377589" lon="15.97987022676579"><ele>609.0</ele><time>2026-03-29T07:13:29.037Z</time></trkpt><trkpt lat="41.850625213889586" lon="15.979883084922147"><ele>612.3333333333334</ele><time>2026-03-29T07:13:30.037Z</time></trkpt><trkpt lat="41.850449560032295" lon="15.97987754668838"><ele>615.6666666666667</ele><time>2026-03-29T07:13:31.037Z</time></trkpt><trkpt lat="41.850257257361314" lon="15.97985659975188"><ele>619.0</ele><time>2026-03-29T07:13:32.037Z</time></trkpt><trkpt lat="41.8500957434201" lon="15.979823870214936"><ele>622.5</ele><time>2026-03-29T07:13:33.037Z</time></trkpt><trkpt lat="41.84997722363863" lon="15.979768366442856"><ele>626.0</ele><time>2026-03-29T07:13:34.037Z</time></trkpt><trkpt lat="41.8498652260207" lon="15.97966426545984"><ele>629.5</ele><time>2026-03-29T07:13:35.037Z</time></trkpt><trkpt lat="41.849739378659535" lon="15.979553775498534"><ele>633.0</ele><time>2026-03-29T07:13:36.037Z</time></trkpt><trkpt lat="41.84959681639544" lon="15.979421975828089"><ele>633.0</ele><time>2026-03-29T07:13:37.037Z</time></trkpt><trkpt lat="41.849462789440324" lon="15.97929042748246"><ele>633.0</ele><time>2026-03-29T07:13:38.038Z</time></trkpt><trkpt lat="41.84935141553231" lon="15.979134602978077"><ele>633.0</ele><time>2026-03-29T07:13:39.039Z</time></trkpt><trkpt lat="41.849268797317976" lon="15.978979341588756"><ele>635.75</ele><time>2026-03-29T07:13:40.039Z</time></trkpt><trkpt lat="41.849177917597494" lon="15.978833466242449"><ele>638.5</ele><time>2026-03-29T07:13:41.038Z</time></trkpt><trkpt lat="41.849059207926075" lon="15.978726835712521"><ele>641.25</ele><time>2026-03-29T07:13:42.038Z</time></trkpt><trkpt lat="41.84891622663137" lon="15.97862777203011"><ele>644.0</ele><time>2026-03-29T07:13:43.038Z</time></trkpt><trkpt lat="41.84879785064308" lon="15.97851307165819"><ele>644.0</ele><time>2026-03-29T07:13:44.038Z</time></trkpt><trkpt lat="41.84864747841596" lon="15.978392809721791"><ele>644.0</ele><time>2026-03-29T07:13:45.038Z</time></trkpt><trkpt lat="41.84853469575363" lon="15.97832224407887"><ele>644.0</ele><time>2026-03-29T07:13:46.038Z</time></trkpt><trkpt lat="41.84846021629987" lon="15.978288299198969"><ele>644.0</ele><time>2026-03-29T07:13:47.039Z</time></trkpt><trkpt lat="41.84839074392847" lon="15.978260371716996"><ele>645.1428571428571</ele><time>2026-03-29T07:13:48.038Z</time></trkpt><trkpt lat="41.84834236445881" lon="15.97818813322148"><ele>646.2857142857142</ele><time>2026-03-29T07:16:18.039Z</time></trkpt><trkpt lat="41.84828007090078" lon="15.978214518409718"><ele>647.4285714285714</ele><time>2026-03-29T07:17:54.039Z</time></trkpt><trkpt lat="41.84832388685823" lon="15.978278944637786"><ele>648.5714285714286</ele><time>2026-03-29T07:18:15.04Z</time></trkpt><trkpt lat="41.84824687216775" lon="15.978323381479818"><ele>649.7142857142857</ele><time>2026-03-29T07:23:01.041Z</time></trkpt><trkpt lat="41.84816374886767" lon="15.978317815636535"><ele>650.8571428571429</ele><time>2026-03-29T07:23:03.041Z</time></trkpt><trkpt lat="41.848089797249834" lon="15.97828850564984"><ele>652.0</ele><time>2026-03-29T07:23:04.041Z</time></trkpt><trkpt lat="41.84798164051997" lon="15.978234468107955"><ele>652.0</ele><time>2026-03-29T07:23:06.041Z</time></trkpt><trkpt lat="41.84791355346093" lon="15.978203911119756"><ele>652.0</ele><time>2026-03-29T07:23:07.041Z</time></trkpt><trkpt lat="41.847792598083295" lon="15.978195211661399"><ele>652.0</ele><time>2026-03-29T07:23:09.04Z</time></trkpt><trkpt lat="41.84768272277146" lon="15.978177378179781"><ele>652.0</ele><time>2026-03-29T07:23:11.04Z</time></trkpt><trkpt lat="41.847609560011016" lon="15.978176334231213"><ele>652.0</ele><time>2026-03-29T07:23:13.04Z</time></trkpt><trkpt lat="41.84749264523121" lon="15.978172553665857"><ele>652.2</ele><time>2026-03-29T07:23:15.04Z</time></trkpt><trkpt lat="41.847426357811564" lon="15.978189450779608"><ele>652.4000000000001</ele><time>2026-03-29T07:23:17.04Z</time></trkpt><trkpt lat="41.847345150416295" lon="15.97813442942765"><ele>652.5999999999999</ele><time>2026-03-29T07:23:19.04Z</time></trkpt><trkpt lat="41.84720797242251" lon="15.978126868735668"><ele>652.8</ele><time>2026-03-29T07:23:21.04Z</time></trkpt><trkpt lat="41.84711427551003" lon="15.978140563309646"><ele>653.0</ele><time>2026-03-29T07:23:22.04Z</time></trkpt><trkpt lat="41.84704446851226" lon="15.978166037700248"><ele>653.0</ele><time>2026-03-29T07:23:23.04Z</time></trkpt><trkpt lat="41.84694216505383" lon="15.978142254739835"><ele>653.0</ele><time>2026-03-29T07:23:24.04Z</time></trkpt><trkpt lat="41.84685218280937" lon="15.978113886971729"><ele>653.0</ele><time>2026-03-29T07:23:25.04Z</time></trkpt><trkpt lat="41.846778482716346" lon="15.978079576842541"><ele>653.0</ele><time>2026-03-29T07:23:26.04Z</time></trkpt><trkpt lat="41.84670783603206" lon="15.978038785093666"><ele>653.0</ele><time>2026-03-29T07:23:27.04Z</time></trkpt><trkpt lat="41.846642541006304" lon="15.97799129319167"><ele>653.0</ele><time>2026-03-29T07:23:28.04Z</time></trkpt><trkpt lat="41.84657529074166" lon="15.977970570367408"><ele>652.0</ele><time>2026-03-29T07:23:29.04Z</time></trkpt><trkpt lat="41.84649471717256" lon="15.977948300695276"><ele>651.0</ele><time>2026-03-29T07:23:30.04Z</time></trkpt><trkpt lat="41.8463426469234" lon="15.977951891148317"><ele>650.0</ele><time>2026-03-29T07:23:32.04Z</time></trkpt><trkpt lat="41.84623501336706" lon="15.977947649222479"><ele>649.0</ele><time>2026-03-29T07:23:33.04Z</time></trkpt><trkpt lat="41.84611829602591" lon="15.977943792400607"><ele>649.0</ele><time>2026-03-29T07:23:34.04Z</time></trkpt><trkpt lat="41.84600072068031" lon="15.977976739942692"><ele>649.0</ele><time>2026-03-29T07:23:35.04Z</time></trkpt><trkpt lat="41.84585415060139" lon="15.978005687554028"><ele>649.0</ele><time>2026-03-29T07:23:36.04Z</time></trkpt><trkpt lat="41.845728275941276" lon="15.978013317655947"><ele>649.0</ele><time>2026-03-29T07:23:37.04Z</time></trkpt><trkpt lat="41.84559261538832" lon="15.978063817863143"><ele>648.2</ele><time>2026-03-29T07:23:38.04Z</time></trkpt><trkpt lat="41.845505412176294" lon="15.97810809552428"><ele>647.4000000000001</ele><time>2026-03-29T07:23:39.04Z</time></trkpt><trkpt lat="41.84540342646965" lon="15.978143616232584"><ele>646.6</ele><time>2026-03-29T07:23:40.04Z</time></trkpt><trkpt lat="41.84531571239654" lon="15.978165977527096"><ele>645.8</ele><time>2026-03-29T07:23:41.04Z</time></trkpt><trkpt lat="41.845208881411" lon="15.978172131644357"><ele>645.0</ele><time>2026-03-29T07:23:42.04Z</time></trkpt><trkpt lat="41.84511658495759" lon="15.978197330626296"><ele>647.4</ele><time>2026-03-29T07:23:43.04Z</time></trkpt><trkpt lat="41.845006383835276" lon="15.978229525083599"><ele>649.8</ele><time>2026-03-29T07:23:44.04Z</time></trkpt><trkpt lat="41.84491364543239" lon="15.978258487331516"><ele>652.2</ele><time>2026-03-29T07:23:45.04Z</time></trkpt><trkpt lat="41.844816527540736" lon="15.978273400762244"><ele>654.6</ele><time>2026-03-29T07:23:46.04Z</time></trkpt><trkpt lat="41.84470591898242" lon="15.978272181481348"><ele>657.0</ele><time>2026-03-29T07:23:47.04Z</time></trkpt><trkpt lat="41.844620413116125" lon="15.978276165783024"><ele>657.0</ele><time>2026-03-29T07:23:48.04Z</time></trkpt><trkpt lat="41.844540846611636" lon="15.97831968201494"><ele>657.0</ele><time>2026-03-29T07:23:49.04Z</time></trkpt><trkpt lat="41.844449139783435" lon="15.978402278201079"><ele>657.0</ele><time>2026-03-29T07:23:50.04Z</time></trkpt><trkpt lat="41.84438107973498" lon="15.978508698494752"><ele>657.0</ele><time>2026-03-29T07:23:51.04Z</time></trkpt><trkpt lat="41.84433033931803" lon="15.97863266157988"><ele>657.0</ele><time>2026-03-29T07:23:52.04Z</time></trkpt><trkpt lat="41.84426104196436" lon="15.978785415748774"><ele>657.4000000000001</ele><time>2026-03-29T07:23:53.04Z</time></trkpt><trkpt lat="41.84418577871272" lon="15.978899689881619"><ele>657.8000000000001</ele><time>2026-03-29T07:23:54.04Z</time></trkpt><trkpt lat="41.84411186135314" lon="15.978980478195018"><ele>658.2</ele><time>2026-03-29T07:23:55.04Z</time></trkpt><trkpt lat="41.84403412023175" lon="15.97905531732739"><ele>658.6</ele><time>2026-03-29T07:23:56.04Z</time></trkpt><trkpt lat="41.843973418388224" lon="15.97911518543361"><ele>659.0</ele><time>2026-03-29T07:23:57.04Z</time></trkpt><trkpt lat="41.843945999103106" lon="15.979222290864332"><ele>659.8000000000001</ele><time>2026-03-29T07:23:58.04Z</time></trkpt><trkpt lat="41.843935662793214" lon="15.979311151279799"><ele>660.6</ele><time>2026-03-29T07:23:59.04Z</time></trkpt><trkpt lat="41.843920192728454" lon="15.979435654939115"><ele>661.4</ele><time>2026-03-29T07:24:00.04Z</time></trkpt><trkpt lat="41.84389166145789" lon="15.97959730731967"><ele>662.2</ele><time>2026-03-29T07:24:01.04Z</time></trkpt><trkpt lat="41.843843824601414" lon="15.979760252725635"><ele>663.0</ele><time>2026-03-29T07:24:02.04Z</time></trkpt><trkpt lat="41.84379863014488" lon="15.979892066644574"><ele>663.0</ele><time>2026-03-29T07:24:03.04Z</time></trkpt><trkpt lat="41.843757324055815" lon="15.98000085739783"><ele>663.0</ele><time>2026-03-29T07:24:04.04Z</time></trkpt><trkpt lat="41.84366561926416" lon="15.980163660354288"><ele>663.0</ele><time>2026-03-29T07:24:06.04Z</time></trkpt><trkpt lat="41.84361807173969" lon="15.980248313791165"><ele>663.0</ele><time>2026-03-29T07:24:07.04Z</time></trkpt><trkpt lat="41.84357322641991" lon="15.98035440393896"><ele>663.0</ele><time>2026-03-29T07:24:08.042Z</time></trkpt><trkpt lat="41.843526273562034" lon="15.980448795089389"><ele>665.5999999999999</ele><time>2026-03-29T07:24:09.042Z</time></trkpt><trkpt lat="41.843483598785596" lon="15.98052840793379"><ele>668.1999999999999</ele><time>2026-03-29T07:24:10.042Z</time></trkpt><trkpt lat="41.8434184144505" lon="15.980607788685054"><ele>670.8</ele><time>2026-03-29T07:24:11.041Z</time></trkpt><trkpt lat="41.84335898752131" lon="15.980699452024107"><ele>673.4</ele><time>2026-03-29T07:24:12.041Z</time></trkpt><trkpt lat="41.843275818603736" lon="15.980809345012082"><ele>676.0</ele><time>2026-03-29T07:24:13.041Z</time></trkpt><trkpt lat="41.84322275869168" lon="15.980917611505966"><ele>682.5999999999999</ele><time>2026-03-29T07:24:14.042Z</time></trkpt><trkpt lat="41.84314709426676" lon="15.98101693123912"><ele>689.2</ele><time>2026-03-29T07:24:15.042Z</time></trkpt><trkpt lat="41.84309865763681" lon="15.981117410299"><ele>695.8</ele><time>2026-03-29T07:24:16.042Z</time></trkpt><trkpt lat="41.84303564934551" lon="15.9812173630611"><ele>702.4000000000001</ele><time>2026-03-29T07:24:17.042Z</time></trkpt><trkpt lat="41.842970196903956" lon="15.981317603485302"><ele>709.0</ele><time>2026-03-29T07:24:18.042Z</time></trkpt><trkpt lat="41.84290841661599" lon="15.98139602093696"><ele>709.0</ele><time>2026-03-29T07:24:19.042Z</time></trkpt><trkpt lat="41.84284763152523" lon="15.981470596331574"><ele>709.0</ele><time>2026-03-29T07:24:20.042Z</time></trkpt><trkpt lat="41.842768430402025" lon="15.981570314124609"><ele>709.0</ele><time>2026-03-29T07:24:21.042Z</time></trkpt><trkpt lat="41.84268294228532" lon="15.981663347101241"><ele>709.0</ele><time>2026-03-29T07:24:22.042Z</time></trkpt><trkpt lat="41.84258939017052" lon="15.981770520119138"><ele>709.0</ele><time>2026-03-29T07:24:23.042Z</time></trkpt><trkpt lat="41.842488740733216" lon="15.981876342496287"><ele>711.4000000000001</ele><time>2026-03-29T07:24:24.042Z</time></trkpt><trkpt lat="41.842407190217095" lon="15.981981138165834"><ele>713.8</ele><time>2026-03-29T07:24:25.042Z</time></trkpt><trkpt lat="41.84233350055316" lon="15.982078767607295"><ele>716.2</ele><time>2026-03-29T07:24:26.042Z</time></trkpt><trkpt lat="41.84227503606709" lon="15.982177381527826"><ele>718.5999999999999</ele><time>2026-03-29T07:24:27.042Z</time></trkpt><trkpt lat="41.84223087587474" lon="15.982269541371156"><ele>721.0</ele><time>2026-03-29T07:24:28.042Z</time></trkpt><trkpt lat="41.84218521764071" lon="15.98237146732497"><ele>717.75</ele><time>2026-03-29T07:24:29.042Z</time></trkpt><trkpt lat="41.84216621885839" lon="15.982515443248808"><ele>714.5</ele><time>2026-03-29T07:24:30.042Z</time></trkpt><trkpt lat="41.842124518798144" lon="15.982681962493276"><ele>711.25</ele><time>2026-03-29T07:24:31.042Z</time></trkpt><trkpt lat="41.84209115232335" lon="15.982849433556352"><ele>708.0</ele><time>2026-03-29T07:24:32.042Z</time></trkpt><trkpt lat="41.84205213414899" lon="15.98295491921003"><ele>708.0</ele><time>2026-03-29T07:24:33.042Z</time></trkpt><trkpt lat="41.84202356169882" lon="15.983050652988418"><ele>708.0</ele><time>2026-03-29T07:24:34.042Z</time></trkpt><trkpt lat="41.841990490985566" lon="15.983231986642231"><ele>708.0</ele><time>2026-03-29T07:24:36.042Z</time></trkpt><trkpt lat="41.84194222330259" lon="15.983386169868577"><ele>708.0</ele><time>2026-03-29T07:24:37.042Z</time></trkpt><trkpt lat="41.841901371985074" lon="15.98349498307314"><ele>708.0</ele><time>2026-03-29T07:24:38.042Z</time></trkpt><trkpt lat="41.841860613943076" lon="15.983608399793798"><ele>711.5</ele><time>2026-03-29T07:24:39.042Z</time></trkpt><trkpt lat="41.841814618924005" lon="15.983760674002697"><ele>715.0</ele><time>2026-03-29T07:24:40.042Z</time></trkpt><trkpt lat="41.84172105329273" lon="15.983912552589448"><ele>718.5</ele><time>2026-03-29T07:24:41.042Z</time></trkpt><trkpt lat="41.841660858032355" lon="15.984008216117378"><ele>722.0</ele><time>2026-03-29T07:24:42.042Z</time></trkpt><trkpt lat="41.84154803905101" lon="15.984092150105395"><ele>721.75</ele><time>2026-03-29T07:24:43.042Z</time></trkpt><trkpt lat="41.84147538518593" lon="15.98420274951317"><ele>721.5</ele><time>2026-03-29T07:24:44.042Z</time></trkpt><trkpt lat="41.841395185611454" lon="15.984302367612571"><ele>721.25</ele><time>2026-03-29T07:24:45.042Z</time></trkpt><trkpt lat="41.84132033754513" lon="15.984419791960702"><ele>721.0</ele><time>2026-03-29T07:24:46.042Z</time></trkpt><trkpt lat="41.8412391061417" lon="15.984547943924497"><ele>721.0</ele><time>2026-03-29T07:24:47.042Z</time></trkpt><trkpt lat="41.8411073315879" lon="15.984645478128886"><ele>721.0</ele><time>2026-03-29T07:24:48.042Z</time></trkpt><trkpt lat="41.841047253240646" lon="15.984767722342303"><ele>721.0</ele><time>2026-03-29T07:24:50.042Z</time></trkpt><trkpt lat="41.840980574529254" lon="15.984858423695021"><ele>721.0</ele><time>2026-03-29T07:24:53.042Z</time></trkpt><trkpt lat="41.84092529059948" lon="15.984914835260383"><ele>721.0</ele><time>2026-03-29T07:24:54.042Z</time></trkpt><trkpt lat="41.8408646291788" lon="15.98497790523838"><ele>723.0</ele><time>2026-03-29T07:24:56.042Z</time></trkpt><trkpt lat="41.840807609062445" lon="15.985029628660564"><ele>725.0</ele><time>2026-03-29T07:24:57.042Z</time></trkpt><trkpt lat="41.84074814928944" lon="15.985082908978846"><ele>727.0</ele><time>2026-03-29T07:24:58.042Z</time></trkpt><trkpt lat="41.840701535465264" lon="15.985142055906776"><ele>729.0</ele><time>2026-03-29T07:24:59.042Z</time></trkpt><trkpt lat="41.840614212791984" lon="15.98521961221346"><ele>731.0</ele><time>2026-03-29T07:25:01.042Z</time></trkpt><trkpt lat="41.840519312042375" lon="15.985272950602843"><ele>733.0</ele><time>2026-03-29T07:25:03.042Z</time></trkpt><trkpt lat="41.840415510266176" lon="15.98528608895082"><ele>733.0</ele><time>2026-03-29T07:25:05.042Z</time></trkpt><trkpt lat="41.84033950623974" lon="15.98528741991138"><ele>733.0</ele><time>2026-03-29T07:25:07.042Z</time></trkpt><trkpt lat="41.840265854361235" lon="15.985321509472408"><ele>733.0</ele><time>2026-03-29T07:25:10.042Z</time></trkpt><trkpt lat="41.8402061845665" lon="15.985362300245235"><ele>733.0</ele><time>2026-03-29T07:25:13.041Z</time></trkpt><trkpt lat="41.84012445376516" lon="15.98545769177004"><ele>733.0</ele><time>2026-03-29T07:25:15.041Z</time></trkpt><trkpt lat="41.84005056097849" lon="15.985524212156832"><ele>733.0</ele><time>2026-03-29T07:25:16.041Z</time></trkpt><trkpt lat="41.83994894785078" lon="15.985626375392503"><ele>731.5</ele><time>2026-03-29T07:25:17.041Z</time></trkpt><trkpt lat="41.83984499021673" lon="15.985704383550638"><ele>730.0</ele><time>2026-03-29T07:25:18.041Z</time></trkpt><trkpt lat="41.8397231959624" lon="15.985782113579328"><ele>728.5</ele><time>2026-03-29T07:25:19.041Z</time></trkpt><trkpt lat="41.8395689763865" lon="15.985880805284832"><ele>727.0</ele><time>2026-03-29T07:25:20.041Z</time></trkpt><trkpt lat="41.83940120991611" lon="15.98594265624975"><ele>726.25</ele><time>2026-03-29T07:25:21.041Z</time></trkpt><trkpt lat="41.839257028285644" lon="15.986018769788215"><ele>725.5</ele><time>2026-03-29T07:25:22.041Z</time></trkpt><trkpt lat="41.83914871012776" lon="15.986050840350467"><ele>724.75</ele><time>2026-03-29T07:25:23.041Z</time></trkpt><trkpt lat="41.83905805108028" lon="15.98605036889641"><ele>724.0</ele><time>2026-03-29T07:25:24.041Z</time></trkpt><trkpt lat="41.83894023107488" lon="15.986057839811608"><ele>724.0</ele><time>2026-03-29T07:25:25.041Z</time></trkpt><trkpt lat="41.838822353797134" lon="15.986075743115657"><ele>724.0</ele><time>2026-03-29T07:25:26.041Z</time></trkpt><trkpt lat="41.83870673162296" lon="15.986087176811713"><ele>724.0</ele><time>2026-03-29T07:25:27.041Z</time></trkpt><trkpt lat="41.83863319039026" lon="15.986106402447229"><ele>724.0</ele><time>2026-03-29T07:25:28.041Z</time></trkpt><trkpt lat="41.83854993906259" lon="15.986137416929349"><ele>724.0</ele><time>2026-03-29T07:25:29.041Z</time></trkpt><trkpt lat="41.83838521557643" lon="15.986184125747162"><ele>727.6666666666667</ele><time>2026-03-29T07:25:30.041Z</time></trkpt><trkpt lat="41.83819790484339" lon="15.986230732980754"><ele>731.3333333333334</ele><time>2026-03-29T07:25:31.041Z</time></trkpt><trkpt lat="41.838011352719356" lon="15.986252343587923"><ele>735.0</ele><time>2026-03-29T07:25:32.041Z</time></trkpt><trkpt lat="41.83784731717932" lon="15.986261239145543"><ele>735.0</ele><time>2026-03-29T07:25:33.041Z</time></trkpt><trkpt lat="41.837694813334096" lon="15.986260415856634"><ele>735.0</ele><time>2026-03-29T07:25:34.041Z</time></trkpt><trkpt lat="41.837543412466914" lon="15.986290508235157"><ele>735.0</ele><time>2026-03-29T07:25:35.041Z</time></trkpt><trkpt lat="41.83739674049845" lon="15.986339639062225"><ele>735.6666666666666</ele><time>2026-03-29T07:25:36.041Z</time></trkpt><trkpt lat="41.83721761181292" lon="15.986404628079367"><ele>736.3333333333333</ele><time>2026-03-29T07:25:37.041Z</time></trkpt><trkpt lat="41.837044134199076" lon="15.986457449192136"><ele>737.0</ele><time>2026-03-29T07:25:38.041Z</time></trkpt><trkpt lat="41.836879081845495" lon="15.986486915108253"><ele>739.0</ele><time>2026-03-29T07:25:39.041Z</time></trkpt><trkpt lat="41.836717942119876" lon="15.98652636406968"><ele>741.0</ele><time>2026-03-29T07:25:40.041Z</time></trkpt><trkpt lat="41.83657372117266" lon="15.98657383303762"><ele>743.0</ele><time>2026-03-29T07:25:41.041Z</time></trkpt><trkpt lat="41.83644000881075" lon="15.986602899152468"><ele>745.0</ele><time>2026-03-29T07:25:42.041Z</time></trkpt><trkpt lat="41.83629293994192" lon="15.98658811952506"><ele>745.0</ele><time>2026-03-29T07:25:43.041Z</time></trkpt><trkpt lat="41.836159426459126" lon="15.98656539036779"><ele>745.0</ele><time>2026-03-29T07:25:44.041Z</time></trkpt><trkpt lat="41.83605805229233" lon="15.98651197259507"><ele>745.0</ele><time>2026-03-29T07:25:45.041Z</time></trkpt><trkpt lat="41.83596894363098" lon="15.98645928674577"><ele>745.0</ele><time>2026-03-29T07:25:46.041Z</time></trkpt><trkpt lat="41.83588593672789" lon="15.986413296457275"><ele>745.0</ele><time>2026-03-29T07:25:47.041Z</time></trkpt><trkpt lat="41.83578409210935" lon="15.986376993783486"><ele>747.75</ele><time>2026-03-29T07:25:48.041Z</time></trkpt><trkpt lat="41.835672294960695" lon="15.986348456485706"><ele>750.5</ele><time>2026-03-29T07:25:49.041Z</time></trkpt><trkpt lat="41.83552698358896" lon="15.98630358198303"><ele>753.25</ele><time>2026-03-29T07:25:50.041Z</time></trkpt><trkpt lat="41.835413112201174" lon="15.986253144562458"><ele>756.0</ele><time>2026-03-29T07:25:51.041Z</time></trkpt><trkpt lat="41.83528765645193" lon="15.986159510221306"><ele>756.0</ele><time>2026-03-29T07:25:52.041Z</time></trkpt><trkpt lat="41.835178812257865" lon="15.9860557414641"><ele>756.0</ele><time>2026-03-29T07:25:53.041Z</time></trkpt><trkpt lat="41.835022468926155" lon="15.985914688705936"><ele>756.0</ele><time>2026-03-29T07:25:54.041Z</time></trkpt><trkpt lat="41.834872106463514" lon="15.985730913093665"><ele>758.0</ele><time>2026-03-29T07:25:55.041Z</time></trkpt><trkpt lat="41.83474198515161" lon="15.985580500665824"><ele>760.0</ele><time>2026-03-29T07:25:56.041Z</time></trkpt><trkpt lat="41.834611328586256" lon="15.985440063394194"><ele>762.0</ele><time>2026-03-29T07:25:57.041Z</time></trkpt><trkpt lat="41.834515335343234" lon="15.98531138966995"><ele>762.0</ele><time>2026-03-29T07:25:58.041Z</time></trkpt><trkpt lat="41.83442370535844" lon="15.985139168248525"><ele>762.0</ele><time>2026-03-29T07:25:59.041Z</time></trkpt><trkpt lat="41.83436215697432" lon="15.985029329692502"><ele>762.0</ele><time>2026-03-29T07:26:00.041Z</time></trkpt><trkpt lat="41.83430049822385" lon="15.984965005289244"><ele>762.0</ele><time>2026-03-29T07:26:01.041Z</time></trkpt><trkpt lat="41.834242339174914" lon="15.984883942276076"><ele>762.0</ele><time>2026-03-29T07:26:02.041Z</time></trkpt><trkpt lat="41.83421196069742" lon="15.984721601094698"><ele>762.6666666666666</ele><time>2026-03-29T07:26:03.041Z</time></trkpt><trkpt lat="41.8341572931236" lon="15.984500303543292"><ele>763.3333333333333</ele><time>2026-03-29T07:26:04.041Z</time></trkpt><trkpt lat="41.834105603643984" lon="15.984275401844847"><ele>764.0</ele><time>2026-03-29T07:26:05.041Z</time></trkpt><trkpt lat="41.83403975079763" lon="15.984095126573068"><ele>766.0</ele><time>2026-03-29T07:26:06.041Z</time></trkpt><trkpt lat="41.83393739129359" lon="15.983874737121962"><ele>768.0</ele><time>2026-03-29T07:26:07.041Z</time></trkpt><trkpt lat="41.83384235901576" lon="15.983659198476165"><ele>770.0</ele><time>2026-03-29T07:26:08.041Z</time></trkpt><trkpt lat="41.8337624699347" lon="15.983492096438926"><ele>770.0</ele><time>2026-03-29T07:26:09.041Z</time></trkpt><trkpt lat="41.83370016692957" lon="15.983352238948093"><ele>770.0</ele><time>2026-03-29T07:26:10.041Z</time></trkpt><trkpt lat="41.833636321873705" lon="15.98322891942015"><ele>770.0</ele><time>2026-03-29T07:26:11.041Z</time></trkpt><trkpt lat="41.833584449082714" lon="15.983069820852148"><ele>770.0</ele><time>2026-03-29T07:26:12.041Z</time></trkpt><trkpt lat="41.83351589105685" lon="15.982935356774545"><ele>770.0</ele><time>2026-03-29T07:26:13.042Z</time></trkpt><trkpt lat="41.83345025162709" lon="15.982802950730454"><ele>770.0</ele><time>2026-03-29T07:26:14.042Z</time></trkpt><trkpt lat="41.833390169529885" lon="15.982710705732156"><ele>770.0</ele><time>2026-03-29T07:26:15.042Z</time></trkpt><trkpt lat="41.833312457251225" lon="15.982604270556358"><ele>770.0</ele><time>2026-03-29T07:26:17.042Z</time></trkpt><trkpt lat="41.83326574333792" lon="15.982529424511775"><ele>770.0</ele><time>2026-03-29T07:26:18.042Z</time></trkpt><trkpt lat="41.83317671176935" lon="15.982413193575038"><ele>770.5</ele><time>2026-03-29T07:26:19.042Z</time></trkpt><trkpt lat="41.8331215980468" lon="15.98226393147063"><ele>771.0</ele><time>2026-03-29T07:26:20.042Z</time></trkpt><trkpt lat="41.83305867275012" lon="15.982100583232594"><ele>771.5</ele><time>2026-03-29T07:26:21.042Z</time></trkpt><trkpt lat="41.832979474897584" lon="15.981903365194194"><ele>772.0</ele><time>2026-03-29T07:26:22.042Z</time></trkpt><trkpt lat="41.83289413716349" lon="15.981703630078734"><ele>773.3333333333333</ele><time>2026-03-29T07:26:23.042Z</time></trkpt><trkpt lat="41.83283831617512" lon="15.981501507892101"><ele>774.6666666666667</ele><time>2026-03-29T07:26:24.042Z</time></trkpt><trkpt lat="41.832756830060504" lon="15.98130432589179"><ele>776.0</ele><time>2026-03-29T07:26:25.043Z</time></trkpt><trkpt lat="41.832679211435476" lon="15.981144900391502"><ele>777.5</ele><time>2026-03-29T07:26:26.042Z</time></trkpt><trkpt lat="41.83256968268237" lon="15.980999462522739"><ele>779.0</ele><time>2026-03-29T07:26:27.042Z</time></trkpt><trkpt lat="41.83248045008733" lon="15.980906952859193"><ele>780.5</ele><time>2026-03-29T07:26:28.042Z</time></trkpt><trkpt lat="41.83236362940716" lon="15.98081838727723"><ele>782.0</ele><time>2026-03-29T07:26:30.042Z</time></trkpt><trkpt lat="41.83234896044179" lon="15.98073391847225"><ele>782.6</ele><time>2026-03-29T07:26:32.042Z</time></trkpt><trkpt lat="41.83233670684076" lon="15.980554992700148"><ele>783.2</ele><time>2026-03-29T07:26:34.042Z</time></trkpt><trkpt lat="41.83233205815534" lon="15.98043389154569"><ele>783.8</ele><time>2026-03-29T07:26:36.042Z</time></trkpt><trkpt lat="41.83230683969755" lon="15.9803314183195"><ele>784.4</ele><time>2026-03-29T07:26:39.042Z</time></trkpt><trkpt lat="41.832297590345625" lon="15.980236883510557"><ele>785.0</ele><time>2026-03-29T07:26:42.042Z</time></trkpt><trkpt lat="41.83232499350974" lon="15.980142876945218"><ele>785.0</ele><time>2026-03-29T07:27:22.042Z</time></trkpt><trkpt lat="41.83239763282873" lon="15.980054640367534"><ele>785.0</ele><time>2026-03-29T07:27:25.042Z</time></trkpt><trkpt lat="41.83245017263879" lon="15.979957149265665"><ele>785.0</ele><time>2026-03-29T07:27:27.042Z</time></trkpt><trkpt lat="41.83251076744938" lon="15.979868281635087"><ele>785.0</ele><time>2026-03-29T07:27:29.042Z</time></trkpt><trkpt lat="41.832564131334465" lon="15.979788577312389"><ele>785.0</ele><time>2026-03-29T07:27:30.042Z</time></trkpt><trkpt lat="41.83262102801522" lon="15.979683180080508"><ele>783.8</ele><time>2026-03-29T07:27:31.042Z</time></trkpt><trkpt lat="41.832657576251876" lon="15.979565861251098"><ele>782.6</ele><time>2026-03-29T07:27:32.042Z</time></trkpt><trkpt lat="41.83271584232258" lon="15.979441365907153"><ele>781.4000000000001</ele><time>2026-03-29T07:27:33.042Z</time></trkpt><trkpt lat="41.83278426434703" lon="15.97931144431702"><ele>780.2</ele><time>2026-03-29T07:27:34.042Z</time></trkpt><trkpt lat="41.83283595450601" lon="15.979195694656191"><ele>779.0</ele><time>2026-03-29T07:27:35.042Z</time></trkpt><trkpt lat="41.832875516440176" lon="15.979086998385956"><ele>778.0</ele><time>2026-03-29T07:27:36.042Z</time></trkpt><trkpt lat="41.83292202824963" lon="15.978937531280039"><ele>777.0</ele><time>2026-03-29T07:27:37.042Z</time></trkpt><trkpt lat="41.832963631538306" lon="15.978797558592559"><ele>776.0</ele><time>2026-03-29T07:27:38.042Z</time></trkpt><trkpt lat="41.83300528558914" lon="15.978688462884927"><ele>775.0</ele><time>2026-03-29T07:27:39.042Z</time></trkpt><trkpt lat="41.83304820566222" lon="15.978549672668873"><ele>774.0</ele><time>2026-03-29T07:27:40.042Z</time></trkpt><trkpt lat="41.833094859964056" lon="15.978405340711019"><ele>773.5</ele><time>2026-03-29T07:27:41.042Z</time></trkpt><trkpt lat="41.833090177359466" lon="15.97825923461266"><ele>773.0</ele><time>2026-03-29T07:27:43.042Z</time></trkpt><trkpt lat="41.83310703927125" lon="15.978117692551978"><ele>772.5</ele><time>2026-03-29T07:27:44.042Z</time></trkpt><trkpt lat="41.83314614173937" lon="15.977977743193135"><ele>772.0</ele><time>2026-03-29T07:27:45.042Z</time></trkpt><trkpt lat="41.83314562310571" lon="15.977758533427934"><ele>772.0</ele><time>2026-03-29T07:27:46.042Z</time></trkpt><trkpt lat="41.833179002808585" lon="15.977539853118623"><ele>772.0</ele><time>2026-03-29T07:27:47.041Z</time></trkpt><trkpt lat="41.83321006165973" lon="15.977370255488442"><ele>772.0</ele><time>2026-03-29T07:27:48.041Z</time></trkpt><trkpt lat="41.833256650901795" lon="15.977169954370476"><ele>771.6666666666666</ele><time>2026-03-29T07:27:49.041Z</time></trkpt><trkpt lat="41.83331735483361" lon="15.97691800219714"><ele>771.3333333333333</ele><time>2026-03-29T07:27:50.041Z</time></trkpt><trkpt lat="41.8333584348178" lon="15.976700672034468"><ele>771.0</ele><time>2026-03-29T07:27:51.041Z</time></trkpt><trkpt lat="41.83338920836083" lon="15.976505466932311"><ele>771.0</ele><time>2026-03-29T07:27:52.041Z</time></trkpt><trkpt lat="41.83345259057284" lon="15.976326953561136"><ele>771.0</ele><time>2026-03-29T07:27:53.041Z</time></trkpt><trkpt lat="41.8334877563333" lon="15.976179829427064"><ele>771.0</ele><time>2026-03-29T07:27:54.041Z</time></trkpt><trkpt lat="41.83352237156608" lon="15.976063798585148"><ele>771.0</ele><time>2026-03-29T07:27:55.041Z</time></trkpt><trkpt lat="41.833592280520335" lon="15.975947199865741"><ele>768.3333333333334</ele><time>2026-03-29T07:27:56.041Z</time></trkpt><trkpt lat="41.833712537686374" lon="15.975795031592154"><ele>765.6666666666667</ele><time>2026-03-29T07:27:57.041Z</time></trkpt><trkpt lat="41.83385857893908" lon="15.9756314302738"><ele>763.0</ele><time>2026-03-29T07:27:58.041Z</time></trkpt><trkpt lat="41.83400336561626" lon="15.975501729193317"><ele>763.0</ele><time>2026-03-29T07:27:59.041Z</time></trkpt><trkpt lat="41.83413275904353" lon="15.975371662767122"><ele>763.0</ele><time>2026-03-29T07:28:00.041Z</time></trkpt><trkpt lat="41.834234490651916" lon="15.975243553203853"><ele>763.0</ele><time>2026-03-29T07:28:01.041Z</time></trkpt><trkpt lat="41.83433397911363" lon="15.975154918511096"><ele>763.0</ele><time>2026-03-29T07:28:02.041Z</time></trkpt><trkpt lat="41.834434911350066" lon="15.975068081369013"><ele>762.25</ele><time>2026-03-29T07:28:03.041Z</time></trkpt><trkpt lat="41.83451349155969" lon="15.974987144622617"><ele>761.5</ele><time>2026-03-29T07:28:04.041Z</time></trkpt><trkpt lat="41.83460289719763" lon="15.974875654934264"><ele>760.75</ele><time>2026-03-29T07:28:05.041Z</time></trkpt><trkpt lat="41.834663428125545" lon="15.974745165737717"><ele>760.0</ele><time>2026-03-29T07:28:06.041Z</time></trkpt><trkpt lat="41.83474174823423" lon="15.97462205425211"><ele>760.0</ele><time>2026-03-29T07:28:07.041Z</time></trkpt><trkpt lat="41.83481422831951" lon="15.974517769621293"><ele>760.0</ele><time>2026-03-29T07:28:08.041Z</time></trkpt><trkpt lat="41.834875245132395" lon="15.974403959065166"><ele>760.0</ele><time>2026-03-29T07:28:09.041Z</time></trkpt><trkpt lat="41.83494058401573" lon="15.974294378412576"><ele>760.0</ele><time>2026-03-29T07:28:10.041Z</time></trkpt><trkpt lat="41.834979960451534" lon="15.974158980644402"><ele>760.0</ele><time>2026-03-29T07:28:11.041Z</time></trkpt><trkpt lat="41.8349670182017" lon="15.973988307850144"><ele>760.5</ele><time>2026-03-29T07:28:12.041Z</time></trkpt><trkpt lat="41.8349199521914" lon="15.97383118934597"><ele>761.0</ele><time>2026-03-29T07:28:13.041Z</time></trkpt><trkpt lat="41.834856919177554" lon="15.97365003446328"><ele>761.5</ele><time>2026-03-29T07:28:14.041Z</time></trkpt><trkpt lat="41.83478901955182" lon="15.97344910392014"><ele>762.0</ele><time>2026-03-29T07:28:15.041Z</time></trkpt><trkpt lat="41.834743715147596" lon="15.973260586445804"><ele>760.5</ele><time>2026-03-29T07:28:16.041Z</time></trkpt><trkpt lat="41.83472138550906" lon="15.973115325153707"><ele>759.0</ele><time>2026-03-29T07:28:17.041Z</time></trkpt><trkpt lat="41.83470903739919" lon="15.972942447722103"><ele>757.5</ele><time>2026-03-29T07:28:18.041Z</time></trkpt><trkpt lat="41.83469836793695" lon="15.97279640456534"><ele>756.0</ele><time>2026-03-29T07:28:19.043Z</time></trkpt><trkpt lat="41.834701490825644" lon="15.972649337352026"><ele>754.3333333333334</ele><time>2026-03-29T07:28:20.043Z</time></trkpt><trkpt lat="41.83470775059855" lon="15.972453054137555"><ele>752.6666666666667</ele><time>2026-03-29T07:28:21.043Z</time></trkpt><trkpt lat="41.83469235350364" lon="15.972248259956386"><ele>751.0</ele><time>2026-03-29T07:28:22.043Z</time></trkpt><trkpt lat="41.83466218451985" lon="15.972007823683441"><ele>751.0</ele><time>2026-03-29T07:28:23.043Z</time></trkpt><trkpt lat="41.83463387008904" lon="15.971764220202814"><ele>751.0</ele><time>2026-03-29T07:28:24.043Z</time></trkpt><trkpt lat="41.834630046547275" lon="15.97156709699417"><ele>751.0</ele><time>2026-03-29T07:28:25.043Z</time></trkpt><trkpt lat="41.83462829744283" lon="15.971410230945077"><ele>751.0</ele><time>2026-03-29T07:28:26.042Z</time></trkpt><trkpt lat="41.834634290317574" lon="15.971245770338319"><ele>750.25</ele><time>2026-03-29T07:28:27.042Z</time></trkpt><trkpt lat="41.834623880495926" lon="15.971089222507908"><ele>749.5</ele><time>2026-03-29T07:28:28.043Z</time></trkpt><trkpt lat="41.83460046093686" lon="15.970938858600162"><ele>748.75</ele><time>2026-03-29T07:28:29.043Z</time></trkpt><trkpt lat="41.83457717441484" lon="15.970789143756946"><ele>748.0</ele><time>2026-03-29T07:28:30.043Z</time></trkpt><trkpt lat="41.83454575561903" lon="15.970618541413426"><ele>747.0</ele><time>2026-03-29T07:28:31.043Z</time></trkpt><trkpt lat="41.83451222848898" lon="15.970452965013505"><ele>746.0</ele><time>2026-03-29T07:28:32.042Z</time></trkpt><trkpt lat="41.834482756854776" lon="15.970307417004804"><ele>745.0</ele><time>2026-03-29T07:28:33.042Z</time></trkpt><trkpt lat="41.834453936188474" lon="15.970148562489054"><ele>744.0</ele><time>2026-03-29T07:28:34.042Z</time></trkpt><trkpt lat="41.83443970001517" lon="15.970018031888221"><ele>741.75</ele><time>2026-03-29T07:28:35.042Z</time></trkpt><trkpt lat="41.83440426583546" lon="15.96990567417747"><ele>739.5</ele><time>2026-03-29T07:28:36.042Z</time></trkpt><trkpt lat="41.83437645594898" lon="15.96975272768647"><ele>737.25</ele><time>2026-03-29T07:28:37.042Z</time></trkpt><trkpt lat="41.83434561529498" lon="15.969583112921715"><ele>735.0</ele><time>2026-03-29T07:28:38.042Z</time></trkpt><trkpt lat="41.834316057307085" lon="15.969420552236715"><ele>736.75</ele><time>2026-03-29T07:28:39.042Z</time></trkpt><trkpt lat="41.834287141427495" lon="15.969261523102213"><ele>738.5</ele><time>2026-03-29T07:28:40.042Z</time></trkpt><trkpt lat="41.834273420918045" lon="15.969096291350576"><ele>740.25</ele><time>2026-03-29T07:28:41.042Z</time></trkpt><trkpt lat="41.83425810401174" lon="15.968909613237765"><ele>742.0</ele><time>2026-03-29T07:28:42.042Z</time></trkpt><trkpt lat="41.8342417171167" lon="15.968756776026334"><ele>742.0</ele><time>2026-03-29T07:28:43.042Z</time></trkpt><trkpt lat="41.83422408813088" lon="15.968622819580576"><ele>742.0</ele><time>2026-03-29T07:28:44.042Z</time></trkpt><trkpt lat="41.834198653071944" lon="15.968516608720053"><ele>742.0</ele><time>2026-03-29T07:28:45.042Z</time></trkpt><trkpt lat="41.83416632068896" lon="15.968415498889728"><ele>742.0</ele><time>2026-03-29T07:28:46.042Z</time></trkpt><trkpt lat="41.83413429276625" lon="15.968312434423698"><ele>742.0</ele><time>2026-03-29T07:28:47.042Z</time></trkpt><trkpt lat="41.8340857973814" lon="15.968202210666696"><ele>742.0</ele><time>2026-03-29T07:28:49.042Z</time></trkpt><trkpt lat="41.834047127223506" lon="15.968085184609599"><ele>741.0</ele><time>2026-03-29T07:28:52.042Z</time></trkpt><trkpt lat="41.834026660210284" lon="15.967990650104724"><ele>740.0</ele><time>2026-03-29T07:28:54.042Z</time></trkpt><trkpt lat="41.83397347292888" lon="15.96787939024794"><ele>739.0</ele><time>2026-03-29T07:28:56.042Z</time></trkpt><trkpt lat="41.833933878205826" lon="15.967790698957186"><ele>738.0</ele><time>2026-03-29T07:28:57.042Z</time></trkpt><trkpt lat="41.83391110032135" lon="15.96771086774585"><ele>737.0</ele><time>2026-03-29T07:28:58.042Z</time></trkpt><trkpt lat="41.833905300443554" lon="15.967584139075777"><ele>736.0</ele><time>2026-03-29T07:28:59.042Z</time></trkpt><trkpt lat="41.833897829003" lon="15.967488172477978"><ele>735.5</ele><time>2026-03-29T07:29:00.042Z</time></trkpt><trkpt lat="41.83388463366304" lon="15.967398810172655"><ele>735.0</ele><time>2026-03-29T07:29:01.042Z</time></trkpt><trkpt lat="41.833862158831124" lon="15.96728053821034"><ele>734.5</ele><time>2026-03-29T07:29:02.042Z</time></trkpt><trkpt lat="41.83387100078064" lon="15.967192322829048"><ele>734.0</ele><time>2026-03-29T07:29:03.042Z</time></trkpt><trkpt lat="41.83385499206789" lon="15.967072993554993"><ele>733.5</ele><time>2026-03-29T07:29:04.042Z</time></trkpt><trkpt lat="41.83385312157499" lon="15.966955069394281"><ele>733.0</ele><time>2026-03-29T07:29:05.042Z</time></trkpt><trkpt lat="41.833869200373776" lon="15.966823448905393"><ele>733.0</ele><time>2026-03-29T07:29:06.042Z</time></trkpt><trkpt lat="41.83388844332981" lon="15.966738697557956"><ele>733.0</ele><time>2026-03-29T07:29:07.042Z</time></trkpt><trkpt lat="41.83392799351324" lon="15.96662063525403"><ele>733.0</ele><time>2026-03-29T07:29:08.042Z</time></trkpt><trkpt lat="41.83397171243424" lon="15.966461567343158"><ele>733.0</ele><time>2026-03-29T07:29:09.042Z</time></trkpt><trkpt lat="41.83402910410646" lon="15.966276123542766"><ele>733.0</ele><time>2026-03-29T07:29:10.042Z</time></trkpt><trkpt lat="41.83408668650245" lon="15.966147583617591"><ele>733.0</ele><time>2026-03-29T07:29:11.042Z</time></trkpt><trkpt lat="41.83411067906961" lon="15.966015183852472"><ele>733.0</ele><time>2026-03-29T07:29:12.042Z</time></trkpt><trkpt lat="41.83416825975822" lon="15.965899084619167"><ele>733.0</ele><time>2026-03-29T07:29:13.042Z</time></trkpt><trkpt lat="41.83424773346873" lon="15.965758372757238"><ele>733.0</ele><time>2026-03-29T07:29:14.042Z</time></trkpt><trkpt lat="41.83434078311909" lon="15.965624075806907"><ele>731.25</ele><time>2026-03-29T07:29:15.042Z</time></trkpt><trkpt lat="41.834447636071964" lon="15.965475322795577"><ele>729.5</ele><time>2026-03-29T07:29:16.042Z</time></trkpt><trkpt lat="41.834522034083854" lon="15.965396902745741"><ele>727.75</ele><time>2026-03-29T07:29:17.042Z</time></trkpt><trkpt lat="41.83459802544947" lon="15.965316592339006"><ele>726.0</ele><time>2026-03-29T07:29:18.042Z</time></trkpt><trkpt lat="41.83470479621093" lon="15.965249429685903"><ele>726.0</ele><time>2026-03-29T07:29:19.042Z</time></trkpt><trkpt lat="41.83480974179914" lon="15.965195448164115"><ele>726.0</ele><time>2026-03-29T07:29:20.042Z</time></trkpt><trkpt lat="41.83491112938091" lon="15.965155571991325"><ele>726.0</ele><time>2026-03-29T07:29:21.042Z</time></trkpt><trkpt lat="41.835005289011576" lon="15.965125161338674"><ele>726.0</ele><time>2026-03-29T07:29:22.042Z</time></trkpt><trkpt lat="41.83509885927838" lon="15.96508932318845"><ele>726.0</ele><time>2026-03-29T07:29:23.042Z</time></trkpt><trkpt lat="41.8351916231901" lon="15.965054357630384"><ele>724.8</ele><time>2026-03-29T07:29:24.042Z</time></trkpt><trkpt lat="41.835269264762154" lon="15.965040181961617"><ele>723.5999999999999</ele><time>2026-03-29T07:29:25.042Z</time></trkpt><trkpt lat="41.83536979966854" lon="15.965035610466698"><ele>722.4</ele><time>2026-03-29T07:29:26.042Z</time></trkpt><trkpt lat="41.83548109640403" lon="15.965050143044905"><ele>721.2</ele><time>2026-03-29T07:29:27.042Z</time></trkpt><trkpt lat="41.83560028388351" lon="15.96505478533533"><ele>720.0</ele><time>2026-03-29T07:29:28.042Z</time></trkpt><trkpt lat="41.83569008218112" lon="15.965091612819187"><ele>720.0</ele><time>2026-03-29T07:29:29.042Z</time></trkpt><trkpt lat="41.835786933442236" lon="15.965108701858702"><ele>720.0</ele><time>2026-03-29T07:29:30.042Z</time></trkpt><trkpt lat="41.8358719560849" lon="15.965088211800847"><ele>720.0</ele><time>2026-03-29T07:29:31.042Z</time></trkpt><trkpt lat="41.83595220695083" lon="15.96505095663088"><ele>720.0</ele><time>2026-03-29T07:29:32.042Z</time></trkpt><trkpt lat="41.83604123040657" lon="15.965001163303162"><ele>720.0</ele><time>2026-03-29T07:29:33.042Z</time></trkpt><trkpt lat="41.83614137636448" lon="15.964946510553485"><ele>718.2</ele><time>2026-03-29T07:29:34.042Z</time></trkpt><trkpt lat="41.83624732782502" lon="15.964890334282963"><ele>716.4</ele><time>2026-03-29T07:29:35.042Z</time></trkpt><trkpt lat="41.83635683506018" lon="15.964862548223836"><ele>714.5999999999999</ele><time>2026-03-29T07:29:36.042Z</time></trkpt><trkpt lat="41.836454881253616" lon="15.9648275920354"><ele>712.8</ele><time>2026-03-29T07:29:37.042Z</time></trkpt><trkpt lat="41.83656004991764" lon="15.964759689392194"><ele>711.0</ele><time>2026-03-29T07:29:38.042Z</time></trkpt><trkpt lat="41.836687046795845" lon="15.964676897131133"><ele>711.25</ele><time>2026-03-29T07:29:39.042Z</time></trkpt><trkpt lat="41.83680682974574" lon="15.964587369043498"><ele>711.5</ele><time>2026-03-29T07:29:40.042Z</time></trkpt><trkpt lat="41.83692601882413" lon="15.96449253915343"><ele>711.75</ele><time>2026-03-29T07:29:41.042Z</time></trkpt><trkpt lat="41.83705314107957" lon="15.964386475292876"><ele>712.0</ele><time>2026-03-29T07:29:42.042Z</time></trkpt><trkpt lat="41.83716097504311" lon="15.964277180953667"><ele>710.75</ele><time>2026-03-29T07:29:43.042Z</time></trkpt><trkpt lat="41.83726745887796" lon="15.96414863726374"><ele>709.5</ele><time>2026-03-29T07:29:44.042Z</time></trkpt><trkpt lat="41.837345010165045" lon="15.964010755109214"><ele>708.25</ele><time>2026-03-29T07:29:45.042Z</time></trkpt><trkpt lat="41.83742209516018" lon="15.963868250674999"><ele>707.0</ele><time>2026-03-29T07:29:46.042Z</time></trkpt><trkpt lat="41.83749683462234" lon="15.963703413529423"><ele>707.0</ele><time>2026-03-29T07:29:47.042Z</time></trkpt><trkpt lat="41.83756286175624" lon="15.963551152747574"><ele>707.0</ele><time>2026-03-29T07:29:48.042Z</time></trkpt><trkpt lat="41.83762652306456" lon="15.963391808554439"><ele>707.0</ele><time>2026-03-29T07:29:49.042Z</time></trkpt><trkpt lat="41.83769032568174" lon="15.963255629519582"><ele>707.0</ele><time>2026-03-29T07:29:50.042Z</time></trkpt><trkpt lat="41.837756192205944" lon="15.963146983667624"><ele>706.4000000000001</ele><time>2026-03-29T07:29:51.042Z</time></trkpt><trkpt lat="41.83782531802248" lon="15.963045545695019"><ele>705.8000000000001</ele><time>2026-03-29T07:29:52.042Z</time></trkpt><trkpt lat="41.83789656628633" lon="15.9629387666122"><ele>705.2</ele><time>2026-03-29T07:29:53.042Z</time></trkpt><trkpt lat="41.83795747486768" lon="15.96281094102766"><ele>704.6</ele><time>2026-03-29T07:29:54.042Z</time></trkpt><trkpt lat="41.83801517850027" lon="15.962671307707875"><ele>704.0</ele><time>2026-03-29T07:29:55.041Z</time></trkpt><trkpt lat="41.83804430591231" lon="15.962536478846745"><ele>703.5</ele><time>2026-03-29T07:29:56.041Z</time></trkpt><trkpt lat="41.8380809822093" lon="15.962397125523427"><ele>703.0</ele><time>2026-03-29T07:29:57.041Z</time></trkpt><trkpt lat="41.838133412880026" lon="15.962245137469079"><ele>702.5</ele><time>2026-03-29T07:29:58.041Z</time></trkpt><trkpt lat="41.838180710016566" lon="15.96207504435997"><ele>702.0</ele><time>2026-03-29T07:29:59.041Z</time></trkpt><trkpt lat="41.838246395577876" lon="15.961852294791601"><ele>702.5</ele><time>2026-03-29T07:30:00.041Z</time></trkpt><trkpt lat="41.83829175153944" lon="15.961643691111602"><ele>703.0</ele><time>2026-03-29T07:30:01.041Z</time></trkpt><trkpt lat="41.83833982177735" lon="15.96146500703825"><ele>703.5</ele><time>2026-03-29T07:30:02.041Z</time></trkpt><trkpt lat="41.83837587887481" lon="15.961315423886958"><ele>704.0</ele><time>2026-03-29T07:30:03.041Z</time></trkpt><trkpt lat="41.83840708639699" lon="15.96116422146788"><ele>704.0</ele><time>2026-03-29T07:30:04.041Z</time></trkpt><trkpt lat="41.83841310050372" lon="15.96102656648906"><ele>704.0</ele><time>2026-03-29T07:30:05.041Z</time></trkpt><trkpt lat="41.83839150170928" lon="15.960852447797533"><ele>704.0</ele><time>2026-03-29T07:30:06.041Z</time></trkpt><trkpt lat="41.83837895458827" lon="15.96066865158618"><ele>704.0</ele><time>2026-03-29T07:30:07.041Z</time></trkpt><trkpt lat="41.83838468319341" lon="15.96054160384643"><ele>704.4000000000001</ele><time>2026-03-29T07:30:08.041Z</time></trkpt><trkpt lat="41.83840845753727" lon="15.960412349765239"><ele>704.8</ele><time>2026-03-29T07:30:09.041Z</time></trkpt><trkpt lat="41.83845899223667" lon="15.960343139114412"><ele>705.2</ele><time>2026-03-29T07:30:10.041Z</time></trkpt><trkpt lat="41.83854792346611" lon="15.960275071363183"><ele>705.5999999999999</ele><time>2026-03-29T07:30:11.041Z</time></trkpt><trkpt lat="41.838654743571006" lon="15.96020923770211"><ele>706.0</ele><time>2026-03-29T07:30:12.041Z</time></trkpt><trkpt lat="41.83876283989213" lon="15.96015413281841"><ele>704.5999999999999</ele><time>2026-03-29T07:30:13.041Z</time></trkpt><trkpt lat="41.838874351526684" lon="15.960112536107335"><ele>703.2</ele><time>2026-03-29T07:30:14.041Z</time></trkpt><trkpt lat="41.838988200778296" lon="15.960082449326237"><ele>701.8</ele><time>2026-03-29T07:30:15.041Z</time></trkpt><trkpt lat="41.83909797925171" lon="15.960063339049292"><ele>700.4000000000001</ele><time>2026-03-29T07:30:16.041Z</time></trkpt><trkpt lat="41.83919639418964" lon="15.960047901372814"><ele>699.0</ele><time>2026-03-29T07:30:17.041Z</time></trkpt><trkpt lat="41.8392834973184" lon="15.960036751924434"><ele>700.0</ele><time>2026-03-29T07:30:18.041Z</time></trkpt><trkpt lat="41.83934957629494" lon="15.960024264108982"><ele>701.0</ele><time>2026-03-29T07:30:19.041Z</time></trkpt><trkpt lat="41.83942927092002" lon="15.960024113786824"><ele>702.0</ele><time>2026-03-29T07:30:20.041Z</time></trkpt><trkpt lat="41.83950251190883" lon="15.960004826414472"><ele>703.0</ele><time>2026-03-29T07:30:21.041Z</time></trkpt><trkpt lat="41.839581160473934" lon="15.959986556925076"><ele>704.0</ele><time>2026-03-29T07:30:22.041Z</time></trkpt><trkpt lat="41.83966576571484" lon="15.959950863226444"><ele>705.0</ele><time>2026-03-29T07:30:23.041Z</time></trkpt><trkpt lat="41.83972822863127" lon="15.959926169075816"><ele>705.0</ele><time>2026-03-29T07:30:24.041Z</time></trkpt><trkpt lat="41.83979263318424" lon="15.959890674567319"><ele>705.0</ele><time>2026-03-29T07:30:25.043Z</time></trkpt><trkpt lat="41.8398630793091" lon="15.959853193071359"><ele>705.0</ele><time>2026-03-29T07:30:26.044Z</time></trkpt><trkpt lat="41.83993439619867" lon="15.959823109837593"><ele>705.0</ele><time>2026-03-29T07:30:27.044Z</time></trkpt><trkpt lat="41.840024880801444" lon="15.959793035551641"><ele>705.0</ele><time>2026-03-29T07:30:28.044Z</time></trkpt><trkpt lat="41.84011535263311" lon="15.95975899276769"><ele>705.0</ele><time>2026-03-29T07:30:29.043Z</time></trkpt><trkpt lat="41.84021673440293" lon="15.959694273635929"><ele>705.0</ele><time>2026-03-29T07:30:30.043Z</time></trkpt><trkpt lat="41.84033017597522" lon="15.959637425652446"><ele>705.0</ele><time>2026-03-29T07:30:31.043Z</time></trkpt><trkpt lat="41.8404386633149" lon="15.959576901299876"><ele>705.0</ele><time>2026-03-29T07:30:32.044Z</time></trkpt><trkpt lat="41.840550836089854" lon="15.959499850483352"><ele>705.0</ele><time>2026-03-29T07:30:33.044Z</time></trkpt><trkpt lat="41.84067152446812" lon="15.959426921252568"><ele>705.0</ele><time>2026-03-29T07:30:34.044Z</time></trkpt><trkpt lat="41.84078419938397" lon="15.959370152993356"><ele>705.0</ele><time>2026-03-29T07:30:35.044Z</time></trkpt><trkpt lat="41.840910781097975" lon="15.95932832212372"><ele>705.0</ele><time>2026-03-29T07:30:36.044Z</time></trkpt><trkpt lat="41.841020862776766" lon="15.959277157070103"><ele>705.0</ele><time>2026-03-29T07:30:37.044Z</time></trkpt><trkpt lat="41.84110908002327" lon="15.959213689668719"><ele>703.2</ele><time>2026-03-29T07:30:38.044Z</time></trkpt><trkpt lat="41.841212880250175" lon="15.959142909237247"><ele>701.4</ele><time>2026-03-29T07:30:39.044Z</time></trkpt><trkpt lat="41.84130260883201" lon="15.959079338376846"><ele>699.5999999999999</ele><time>2026-03-29T07:30:40.044Z</time></trkpt><trkpt lat="41.8413795461198" lon="15.959002966251514"><ele>697.8</ele><time>2026-03-29T07:30:41.044Z</time></trkpt><trkpt lat="41.841482163755174" lon="15.958885858501642"><ele>696.0</ele><time>2026-03-29T07:30:42.044Z</time></trkpt><trkpt lat="41.841594533295854" lon="15.958764806078552"><ele>696.0</ele><time>2026-03-29T07:30:43.044Z</time></trkpt><trkpt lat="41.8417280355182" lon="15.95863074072073"><ele>696.0</ele><time>2026-03-29T07:30:44.044Z</time></trkpt><trkpt lat="41.84184313890838" lon="15.95849444090469"><ele>696.0</ele><time>2026-03-29T07:30:45.044Z</time></trkpt><trkpt lat="41.84195241887223" lon="15.958373721511721"><ele>694.5</ele><time>2026-03-29T07:30:46.044Z</time></trkpt><trkpt lat="41.84205790761635" lon="15.958251683914844"><ele>693.0</ele><time>2026-03-29T07:30:47.044Z</time></trkpt><trkpt lat="41.84217101616547" lon="15.958147950325895"><ele>691.5</ele><time>2026-03-29T07:30:48.044Z</time></trkpt><trkpt lat="41.842282994179016" lon="15.95805250088989"><ele>690.0</ele><time>2026-03-29T07:30:49.044Z</time></trkpt><trkpt lat="41.84239357748286" lon="15.957948121612327"><ele>690.0</ele><time>2026-03-29T07:30:50.044Z</time></trkpt><trkpt lat="41.84250506492197" lon="15.957827676974173"><ele>690.0</ele><time>2026-03-29T07:30:51.044Z</time></trkpt><trkpt lat="41.84260672204369" lon="15.957696999113951"><ele>690.0</ele><time>2026-03-29T07:30:52.044Z</time></trkpt><trkpt lat="41.84269360866374" lon="15.95758416648418"><ele>690.0</ele><time>2026-03-29T07:30:53.044Z</time></trkpt><trkpt lat="41.84276699788908" lon="15.957472529114774"><ele>689.2</ele><time>2026-03-29T07:30:54.044Z</time></trkpt><trkpt lat="41.84282423729824" lon="15.957373173772124"><ele>688.4</ele><time>2026-03-29T07:30:55.044Z</time></trkpt><trkpt lat="41.84287754886847" lon="15.957272062442538"><ele>687.5999999999999</ele><time>2026-03-29T07:30:56.044Z</time></trkpt><trkpt lat="41.84294536256724" lon="15.957190761721389"><ele>686.8</ele><time>2026-03-29T07:30:57.044Z</time></trkpt><trkpt lat="41.843009223939774" lon="15.957100183509668"><ele>686.0</ele><time>2026-03-29T07:30:58.044Z</time></trkpt><trkpt lat="41.84307839682217" lon="15.957036691587298"><ele>686.0</ele><time>2026-03-29T07:30:59.044Z</time></trkpt><trkpt lat="41.84316648396179" lon="15.956966786736535"><ele>686.0</ele><time>2026-03-29T07:31:00.044Z</time></trkpt><trkpt lat="41.843224341021866" lon="15.956904351082667"><ele>686.0</ele><time>2026-03-29T07:31:01.043Z</time></trkpt><trkpt lat="41.84328408479068" lon="15.956819349945377"><ele>686.0</ele><time>2026-03-29T07:31:03.043Z</time></trkpt><trkpt lat="41.84333704910642" lon="15.956750436642364"><ele>686.0</ele><time>2026-03-29T07:31:05.043Z</time></trkpt><trkpt lat="41.84341281413385" lon="15.956668261302092"><ele>686.0</ele><time>2026-03-29T07:31:07.043Z</time></trkpt><trkpt lat="41.84346695064061" lon="15.956603780692177"><ele>684.3333333333333</ele><time>2026-03-29T07:31:08.043Z</time></trkpt><trkpt lat="41.843533352877806" lon="15.956530897064635"><ele>682.6666666666666</ele><time>2026-03-29T07:31:09.043Z</time></trkpt><trkpt lat="41.84359546882481" lon="15.956464519988153"><ele>681.0</ele><time>2026-03-29T07:31:10.043Z</time></trkpt><trkpt lat="41.84366566595324" lon="15.956397202672544"><ele>679.3333333333334</ele><time>2026-03-29T07:31:11.043Z</time></trkpt><trkpt lat="41.84373236588799" lon="15.956331685443683"><ele>677.6666666666667</ele><time>2026-03-29T07:31:12.043Z</time></trkpt><trkpt lat="41.84380295452454" lon="15.9562708633568"><ele>676.0</ele><time>2026-03-29T07:31:13.043Z</time></trkpt><trkpt lat="41.8438659942082" lon="15.956202590772216"><ele>676.0</ele><time>2026-03-29T07:31:14.043Z</time></trkpt><trkpt lat="41.84393532218725" lon="15.956127765734042"><ele>676.0</ele><time>2026-03-29T07:31:15.043Z</time></trkpt><trkpt lat="41.84401094580297" lon="15.956050800097241"><ele>676.0</ele><time>2026-03-29T07:31:16.043Z</time></trkpt><trkpt lat="41.84407599881896" lon="15.955984959616094"><ele>676.0</ele><time>2026-03-29T07:31:17.043Z</time></trkpt><trkpt lat="41.84412692350639" lon="15.95590192063534"><ele>676.0</ele><time>2026-03-29T07:31:18.043Z</time></trkpt><trkpt lat="41.84415982401901" lon="15.955804071340157"><ele>676.0</ele><time>2026-03-29T07:31:19.043Z</time></trkpt><trkpt lat="41.844182953771714" lon="15.955689900540689"><ele>676.3333333333334</ele><time>2026-03-29T07:31:20.043Z</time></trkpt><trkpt lat="41.84422569649379" lon="15.955589434565901"><ele>676.6666666666667</ele><time>2026-03-29T07:31:21.043Z</time></trkpt><trkpt lat="41.844268195456095" lon="15.955484235960668"><ele>677.0</ele><time>2026-03-29T07:31:22.043Z</time></trkpt><trkpt lat="41.84430613373131" lon="15.955386588917683"><ele>677.3333333333334</ele><time>2026-03-29T07:31:23.043Z</time></trkpt><trkpt lat="41.84435564516433" lon="15.955297635289801"><ele>677.6666666666666</ele><time>2026-03-29T07:31:24.043Z</time></trkpt><trkpt lat="41.84440591887494" lon="15.955222741008543"><ele>678.0</ele><time>2026-03-29T07:31:25.043Z</time></trkpt><trkpt lat="41.844504455499106" lon="15.955118217620214"><ele>676.0</ele><time>2026-03-29T07:31:27.043Z</time></trkpt><trkpt lat="41.84460382643362" lon="15.955054720756177"><ele>674.0</ele><time>2026-03-29T07:31:29.043Z</time></trkpt><trkpt lat="41.84467731529259" lon="15.955011198784822"><ele>672.0</ele><time>2026-03-29T07:31:32.043Z</time></trkpt><trkpt lat="41.844750725772315" lon="15.955092945040663"><ele>670.0</ele><time>2026-03-29T07:31:35.043Z</time></trkpt><trkpt lat="41.84480711645834" lon="15.955208967709675"><ele>668.0</ele><time>2026-03-29T07:31:37.043Z</time></trkpt><trkpt lat="41.84486613318265" lon="15.95535378687535"><ele>668.0</ele><time>2026-03-29T07:31:39.043Z</time></trkpt><trkpt lat="41.84491180093014" lon="15.95543913503068"><ele>668.0</ele><time>2026-03-29T07:31:40.043Z</time></trkpt><trkpt lat="41.84495274974249" lon="15.955538422244333"><ele>668.0</ele><time>2026-03-29T07:31:41.043Z</time></trkpt><trkpt lat="41.844997287439895" lon="15.955641090337844"><ele>668.0</ele><time>2026-03-29T07:31:42.043Z</time></trkpt><trkpt lat="41.84504767765694" lon="15.95572484127021"><ele>668.0</ele><time>2026-03-29T07:31:43.043Z</time></trkpt><trkpt lat="41.84509878408936" lon="15.95580477929814"><ele>668.0</ele><time>2026-03-29T07:31:44.043Z</time></trkpt><trkpt lat="41.84516372990006" lon="15.955875310881762"><ele>666.0</ele><time>2026-03-29T07:31:45.043Z</time></trkpt><trkpt lat="41.84522555692646" lon="15.955940424364186"><ele>664.0</ele><time>2026-03-29T07:31:46.043Z</time></trkpt><trkpt lat="41.84529129360009" lon="15.956001537770025"><ele>662.0</ele><time>2026-03-29T07:31:47.043Z</time></trkpt><trkpt lat="41.845366034887064" lon="15.956092174252351"><ele>660.0</ele><time>2026-03-29T07:31:48.043Z</time></trkpt><trkpt lat="41.845451616485825" lon="15.95618279129765"><ele>658.0</ele><time>2026-03-29T07:31:49.043Z</time></trkpt><trkpt lat="41.84551868049897" lon="15.956251612119113"><ele>658.0</ele><time>2026-03-29T07:31:50.043Z</time></trkpt><trkpt lat="41.84558125339839" lon="15.956345625818987"><ele>658.0</ele><time>2026-03-29T07:31:51.043Z</time></trkpt><trkpt lat="41.84565943291536" lon="15.956474635373281"><ele>658.0</ele><time>2026-03-29T07:31:52.043Z</time></trkpt><trkpt lat="41.84571862664508" lon="15.95658016945538"><ele>658.0</ele><time>2026-03-29T07:31:53.043Z</time></trkpt><trkpt lat="41.84578825021017" lon="15.956668168085077"><ele>658.0</ele><time>2026-03-29T07:31:54.043Z</time></trkpt><trkpt lat="41.8458720530619" lon="15.956718109938183"><ele>656.2</ele><time>2026-03-29T07:31:55.043Z</time></trkpt><trkpt lat="41.845969894067" lon="15.956767009370108"><ele>654.4</ele><time>2026-03-29T07:31:56.043Z</time></trkpt><trkpt lat="41.846087701444986" lon="15.956806725657447"><ele>652.6</ele><time>2026-03-29T07:31:57.043Z</time></trkpt><trkpt lat="41.846184158257294" lon="15.956855863451667"><ele>650.8000000000001</ele><time>2026-03-29T07:31:58.043Z</time></trkpt><trkpt lat="41.84626995822022" lon="15.956912794775953"><ele>649.0</ele><time>2026-03-29T07:31:59.043Z</time></trkpt><trkpt lat="41.84635533827268" lon="15.956975875554324"><ele>649.0</ele><time>2026-03-29T07:32:00.043Z</time></trkpt><trkpt lat="41.84647989267055" lon="15.957039990160036"><ele>649.0</ele><time>2026-03-29T07:32:02.043Z</time></trkpt><trkpt lat="41.84655286397047" lon="15.957098557697392"><ele>649.0</ele><time>2026-03-29T07:32:03.043Z</time></trkpt><trkpt lat="41.846617794781594" lon="15.957183728984539"><ele>649.0</ele><time>2026-03-29T07:32:04.043Z</time></trkpt><trkpt lat="41.84667638187086" lon="15.957295068406996"><ele>649.0</ele><time>2026-03-29T07:32:05.043Z</time></trkpt><trkpt lat="41.846718961275556" lon="15.957426030303049"><ele>648.0</ele><time>2026-03-29T07:32:06.043Z</time></trkpt><trkpt lat="41.84675949907489" lon="15.957558065847525"><ele>647.0</ele><time>2026-03-29T07:32:07.043Z</time></trkpt><trkpt lat="41.84682070539129" lon="15.957692852163627"><ele>646.0</ele><time>2026-03-29T07:32:08.043Z</time></trkpt><trkpt lat="41.84688212297682" lon="15.957886002177279"><ele>645.0</ele><time>2026-03-29T07:32:09.043Z</time></trkpt><trkpt lat="41.846951227303094" lon="15.95799876467787"><ele>645.0</ele><time>2026-03-29T07:32:10.043Z</time></trkpt><trkpt lat="41.84702432203609" lon="15.95808454958535"><ele>645.0</ele><time>2026-03-29T07:32:11.043Z</time></trkpt><trkpt lat="41.8471168780907" lon="15.958139553029559"><ele>645.0</ele><time>2026-03-29T07:32:12.043Z</time></trkpt><trkpt lat="41.84723805317779" lon="15.9581521290155"><ele>645.0</ele><time>2026-03-29T07:32:13.043Z</time></trkpt><trkpt lat="41.84738446770893" lon="15.958213717449107"><ele>645.0</ele><time>2026-03-29T07:32:14.043Z</time></trkpt><trkpt lat="41.847531032713306" lon="15.958236419093424"><ele>645.0</ele><time>2026-03-29T07:32:15.043Z</time></trkpt><trkpt lat="41.84769086748542" lon="15.958281640135075"><ele>645.0</ele><time>2026-03-29T07:32:16.043Z</time></trkpt><trkpt lat="41.84784155934178" lon="15.958273118141815"><ele>644.75</ele><time>2026-03-29T07:32:17.043Z</time></trkpt><trkpt lat="41.84798832637358" lon="15.958291125180454"><ele>644.5</ele><time>2026-03-29T07:32:18.043Z</time></trkpt><trkpt lat="41.84812318487444" lon="15.958326198103455"><ele>644.25</ele><time>2026-03-29T07:32:19.043Z</time></trkpt><trkpt lat="41.84821123998746" lon="15.958376102136073"><ele>644.0</ele><time>2026-03-29T07:32:20.043Z</time></trkpt><trkpt lat="41.84831568319239" lon="15.95838581051448"><ele>645.75</ele><time>2026-03-29T07:32:21.043Z</time></trkpt><trkpt lat="41.848456831407276" lon="15.958384399463549"><ele>647.5</ele><time>2026-03-29T07:32:22.043Z</time></trkpt><trkpt lat="41.84858227419391" lon="15.958387361983759"><ele>649.25</ele><time>2026-03-29T07:32:23.043Z</time></trkpt><trkpt lat="41.84871060711197" lon="15.958400300600905"><ele>651.0</ele><time>2026-03-29T07:32:24.043Z</time></trkpt><trkpt lat="41.848835764082054" lon="15.958449303917698"><ele>648.8</ele><time>2026-03-29T07:32:25.043Z</time></trkpt><trkpt lat="41.84894846806211" lon="15.958515067168664"><ele>646.5999999999999</ele><time>2026-03-29T07:32:26.043Z</time></trkpt><trkpt lat="41.84903190538136" lon="15.958561572005063"><ele>644.4</ele><time>2026-03-29T07:32:27.043Z</time></trkpt><trkpt lat="41.849121086335565" lon="15.958570708940359"><ele>642.2</ele><time>2026-03-29T07:32:29.043Z</time></trkpt><trkpt lat="41.849207546571435" lon="15.95845200950365"><ele>640.0</ele><time>2026-03-29T07:32:31.045Z</time></trkpt><trkpt lat="41.84924718822917" lon="15.95834266917164"><ele>640.0</ele><time>2026-03-29T07:32:33.044Z</time></trkpt><trkpt lat="41.849186780740744" lon="15.958224196831566"><ele>640.0</ele><time>2026-03-29T07:32:45.044Z</time></trkpt><trkpt lat="41.84912884301391" lon="15.95817157461682"><ele>640.0</ele><time>2026-03-29T07:32:47.044Z</time></trkpt><trkpt lat="41.84905875330253" lon="15.958047963327127"><ele>640.0</ele><time>2026-03-29T07:32:49.044Z</time></trkpt><trkpt lat="41.84896884657144" lon="15.957899795406332"><ele>640.0</ele><time>2026-03-29T07:32:50.044Z</time></trkpt><trkpt lat="41.848901453587104" lon="15.957785892157538"><ele>640.0</ele><time>2026-03-29T07:32:51.044Z</time></trkpt><trkpt lat="41.84878958547617" lon="15.957668216910292"><ele>640.0</ele><time>2026-03-29T07:32:52.044Z</time></trkpt><trkpt lat="41.848691486892406" lon="15.9575686519251"><ele>640.0</ele><time>2026-03-29T07:32:53.044Z</time></trkpt><trkpt lat="41.84860419634424" lon="15.957445996523452"><ele>640.0</ele><time>2026-03-29T07:32:54.044Z</time></trkpt><trkpt lat="41.848518190023" lon="15.95731980726385"><ele>636.75</ele><time>2026-03-29T07:32:55.044Z</time></trkpt><trkpt lat="41.84845488119923" lon="15.95716587276064"><ele>633.5</ele><time>2026-03-29T07:32:56.044Z</time></trkpt><trkpt lat="41.8483839025228" lon="15.957015980174637"><ele>630.25</ele><time>2026-03-29T07:32:57.044Z</time></trkpt><trkpt lat="41.848313174837884" lon="15.956837492714957"><ele>627.0</ele><time>2026-03-29T07:32:58.044Z</time></trkpt><trkpt lat="41.84826288926345" lon="15.956721178120166"><ele>626.0</ele><time>2026-03-29T07:32:59.044Z</time></trkpt><trkpt lat="41.84823771788997" lon="15.956603000866474"><ele>625.0</ele><time>2026-03-29T07:33:00.044Z</time></trkpt><trkpt lat="41.848237582716415" lon="15.956478256936869"><ele>624.0</ele><time>2026-03-29T07:33:01.044Z</time></trkpt><trkpt lat="41.848248729810244" lon="15.956334248186714"><ele>623.0</ele><time>2026-03-29T07:33:02.044Z</time></trkpt><trkpt lat="41.848277876663204" lon="15.956193830723638"><ele>622.0</ele><time>2026-03-29T07:33:03.044Z</time></trkpt><trkpt lat="41.84829354635387" lon="15.956027625010279"><ele>622.0</ele><time>2026-03-29T07:33:04.044Z</time></trkpt><trkpt lat="41.84829506695512" lon="15.9559036521823"><ele>622.0</ele><time>2026-03-29T07:33:05.044Z</time></trkpt><trkpt lat="41.848302641046004" lon="15.955731600653813"><ele>622.0</ele><time>2026-03-29T07:33:06.044Z</time></trkpt><trkpt lat="41.84829989283477" lon="15.955535056061914"><ele>622.0</ele><time>2026-03-29T07:33:07.044Z</time></trkpt><trkpt lat="41.848343827787254" lon="15.955319106342651"><ele>622.2</ele><time>2026-03-29T07:33:08.044Z</time></trkpt><trkpt lat="41.848345415099686" lon="15.955116359098785"><ele>622.4000000000001</ele><time>2026-03-29T07:33:09.044Z</time></trkpt><trkpt lat="41.84837258488277" lon="15.954973083150788"><ele>622.5999999999999</ele><time>2026-03-29T07:33:10.044Z</time></trkpt><trkpt lat="41.84840129555921" lon="15.954846723917507"><ele>622.8</ele><time>2026-03-29T07:33:11.044Z</time></trkpt><trkpt lat="41.84839682395251" lon="15.95473515727609"><ele>623.0</ele><time>2026-03-29T07:33:12.044Z</time></trkpt><trkpt lat="41.848430502071864" lon="15.95461311400037"><ele>628.0</ele><time>2026-03-29T07:33:13.044Z</time></trkpt><trkpt lat="41.84847553217539" lon="15.954464398478107"><ele>633.0</ele><time>2026-03-29T07:33:14.044Z</time></trkpt><trkpt lat="41.848527869386324" lon="15.954348743526914"><ele>638.0</ele><time>2026-03-29T07:33:15.044Z</time></trkpt><trkpt lat="41.84857650622586" lon="15.95422531350775"><ele>643.0</ele><time>2026-03-29T07:33:16.044Z</time></trkpt><trkpt lat="41.84863504634164" lon="15.954122401393633"><ele>648.0</ele><time>2026-03-29T07:33:17.044Z</time></trkpt><trkpt lat="41.84869044693018" lon="15.95397475815445"><ele>648.0</ele><time>2026-03-29T07:33:18.044Z</time></trkpt><trkpt lat="41.84877175978804" lon="15.95382970681537"><ele>648.0</ele><time>2026-03-29T07:33:19.044Z</time></trkpt><trkpt lat="41.848870005789344" lon="15.953672840333967"><ele>648.0</ele><time>2026-03-29T07:33:20.044Z</time></trkpt><trkpt lat="41.84901384871076" lon="15.953521022032362"><ele>645.5</ele><time>2026-03-29T07:33:21.044Z</time></trkpt><trkpt lat="41.849142730009575" lon="15.953354430350135"><ele>643.0</ele><time>2026-03-29T07:33:22.044Z</time></trkpt><trkpt lat="41.84924149762353" lon="15.95322131239045"><ele>640.5</ele><time>2026-03-29T07:33:23.044Z</time></trkpt><trkpt lat="41.84932470762031" lon="15.953113514722068"><ele>638.0</ele><time>2026-03-29T07:33:24.044Z</time></trkpt><trkpt lat="41.84937178064" lon="15.953008423189914"><ele>643.0</ele><time>2026-03-29T07:33:25.044Z</time></trkpt><trkpt lat="41.849430351670044" lon="15.95291647109942"><ele>648.0</ele><time>2026-03-29T07:33:26.044Z</time></trkpt><trkpt lat="41.84955011769168" lon="15.952794473187282"><ele>653.0</ele><time>2026-03-29T07:33:27.044Z</time></trkpt><trkpt lat="41.84964162468973" lon="15.952704965657645"><ele>658.0</ele><time>2026-03-29T07:33:28.044Z</time></trkpt><trkpt lat="41.84972878201686" lon="15.952620981494562"><ele>656.8</ele><time>2026-03-29T07:33:29.044Z</time></trkpt><trkpt lat="41.849822749483046" lon="15.952536658916047"><ele>655.5999999999999</ele><time>2026-03-29T07:33:30.044Z</time></trkpt><trkpt lat="41.84991747977595" lon="15.95247005726704"><ele>654.4000000000001</ele><time>2026-03-29T07:33:31.044Z</time></trkpt><trkpt lat="41.8500167287631" lon="15.952431163595724"><ele>653.2</ele><time>2026-03-29T07:33:32.044Z</time></trkpt><trkpt lat="41.85012376332794" lon="15.95238178317068"><ele>652.0</ele><time>2026-03-29T07:33:33.044Z</time></trkpt><trkpt lat="41.85022772442644" lon="15.952328614018985"><ele>652.0</ele><time>2026-03-29T07:33:34.044Z</time></trkpt><trkpt lat="41.850368549241225" lon="15.952255566124947"><ele>652.0</ele><time>2026-03-29T07:33:35.044Z</time></trkpt><trkpt lat="41.85047953627015" lon="15.9521879827945"><ele>652.0</ele><time>2026-03-29T07:33:36.044Z</time></trkpt><trkpt lat="41.85056966415651" lon="15.952094640135195"><ele>652.0</ele><time>2026-03-29T07:33:37.044Z</time></trkpt><trkpt lat="41.850634784658006" lon="15.952009699172375"><ele>652.0</ele><time>2026-03-29T07:33:38.044Z</time></trkpt><trkpt lat="41.85064324767691" lon="15.951916178491272"><ele>652.0</ele><time>2026-03-29T07:33:39.044Z</time></trkpt><trkpt lat="41.85056285792996" lon="15.951816444770925"><ele>652.0</ele><time>2026-03-29T07:33:41.044Z</time></trkpt><trkpt lat="41.850530085817745" lon="15.951678184539132"><ele>652.0</ele><time>2026-03-29T07:33:42.044Z</time></trkpt><trkpt lat="41.85049230287811" lon="15.951511615419376"><ele>652.0</ele><time>2026-03-29T07:33:43.044Z</time></trkpt><trkpt lat="41.85045256508826" lon="15.951253714255786"><ele>651.4000000000001</ele><time>2026-03-29T07:33:44.044Z</time></trkpt><trkpt lat="41.85044060924252" lon="15.951089986095624"><ele>650.8000000000001</ele><time>2026-03-29T07:33:45.044Z</time></trkpt><trkpt lat="41.85042348633283" lon="15.950942178077593"><ele>650.2</ele><time>2026-03-29T07:33:46.044Z</time></trkpt><trkpt lat="41.850391360048235" lon="15.950809702446374"><ele>649.6</ele><time>2026-03-29T07:33:47.044Z</time></trkpt><trkpt lat="41.85034009250857" lon="15.950689490764129"><ele>649.0</ele><time>2026-03-29T07:33:48.044Z</time></trkpt><trkpt lat="41.85032313375873" lon="15.950563335468308"><ele>649.0</ele><time>2026-03-29T07:33:49.044Z</time></trkpt><trkpt lat="41.85030122171318" lon="15.95045189130963"><ele>649.0</ele><time>2026-03-29T07:33:50.044Z</time></trkpt><trkpt lat="41.85032510544409" lon="15.950305347894783"><ele>649.0</ele><time>2026-03-29T07:33:51.044Z</time></trkpt><trkpt lat="41.85032884888202" lon="15.950205814868767"><ele>649.0</ele><time>2026-03-29T07:33:52.044Z</time></trkpt><trkpt lat="41.850371223507636" lon="15.950080874625947"><ele>649.0</ele><time>2026-03-29T07:33:53.044Z</time></trkpt><trkpt lat="41.8504314475473" lon="15.949899196560402"><ele>649.0</ele><time>2026-03-29T07:33:54.044Z</time></trkpt><trkpt lat="41.85047830312967" lon="15.949714602167871"><ele>649.0</ele><time>2026-03-29T07:33:55.044Z</time></trkpt><trkpt lat="41.850556061014984" lon="15.949534059057907"><ele>649.0</ele><time>2026-03-29T07:33:56.044Z</time></trkpt><trkpt lat="41.85065145287025" lon="15.949338664156851"><ele>645.0</ele><time>2026-03-29T07:33:57.044Z</time></trkpt><trkpt lat="41.85076922584409" lon="15.949115497559823"><ele>641.0</ele><time>2026-03-29T07:33:58.044Z</time></trkpt><trkpt lat="41.85090922441202" lon="15.94890780024276"><ele>637.0</ele><time>2026-03-29T07:33:59.044Z</time></trkpt><trkpt lat="41.851063873385684" lon="15.948713404786279"><ele>638.3333333333334</ele><time>2026-03-29T07:34:00.044Z</time></trkpt><trkpt lat="41.85114818903753" lon="15.948581048154349"><ele>639.6666666666667</ele><time>2026-03-29T07:34:01.044Z</time></trkpt><trkpt lat="41.851205786219246" lon="15.948489164101137"><ele>641.0</ele><time>2026-03-29T07:34:02.044Z</time></trkpt><trkpt lat="41.85126418399916" lon="15.948406882726317"><ele>642.3333333333334</ele><time>2026-03-29T07:34:03.044Z</time></trkpt><trkpt lat="41.851320671134545" lon="15.948344878757705"><ele>643.6666666666666</ele><time>2026-03-29T07:34:04.044Z</time></trkpt><trkpt lat="41.85137203539667" lon="15.948281624250495"><ele>645.0</ele><time>2026-03-29T07:34:05.044Z</time></trkpt><trkpt lat="41.8514203501093" lon="15.948210261535891"><ele>645.0</ele><time>2026-03-29T07:34:06.044Z</time></trkpt><trkpt lat="41.851485699479554" lon="15.948142620510621"><ele>645.0</ele><time>2026-03-29T07:34:07.043Z</time></trkpt><trkpt lat="41.85155583196393" lon="15.948079344315428"><ele>645.0</ele><time>2026-03-29T07:34:08.043Z</time></trkpt><trkpt lat="41.851626968830416" lon="15.948033301463697"><ele>645.0</ele><time>2026-03-29T07:34:09.043Z</time></trkpt><trkpt lat="41.851744077792134" lon="15.947959983233961"><ele>645.0</ele><time>2026-03-29T07:34:11.043Z</time></trkpt><trkpt lat="41.85183408156494" lon="15.94793234235984"><ele>646.0</ele><time>2026-03-29T07:34:12.043Z</time></trkpt><trkpt lat="41.851903017150256" lon="15.947906726193114"><ele>647.0</ele><time>2026-03-29T07:34:13.043Z</time></trkpt><trkpt lat="41.85201326598747" lon="15.947867245516733"><ele>648.0</ele><time>2026-03-29T07:34:15.043Z</time></trkpt><trkpt lat="41.85209214838808" lon="15.947818465935404"><ele>649.0</ele><time>2026-03-29T07:34:17.043Z</time></trkpt><trkpt lat="41.85218280852154" lon="15.947741560649986"><ele>650.0</ele><time>2026-03-29T07:34:19.043Z</time></trkpt><trkpt lat="41.852252332128316" lon="15.94766475064821"><ele>650.0</ele><time>2026-03-29T07:34:21.043Z</time></trkpt><trkpt lat="41.85232704903741" lon="15.947584501044235"><ele>650.0</ele><time>2026-03-29T07:34:23.043Z</time></trkpt><trkpt lat="41.85240711942682" lon="15.947500650416064"><ele>650.0</ele><time>2026-03-29T07:34:25.043Z</time></trkpt><trkpt lat="41.85247813689706" lon="15.947420799192582"><ele>650.0</ele><time>2026-03-29T07:34:27.043Z</time></trkpt><trkpt lat="41.85253018796255" lon="15.947360282167887"><ele>650.0</ele><time>2026-03-29T07:34:28.043Z</time></trkpt><trkpt lat="41.852577138420166" lon="15.947298818259913"><ele>650.0</ele><time>2026-03-29T07:34:29.043Z</time></trkpt><trkpt lat="41.852602619504985" lon="15.947221153570988"><ele>645.5</ele><time>2026-03-29T07:34:30.043Z</time></trkpt><trkpt lat="41.85259780213635" lon="15.947051355902838"><ele>641.0</ele><time>2026-03-29T07:34:32.043Z</time></trkpt><trkpt lat="41.85258504652061" lon="15.946902019270455"><ele>636.5</ele><time>2026-03-29T07:34:33.043Z</time></trkpt><trkpt lat="41.85258662574298" lon="15.946732269742398"><ele>632.0</ele><time>2026-03-29T07:34:34.043Z</time></trkpt><trkpt lat="41.85255279021954" lon="15.946459009056852"><ele>628.0</ele><time>2026-03-29T07:34:35.043Z</time></trkpt><trkpt lat="41.85255794795586" lon="15.94616080655137"><ele>624.0</ele><time>2026-03-29T07:34:36.045Z</time></trkpt><trkpt lat="41.85257517574333" lon="15.94591942279643"><ele>620.0</ele><time>2026-03-29T07:34:37.045Z</time></trkpt><trkpt lat="41.85259112798155" lon="15.945734779618975"><ele>620.0</ele><time>2026-03-29T07:34:38.045Z</time></trkpt><trkpt lat="41.852596786138264" lon="15.945589612824755"><ele>620.0</ele><time>2026-03-29T07:34:39.045Z</time></trkpt><trkpt lat="41.85261690298151" lon="15.945469636326315"><ele>620.0</ele><time>2026-03-29T07:34:40.045Z</time></trkpt><trkpt lat="41.85268708918438" lon="15.94530660981996"><ele>620.0</ele><time>2026-03-29T07:34:41.045Z</time></trkpt><trkpt lat="41.85273793519669" lon="15.945131552556626"><ele>628.0</ele><time>2026-03-29T07:34:42.045Z</time></trkpt><trkpt lat="41.85283021802034" lon="15.944933602532007"><ele>636.0</ele><time>2026-03-29T07:34:43.046Z</time></trkpt><trkpt lat="41.85291115119897" lon="15.944696054781547"><ele>644.0</ele><time>2026-03-29T07:34:44.046Z</time></trkpt><trkpt lat="41.852990076909656" lon="15.944421526731452"><ele>642.3333333333333</ele><time>2026-03-29T07:34:45.045Z</time></trkpt><trkpt lat="41.85304257747502" lon="15.944175257384803"><ele>640.6666666666666</ele><time>2026-03-29T07:34:46.045Z</time></trkpt><trkpt lat="41.85312036558147" lon="15.943884185193877"><ele>639.0</ele><time>2026-03-29T07:34:47.045Z</time></trkpt><trkpt lat="41.85319913407889" lon="15.943562971351268"><ele>638.5</ele><time>2026-03-29T07:34:48.045Z</time></trkpt><trkpt lat="41.85325367427413" lon="15.94325643943782"><ele>638.0</ele><time>2026-03-29T07:34:49.045Z</time></trkpt><trkpt lat="41.85329412460181" lon="15.942969248211277"><ele>638.0</ele><time>2026-03-29T07:34:50.045Z</time></trkpt><trkpt lat="41.85334364216835" lon="15.942717557961616"><ele>638.0</ele><time>2026-03-29T07:34:51.045Z</time></trkpt><trkpt lat="41.853384761062905" lon="15.942525896405812"><ele>638.0</ele><time>2026-03-29T07:34:52.045Z</time></trkpt><trkpt lat="41.85340079883806" lon="15.942411147194447"><ele>638.0</ele><time>2026-03-29T07:34:53.045Z</time></trkpt><trkpt lat="41.85342376728753" lon="15.942318223389725"><ele>639.0</ele><time>2026-03-29T07:34:54.045Z</time></trkpt><trkpt lat="41.85345632720416" lon="15.942205771608004"><ele>640.0</ele><time>2026-03-29T07:34:56.045Z</time></trkpt><trkpt lat="41.85350048018344" lon="15.942086894262754"><ele>641.0</ele><time>2026-03-29T07:34:57.045Z</time></trkpt><trkpt lat="41.85352753655979" lon="15.941972342415298"><ele>642.0</ele><time>2026-03-29T07:34:58.045Z</time></trkpt><trkpt lat="41.85360076758582" lon="15.941771620899472"><ele>643.0</ele><time>2026-03-29T07:34:59.045Z</time></trkpt><trkpt lat="41.85368583972153" lon="15.941562480772236"><ele>643.0</ele><time>2026-03-29T07:35:00.045Z</time></trkpt><trkpt lat="41.85376571311009" lon="15.941375962981352"><ele>643.0</ele><time>2026-03-29T07:35:01.045Z</time></trkpt><trkpt lat="41.853820772300296" lon="15.941239460785221"><ele>643.0</ele><time>2026-03-29T07:35:02.045Z</time></trkpt><trkpt lat="41.85384152920184" lon="15.9410989316855"><ele>643.0</ele><time>2026-03-29T07:35:03.045Z</time></trkpt><trkpt lat="41.853810826645635" lon="15.940959869612785"><ele>646.3333333333334</ele><time>2026-03-29T07:35:04.045Z</time></trkpt><trkpt lat="41.853829433942245" lon="15.940753003576885"><ele>649.6666666666666</ele><time>2026-03-29T07:35:05.045Z</time></trkpt><trkpt lat="41.853868030800584" lon="15.940543541058489"><ele>653.0</ele><time>2026-03-29T07:35:06.045Z</time></trkpt><trkpt lat="41.85389088727237" lon="15.940304652131493"><ele>655.6666666666666</ele><time>2026-03-29T07:35:07.045Z</time></trkpt><trkpt lat="41.85392399442278" lon="15.940043405630215"><ele>658.3333333333334</ele><time>2026-03-29T07:35:08.045Z</time></trkpt><trkpt lat="41.85396476505776" lon="15.939848068597957"><ele>661.0</ele><time>2026-03-29T07:35:09.045Z</time></trkpt><trkpt lat="41.854001824444296" lon="15.939695756919713"><ele>661.0</ele><time>2026-03-29T07:35:10.045Z</time></trkpt><trkpt lat="41.85404444773241" lon="15.939581704089276"><ele>661.0</ele><time>2026-03-29T07:35:11.045Z</time></trkpt><trkpt lat="41.85412441901032" lon="15.939469114336644"><ele>661.0</ele><time>2026-03-29T07:35:13.045Z</time></trkpt><trkpt lat="41.854201895935326" lon="15.93944829394506"><ele>661.0</ele><time>2026-03-29T07:35:14.045Z</time></trkpt><trkpt lat="41.854293108563766" lon="15.939417707445601"><ele>661.0</ele><time>2026-03-29T07:35:15.045Z</time></trkpt><trkpt lat="41.8543825532763" lon="15.93938702134062"><ele>661.8333333333334</ele><time>2026-03-29T07:35:16.045Z</time></trkpt><trkpt lat="41.85444735917077" lon="15.939380866284328"><ele>662.6666666666667</ele><time>2026-03-29T07:35:17.045Z</time></trkpt><trkpt lat="41.854548956993426" lon="15.939388811976661"><ele>663.5</ele><time>2026-03-29T07:35:19.045Z</time></trkpt><trkpt lat="41.85461288696147" lon="15.939390087158852"><ele>664.3333333333334</ele><time>2026-03-29T07:35:20.045Z</time></trkpt><trkpt lat="41.854690433147944" lon="15.939391801337361"><ele>665.1666666666666</ele><time>2026-03-29T07:35:21.045Z</time></trkpt><trkpt lat="41.85475854830863" lon="15.939388278254208"><ele>666.0</ele><time>2026-03-29T07:35:22.045Z</time></trkpt><trkpt lat="41.854894565952726" lon="15.939321973573952"><ele>666.0</ele><time>2026-03-29T07:35:24.045Z</time></trkpt><trkpt lat="41.8549936088275" lon="15.939274354094158"><ele>666.0</ele><time>2026-03-29T07:35:25.045Z</time></trkpt><trkpt lat="41.85506994400693" lon="15.939227615545292"><ele>666.0</ele><time>2026-03-29T07:35:26.045Z</time></trkpt><trkpt lat="41.85511553281616" lon="15.939164283876295"><ele>666.0</ele><time>2026-03-29T07:35:27.045Z</time></trkpt><trkpt lat="41.85519058244467" lon="15.939096798610919"><ele>666.0</ele><time>2026-03-29T07:35:28.045Z</time></trkpt><trkpt lat="41.855279065061566" lon="15.939032164839473"><ele>666.0</ele><time>2026-03-29T07:35:29.045Z</time></trkpt><trkpt lat="41.855376043343625" lon="15.93895757081182"><ele>665.3333333333334</ele><time>2026-03-29T07:35:30.045Z</time></trkpt><trkpt lat="41.85544587736932" lon="15.938886797376004"><ele>664.6666666666666</ele><time>2026-03-29T07:35:31.045Z</time></trkpt><trkpt lat="41.855490339593906" lon="15.938818003808016"><ele>664.0</ele><time>2026-03-29T07:35:32.045Z</time></trkpt><trkpt lat="41.85555230988965" lon="15.938734267838276"><ele>663.3333333333333</ele><time>2026-03-29T07:35:33.045Z</time></trkpt><trkpt lat="41.855617064071055" lon="15.938651499797297"><ele>662.6666666666666</ele><time>2026-03-29T07:35:34.045Z</time></trkpt><trkpt lat="41.855668438802034" lon="15.938592017681911"><ele>662.0</ele><time>2026-03-29T07:35:35.045Z</time></trkpt><trkpt lat="41.855735794965355" lon="15.938542342837746"><ele>656.0</ele><time>2026-03-29T07:35:36.045Z</time></trkpt><trkpt lat="41.85583545302466" lon="15.938381271661317"><ele>650.0</ele><time>2026-03-29T07:35:38.045Z</time></trkpt><trkpt lat="41.855936968342476" lon="15.938190404863887"><ele>644.0</ele><time>2026-03-29T07:35:39.045Z</time></trkpt><trkpt lat="41.856033756791696" lon="15.93799561895312"><ele>640.5</ele><time>2026-03-29T07:35:40.045Z</time></trkpt><trkpt lat="41.856097222368675" lon="15.937818033299887"><ele>637.0</ele><time>2026-03-29T07:35:41.045Z</time></trkpt><trkpt lat="41.856181419242795" lon="15.937680744282918"><ele>633.5</ele><time>2026-03-29T07:35:42.045Z</time></trkpt><trkpt lat="41.85624222922699" lon="15.93754416034054"><ele>630.0</ele><time>2026-03-29T07:35:43.045Z</time></trkpt><trkpt lat="41.85630208486021" lon="15.937426645363763"><ele>630.0</ele><time>2026-03-29T07:35:44.045Z</time></trkpt><trkpt lat="41.856341025545106" lon="15.937327746859012"><ele>630.0</ele><time>2026-03-29T07:35:45.045Z</time></trkpt><trkpt lat="41.85638732456675" lon="15.937225620760213"><ele>630.0</ele><time>2026-03-29T07:35:46.045Z</time></trkpt><trkpt lat="41.85639187336359" lon="15.937084425576005"><ele>630.0</ele><time>2026-03-29T07:35:47.045Z</time></trkpt><trkpt lat="41.856411434429" lon="15.936908589469791"><ele>630.0</ele><time>2026-03-29T07:35:48.045Z</time></trkpt><trkpt lat="41.85643482091146" lon="15.936744802606523"><ele>629.8333333333334</ele><time>2026-03-29T07:35:49.045Z</time></trkpt><trkpt lat="41.8564618617566" lon="15.936632926407507"><ele>629.6666666666666</ele><time>2026-03-29T07:35:50.045Z</time></trkpt><trkpt lat="41.85649494321054" lon="15.936532316876372"><ele>629.5</ele><time>2026-03-29T07:35:51.045Z</time></trkpt><trkpt lat="41.8565330230387" lon="15.936410158332523"><ele>629.3333333333333</ele><time>2026-03-29T07:35:53.045Z</time></trkpt><trkpt lat="41.85655216710531" lon="15.93631631475337"><ele>629.1666666666666</ele><time>2026-03-29T07:35:56.045Z</time></trkpt><trkpt lat="41.85661124661974" lon="15.936260071273294"><ele>629.0</ele><time>2026-03-29T07:36:08.044Z</time></trkpt><trkpt lat="41.85666008489842" lon="15.936206561520523"><ele>629.0</ele><time>2026-03-29T07:36:32.044Z</time></trkpt><trkpt lat="41.856698347806386" lon="15.936104185157753"><ele>629.0</ele><time>2026-03-29T07:36:34.185Z</time></trkpt><trkpt lat="41.85677403563" lon="15.93597606746438"><ele>629.0</ele><time>2026-03-29T07:36:36.044Z</time></trkpt><trkpt lat="41.8568357245477" lon="15.935897509375783"><ele>629.0</ele><time>2026-03-29T07:36:37.044Z</time></trkpt><trkpt lat="41.85688805702873" lon="15.93578311130663"><ele>629.0</ele><time>2026-03-29T07:36:38.044Z</time></trkpt><trkpt lat="41.856975360661465" lon="15.935688477374146"><ele>625.2</ele><time>2026-03-29T07:36:39.044Z</time></trkpt><trkpt lat="41.85705533019829" lon="15.935556804700772"><ele>621.4</ele><time>2026-03-29T07:36:40.044Z</time></trkpt><trkpt lat="41.85713598100788" lon="15.935476181136572"><ele>617.6</ele><time>2026-03-29T07:36:41.044Z</time></trkpt><trkpt lat="41.857222384892296" lon="15.935393350821787"><ele>613.8</ele><time>2026-03-29T07:36:42.046Z</time></trkpt><trkpt lat="41.8572927548546" lon="15.935322460025285"><ele>610.0</ele><time>2026-03-29T07:36:43.046Z</time></trkpt><trkpt lat="41.85738621649157" lon="15.935243070565985"><ele>610.0</ele><time>2026-03-29T07:36:44.046Z</time></trkpt><trkpt lat="41.85746540319745" lon="15.935169149150475"><ele>610.0</ele><time>2026-03-29T07:36:45.045Z</time></trkpt><trkpt lat="41.857516916695964" lon="15.935084044754722"><ele>610.0</ele><time>2026-03-29T07:36:46.046Z</time></trkpt><trkpt lat="41.857572215528975" lon="15.934981497491952"><ele>610.0</ele><time>2026-03-29T07:36:47.046Z</time></trkpt><trkpt lat="41.8575928625148" lon="15.934876367329286"><ele>610.0</ele><time>2026-03-29T07:36:48.046Z</time></trkpt><trkpt lat="41.857616890893105" lon="15.934745296040825"><ele>607.8333333333334</ele><time>2026-03-29T07:36:49.045Z</time></trkpt><trkpt lat="41.85764283510173" lon="15.934625374673184"><ele>605.6666666666667</ele><time>2026-03-29T07:36:50.045Z</time></trkpt><trkpt lat="41.85767499855925" lon="15.934520053398485"><ele>603.5</ele><time>2026-03-29T07:36:51.046Z</time></trkpt><trkpt lat="41.85771244317848" lon="15.934396592082024"><ele>601.3333333333334</ele><time>2026-03-29T07:36:52.046Z</time></trkpt><trkpt lat="41.85773956394532" lon="15.934304567966198"><ele>599.1666666666666</ele><time>2026-03-29T07:36:53.046Z</time></trkpt><trkpt lat="41.85779150641361" lon="15.934198414056448"><ele>597.0</ele><time>2026-03-29T07:36:54.045Z</time></trkpt><trkpt lat="41.8578497239698" lon="15.934073554163044"><ele>597.0</ele><time>2026-03-29T07:36:55.046Z</time></trkpt><trkpt lat="41.857908333058035" lon="15.93393444909962"><ele>597.0</ele><time>2026-03-29T07:36:56.046Z</time></trkpt><trkpt lat="41.85797409988237" lon="15.933800518851088"><ele>597.0</ele><time>2026-03-29T07:36:57.046Z</time></trkpt><trkpt lat="41.85804196529868" lon="15.93368104456992"><ele>597.0</ele><time>2026-03-29T07:36:58.046Z</time></trkpt><trkpt lat="41.858117117376224" lon="15.933543352688735"><ele>597.0</ele><time>2026-03-29T07:36:59.046Z</time></trkpt><trkpt lat="41.85822651648371" lon="15.933407285859547"><ele>597.0</ele><time>2026-03-29T07:37:00.046Z</time></trkpt><trkpt lat="41.85831303451296" lon="15.933280219820968"><ele>597.0</ele><time>2026-03-29T07:37:01.046Z</time></trkpt><trkpt lat="41.85838106479358" lon="15.933169683844701"><ele>597.0</ele><time>2026-03-29T07:37:02.046Z</time></trkpt><trkpt lat="41.8584550679239" lon="15.933102776503912"><ele>594.3333333333334</ele><time>2026-03-29T07:37:03.046Z</time></trkpt><trkpt lat="41.85858612781547" lon="15.933017516697685"><ele>591.6666666666667</ele><time>2026-03-29T07:37:04.046Z</time></trkpt><trkpt lat="41.858750095858866" lon="15.932920721128424"><ele>589.0</ele><time>2026-03-29T07:37:05.046Z</time></trkpt><trkpt lat="41.858910110020766" lon="15.932858003309578"><ele>589.0</ele><time>2026-03-29T07:37:06.046Z</time></trkpt><trkpt lat="41.85903609080066" lon="15.93279443545706"><ele>589.0</ele><time>2026-03-29T07:37:07.046Z</time></trkpt><trkpt lat="41.859135287501395" lon="15.932717867821594"><ele>589.0</ele><time>2026-03-29T07:37:08.046Z</time></trkpt><trkpt lat="41.859195788007476" lon="15.932598682279579"><ele>589.0</ele><time>2026-03-29T07:37:09.046Z</time></trkpt><trkpt lat="41.85924233199159" lon="15.932496683639865"><ele>589.0</ele><time>2026-03-29T07:37:10.046Z</time></trkpt><trkpt lat="41.85930456958586" lon="15.93241049064429"><ele>590.0</ele><time>2026-03-29T07:37:11.046Z</time></trkpt><trkpt lat="41.859364867966896" lon="15.932337480115828"><ele>591.0</ele><time>2026-03-29T07:37:12.046Z</time></trkpt><trkpt lat="41.85942456886451" lon="15.93227213816608"><ele>592.0</ele><time>2026-03-29T07:37:13.046Z</time></trkpt><trkpt lat="41.85956130374518" lon="15.932183671571979"><ele>593.0</ele><time>2026-03-29T07:37:15.046Z</time></trkpt><trkpt lat="41.8596341026286" lon="15.932139046941106"><ele>594.0</ele><time>2026-03-29T07:37:16.046Z</time></trkpt><trkpt lat="41.85970525838337" lon="15.932086543984392"><ele>594.0</ele><time>2026-03-29T07:37:17.046Z</time></trkpt><trkpt lat="41.85978138224743" lon="15.93200960373106"><ele>594.0</ele><time>2026-03-29T07:37:18.046Z</time></trkpt><trkpt lat="41.85985974011942" lon="15.931923528614435"><ele>594.0</ele><time>2026-03-29T07:37:19.046Z</time></trkpt><trkpt lat="41.85993664331533" lon="15.931839507101728"><ele>594.0</ele><time>2026-03-29T07:37:20.046Z</time></trkpt><trkpt lat="41.86000275305143" lon="15.931734624218516"><ele>594.0</ele><time>2026-03-29T07:37:21.046Z</time></trkpt><trkpt lat="41.860091191156364" lon="15.931617529539526"><ele>594.5</ele><time>2026-03-29T07:37:22.046Z</time></trkpt><trkpt lat="41.860156968421826" lon="15.931514886146651"><ele>595.0</ele><time>2026-03-29T07:37:23.046Z</time></trkpt><trkpt lat="41.86022720994781" lon="15.931418251363882"><ele>595.5</ele><time>2026-03-29T07:37:24.046Z</time></trkpt><trkpt lat="41.860316541526906" lon="15.931307630461417"><ele>596.0</ele><time>2026-03-29T07:37:25.046Z</time></trkpt><trkpt lat="41.860447049498376" lon="15.93119191330891"><ele>596.0</ele><time>2026-03-29T07:37:26.046Z</time></trkpt><trkpt lat="41.86058117647259" lon="15.931095987860402"><ele>596.0</ele><time>2026-03-29T07:37:27.046Z</time></trkpt><trkpt lat="41.8607015241249" lon="15.931024729816558"><ele>596.0</ele><time>2026-03-29T07:37:28.046Z</time></trkpt><trkpt lat="41.86080881502179" lon="15.930949750488118"><ele>596.0</ele><time>2026-03-29T07:37:29.046Z</time></trkpt><trkpt lat="41.86091010541162" lon="15.930893740586857"><ele>596.25</ele><time>2026-03-29T07:37:30.046Z</time></trkpt><trkpt lat="41.86100700327664" lon="15.930852901439149"><ele>596.5</ele><time>2026-03-29T07:37:31.046Z</time></trkpt><trkpt lat="41.861105965336314" lon="15.930803594869962"><ele>596.75</ele><time>2026-03-29T07:37:32.046Z</time></trkpt><trkpt lat="41.86121188230503" lon="15.930730428350012"><ele>597.0</ele><time>2026-03-29T07:37:33.046Z</time></trkpt><trkpt lat="41.86133207168996" lon="15.930645437636539"><ele>597.0</ele><time>2026-03-29T07:37:34.046Z</time></trkpt><trkpt lat="41.86145445966917" lon="15.930584031517453"><ele>597.0</ele><time>2026-03-29T07:37:35.046Z</time></trkpt><trkpt lat="41.86156454871167" lon="15.930533468214518"><ele>597.0</ele><time>2026-03-29T07:37:36.046Z</time></trkpt><trkpt lat="41.86166811394118" lon="15.930497133094958"><ele>597.0</ele><time>2026-03-29T07:37:37.046Z</time></trkpt><trkpt lat="41.861774295452406" lon="15.930451076504827"><ele>594.0</ele><time>2026-03-29T07:37:38.046Z</time></trkpt><trkpt lat="41.86187349186791" lon="15.930420892428293"><ele>591.0</ele><time>2026-03-29T07:37:39.046Z</time></trkpt><trkpt lat="41.861988794454795" lon="15.930366916050708"><ele>588.0</ele><time>2026-03-29T07:37:40.046Z</time></trkpt><trkpt lat="41.86209838331512" lon="15.930324624226598"><ele>585.0</ele><time>2026-03-29T07:37:41.046Z</time></trkpt><trkpt lat="41.86223195918182" lon="15.930294732395229"><ele>585.0</ele><time>2026-03-29T07:37:42.046Z</time></trkpt><trkpt lat="41.86234524921948" lon="15.930261829758388"><ele>585.0</ele><time>2026-03-29T07:37:43.045Z</time></trkpt><trkpt lat="41.862436015977025" lon="15.93022298123244"><ele>585.0</ele><time>2026-03-29T07:37:44.045Z</time></trkpt><trkpt lat="41.862530317745744" lon="15.930202234299939"><ele>585.0</ele><time>2026-03-29T07:37:45.045Z</time></trkpt><trkpt lat="41.86260593648544" lon="15.930195562723625"><ele>585.0</ele><time>2026-03-29T07:37:46.045Z</time></trkpt><trkpt lat="41.862687459211394" lon="15.930146239963449"><ele>585.1666666666666</ele><time>2026-03-29T07:37:48.045Z</time></trkpt><trkpt lat="41.862711664267714" lon="15.930049307128003"><ele>585.3333333333334</ele><time>2026-03-29T07:37:51.045Z</time></trkpt><trkpt lat="41.8626606266011" lon="15.929984607800792"><ele>585.5</ele><time>2026-03-29T07:38:01.045Z</time></trkpt><trkpt lat="41.862596734104734" lon="15.929867808191046"><ele>585.6666666666667</ele><time>2026-03-29T07:38:04.045Z</time></trkpt><trkpt lat="41.86254965843737" lon="15.929798732415499"><ele>585.8333333333334</ele><time>2026-03-29T07:38:05.045Z</time></trkpt><trkpt lat="41.862485232699164" lon="15.929681798169376"><ele>586.0</ele><time>2026-03-29T07:38:06.045Z</time></trkpt><trkpt lat="41.86241818498229" lon="15.929538777666453"><ele>587.0</ele><time>2026-03-29T07:38:07.045Z</time></trkpt><trkpt lat="41.86235645218442" lon="15.929421791637152"><ele>588.0</ele><time>2026-03-29T07:38:08.045Z</time></trkpt><trkpt lat="41.862332317235776" lon="15.92927254772337"><ele>589.0</ele><time>2026-03-29T07:38:09.045Z</time></trkpt><trkpt lat="41.86228291786318" lon="15.929166071359166"><ele>590.0</ele><time>2026-03-29T07:38:10.045Z</time></trkpt><trkpt lat="41.862236632588974" lon="15.929091730188185"><ele>591.0</ele><time>2026-03-29T07:38:11.045Z</time></trkpt><trkpt lat="41.86216694776576" lon="15.929052796550389"><ele>591.3333333333334</ele><time>2026-03-29T07:38:12.045Z</time></trkpt><trkpt lat="41.86209825639908" lon="15.92904919093101"><ele>591.6666666666666</ele><time>2026-03-29T07:38:13.045Z</time></trkpt><trkpt lat="41.86200500211468" lon="15.929037979356043"><ele>592.0</ele><time>2026-03-29T07:38:14.045Z</time></trkpt><trkpt lat="41.86191959617048" lon="15.92899919472699"><ele>592.3333333333333</ele><time>2026-03-29T07:38:15.045Z</time></trkpt><trkpt lat="41.86183717401535" lon="15.928977957103637"><ele>592.6666666666666</ele><time>2026-03-29T07:38:16.045Z</time></trkpt><trkpt lat="41.86175090960299" lon="15.928939219149783"><ele>593.0</ele><time>2026-03-29T07:38:17.045Z</time></trkpt><trkpt lat="41.86169401781833" lon="15.928885277616825"><ele>593.0</ele><time>2026-03-29T07:38:18.045Z</time></trkpt><trkpt lat="41.861658624521894" lon="15.928786865334617"><ele>593.0</ele><time>2026-03-29T07:38:21.045Z</time></trkpt><trkpt lat="41.861657803036955" lon="15.92866071707648"><ele>593.0</ele><time>2026-03-29T07:38:23.045Z</time></trkpt><trkpt lat="41.861694535277564" lon="15.928496057288726"><ele>593.0</ele><time>2026-03-29T07:38:25.045Z</time></trkpt><trkpt lat="41.861735047110905" lon="15.928319897839053"><ele>593.0</ele><time>2026-03-29T07:38:27.045Z</time></trkpt><trkpt lat="41.86175372549638" lon="15.928191395319963"><ele>592.6</ele><time>2026-03-29T07:38:28.045Z</time></trkpt><trkpt lat="41.861777076056285" lon="15.928057864700772"><ele>592.1999999999999</ele><time>2026-03-29T07:38:29.045Z</time></trkpt><trkpt lat="41.86177120506252" lon="15.927914519419064"><ele>591.8</ele><time>2026-03-29T07:38:30.045Z</time></trkpt><trkpt lat="41.86175844736892" lon="15.927761865630124"><ele>591.4</ele><time>2026-03-29T07:38:31.045Z</time></trkpt><trkpt lat="41.861738559465394" lon="15.927627860769551"><ele>591.0</ele><time>2026-03-29T07:38:32.045Z</time></trkpt><trkpt lat="41.861741239813256" lon="15.927474369195966"><ele>591.0</ele><time>2026-03-29T07:38:33.045Z</time></trkpt><trkpt lat="41.8617277857442" lon="15.9273821496474"><ele>591.0</ele><time>2026-03-29T07:38:34.045Z</time></trkpt><trkpt lat="41.86176195273873" lon="15.927284811960924"><ele>591.0</ele><time>2026-03-29T07:38:35.045Z</time></trkpt><trkpt lat="41.86179653325998" lon="15.927182543090206"><ele>591.0</ele><time>2026-03-29T07:38:36.045Z</time></trkpt><trkpt lat="41.86183848596216" lon="15.927068415412274"><ele>591.0</ele><time>2026-03-29T07:38:37.045Z</time></trkpt><trkpt lat="41.86188484051302" lon="15.926905351631051"><ele>592.75</ele><time>2026-03-29T07:38:38.045Z</time></trkpt><trkpt lat="41.86193097341948" lon="15.926792982544491"><ele>594.5</ele><time>2026-03-29T07:38:39.045Z</time></trkpt><trkpt lat="41.86199653669265" lon="15.9266547305106"><ele>596.25</ele><time>2026-03-29T07:38:40.045Z</time></trkpt><trkpt lat="41.86205291910279" lon="15.926526048750205"><ele>598.0</ele><time>2026-03-29T07:38:41.045Z</time></trkpt><trkpt lat="41.86210440252952" lon="15.926337243008927"><ele>597.8</ele><time>2026-03-29T07:38:42.045Z</time></trkpt><trkpt lat="41.862153849216945" lon="15.926230822494505"><ele>597.5999999999999</ele><time>2026-03-29T07:38:43.045Z</time></trkpt><trkpt lat="41.86215814161078" lon="15.926105223126154"><ele>597.4000000000001</ele><time>2026-03-29T07:38:45.045Z</time></trkpt><trkpt lat="41.86212704621746" lon="15.925944261507004"><ele>597.2</ele><time>2026-03-29T07:38:47.047Z</time></trkpt><trkpt lat="41.86209452183197" lon="15.925863304869198"><ele>597.0</ele><time>2026-03-29T07:38:48.046Z</time></trkpt><trkpt lat="41.86206476956357" lon="15.925756686417163"><ele>597.0</ele><time>2026-03-29T07:38:49.046Z</time></trkpt><trkpt lat="41.86204452706703" lon="15.92564227516498"><ele>597.0</ele><time>2026-03-29T07:38:50.047Z</time></trkpt><trkpt lat="41.86205272155474" lon="15.925505088082435"><ele>597.0</ele><time>2026-03-29T07:38:51.046Z</time></trkpt><trkpt lat="41.862046625538795" lon="15.925386541608853"><ele>597.0</ele><time>2026-03-29T07:38:52.046Z</time></trkpt><trkpt lat="41.862004494297985" lon="15.925253387019268"><ele>597.0</ele><time>2026-03-29T07:38:54.047Z</time></trkpt><trkpt lat="41.861990712931956" lon="15.925169338682064"><ele>597.0</ele><time>2026-03-29T07:38:55.047Z</time></trkpt><trkpt lat="41.861949898926966" lon="15.925099230768932"><ele>597.0</ele><time>2026-03-29T07:38:56.046Z</time></trkpt><trkpt lat="41.8619227331844" lon="15.925007540767353"><ele>597.0</ele><time>2026-03-29T07:38:57.046Z</time></trkpt><trkpt lat="41.86191380189999" lon="15.924892980728258"><ele>597.0</ele><time>2026-03-29T07:38:58.046Z</time></trkpt><trkpt lat="41.86192104031836" lon="15.924713086599512"><ele>597.0</ele><time>2026-03-29T07:38:59.046Z</time></trkpt><trkpt lat="41.86192952602086" lon="15.924561806692095"><ele>595.6666666666666</ele><time>2026-03-29T07:39:00.047Z</time></trkpt><trkpt lat="41.86191418641092" lon="15.92444033754358"><ele>594.3333333333334</ele><time>2026-03-29T07:39:01.047Z</time></trkpt><trkpt lat="41.86189213850036" lon="15.924340921508755"><ele>593.0</ele><time>2026-03-29T07:39:02.047Z</time></trkpt><trkpt lat="41.861889885826585" lon="15.924254907372323"><ele>591.6666666666667</ele><time>2026-03-29T07:39:03.047Z</time></trkpt><trkpt lat="41.86189708237711" lon="15.924154395415488"><ele>590.3333333333334</ele><time>2026-03-29T07:39:04.047Z</time></trkpt><trkpt lat="41.86192590920167" lon="15.923987726191113"><ele>589.0</ele><time>2026-03-29T07:39:05.047Z</time></trkpt><trkpt lat="41.861953947456165" lon="15.923820036865385"><ele>588.5</ele><time>2026-03-29T07:39:06.047Z</time></trkpt><trkpt lat="41.86198724839374" lon="15.923683300319341"><ele>588.0</ele><time>2026-03-29T07:39:07.047Z</time></trkpt><trkpt lat="41.862062621341366" lon="15.923539423139472"><ele>587.5</ele><time>2026-03-29T07:39:08.047Z</time></trkpt><trkpt lat="41.86211604145707" lon="15.923407457475868"><ele>587.0</ele><time>2026-03-29T07:39:09.047Z</time></trkpt><trkpt lat="41.86216471591208" lon="15.92327345538963"><ele>587.0</ele><time>2026-03-29T07:39:10.047Z</time></trkpt><trkpt lat="41.862219186283596" lon="15.923147223462557"><ele>587.0</ele><time>2026-03-29T07:39:11.047Z</time></trkpt><trkpt lat="41.86222983299077" lon="15.923046136956339"><ele>587.0</ele><time>2026-03-29T07:39:12.047Z</time></trkpt><trkpt lat="41.862290103690526" lon="15.922938906621566"><ele>587.0</ele><time>2026-03-29T07:39:13.047Z</time></trkpt><trkpt lat="41.86233454135075" lon="15.922822328853503"><ele>587.0</ele><time>2026-03-29T07:39:14.047Z</time></trkpt><trkpt lat="41.86237918716932" lon="15.92271415827462"><ele>586.0</ele><time>2026-03-29T07:39:15.047Z</time></trkpt><trkpt lat="41.86242076859904" lon="15.922560260915073"><ele>585.0</ele><time>2026-03-29T07:39:16.047Z</time></trkpt><trkpt lat="41.862475030330906" lon="15.922392217843392"><ele>584.0</ele><time>2026-03-29T07:39:17.046Z</time></trkpt><trkpt lat="41.86253686440059" lon="15.9222291734681"><ele>583.0</ele><time>2026-03-29T07:39:18.046Z</time></trkpt><trkpt lat="41.8625737268643" lon="15.922085250190715"><ele>583.0</ele><time>2026-03-29T07:39:19.046Z</time></trkpt><trkpt lat="41.86260666937822" lon="15.92197459761871"><ele>583.0</ele><time>2026-03-29T07:39:20.046Z</time></trkpt><trkpt lat="41.86262025971475" lon="15.921868072152753"><ele>583.0</ele><time>2026-03-29T07:39:21.046Z</time></trkpt><trkpt lat="41.862632345542046" lon="15.921778165526861"><ele>583.0</ele><time>2026-03-29T07:39:22.046Z</time></trkpt><trkpt lat="41.862661526399485" lon="15.921668741898475"><ele>583.0</ele><time>2026-03-29T07:39:23.046Z</time></trkpt><trkpt lat="41.86268609409464" lon="15.92158082440993"><ele>583.0</ele><time>2026-03-29T07:39:24.046Z</time></trkpt><trkpt lat="41.862749336115044" lon="15.921415644769992"><ele>582.4</ele><time>2026-03-29T07:39:26.046Z</time></trkpt><trkpt lat="41.86278029125904" lon="15.92127719117221"><ele>581.8</ele><time>2026-03-29T07:39:27.046Z</time></trkpt><trkpt lat="41.862808393748345" lon="15.92115921914964"><ele>581.2</ele><time>2026-03-29T07:39:28.046Z</time></trkpt><trkpt lat="41.86283095452732" lon="15.921066331308317"><ele>580.6</ele><time>2026-03-29T07:39:29.046Z</time></trkpt><trkpt lat="41.86285053607228" lon="15.92097927079596"><ele>580.0</ele><time>2026-03-29T07:39:30.046Z</time></trkpt><trkpt lat="41.86286584063789" lon="15.920777720443873"><ele>579.6666666666667</ele><time>2026-03-29T07:39:32.046Z</time></trkpt><trkpt lat="41.86289343663358" lon="15.920697760579104"><ele>579.3333333333334</ele><time>2026-03-29T07:39:33.046Z</time></trkpt><trkpt lat="41.86289173302463" lon="15.920553902791248"><ele>579.0</ele><time>2026-03-29T07:39:35.046Z</time></trkpt><trkpt lat="41.86286235257344" lon="15.920422680865823"><ele>578.6666666666666</ele><time>2026-03-29T07:39:37.046Z</time></trkpt><trkpt lat="41.86285394659675" lon="15.920321898444412"><ele>578.3333333333333</ele><time>2026-03-29T07:39:38.046Z</time></trkpt><trkpt lat="41.8628422018531" lon="15.920238692618609"><ele>578.0</ele><time>2026-03-29T07:39:39.046Z</time></trkpt><trkpt lat="41.862841477586464" lon="15.92009174947228"><ele>575.4</ele><time>2026-03-29T07:39:41.046Z</time></trkpt><trkpt lat="41.86283144601555" lon="15.919968247311903"><ele>572.8</ele><time>2026-03-29T07:39:43.046Z</time></trkpt><trkpt lat="41.862806825611926" lon="15.919866827618845"><ele>570.2</ele><time>2026-03-29T07:39:45.046Z</time></trkpt><trkpt lat="41.862778929814695" lon="15.919752097546935"><ele>567.6</ele><time>2026-03-29T07:39:47.046Z</time></trkpt><trkpt lat="41.86276704989825" lon="15.919595541351615"><ele>565.0</ele><time>2026-03-29T07:39:49.046Z</time></trkpt><trkpt lat="41.86276792530136" lon="15.919455921603772"><ele>565.0</ele><time>2026-03-29T07:39:51.046Z</time></trkpt><trkpt lat="41.86277174999818" lon="15.91928125013378"><ele>565.0</ele><time>2026-03-29T07:39:53.046Z</time></trkpt><trkpt lat="41.86279013801126" lon="15.919145454652588"><ele>565.0</ele><time>2026-03-29T07:39:55.046Z</time></trkpt><trkpt lat="41.86278373813816" lon="15.919059521347036"><ele>565.0</ele><time>2026-03-29T07:39:56.046Z</time></trkpt><trkpt lat="41.862795748733234" lon="15.918921458579973"><ele>565.0</ele><time>2026-03-29T07:39:58.046Z</time></trkpt><trkpt lat="41.862810190028156" lon="15.918792269319061"><ele>562.0</ele><time>2026-03-29T07:40:00.046Z</time></trkpt><trkpt lat="41.862829542598185" lon="15.918703608901072"><ele>559.0</ele><time>2026-03-29T07:40:01.046Z</time></trkpt><trkpt lat="41.86283140367387" lon="15.91855454287656"><ele>556.0</ele><time>2026-03-29T07:40:03.046Z</time></trkpt><trkpt lat="41.86286201146721" lon="15.918453831095718"><ele>553.0</ele><time>2026-03-29T07:40:04.046Z</time></trkpt><trkpt lat="41.86287495462302" lon="15.918347519063378"><ele>550.0</ele><time>2026-03-29T07:40:05.046Z</time></trkpt><trkpt lat="41.862903142856055" lon="15.918227191587446"><ele>547.0</ele><time>2026-03-29T07:40:07.046Z</time></trkpt><trkpt lat="41.86295482929983" lon="15.918097806948538"><ele>544.5</ele><time>2026-03-29T07:40:09.046Z</time></trkpt><trkpt lat="41.86299207412848" lon="15.917984104268061"><ele>542.0</ele><time>2026-03-29T07:40:11.046Z</time></trkpt><trkpt lat="41.86304273325813" lon="15.917877616934655"><ele>539.5</ele><time>2026-03-29T07:40:12.046Z</time></trkpt><trkpt lat="41.86308451393075" lon="15.91780417867865"><ele>537.0</ele><time>2026-03-29T07:40:13.046Z</time></trkpt><trkpt lat="41.86309688899406" lon="15.917696198188715"><ele>534.5</ele><time>2026-03-29T07:40:14.046Z</time></trkpt><trkpt lat="41.86312335994465" lon="15.917615655345855"><ele>532.0</ele><time>2026-03-29T07:40:15.046Z</time></trkpt><trkpt lat="41.86316094614696" lon="15.917539011922205"><ele>530.2</ele><time>2026-03-29T07:40:16.046Z</time></trkpt><trkpt lat="41.86319937824067" lon="15.917399573956054"><ele>528.4000000000001</ele><time>2026-03-29T07:40:18.046Z</time></trkpt><trkpt lat="41.86327699537454" lon="15.917244549110853"><ele>526.5999999999999</ele><time>2026-03-29T07:40:20.046Z</time></trkpt><trkpt lat="41.86331201544529" lon="15.917128255847222"><ele>524.8</ele><time>2026-03-29T07:40:21.046Z</time></trkpt><trkpt lat="41.86336145192232" lon="15.917031086394259"><ele>523.0</ele><time>2026-03-29T07:40:22.046Z</time></trkpt><trkpt lat="41.86341859570835" lon="15.91696538811572"><ele>520.6666666666667</ele><time>2026-03-29T07:40:23.046Z</time></trkpt><trkpt lat="41.863481286776455" lon="15.916908438809587"><ele>518.3333333333334</ele><time>2026-03-29T07:40:24.046Z</time></trkpt><trkpt lat="41.86358088607093" lon="15.916804107685685"><ele>516.0</ele><time>2026-03-29T07:40:26.046Z</time></trkpt><trkpt lat="41.86364457969091" lon="15.916720245869621"><ele>513.6666666666666</ele><time>2026-03-29T07:40:27.046Z</time></trkpt><trkpt lat="41.863698907196245" lon="15.916634770686093"><ele>511.3333333333333</ele><time>2026-03-29T07:40:28.046Z</time></trkpt><trkpt lat="41.863739196433855" lon="15.916552573481429"><ele>509.0</ele><time>2026-03-29T07:40:29.046Z</time></trkpt><trkpt lat="41.86380890583452" lon="15.916445959275194"><ele>508.99999999999994</ele><time>2026-03-29T07:40:31.046Z</time></trkpt><trkpt lat="41.863866311337624" lon="15.916341736032257"><ele>509.0</ele><time>2026-03-29T07:40:33.046Z</time></trkpt><trkpt lat="41.86392480631885" lon="15.916246942131668"><ele>509.0</ele><time>2026-03-29T07:40:35.046Z</time></trkpt><trkpt lat="41.864001049037185" lon="15.916143063411399"><ele>509.0</ele><time>2026-03-29T07:40:37.046Z</time></trkpt><trkpt lat="41.86406019077324" lon="15.916068058149895"><ele>508.99999999999994</ele><time>2026-03-29T07:40:39.046Z</time></trkpt><trkpt lat="41.864104580806675" lon="15.916003062589231"><ele>509.0</ele><time>2026-03-29T07:40:41.046Z</time></trkpt><trkpt lat="41.86414140964772" lon="15.915929175238102"><ele>507.1428571428571</ele><time>2026-03-29T07:40:44.046Z</time></trkpt><trkpt lat="41.86419461254463" lon="15.915881054121384"><ele>505.2857142857143</ele><time>2026-03-29T07:40:47.046Z</time></trkpt><trkpt lat="41.86424687206807" lon="15.915812849394573"><ele>503.42857142857144</ele><time>2026-03-29T07:40:52.047Z</time></trkpt><trkpt lat="41.864306771032865" lon="15.915763537945725"><ele>501.57142857142856</ele><time>2026-03-29T07:40:59.047Z</time></trkpt><trkpt lat="41.86434358291384" lon="15.915683319112404"><ele>499.7142857142858</ele><time>2026-03-29T07:41:02.047Z</time></trkpt><trkpt lat="41.864395789447954" lon="15.915596299051609"><ele>497.8571428571429</ele><time>2026-03-29T07:41:05.047Z</time></trkpt><trkpt lat="41.864452086774186" lon="15.915525145804798"><ele>496.0</ele><time>2026-03-29T07:41:08.047Z</time></trkpt><trkpt lat="41.86448628007126" lon="15.915430214823884"><ele>492.83333333333337</ele><time>2026-03-29T07:41:11.047Z</time></trkpt><trkpt lat="41.86451517830327" lon="15.91532612204288"><ele>489.6666666666667</ele><time>2026-03-29T07:41:15.047Z</time></trkpt><trkpt lat="41.864567007621744" lon="15.915239459546536"><ele>486.5</ele><time>2026-03-29T07:41:18.047Z</time></trkpt><trkpt lat="41.86460668292961" lon="15.91516371424328"><ele>483.33333333333337</ele><time>2026-03-29T07:41:21.047Z</time></trkpt><trkpt lat="41.86465954347935" lon="15.915098570841764"><ele>480.1666666666667</ele><time>2026-03-29T07:41:24.047Z</time></trkpt><trkpt lat="41.8647186040635" lon="15.91501968630954"><ele>477.0</ele><time>2026-03-29T07:41:27.047Z</time></trkpt><trkpt lat="41.86479158105163" lon="15.914956354068343"><ele>476.3333333333333</ele><time>2026-03-29T07:41:29.047Z</time></trkpt><trkpt lat="41.8648460358622" lon="15.914889291560495"><ele>475.66666666666663</ele><time>2026-03-29T07:41:31.047Z</time></trkpt><trkpt lat="41.86491143689404" lon="15.914793193552695"><ele>475.0</ele><time>2026-03-29T07:41:34.047Z</time></trkpt><trkpt lat="41.8649691809851" lon="15.914744854238515"><ele>474.3333333333333</ele><time>2026-03-29T07:41:36.047Z</time></trkpt><trkpt lat="41.86503274643663" lon="15.914685062749463"><ele>473.66666666666663</ele><time>2026-03-29T07:41:39.047Z</time></trkpt><trkpt lat="41.86509836412584" lon="15.91462403234135"><ele>473.0</ele><time>2026-03-29T07:41:42.043Z</time></trkpt><trkpt lat="41.86517043112287" lon="15.9145908661681"><ele>469.42857142857144</ele><time>2026-03-29T07:41:45.037Z</time></trkpt><trkpt lat="41.86522585405906" lon="15.91453635242602"><ele>465.85714285714283</ele><time>2026-03-29T07:41:49.031Z</time></trkpt><trkpt lat="41.86526622196365" lon="15.914465062428835"><ele>462.2857142857143</ele><time>2026-03-29T07:41:51.029Z</time></trkpt><trkpt lat="41.86532480864574" lon="15.914425667119257"><ele>458.7142857142857</ele><time>2026-03-29T07:41:53.026Z</time></trkpt><trkpt lat="41.86539967223725" lon="15.914362262772913"><ele>455.1428571428571</ele><time>2026-03-29T07:41:55.025Z</time></trkpt><trkpt lat="41.865452414930736" lon="15.914311309919759"><ele>451.57142857142856</ele><time>2026-03-29T07:41:58.022Z</time></trkpt><trkpt lat="41.865526061226916" lon="15.914256582644565"><ele>448.0</ele><time>2026-03-29T07:42:03.019Z</time></trkpt><trkpt lat="41.86558536292858" lon="15.914209397054638"><ele>447.0</ele><time>2026-03-29T07:42:08.017Z</time></trkpt><trkpt lat="41.86564818486512" lon="15.914170106590246"><ele>446.0</ele><time>2026-03-29T07:42:14.015Z</time></trkpt><trkpt lat="41.86568274614191" lon="15.914085929755045"><ele>445.0</ele><time>2026-03-29T07:42:22.013Z</time></trkpt><trkpt lat="41.865665135766655" lon="15.913991441316098"><ele>444.0</ele><time>2026-03-29T07:42:27.012Z</time></trkpt><trkpt lat="41.86567691411393" lon="15.913906792394"><ele>443.0</ele><time>2026-03-29T07:42:31.012Z</time></trkpt><trkpt lat="41.865678204590644" lon="15.91380824407922"><ele>442.0</ele><time>2026-03-29T07:42:36.011Z</time></trkpt><trkpt lat="41.865682095434494" lon="15.913717868892432"><ele>441.0</ele><time>2026-03-29T07:42:40.011Z</time></trkpt><trkpt lat="41.86568901376123" lon="15.913628435001952"><ele>441.0</ele><time>2026-03-29T07:42:44.011Z</time></trkpt><trkpt lat="41.86568545786027" lon="15.91353934838384"><ele>441.0</ele><time>2026-03-29T07:42:49.01Z</time></trkpt><trkpt lat="41.86567287642498" lon="15.913437984411182"><ele>441.0</ele><time>2026-03-29T07:42:53.01Z</time></trkpt><trkpt lat="41.865679896484814" lon="15.91335169562334"><ele>441.0</ele><time>2026-03-29T07:42:57.011Z</time></trkpt><trkpt lat="41.86569401941882" lon="15.913232663266664"><ele>441.0</ele><time>2026-03-29T07:43:01.011Z</time></trkpt><trkpt lat="41.86572375526277" lon="15.913148485590018"><ele>441.0</ele><time>2026-03-29T07:43:04.011Z</time></trkpt><trkpt lat="41.86573544173576" lon="15.913064620123773"><ele>441.0</ele><time>2026-03-29T07:43:07.012Z</time></trkpt><trkpt lat="41.865764736363296" lon="15.912961776392025"><ele>437.0</ele><time>2026-03-29T07:43:10.012Z</time></trkpt><trkpt lat="41.865783609046" lon="15.912865512423593"><ele>433.0</ele><time>2026-03-29T07:43:14.012Z</time></trkpt><trkpt lat="41.86580338270628" lon="15.912775321213834"><ele>429.0</ele><time>2026-03-29T07:43:17.012Z</time></trkpt><trkpt lat="41.86583047524781" lon="15.912661787060882"><ele>425.0</ele><time>2026-03-29T07:43:22.011Z</time></trkpt><trkpt lat="41.86582220076633" lon="15.91255071356866"><ele>421.0</ele><time>2026-03-29T07:43:25.011Z</time></trkpt><trkpt lat="41.865826623049706" lon="15.91244689288375"><ele>417.0</ele><time>2026-03-29T07:43:28.011Z</time></trkpt><trkpt lat="41.865816698628684" lon="15.912340633074775"><ele>413.8571428571429</ele><time>2026-03-29T07:43:31.011Z</time></trkpt><trkpt lat="41.86580745509065" lon="15.912255367360014"><ele>410.71428571428567</ele><time>2026-03-29T07:43:34.011Z</time></trkpt><trkpt lat="41.865777504831485" lon="15.91217599977005"><ele>407.57142857142856</ele><time>2026-03-29T07:43:37.011Z</time></trkpt><trkpt lat="41.865748602533195" lon="15.912079708116758"><ele>404.42857142857144</ele><time>2026-03-29T07:43:40.011Z</time></trkpt><trkpt lat="41.86570388469174" lon="15.91199710173406"><ele>401.28571428571433</ele><time>2026-03-29T07:43:43.011Z</time></trkpt><trkpt lat="41.86565390969758" lon="15.911916121206621"><ele>398.1428571428571</ele><time>2026-03-29T07:43:45.011Z</time></trkpt><trkpt lat="41.8656118122861" lon="15.911840751592845"><ele>395.0</ele><time>2026-03-29T07:43:47.011Z</time></trkpt><trkpt lat="41.86557329200507" lon="15.911721735333659"><ele>391.0</ele><time>2026-03-29T07:43:50.011Z</time></trkpt><trkpt lat="41.86553638480671" lon="15.911580152790886"><ele>387.0</ele><time>2026-03-29T07:43:53.011Z</time></trkpt><trkpt lat="41.86551236896393" lon="15.91145565817254"><ele>383.0</ele><time>2026-03-29T07:43:55.011Z</time></trkpt><trkpt lat="41.86550223759353" lon="15.91135755013407"><ele>379.0</ele><time>2026-03-29T07:43:58.011Z</time></trkpt><trkpt lat="41.86551119354968" lon="15.911267399225723"><ele>375.0</ele><time>2026-03-29T07:44:02.011Z</time></trkpt><trkpt lat="41.865588798723955" lon="15.911158606616477"><ele>375.0</ele><time>2026-03-29T07:44:04.011Z</time></trkpt><trkpt lat="41.86562590432844" lon="15.911054402479701"><ele>375.0</ele><time>2026-03-29T07:44:06.011Z</time></trkpt><trkpt lat="41.86560823536908" lon="15.910947087187003"><ele>375.0</ele><time>2026-03-29T07:44:09.011Z</time></trkpt><trkpt lat="41.86552268569468" lon="15.910858679406786"><ele>375.0</ele><time>2026-03-29T07:44:12.011Z</time></trkpt><trkpt lat="41.86553888943258" lon="15.910767066363503"><ele>375.0</ele><time>2026-03-29T07:44:16.011Z</time></trkpt><trkpt lat="41.865587518788715" lon="15.91067049721434"><ele>375.0</ele><time>2026-03-29T07:44:30.01Z</time></trkpt><trkpt lat="41.865627660909915" lon="15.91050897159204"><ele>371.6666666666667</ele><time>2026-03-29T07:44:50.01Z</time></trkpt><trkpt lat="41.86567642162677" lon="15.910565639324206"><ele>368.3333333333333</ele><time>2026-03-29T07:45:59.011Z</time></trkpt><trkpt lat="41.865571403428085" lon="15.910630941243976"><ele>365.0</ele><time>2026-03-29T07:46:27.01Z</time></trkpt><trkpt lat="41.86555988707383" lon="15.910546625189406"><ele>361.66666666666663</ele><time>2026-03-29T07:47:38.011Z</time></trkpt><trkpt lat="41.86559431436399" lon="15.910463970191657"><ele>358.3333333333333</ele><time>2026-03-29T07:50:55.009Z</time></trkpt><trkpt lat="41.86565081321536" lon="15.910421643407012"><ele>355.0</ele><time>2026-03-29T07:51:04.009Z</time></trkpt><trkpt lat="41.86561364051795" lon="15.910539806206046"><ele>355.0</ele><time>2026-03-29T07:51:26.011Z</time></trkpt><trkpt lat="41.86559124957603" lon="15.910413958143407"><ele>355.0</ele><time>2026-03-29T07:51:48.01Z</time></trkpt><trkpt lat="41.86558532692107" lon="15.910292894987133"><ele>355.0</ele><time>2026-03-29T07:51:50.01Z</time></trkpt><trkpt lat="41.86559808142936" lon="15.910169612688435"><ele>355.0</ele><time>2026-03-29T07:51:52.01Z</time></trkpt><trkpt lat="41.86562323712491" lon="15.91007117996641"><ele>355.0</ele><time>2026-03-29T07:51:53.01Z</time></trkpt><trkpt lat="41.8656711840985" lon="15.909907824477955"><ele>354.5</ele><time>2026-03-29T07:51:55.01Z</time></trkpt><trkpt lat="41.86572446655418" lon="15.909804948388006"><ele>354.0</ele><time>2026-03-29T07:51:57.01Z</time></trkpt><trkpt lat="41.86575361985141" lon="15.909723757514207"><ele>353.5</ele><time>2026-03-29T07:52:00.01Z</time></trkpt><trkpt lat="41.865774363930214" lon="15.909643374554584"><ele>353.0</ele><time>2026-03-29T07:52:03.01Z</time></trkpt><trkpt lat="41.86577506855115" lon="15.909550864855321"><ele>352.5</ele><time>2026-03-29T07:52:05.01Z</time></trkpt><trkpt lat="41.865793100921536" lon="15.909443131557476"><ele>352.0</ele><time>2026-03-29T07:52:07.01Z</time></trkpt><trkpt lat="41.86582948586768" lon="15.909350600681904"><ele>352.3333333333333</ele><time>2026-03-29T07:52:09.01Z</time></trkpt><trkpt lat="41.865861162835785" lon="15.909239111335694"><ele>352.66666666666663</ele><time>2026-03-29T07:52:12.01Z</time></trkpt><trkpt lat="41.865878809261204" lon="15.909132073795712"><ele>353.0</ele><time>2026-03-29T07:52:16.01Z</time></trkpt><trkpt lat="41.86591143112039" lon="15.908990837425284"><ele>353.3333333333333</ele><time>2026-03-29T07:52:19.01Z</time></trkpt><trkpt lat="41.86595913809178" lon="15.908899448022618"><ele>353.6666666666667</ele><time>2026-03-29T07:52:21.01Z</time></trkpt><trkpt lat="41.86595283082362" lon="15.90880926682159"><ele>354.0</ele><time>2026-03-29T07:52:23.01Z</time></trkpt><trkpt lat="41.86593605321947" lon="15.908685695797805"><ele>354.0</ele><time>2026-03-29T07:52:24.01Z</time></trkpt><trkpt lat="41.86592906461104" lon="15.9085986018557"><ele>354.0</ele><time>2026-03-29T07:52:25.01Z</time></trkpt><trkpt lat="41.86594302325541" lon="15.908510457942384"><ele>354.0</ele><time>2026-03-29T07:52:27.01Z</time></trkpt><trkpt lat="41.865963846615735" lon="15.908399847565628"><ele>354.0</ele><time>2026-03-29T07:52:30.01Z</time></trkpt><trkpt lat="41.86596645125935" lon="15.908251289597755"><ele>354.0</ele><time>2026-03-29T07:52:32.01Z</time></trkpt><trkpt lat="41.86593855055224" lon="15.908104416306113"><ele>354.0</ele><time>2026-03-29T07:52:34.009Z</time></trkpt><trkpt lat="41.86595025447032" lon="15.908000174418316"><ele>353.14285714285717</ele><time>2026-03-29T07:52:36.009Z</time></trkpt><trkpt lat="41.86598119217345" lon="15.907915781931337"><ele>352.2857142857143</ele><time>2026-03-29T07:52:40.009Z</time></trkpt><trkpt lat="41.866025675137635" lon="15.907848091341963"><ele>351.42857142857144</ele><time>2026-03-29T07:52:43.009Z</time></trkpt><trkpt lat="41.866035846809375" lon="15.907763429084094"><ele>350.57142857142856</ele><time>2026-03-29T07:52:49.009Z</time></trkpt><trkpt lat="41.866073610128076" lon="15.907689787884829"><ele>349.7142857142857</ele><time>2026-03-29T07:52:52.009Z</time></trkpt><trkpt lat="41.866120630375164" lon="15.907591485898132"><ele>348.85714285714283</ele><time>2026-03-29T07:52:55.009Z</time></trkpt><trkpt lat="41.86616006027387" lon="15.90751458127362"><ele>348.0</ele><time>2026-03-29T07:52:58.009Z</time></trkpt><trkpt lat="41.866251077794246" lon="15.907572353764273"><ele>347.8333333333333</ele><time>2026-03-29T07:53:09.009Z</time></trkpt><trkpt lat="41.86631208523947" lon="15.907540920544735"><ele>347.6666666666667</ele><time>2026-03-29T07:53:13.009Z</time></trkpt><trkpt lat="41.866328556307096" lon="15.907435830552261"><ele>347.5</ele><time>2026-03-29T07:53:17.009Z</time></trkpt><trkpt lat="41.86635507699717" lon="15.907320825722598"><ele>347.33333333333337</ele><time>2026-03-29T07:53:20.009Z</time></trkpt><trkpt lat="41.866410296719884" lon="15.9072402523445"><ele>347.1666666666667</ele><time>2026-03-29T07:53:23.009Z</time></trkpt><trkpt lat="41.86641971578399" lon="15.90712669158154"><ele>347.0</ele><time>2026-03-29T07:53:25.009Z</time></trkpt><trkpt lat="41.866475449127414" lon="15.907050792569837"><ele>347.0</ele><time>2026-03-29T07:53:27.01Z</time></trkpt><trkpt lat="41.86652095148461" lon="15.906991110954687"><ele>347.0</ele><time>2026-03-29T07:53:30.01Z</time></trkpt><trkpt lat="41.86656381599816" lon="15.906903216133136"><ele>347.0</ele><time>2026-03-29T07:53:35.01Z</time></trkpt><trkpt lat="41.86662249159721" lon="15.906847863522596"><ele>347.0</ele><time>2026-03-29T07:53:38.01Z</time></trkpt><trkpt lat="41.866697241130595" lon="15.906787290700514"><ele>347.0</ele><time>2026-03-29T07:53:42.01Z</time></trkpt><trkpt lat="41.866712086550265" lon="15.906701160226646"><ele>347.0</ele><time>2026-03-29T07:53:45.01Z</time></trkpt><trkpt lat="41.866747667460864" lon="15.906630644562588"><ele>347.0</ele><time>2026-03-29T07:53:50.01Z</time></trkpt><trkpt lat="41.86682405937624" lon="15.906658061794015"><ele>346.6666666666667</ele><time>2026-03-29T07:53:59.01Z</time></trkpt><trkpt lat="41.86690051211682" lon="15.906632968021329"><ele>346.33333333333337</ele><time>2026-03-29T07:54:04.01Z</time></trkpt><trkpt lat="41.8669834996812" lon="15.906645726657734"><ele>346.0</ele><time>2026-03-29T07:54:09.009Z</time></trkpt><trkpt lat="41.86700794743951" lon="15.906731766847553"><ele>345.6666666666667</ele><time>2026-03-29T07:54:12.009Z</time></trkpt><trkpt lat="41.8669890729008" lon="15.906824551020675"><ele>345.3333333333333</ele><time>2026-03-29T07:54:17.009Z</time></trkpt><trkpt lat="41.86699522462432" lon="15.90691622662024"><ele>345.0</ele><time>2026-03-29T07:54:20.009Z</time></trkpt><trkpt lat="41.866987747562995" lon="15.907033060280614"><ele>346.57142857142856</ele><time>2026-03-29T07:54:23.009Z</time></trkpt><trkpt lat="41.86699129376767" lon="15.907127761746466"><ele>348.1428571428571</ele><time>2026-03-29T07:54:26.009Z</time></trkpt><trkpt lat="41.86701259175754" lon="15.907235535924423"><ele>349.71428571428567</ele><time>2026-03-29T07:54:32.009Z</time></trkpt><trkpt lat="41.86701123553031" lon="15.907328039006448"><ele>351.2857142857143</ele><time>2026-03-29T07:54:37.009Z</time></trkpt><trkpt lat="41.86700280416908" lon="15.907223632813787"><ele>352.85714285714283</ele><time>2026-03-29T07:54:50.009Z</time></trkpt><trkpt lat="41.86694847718985" lon="15.907302638913576"><ele>354.4285714285714</ele><time>2026-03-29T07:55:27.008Z</time></trkpt><trkpt lat="41.86696354367902" lon="15.907216779706122"><ele>356.0</ele><time>2026-03-29T07:55:29.008Z</time></trkpt><trkpt lat="41.866954050748035" lon="15.907058349544181"><ele>356.0</ele><time>2026-03-29T07:55:31.008Z</time></trkpt><trkpt lat="41.86695638526516" lon="15.906939515473608"><ele>356.0</ele><time>2026-03-29T07:55:32.01Z</time></trkpt><trkpt lat="41.86698390248239" lon="15.906811959812087"><ele>356.0</ele><time>2026-03-29T07:55:33.01Z</time></trkpt><trkpt lat="41.867002990406576" lon="15.90669556464332"><ele>356.0</ele><time>2026-03-29T07:55:34.01Z</time></trkpt><trkpt lat="41.86702818230596" lon="15.906586752495576"><ele>356.0</ele><time>2026-03-29T07:55:35.01Z</time></trkpt><trkpt lat="41.867029843368485" lon="15.906496277846234"><ele>356.0</ele><time>2026-03-29T07:55:38.01Z</time></trkpt><trkpt lat="41.867023382996145" lon="15.906364727608672"><ele>353.8</ele><time>2026-03-29T07:55:40.01Z</time></trkpt><trkpt lat="41.86703233202803" lon="15.906252875201258"><ele>351.6</ele><time>2026-03-29T07:55:41.009Z</time></trkpt><trkpt lat="41.867079116096775" lon="15.906105651369112"><ele>349.4</ele><time>2026-03-29T07:55:42.01Z</time></trkpt><trkpt lat="41.867110416562" lon="15.905963420240031"><ele>347.2</ele><time>2026-03-29T07:55:43.01Z</time></trkpt><trkpt lat="41.867162500572434" lon="15.905829417351999"><ele>345.0</ele><time>2026-03-29T07:55:44.01Z</time></trkpt><trkpt lat="41.86721171896317" lon="15.905718708055327"><ele>343.8333333333333</ele><time>2026-03-29T07:55:45.009Z</time></trkpt><trkpt lat="41.86726439424928" lon="15.905615675979519"><ele>342.6666666666667</ele><time>2026-03-29T07:55:46.009Z</time></trkpt><trkpt lat="41.867309433671245" lon="15.9055204705127"><ele>341.5</ele><time>2026-03-29T07:55:47.009Z</time></trkpt><trkpt lat="41.867348556515864" lon="15.90543723781982"><ele>340.33333333333337</ele><time>2026-03-29T07:55:48.009Z</time></trkpt><trkpt lat="41.867407690741196" lon="15.9053185355557"><ele>339.1666666666667</ele><time>2026-03-29T07:55:50.009Z</time></trkpt><trkpt lat="41.86742516544882" lon="15.905215237892861"><ele>338.0</ele><time>2026-03-29T07:55:53.009Z</time></trkpt><trkpt lat="41.867507638023646" lon="15.905172294058351"><ele>338.0</ele><time>2026-03-29T07:55:55.009Z</time></trkpt><trkpt lat="41.86757764447833" lon="15.90517248602838"><ele>338.0</ele><time>2026-03-29T07:55:57.009Z</time></trkpt><trkpt lat="41.86764040478262" lon="15.90511763203244"><ele>338.0</ele><time>2026-03-29T07:55:58.009Z</time></trkpt><trkpt lat="41.86772730627171" lon="15.905059056398589"><ele>338.0</ele><time>2026-03-29T07:56:00.009Z</time></trkpt><trkpt lat="41.86780375424121" lon="15.905024259682651"><ele>338.0</ele><time>2026-03-29T07:56:01.009Z</time></trkpt><trkpt lat="41.867898098032526" lon="15.904993878700532"><ele>338.0</ele><time>2026-03-29T07:56:02.009Z</time></trkpt><trkpt lat="41.86798169001192" lon="15.904953818594754"><ele>337.0</ele><time>2026-03-29T07:56:03.009Z</time></trkpt><trkpt lat="41.86804394945515" lon="15.904890606264663"><ele>336.0</ele><time>2026-03-29T07:56:05.009Z</time></trkpt><trkpt lat="41.86812585161446" lon="15.904814718041894"><ele>335.0</ele><time>2026-03-29T07:56:07.009Z</time></trkpt><trkpt lat="41.868189090616404" lon="15.904696089290418"><ele>334.0</ele><time>2026-03-29T07:56:09.009Z</time></trkpt><trkpt lat="41.86825571022877" lon="15.904642736886856"><ele>333.0</ele><time>2026-03-29T07:56:14.009Z</time></trkpt><trkpt lat="41.86831952465356" lon="15.904619656885538"><ele>332.0</ele><time>2026-03-29T07:56:19.009Z</time></trkpt><trkpt lat="41.868369979299764" lon="15.904716515000702"><ele>332.0</ele><time>2026-03-29T07:56:23.009Z</time></trkpt><trkpt lat="41.868338248686" lon="15.904817283199312"><ele>332.0</ele><time>2026-03-29T07:56:25.009Z</time></trkpt><trkpt lat="41.868283249851906" lon="15.904973054652933"><ele>332.0</ele><time>2026-03-29T07:56:27.009Z</time></trkpt><trkpt lat="41.8682540721569" lon="15.90506420342313"><ele>332.0</ele><time>2026-03-29T07:56:29.009Z</time></trkpt><trkpt lat="41.868243178953016" lon="15.905153817349781"><ele>332.0</ele><time>2026-03-29T07:56:33.009Z</time></trkpt><trkpt lat="41.86825781771923" lon="15.905240046765655"><ele>332.0</ele><time>2026-03-29T07:56:38.009Z</time></trkpt><trkpt lat="41.86834461495389" lon="15.905255385964411"><ele>333.57142857142856</ele><time>2026-03-29T07:57:12.008Z</time></trkpt><trkpt lat="41.86826996416869" lon="15.905289323927425"><ele>335.14285714285717</ele><time>2026-03-29T07:57:29.008Z</time></trkpt><trkpt lat="41.868325726420096" lon="15.905340935355518"><ele>336.7142857142857</ele><time>2026-03-29T07:57:41.01Z</time></trkpt><trkpt lat="41.86826063848421" lon="15.905374181576832"><ele>338.2857142857143</ele><time>2026-03-29T07:58:52.008Z</time></trkpt><trkpt lat="41.86832620642248" lon="15.905347860112789"><ele>339.8571428571429</ele><time>2026-03-29T07:59:48.009Z</time></trkpt><trkpt lat="41.86826234287321" lon="15.905317040856623"><ele>341.42857142857144</ele><time>2026-03-29T08:00:29.008Z</time></trkpt><trkpt lat="41.86824020648433" lon="15.905219690261747"><ele>343.0</ele><time>2026-03-29T08:00:37.008Z</time></trkpt><trkpt lat="41.86819567672534" lon="15.905136402737291"><ele>341.16666666666663</ele><time>2026-03-29T08:00:39.008Z</time></trkpt><trkpt lat="41.86819032395261" lon="15.90499383646375"><ele>339.3333333333333</ele><time>2026-03-29T08:00:42.008Z</time></trkpt><trkpt lat="41.86815708336287" lon="15.904891415133354"><ele>337.5</ele><time>2026-03-29T08:00:44.008Z</time></trkpt><trkpt lat="41.8681336836566" lon="15.904794684912591"><ele>335.6666666666667</ele><time>2026-03-29T08:00:45.008Z</time></trkpt><trkpt lat="41.86815846187671" lon="15.904688498901047"><ele>333.83333333333337</ele><time>2026-03-29T08:00:48.008Z</time></trkpt><trkpt lat="41.8681624137488" lon="15.904591588986243"><ele>332.0</ele><time>2026-03-29T08:00:51.008Z</time></trkpt><trkpt lat="41.86818223070758" lon="15.904504725353368"><ele>332.0</ele><time>2026-03-29T08:00:54.008Z</time></trkpt><trkpt lat="41.868183259118446" lon="15.904398240166376"><ele>332.0</ele><time>2026-03-29T08:00:57.008Z</time></trkpt><trkpt lat="41.8681819141133" lon="15.904282856906017"><ele>332.0</ele><time>2026-03-29T08:01:00.008Z</time></trkpt><trkpt lat="41.86821060902268" lon="15.904182987252032"><ele>332.0</ele><time>2026-03-29T08:01:03.008Z</time></trkpt><trkpt lat="41.86823149132885" lon="15.904101506056879"><ele>332.0</ele><time>2026-03-29T08:01:05.008Z</time></trkpt><trkpt lat="41.86827592669935" lon="15.903998985846435"><ele>332.0</ele><time>2026-03-29T08:01:08.008Z</time></trkpt><trkpt lat="41.86832225747273" lon="15.903904165326669"><ele>331.6666666666667</ele><time>2026-03-29T08:01:11.008Z</time></trkpt><trkpt lat="41.86834681568891" lon="15.903808053962685"><ele>331.33333333333337</ele><time>2026-03-29T08:01:13.008Z</time></trkpt><trkpt lat="41.86841534189952" lon="15.903748317133477"><ele>331.0</ele><time>2026-03-29T08:01:17.008Z</time></trkpt><trkpt lat="41.86848386128854" lon="15.903697361236235"><ele>330.6666666666667</ele><time>2026-03-29T08:01:22.008Z</time></trkpt><trkpt lat="41.86852346687964" lon="15.903624247387564"><ele>330.3333333333333</ele><time>2026-03-29T08:01:24.008Z</time></trkpt><trkpt lat="41.86856658063892" lon="15.903547600688865"><ele>330.0</ele><time>2026-03-29T08:01:27.007Z</time></trkpt><trkpt lat="41.868617316731225" lon="15.903464687591901"><ele>329.3333333333333</ele><time>2026-03-29T08:01:30.007Z</time></trkpt><trkpt lat="41.868661895054615" lon="15.90339419288655"><ele>328.6666666666667</ele><time>2026-03-29T08:01:34.007Z</time></trkpt><trkpt lat="41.86868060433905" lon="15.903305076701843"><ele>328.0</ele><time>2026-03-29T08:01:38.007Z</time></trkpt><trkpt lat="41.86869631336535" lon="15.903199023232256"><ele>327.33333333333337</ele><time>2026-03-29T08:01:41.007Z</time></trkpt><trkpt lat="41.86873556241243" lon="15.903098260037918"><ele>326.6666666666667</ele><time>2026-03-29T08:01:45.007Z</time></trkpt><trkpt lat="41.86877295194655" lon="15.903008012634578"><ele>326.0</ele><time>2026-03-29T08:01:49.007Z</time></trkpt><trkpt lat="41.86878762384435" lon="15.90290766162693"><ele>326.0</ele><time>2026-03-29T08:01:52.009Z</time></trkpt><trkpt lat="41.868826060174456" lon="15.902833317301317"><ele>326.0</ele><time>2026-03-29T08:01:55.009Z</time></trkpt><trkpt lat="41.868885678131115" lon="15.902731092096243"><ele>326.0</ele><time>2026-03-29T08:01:59.009Z</time></trkpt><trkpt lat="41.86893572710152" lon="15.902610645306238"><ele>326.0</ele><time>2026-03-29T08:02:02.009Z</time></trkpt><trkpt lat="41.86894743408883" lon="15.90250809416525"><ele>326.0</ele><time>2026-03-29T08:02:03.009Z</time></trkpt><trkpt lat="41.86898162570209" lon="15.902422124728194"><ele>326.0</ele><time>2026-03-29T08:02:04.009Z</time></trkpt><trkpt lat="41.86902258343559" lon="15.90230384768308"><ele>328.0</ele><time>2026-03-29T08:02:06.009Z</time></trkpt><trkpt lat="41.86905813555204" lon="15.902188884846149"><ele>330.0</ele><time>2026-03-29T08:02:08.009Z</time></trkpt><trkpt lat="41.86902180657054" lon="15.902048385776917"><ele>332.0</ele><time>2026-03-29T08:02:12.009Z</time></trkpt><trkpt lat="41.868983876422035" lon="15.90190814097501"><ele>334.0</ele><time>2026-03-29T08:02:16.009Z</time></trkpt><trkpt lat="41.868930162791436" lon="15.901837251537088"><ele>336.0</ele><time>2026-03-29T08:02:18.009Z</time></trkpt><trkpt lat="41.86884798701475" lon="15.901822939387703"><ele>339.0</ele><time>2026-03-29T08:02:19.009Z</time></trkpt><trkpt lat="41.86882722719419" lon="15.901685722039616"><ele>342.0</ele><time>2026-03-29T08:02:22.009Z</time></trkpt><trkpt lat="41.868858975411484" lon="15.901552162804554"><ele>345.0</ele><time>2026-03-29T08:02:24.952Z</time></trkpt><trkpt lat="41.86888191009664" lon="15.901420770477786"><ele>348.0</ele><time>2026-03-29T08:02:26.952Z</time></trkpt><trkpt lat="41.8688624513018" lon="15.901321989562929"><ele>351.0</ele><time>2026-03-29T08:02:28.952Z</time></trkpt><trkpt lat="41.868895830670894" lon="15.90123045927044"><ele>351.0</ele><time>2026-03-29T08:02:29.952Z</time></trkpt><trkpt lat="41.868916081801146" lon="15.901147202730721"><ele>351.0</ele><time>2026-03-29T08:02:31.952Z</time></trkpt><trkpt lat="41.868938119031505" lon="15.901026866942601"><ele>351.0</ele><time>2026-03-29T08:02:34.952Z</time></trkpt><trkpt lat="41.868956837658345" lon="15.900924589057944"><ele>351.0</ele><time>2026-03-29T08:02:36.952Z</time></trkpt><trkpt lat="41.8689875472744" lon="15.900810801363038"><ele>351.0</ele><time>2026-03-29T08:02:38.952Z</time></trkpt><trkpt lat="41.86901431645398" lon="15.900698646481255"><ele>351.0</ele><time>2026-03-29T08:02:40.952Z</time></trkpt><trkpt lat="41.86906701828672" lon="15.900578235885325"><ele>353.0</ele><time>2026-03-29T08:02:42.952Z</time></trkpt><trkpt lat="41.869154030350536" lon="15.900416359228904"><ele>355.0</ele><time>2026-03-29T08:02:44.952Z</time></trkpt><trkpt lat="41.86920409864367" lon="15.900335251091544"><ele>357.0</ele><time>2026-03-29T08:02:45.952Z</time></trkpt><trkpt lat="41.869326027148695" lon="15.900147322818157"><ele>359.0</ele><time>2026-03-29T08:02:48.952Z</time></trkpt><trkpt lat="41.86938919459694" lon="15.90001309775529"><ele>351.33333333333337</ele><time>2026-03-29T08:02:50.952Z</time></trkpt><trkpt lat="41.86942355901368" lon="15.899921744035842"><ele>343.6666666666667</ele><time>2026-03-29T08:02:51.952Z</time></trkpt><trkpt lat="41.86946148443481" lon="15.899821537074438"><ele>336.0</ele><time>2026-03-29T08:02:52.952Z</time></trkpt><trkpt lat="41.86949329927545" lon="15.899737497921096"><ele>328.3333333333333</ele><time>2026-03-29T08:02:53.952Z</time></trkpt><trkpt lat="41.86953707769463" lon="15.899638070837733"><ele>320.66666666666663</ele><time>2026-03-29T08:02:54.952Z</time></trkpt><trkpt lat="41.86957156647084" lon="15.899556166696973"><ele>313.0</ele><time>2026-03-29T08:02:55.952Z</time></trkpt><trkpt lat="41.86962322090959" lon="15.899433872853251"><ele>313.0</ele><time>2026-03-29T08:02:56.952Z</time></trkpt><trkpt lat="41.869686947390925" lon="15.899319101498346"><ele>313.0</ele><time>2026-03-29T08:02:58.951Z</time></trkpt><trkpt lat="41.86974375259491" lon="15.899258010657306"><ele>313.0</ele><time>2026-03-29T08:02:59.951Z</time></trkpt><trkpt lat="41.86984265499449" lon="15.899161526672756"><ele>313.0</ele><time>2026-03-29T08:03:01.951Z</time></trkpt><trkpt lat="41.869896633498456" lon="15.899098224363362"><ele>313.0</ele><time>2026-03-29T08:03:02.951Z</time></trkpt><trkpt lat="41.870006408996524" lon="15.899016256178733"><ele>311.8</ele><time>2026-03-29T08:03:04.951Z</time></trkpt><trkpt lat="41.8701136689556" lon="15.89906137752453"><ele>310.6</ele><time>2026-03-29T08:03:06.951Z</time></trkpt><trkpt lat="41.870180014439455" lon="15.89905832257282"><ele>309.4</ele><time>2026-03-29T08:03:07.951Z</time></trkpt><trkpt lat="41.87030748289723" lon="15.899030170565382"><ele>308.2</ele><time>2026-03-29T08:03:09.951Z</time></trkpt><trkpt lat="41.87038706919099" lon="15.899041773066289"><ele>307.0</ele><time>2026-03-29T08:03:10.951Z</time></trkpt><trkpt lat="41.87049882769264" lon="15.89905698988781"><ele>307.0</ele><time>2026-03-29T08:03:11.951Z</time></trkpt><trkpt lat="41.87060158278527" lon="15.89905928246343"><ele>307.0</ele><time>2026-03-29T08:03:12.951Z</time></trkpt><trkpt lat="41.87069389791288" lon="15.8990908392864"><ele>307.0</ele><time>2026-03-29T08:03:13.951Z</time></trkpt><trkpt lat="41.87081128362373" lon="15.899122335002486"><ele>307.0</ele><time>2026-03-29T08:03:15.951Z</time></trkpt><trkpt lat="41.870958473837106" lon="15.89910341446225"><ele>312.0</ele><time>2026-03-29T08:03:17.951Z</time></trkpt><trkpt lat="41.871068200708706" lon="15.89911142899658"><ele>317.0</ele><time>2026-03-29T08:03:18.951Z</time></trkpt><trkpt lat="41.871142676773225" lon="15.89912616793519"><ele>322.0</ele><time>2026-03-29T08:03:19.951Z</time></trkpt><trkpt lat="41.87123419972319" lon="15.899062297853309"><ele>327.0</ele><time>2026-03-29T08:03:21.951Z</time></trkpt><trkpt lat="41.87135187322645" lon="15.899055909376072"><ele>332.0</ele><time>2026-03-29T08:03:23.951Z</time></trkpt><trkpt lat="41.87142094963211" lon="15.899021694778561"><ele>332.0</ele><time>2026-03-29T08:03:25.951Z</time></trkpt><trkpt lat="41.87151386991355" lon="15.899056587367758"><ele>332.0</ele><time>2026-03-29T08:03:28.951Z</time></trkpt><trkpt lat="41.87161810978938" lon="15.899044279010303"><ele>332.0</ele><time>2026-03-29T08:03:31.951Z</time></trkpt><trkpt lat="41.87168661770798" lon="15.898982755793375"><ele>332.0</ele><time>2026-03-29T08:03:33.951Z</time></trkpt><trkpt lat="41.87180143626972" lon="15.89892413384562"><ele>332.0</ele><time>2026-03-29T08:03:35.951Z</time></trkpt><trkpt lat="41.87186809954666" lon="15.898897614174691"><ele>336.6666666666667</ele><time>2026-03-29T08:03:36.95Z</time></trkpt><trkpt lat="41.87193002719529" lon="15.898853418859758"><ele>341.33333333333337</ele><time>2026-03-29T08:03:37.95Z</time></trkpt><trkpt lat="41.87199521434155" lon="15.898825629154253"><ele>346.0</ele><time>2026-03-29T08:03:38.95Z</time></trkpt><trkpt lat="41.87210817104627" lon="15.898742726527402"><ele>350.6666666666667</ele><time>2026-03-29T08:03:40.95Z</time></trkpt><trkpt lat="41.87217727003313" lon="15.898686170352823"><ele>355.3333333333333</ele><time>2026-03-29T08:03:41.95Z</time></trkpt><trkpt lat="41.872248964422774" lon="15.89864041750105"><ele>360.0</ele><time>2026-03-29T08:03:42.95Z</time></trkpt><trkpt lat="41.8723197870854" lon="15.89858427941292"><ele>360.0</ele><time>2026-03-29T08:03:43.95Z</time></trkpt><trkpt lat="41.87238522882449" lon="15.898565079941376"><ele>360.0</ele><time>2026-03-29T08:03:44.95Z</time></trkpt><trkpt lat="41.872447354698814" lon="15.898529644781975"><ele>360.0</ele><time>2026-03-29T08:03:45.95Z</time></trkpt><trkpt lat="41.87257893398479" lon="15.898515542935309"><ele>360.0</ele><time>2026-03-29T08:03:47.95Z</time></trkpt><trkpt lat="41.87266176507629" lon="15.898488981250296"><ele>360.0</ele><time>2026-03-29T08:03:49.95Z</time></trkpt><trkpt lat="41.872753377062494" lon="15.898460493649871"><ele>360.0</ele><time>2026-03-29T08:03:52.95Z</time></trkpt><trkpt lat="41.8728186040478" lon="15.898487166578565"><ele>364.5</ele><time>2026-03-29T08:03:55.953Z</time></trkpt><trkpt lat="41.87288681449507" lon="15.898516046988316"><ele>369.0</ele><time>2026-03-29T08:03:59.952Z</time></trkpt><trkpt lat="41.87299667066388" lon="15.898536429413536"><ele>373.5</ele><time>2026-03-29T08:04:05.952Z</time></trkpt><trkpt lat="41.87306918991548" lon="15.898576893251944"><ele>378.0</ele><time>2026-03-29T08:04:08.951Z</time></trkpt><trkpt lat="41.873139373359614" lon="15.89863599543205"><ele>382.5</ele><time>2026-03-29T08:04:11.951Z</time></trkpt><trkpt lat="41.87320685772461" lon="15.898638995109163"><ele>387.0</ele><time>2026-03-29T08:04:13.951Z</time></trkpt><trkpt lat="41.8732782278032" lon="15.898617290961639"><ele>387.0</ele><time>2026-03-29T08:04:16.951Z</time></trkpt><trkpt lat="41.873367422822824" lon="15.898584678672139"><ele>387.0</ele><time>2026-03-29T08:04:20.951Z</time></trkpt><trkpt lat="41.87343302293697" lon="15.898574451624997"><ele>387.0</ele><time>2026-03-29T08:04:23.951Z</time></trkpt><trkpt lat="41.873500089603574" lon="15.898573018417332"><ele>387.0</ele><time>2026-03-29T08:04:28.951Z</time></trkpt><trkpt lat="41.87359405646212" lon="15.898522120492075"><ele>387.0</ele><time>2026-03-29T08:04:31.951Z</time></trkpt><trkpt lat="41.87366437081382" lon="15.89848374058363"><ele>387.0</ele><time>2026-03-29T08:04:34.951Z</time></trkpt><trkpt lat="41.873727187480505" lon="15.898449050389909"><ele>390.8571428571429</ele><time>2026-03-29T08:04:39.951Z</time></trkpt><trkpt lat="41.873789786315605" lon="15.898427514513655"><ele>394.7142857142857</ele><time>2026-03-29T08:04:46.95Z</time></trkpt><trkpt lat="41.87384663297" lon="15.898379905691456"><ele>398.57142857142856</ele><time>2026-03-29T08:04:56.95Z</time></trkpt><trkpt lat="41.87388079524868" lon="15.898303936297346"><ele>402.42857142857144</ele><time>2026-03-29T08:05:16.95Z</time></trkpt><trkpt lat="41.87387553266691" lon="15.898213939266547"><ele>406.2857142857143</ele><time>2026-03-29T08:05:25.949Z</time></trkpt><trkpt lat="41.87389111963433" lon="15.898125938872925"><ele>410.14285714285717</ele><time>2026-03-29T08:05:28.949Z</time></trkpt><trkpt lat="41.87389937366557" lon="15.898040313154207"><ele>414.0</ele><time>2026-03-29T08:05:31.949Z</time></trkpt><trkpt lat="41.87393571057619" lon="15.897938692984882"><ele>416.00000000000006</ele><time>2026-03-29T08:05:34.949Z</time></trkpt><trkpt lat="41.873983111151546" lon="15.897872802990246"><ele>418.0</ele><time>2026-03-29T08:05:37.949Z</time></trkpt><trkpt lat="41.87403479116187" lon="15.897799536920484"><ele>420.0</ele><time>2026-03-29T08:05:42.949Z</time></trkpt><trkpt lat="41.874096794603275" lon="15.897738538941708"><ele>422.0</ele><time>2026-03-29T08:05:46.949Z</time></trkpt><trkpt lat="41.87417405449216" lon="15.897717542000839"><ele>424.0</ele><time>2026-03-29T08:05:49.949Z</time></trkpt><trkpt lat="41.87424120500003" lon="15.897707865793839"><ele>426.00000000000006</ele><time>2026-03-29T08:05:54.949Z</time></trkpt><trkpt lat="41.87430316589507" lon="15.897772613054327"><ele>428.0</ele><time>2026-03-29T08:06:00.948Z</time></trkpt><trkpt lat="41.87429120420009" lon="15.89787380381297"><ele>428.00000000000006</ele><time>2026-03-29T08:06:06.95Z</time></trkpt><trkpt lat="41.87425907563834" lon="15.897953865712324"><ele>428.0</ele><time>2026-03-29T08:06:12.95Z</time></trkpt><trkpt lat="41.874220919537976" lon="15.898032770057279"><ele>428.0</ele><time>2026-03-29T08:06:19.95Z</time></trkpt><trkpt lat="41.874193586032625" lon="15.898116165746224"><ele>428.0</ele><time>2026-03-29T08:06:25.95Z</time></trkpt><trkpt lat="41.87416797401672" lon="15.898206089308779"><ele>428.0</ele><time>2026-03-29T08:06:32.949Z</time></trkpt><trkpt lat="41.87414682196601" lon="15.898296595635852"><ele>428.00000000000006</ele><time>2026-03-29T08:06:38.949Z</time></trkpt><trkpt lat="41.87408693968924" lon="15.898343418931388"><ele>428.0</ele><time>2026-03-29T08:06:53.949Z</time></trkpt><trkpt lat="41.87402178052227" lon="15.898319642425117"><ele>428.00000000000006</ele><time>2026-03-29T08:07:03.949Z</time></trkpt><trkpt lat="41.87397415900797" lon="15.898377116325882"><ele>428.0</ele><time>2026-03-29T08:07:32.948Z</time></trkpt><trkpt lat="41.87401510856566" lon="15.898447556334226"><ele>428.0</ele><time>2026-03-29T08:08:09.949Z</time></trkpt><trkpt lat="41.874037608006915" lon="15.898531509611233"><ele>428.0</ele><time>2026-03-29T08:08:17.949Z</time></trkpt><trkpt lat="41.87412015145876" lon="15.898523853946891"><ele>428.0</ele><time>2026-03-29T08:15:28.944Z</time></trkpt><trkpt lat="41.874059346074674" lon="15.898547139976932"><ele>428.00000000000006</ele><time>2026-03-29T08:15:55.943Z</time></trkpt><trkpt lat="41.87412980186339" lon="15.89855568075123"><ele>428.0</ele><time>2026-03-29T08:17:48.912Z</time></trkpt><trkpt lat="41.87404908164626" lon="15.898548104812917"><ele>425.66666666666663</ele><time>2026-03-29T08:18:39.911Z</time></trkpt><trkpt lat="41.87399049334638" lon="15.898512910531062"><ele>423.3333333333333</ele><time>2026-03-29T08:18:43.911Z</time></trkpt><trkpt lat="41.87392988959583" lon="15.89845975674339"><ele>421.0</ele><time>2026-03-29T08:18:49.91Z</time></trkpt><trkpt lat="41.87389898148777" lon="15.898555050615785"><ele>418.66666666666663</ele><time>2026-03-29T08:19:28.909Z</time></trkpt><trkpt lat="41.873834083822764" lon="15.89863622908484"><ele>416.3333333333333</ele><time>2026-03-29T08:19:31.909Z</time></trkpt><trkpt lat="41.87377560583044" lon="15.898691861783284"><ele>414.0</ele><time>2026-03-29T08:19:34.909Z</time></trkpt><trkpt lat="41.873706318169425" lon="15.89875974552101"><ele>414.00000000000006</ele><time>2026-03-29T08:19:37.909Z</time></trkpt><trkpt lat="41.87364588072768" lon="15.898805406990082"><ele>414.0</ele><time>2026-03-29T08:19:41.909Z</time></trkpt><trkpt lat="41.873574930607305" lon="15.898813494544324"><ele>414.0</ele><time>2026-03-29T08:19:48.908Z</time></trkpt><trkpt lat="41.873505662610334" lon="15.898781022526668"><ele>414.0</ele><time>2026-03-29T08:19:51.908Z</time></trkpt><trkpt lat="41.873438120627675" lon="15.898770183017747"><ele>414.0</ele><time>2026-03-29T08:19:56.908Z</time></trkpt><trkpt lat="41.87337115504476" lon="15.898797466453326"><ele>414.00000000000006</ele><time>2026-03-29T08:20:10.908Z</time></trkpt><trkpt lat="41.87334719695182" lon="15.898711196972386"><ele>414.0</ele><time>2026-03-29T08:21:19.908Z</time></trkpt><trkpt lat="41.87341385816223" lon="15.898683565557524"><ele>414.00000000000006</ele><time>2026-03-29T08:21:26.907Z</time></trkpt><trkpt lat="41.873476028393924" lon="15.898644533087303"><ele>414.0</ele><time>2026-03-29T08:21:34.907Z</time></trkpt><trkpt lat="41.87342882952194" lon="15.89858609014714"><ele>414.0</ele><time>2026-03-29T08:21:39.907Z</time></trkpt><trkpt lat="41.87334151959126" lon="15.898495919362203"><ele>414.0</ele><time>2026-03-29T08:22:06.906Z</time></trkpt><trkpt lat="41.87336043186931" lon="15.898578212885203"><ele>414.0</ele><time>2026-03-29T08:22:15.906Z</time></trkpt><trkpt lat="41.873365920644126" lon="15.898663451555443"><ele>414.00000000000006</ele><time>2026-03-29T08:22:21.906Z</time></trkpt><trkpt lat="41.87336410148987" lon="15.898751401405038"><ele>414.0</ele><time>2026-03-29T08:22:31.905Z</time></trkpt><trkpt lat="41.87337219172075" lon="15.898881638401212"><ele>414.0</ele><time>2026-03-29T08:22:51.907Z</time></trkpt><trkpt lat="41.87331130180847" lon="15.89885212877221"><ele>414.0</ele><time>2026-03-29T08:23:12.906Z</time></trkpt><trkpt lat="41.8732598127181" lon="15.898781751603739"><ele>414.0</ele><time>2026-03-29T08:24:00.904Z</time></trkpt><trkpt lat="41.87331005329273" lon="15.898687417917232"><ele>414.0</ele><time>2026-03-29T08:24:04.904Z</time></trkpt><trkpt lat="41.873342886374786" lon="15.898615106716996"><ele>414.0</ele><time>2026-03-29T08:24:06.904Z</time></trkpt><trkpt lat="41.87338889840743" lon="15.89853886465482"><ele>414.0</ele><time>2026-03-29T08:24:08.904Z</time></trkpt><trkpt lat="41.87344703666843" lon="15.898441910502013"><ele>416.3333333333333</ele><time>2026-03-29T08:24:10.904Z</time></trkpt><trkpt lat="41.87350177104323" lon="15.898338843087284"><ele>418.66666666666663</ele><time>2026-03-29T08:24:12.904Z</time></trkpt><trkpt lat="41.87356927181271" lon="15.898281017489113"><ele>421.0</ele><time>2026-03-29T08:24:16.904Z</time></trkpt><trkpt lat="41.873610916846495" lon="15.898209738443166"><ele>423.3333333333333</ele><time>2026-03-29T08:24:22.903Z</time></trkpt><trkpt lat="41.87363314377708" lon="15.898126537691669"><ele>425.66666666666663</ele><time>2026-03-29T08:24:29.903Z</time></trkpt><trkpt lat="41.873670984388944" lon="15.898002587921559"><ele>428.0</ele><time>2026-03-29T08:24:32.903Z</time></trkpt><trkpt lat="41.873734216213336" lon="15.89793960670742"><ele>427.99999999999994</ele><time>2026-03-29T08:24:36.903Z</time></trkpt><trkpt lat="41.87382325248345" lon="15.897891574877635"><ele>428.0</ele><time>2026-03-29T08:24:40.903Z</time></trkpt><trkpt lat="41.87388992062667" lon="15.897845915001156"><ele>428.0</ele><time>2026-03-29T08:24:43.903Z</time></trkpt><trkpt lat="41.87397021140203" lon="15.897828284989897"><ele>428.0</ele><time>2026-03-29T08:24:46.903Z</time></trkpt><trkpt lat="41.87403824682372" lon="15.897817319170224"><ele>427.99999999999994</ele><time>2026-03-29T08:24:48.903Z</time></trkpt><trkpt lat="41.87410555796782" lon="15.897799069253727"><ele>428.0</ele><time>2026-03-29T08:24:50.904Z</time></trkpt><trkpt lat="41.87420009484844" lon="15.897794971154521"><ele>433.42857142857144</ele><time>2026-03-29T08:24:57.904Z</time></trkpt><trkpt lat="41.874280171061194" lon="15.897806458462908"><ele>438.8571428571429</ele><time>2026-03-29T08:25:02.905Z</time></trkpt><trkpt lat="41.87434463507431" lon="15.89780271930653"><ele>444.28571428571433</ele><time>2026-03-29T08:25:05.905Z</time></trkpt><trkpt lat="41.874394699299245" lon="15.897743970582024"><ele>449.7142857142857</ele><time>2026-03-29T08:25:08.905Z</time></trkpt><trkpt lat="41.87446060636685" lon="15.897688235585676"><ele>455.1428571428571</ele><time>2026-03-29T08:25:13.904Z</time></trkpt><trkpt lat="41.87448059927344" lon="15.897607404931788"><ele>460.5714285714286</ele><time>2026-03-29T08:25:20.904Z</time></trkpt><trkpt lat="41.874477492305736" lon="15.897513058757076"><ele>466.0</ele><time>2026-03-29T08:25:26.904Z</time></trkpt><trkpt lat="41.87449795685527" lon="15.897431476880195"><ele>467.83333333333337</ele><time>2026-03-29T08:25:34.904Z</time></trkpt><trkpt lat="41.874528563519334" lon="15.897320088299056"><ele>469.6666666666667</ele><time>2026-03-29T08:27:08.902Z</time></trkpt><trkpt lat="41.87451337229848" lon="15.897237438721296"><ele>471.5</ele><time>2026-03-29T08:27:54.901Z</time></trkpt><trkpt lat="41.874540626169015" lon="15.89710552818526"><ele>473.33333333333337</ele><time>2026-03-29T08:28:23.9Z</time></trkpt><trkpt lat="41.874600560928734" lon="15.897135291717328"><ele>475.1666666666667</ele><time>2026-03-29T08:28:40.899Z</time></trkpt><trkpt lat="41.87462620684012" lon="15.897056275823234"><ele>477.0</ele><time>2026-03-29T08:29:08.9Z</time></trkpt><trkpt lat="41.87465081044705" lon="15.897147405826626"><ele>477.0</ele><time>2026-03-29T08:29:53.899Z</time></trkpt><trkpt lat="41.87463138822109" lon="15.89722897454798"><ele>476.99999999999994</ele><time>2026-03-29T08:29:57.899Z</time></trkpt><trkpt lat="41.874582434798775" lon="15.89728733954661"><ele>477.0</ele><time>2026-03-29T08:30:06.898Z</time></trkpt><trkpt lat="41.87454889365829" lon="15.897361816388836"><ele>477.0</ele><time>2026-03-29T08:30:13.898Z</time></trkpt><trkpt lat="41.874501401362735" lon="15.897299881792524"><ele>476.99999999999994</ele><time>2026-03-29T08:30:33.897Z</time></trkpt><trkpt lat="41.87444795080884" lon="15.897208741979354"><ele>477.0</ele><time>2026-03-29T08:30:48.897Z</time></trkpt><trkpt lat="41.87447485683057" lon="15.897332267937179"><ele>477.0</ele><time>2026-03-29T08:31:10.898Z</time></trkpt><trkpt lat="41.87443663517535" lon="15.897407871855203"><ele>477.0</ele><time>2026-03-29T08:35:38.878Z</time></trkpt><trkpt lat="41.87435783802172" lon="15.897465247078896"><ele>476.99999999999994</ele><time>2026-03-29T08:35:48.878Z</time></trkpt><trkpt lat="41.87430558737973" lon="15.897514419250443"><ele>477.0</ele><time>2026-03-29T08:35:55.877Z</time></trkpt><trkpt lat="41.874247333894836" lon="15.897469275333938"><ele>477.0</ele><time>2026-03-29T08:36:02.877Z</time></trkpt><trkpt lat="41.87418918656051" lon="15.897512018658526"><ele>476.99999999999994</ele><time>2026-03-29T08:36:49.876Z</time></trkpt><trkpt lat="41.874205641361364" lon="15.897416906893469"><ele>477.0</ele><time>2026-03-29T08:38:28.874Z</time></trkpt><trkpt lat="41.87426709630275" lon="15.897379645277978"><ele>477.0</ele><time>2026-03-29T08:38:49.873Z</time></trkpt><trkpt lat="41.874336264910454" lon="15.89741943257067"><ele>477.0</ele><time>2026-03-29T08:39:06.873Z</time></trkpt><trkpt lat="41.87437623871239" lon="15.897487526619937"><ele>476.99999999999994</ele><time>2026-03-29T08:39:18.872Z</time></trkpt><trkpt lat="41.874349031261566" lon="15.897570191107734"><ele>477.0</ele><time>2026-03-29T08:39:40.873Z</time></trkpt><trkpt lat="41.87430131805058" lon="15.897636144051736"><ele>477.0</ele><time>2026-03-29T08:39:50.873Z</time></trkpt><trkpt lat="41.87422660810614" lon="15.897640211948087"><ele>476.99999999999994</ele><time>2026-03-29T08:40:02.872Z</time></trkpt><trkpt lat="41.87415076238362" lon="15.897622151274874"><ele>477.0</ele><time>2026-03-29T08:40:08.872Z</time></trkpt><trkpt lat="41.874224133995654" lon="15.897619328218704"><ele>477.0</ele><time>2026-03-29T08:40:40.871Z</time></trkpt><trkpt lat="41.874212449399565" lon="15.897518713207571"><ele>477.0</ele><time>2026-03-29T08:41:04.87Z</time></trkpt><trkpt lat="41.87423359980826" lon="15.897438823835298"><ele>476.99999999999994</ele><time>2026-03-29T08:41:12.87Z</time></trkpt><trkpt lat="41.87426148917462" lon="15.897360878453272"><ele>477.0</ele><time>2026-03-29T08:41:20.87Z</time></trkpt><trkpt lat="41.874323744278705" lon="15.89739537814193"><ele>477.0</ele><time>2026-03-29T08:42:23.869Z</time></trkpt><trkpt lat="41.87439482457503" lon="15.897504866855108"><ele>476.99999999999994</ele><time>2026-03-29T08:42:45.869Z</time></trkpt><trkpt lat="41.874362822233316" lon="15.89742403542036"><ele>477.0</ele><time>2026-03-29T08:42:54.868Z</time></trkpt><trkpt lat="41.8743454900533" lon="15.897341421713843"><ele>477.0</ele><time>2026-03-29T08:43:01.868Z</time></trkpt><trkpt lat="41.87434297578129" lon="15.897254697672256"><ele>477.0</ele><time>2026-03-29T08:43:09.868Z</time></trkpt><trkpt lat="41.874387842719656" lon="15.897180388238285"><ele>477.0</ele><time>2026-03-29T08:43:17.867Z</time></trkpt><trkpt lat="41.87445746471161" lon="15.897130844095932"><ele>477.0</ele><time>2026-03-29T08:43:32.867Z</time></trkpt><trkpt lat="41.87456579651868" lon="15.897204301731234"><ele>477.0</ele><time>2026-03-29T08:45:15.865Z</time></trkpt><trkpt lat="41.87456047307552" lon="15.897117849421836"><ele>477.0</ele><time>2026-03-29T08:47:42.878Z</time></trkpt><trkpt lat="41.87453874154413" lon="15.897022527732148"><ele>477.0</ele><time>2026-03-29T08:48:45.897Z</time></trkpt><trkpt lat="41.87452994338738" lon="15.896900446188644"><ele>477.0</ele><time>2026-03-29T08:48:48.897Z</time></trkpt><trkpt lat="41.87454764644989" lon="15.896796020513706"><ele>477.00000000000006</ele><time>2026-03-29T08:48:51.897Z</time></trkpt><trkpt lat="41.874570103088004" lon="15.896656970976933"><ele>477.00000000000006</ele><time>2026-03-29T08:48:54.897Z</time></trkpt><trkpt lat="41.874586086832295" lon="15.896498091915614"><ele>477.0</ele><time>2026-03-29T08:48:56.897Z</time></trkpt><trkpt lat="41.8746122212917" lon="15.89636306840463"><ele>477.0</ele><time>2026-03-29T08:48:58.897Z</time></trkpt><trkpt lat="41.874613386109786" lon="15.896251001593559"><ele>477.3333333333333</ele><time>2026-03-29T08:49:01.897Z</time></trkpt><trkpt lat="41.87462426647615" lon="15.896140493821694"><ele>477.66666666666663</ele><time>2026-03-29T08:49:03.897Z</time></trkpt><trkpt lat="41.874648419850395" lon="15.89602716649068"><ele>478.0</ele><time>2026-03-29T08:49:05.897Z</time></trkpt><trkpt lat="41.87465319684864" lon="15.895905587575644"><ele>478.3333333333333</ele><time>2026-03-29T08:49:07.897Z</time></trkpt><trkpt lat="41.874656745530224" lon="15.895797734362793"><ele>478.66666666666663</ele><time>2026-03-29T08:49:09.897Z</time></trkpt><trkpt lat="41.87467298004369" lon="15.89568498859232"><ele>479.0</ele><time>2026-03-29T08:49:11.897Z</time></trkpt><trkpt lat="41.87470582261322" lon="15.895559053610794"><ele>477.99999999999994</ele><time>2026-03-29T08:49:13.897Z</time></trkpt><trkpt lat="41.8747499608713" lon="15.895452755880559"><ele>477.0</ele><time>2026-03-29T08:49:15.897Z</time></trkpt><trkpt lat="41.87478840128448" lon="15.895350412947403"><ele>476.0</ele><time>2026-03-29T08:49:17.897Z</time></trkpt><trkpt lat="41.87481802813368" lon="15.895267024033778"><ele>475.0</ele><time>2026-03-29T08:49:19.897Z</time></trkpt><trkpt lat="41.87484979095736" lon="15.895186438627299"><ele>473.99999999999994</ele><time>2026-03-29T08:49:21.896Z</time></trkpt><trkpt lat="41.874877217998794" lon="15.89509686053433"><ele>473.0</ele><time>2026-03-29T08:49:23.896Z</time></trkpt><trkpt lat="41.87493185967241" lon="15.895012814338855"><ele>472.16666666666663</ele><time>2026-03-29T08:49:25.896Z</time></trkpt><trkpt lat="41.87496038240535" lon="15.894912870362926"><ele>471.3333333333333</ele><time>2026-03-29T08:49:27.896Z</time></trkpt><trkpt lat="41.87499051118846" lon="15.894817560186336"><ele>470.5</ele><time>2026-03-29T08:49:29.896Z</time></trkpt><trkpt lat="41.87502903566803" lon="15.894720567861299"><ele>469.66666666666663</ele><time>2026-03-29T08:49:31.896Z</time></trkpt><trkpt lat="41.875073056656255" lon="15.89463723634288"><ele>468.8333333333333</ele><time>2026-03-29T08:49:33.896Z</time></trkpt><trkpt lat="41.875132930464886" lon="15.894576137413114"><ele>468.0</ele><time>2026-03-29T08:49:35.896Z</time></trkpt><trkpt lat="41.87519574011137" lon="15.894449304105333"><ele>470.6666666666667</ele><time>2026-03-29T08:49:38.896Z</time></trkpt><trkpt lat="41.87522369556668" lon="15.894364318959104"><ele>473.33333333333337</ele><time>2026-03-29T08:49:41.896Z</time></trkpt><trkpt lat="41.87525902999763" lon="15.894289479088364"><ele>476.0</ele><time>2026-03-29T08:49:43.896Z</time></trkpt><trkpt lat="41.87528357583143" lon="15.894205662831348"><ele>478.6666666666667</ele><time>2026-03-29T08:49:45.896Z</time></trkpt><trkpt lat="41.875336253450214" lon="15.894103189643506"><ele>481.33333333333337</ele><time>2026-03-29T08:49:48.896Z</time></trkpt><trkpt lat="41.87536882035215" lon="15.894018931353791"><ele>484.0</ele><time>2026-03-29T08:49:51.896Z</time></trkpt><trkpt lat="41.875433009600656" lon="15.893943879016218"><ele>484.0</ele><time>2026-03-29T08:49:54.896Z</time></trkpt><trkpt lat="41.875500374114985" lon="15.893857163177703"><ele>483.99999999999994</ele><time>2026-03-29T08:49:57.898Z</time></trkpt><trkpt lat="41.87553689012299" lon="15.893784364586699"><ele>484.0</ele><time>2026-03-29T08:49:59.897Z</time></trkpt><trkpt lat="41.87558808993421" lon="15.893719897010474"><ele>484.0</ele><time>2026-03-29T08:50:02.897Z</time></trkpt><trkpt lat="41.87564320299484" lon="15.893650777070588"><ele>483.99999999999994</ele><time>2026-03-29T08:50:06.898Z</time></trkpt><trkpt lat="41.875695700592715" lon="15.893594106507846"><ele>484.0</ele><time>2026-03-29T08:50:08.897Z</time></trkpt><trkpt lat="41.875754638191125" lon="15.893539687633387"><ele>484.0</ele><time>2026-03-29T08:50:11.898Z</time></trkpt><trkpt lat="41.8758165437798" lon="15.89348460864164"><ele>484.0</ele><time>2026-03-29T08:50:13.898Z</time></trkpt><trkpt lat="41.87589210040652" lon="15.89342258058655"><ele>484.0</ele><time>2026-03-29T08:50:15.898Z</time></trkpt><trkpt lat="41.87597216991338" lon="15.893339806784228"><ele>484.0</ele><time>2026-03-29T08:50:17.897Z</time></trkpt><trkpt lat="41.87604850032647" lon="15.893246212844796"><ele>484.0</ele><time>2026-03-29T08:50:19.897Z</time></trkpt><trkpt lat="41.876103615596634" lon="15.893174416511831"><ele>484.0</ele><time>2026-03-29T08:50:21.897Z</time></trkpt><trkpt lat="41.8761701217721" lon="15.893106814985861"><ele>482.00000000000006</ele><time>2026-03-29T08:50:23.897Z</time></trkpt><trkpt lat="41.87623724860969" lon="15.893037815486188"><ele>480.0</ele><time>2026-03-29T08:50:26.897Z</time></trkpt><trkpt lat="41.87631427757974" lon="15.893048004312172"><ele>478.0</ele><time>2026-03-29T08:50:29.897Z</time></trkpt><trkpt lat="41.87637983068365" lon="15.89313181683266"><ele>476.0</ele><time>2026-03-29T08:50:32.897Z</time></trkpt><trkpt lat="41.87641600562902" lon="15.893213231861726"><ele>474.00000000000006</ele><time>2026-03-29T08:50:36.897Z</time></trkpt><trkpt lat="41.87641837859394" lon="15.89329927693308"><ele>472.0</ele><time>2026-03-29T08:50:40.897Z</time></trkpt><trkpt lat="41.87644283040235" lon="15.893382464520574"><ele>472.0</ele><time>2026-03-29T08:50:44.897Z</time></trkpt><trkpt lat="41.87646860552868" lon="15.893462586900863"><ele>472.0</ele><time>2026-03-29T08:50:48.897Z</time></trkpt><trkpt lat="41.87647681057162" lon="15.893549281627475"><ele>472.0</ele><time>2026-03-29T08:50:54.896Z</time></trkpt><trkpt lat="41.876518397206034" lon="15.89362606931726"><ele>472.0</ele><time>2026-03-29T08:51:02.896Z</time></trkpt><trkpt lat="41.87645523238277" lon="15.893577420810088"><ele>472.0</ele><time>2026-03-29T08:51:13.896Z</time></trkpt><trkpt lat="41.876442384547154" lon="15.893464285632234"><ele>472.0</ele><time>2026-03-29T08:51:17.896Z</time></trkpt><trkpt lat="41.87643280058053" lon="15.893371515775266"><ele>472.0</ele><time>2026-03-29T08:51:20.896Z</time></trkpt><trkpt lat="41.876433853603835" lon="15.893274659883252"><ele>472.00000000000006</ele><time>2026-03-29T08:51:23.896Z</time></trkpt><trkpt lat="41.87645443068789" lon="15.893190494503298"><ele>472.0</ele><time>2026-03-29T08:51:26.895Z</time></trkpt><trkpt lat="41.87649481635869" lon="15.893087343933502"><ele>472.0</ele><time>2026-03-29T08:51:29.895Z</time></trkpt><trkpt lat="41.876551082149234" lon="15.893008033513656"><ele>472.0</ele><time>2026-03-29T08:51:33.895Z</time></trkpt><trkpt lat="41.876606420508445" lon="15.89293251839039"><ele>472.00000000000006</ele><time>2026-03-29T08:51:39.895Z</time></trkpt><trkpt lat="41.876690084186976" lon="15.892974324426728"><ele>472.0</ele><time>2026-03-29T08:51:42.895Z</time></trkpt><trkpt lat="41.8767544841412" lon="15.893038581658816"><ele>467.40000000000003</ele><time>2026-03-29T08:51:44.895Z</time></trkpt><trkpt lat="41.876865441128416" lon="15.893107821238655"><ele>462.80000000000007</ele><time>2026-03-29T08:51:46.895Z</time></trkpt><trkpt lat="41.876951976259534" lon="15.89313289460605"><ele>458.2</ele><time>2026-03-29T08:51:50.895Z</time></trkpt><trkpt lat="41.87703122183226" lon="15.893164337530123"><ele>453.6</ele><time>2026-03-29T08:51:53.895Z</time></trkpt><trkpt lat="41.8771324346541" lon="15.893182031206473"><ele>449.0</ele><time>2026-03-29T08:51:56.895Z</time></trkpt><trkpt lat="41.87719348740083" lon="15.893226168249319"><ele>448.99999999999994</ele><time>2026-03-29T08:51:58.895Z</time></trkpt><trkpt lat="41.877265375896656" lon="15.893244376472767"><ele>449.0</ele><time>2026-03-29T08:52:00.895Z</time></trkpt><trkpt lat="41.877356956439996" lon="15.89325855583548"><ele>449.0</ele><time>2026-03-29T08:52:02.894Z</time></trkpt><trkpt lat="41.87745358752979" lon="15.893284839951232"><ele>449.0</ele><time>2026-03-29T08:52:03.896Z</time></trkpt><trkpt lat="41.87752088351158" lon="15.893338021118126"><ele>448.99999999999994</ele><time>2026-03-29T08:52:06.896Z</time></trkpt><trkpt lat="41.877587063129035" lon="15.893355301964283"><ele>449.0</ele><time>2026-03-29T08:52:07.896Z</time></trkpt><trkpt lat="41.87766052388447" lon="15.893408143035819"><ele>450.2</ele><time>2026-03-29T08:52:08.895Z</time></trkpt><trkpt lat="41.877724583818946" lon="15.893480982236373"><ele>451.4</ele><time>2026-03-29T08:52:10.896Z</time></trkpt><trkpt lat="41.8777594198138" lon="15.89358792029946"><ele>452.6</ele><time>2026-03-29T08:52:13.896Z</time></trkpt><trkpt lat="41.87781006806274" lon="15.893690515426652"><ele>453.8</ele><time>2026-03-29T08:52:15.896Z</time></trkpt><trkpt lat="41.877873926320525" lon="15.893763603524901"><ele>455.0</ele><time>2026-03-29T08:52:18.896Z</time></trkpt><trkpt lat="41.87792581990877" lon="15.893888400401096"><ele>454.99999999999994</ele><time>2026-03-29T08:52:21.895Z</time></trkpt><trkpt lat="41.87796632118712" lon="15.893997138024643"><ele>455.0</ele><time>2026-03-29T08:52:24.895Z</time></trkpt><trkpt lat="41.87799295377546" lon="15.894110823182128"><ele>455.0</ele><time>2026-03-29T08:52:27.895Z</time></trkpt><trkpt lat="41.878040202888606" lon="15.894186289178478"><ele>455.0</ele><time>2026-03-29T08:52:29.895Z</time></trkpt><trkpt lat="41.87808263357605" lon="15.8942738231708"><ele>454.99999999999994</ele><time>2026-03-29T08:52:31.895Z</time></trkpt><trkpt lat="41.878100849061845" lon="15.894400379657336"><ele>455.0</ele><time>2026-03-29T08:52:33.895Z</time></trkpt><trkpt lat="41.878148218446846" lon="15.894536535412788"><ele>455.66666666666663</ele><time>2026-03-29T08:52:35.895Z</time></trkpt><trkpt lat="41.878198466290804" lon="15.894627252951105"><ele>456.3333333333333</ele><time>2026-03-29T08:52:37.895Z</time></trkpt><trkpt lat="41.87827606602143" lon="15.894707804683744"><ele>457.0</ele><time>2026-03-29T08:52:39.895Z</time></trkpt><trkpt lat="41.878324894280276" lon="15.89477333971121"><ele>457.66666666666663</ele><time>2026-03-29T08:52:41.895Z</time></trkpt><trkpt lat="41.8783899975746" lon="15.894807407643816"><ele>458.3333333333333</ele><time>2026-03-29T08:52:43.895Z</time></trkpt><trkpt lat="41.87844692411687" lon="15.89486852388279"><ele>459.0</ele><time>2026-03-29T08:52:45.895Z</time></trkpt><trkpt lat="41.87849500120887" lon="15.894940124402787"><ele>458.0</ele><time>2026-03-29T08:52:47.895Z</time></trkpt><trkpt lat="41.87854821354607" lon="15.89507637702539"><ele>457.0</ele><time>2026-03-29T08:52:50.895Z</time></trkpt><trkpt lat="41.87855796368023" lon="15.895175938923481"><ele>456.0</ele><time>2026-03-29T08:52:52.895Z</time></trkpt><trkpt lat="41.878610348481224" lon="15.89526573177909"><ele>455.0</ele><time>2026-03-29T08:52:55.894Z</time></trkpt><trkpt lat="41.87865756705124" lon="15.895361279338802"><ele>454.0</ele><time>2026-03-29T08:52:58.894Z</time></trkpt><trkpt lat="41.878704511077565" lon="15.895442370837127"><ele>453.0</ele><time>2026-03-29T08:53:00.894Z</time></trkpt><trkpt lat="41.87875247395267" lon="15.89552567945606"><ele>453.0</ele><time>2026-03-29T08:53:03.894Z</time></trkpt><trkpt lat="41.8788048685738" lon="15.895604120770104"><ele>453.0</ele><time>2026-03-29T08:53:06.894Z</time></trkpt><trkpt lat="41.87885124068762" lon="15.89566888394819"><ele>453.0</ele><time>2026-03-29T08:53:09.894Z</time></trkpt><trkpt lat="41.878889034643635" lon="15.8957617758729"><ele>453.0</ele><time>2026-03-29T08:53:15.894Z</time></trkpt><trkpt lat="41.87900312013773" lon="15.895828392816828"><ele>453.0</ele><time>2026-03-29T08:53:42.893Z</time></trkpt><trkpt lat="41.87895871084465" lon="15.895726889143987"><ele>453.0</ele><time>2026-03-29T08:56:01.891Z</time></trkpt><trkpt lat="41.87896692266383" lon="15.8958119956183"><ele>452.99999999999994</ele><time>2026-03-29T08:57:35.891Z</time></trkpt><trkpt lat="41.87902217893605" lon="15.89586393463204"><ele>453.0</ele><time>2026-03-29T08:57:48.891Z</time></trkpt><trkpt lat="41.879086304184" lon="15.89589026574051"><ele>452.99999999999994</ele><time>2026-03-29T08:58:11.89Z</time></trkpt><trkpt lat="41.87914494108592" lon="15.895846927140019"><ele>452.99999999999994</ele><time>2026-03-29T08:58:14.89Z</time></trkpt><trkpt lat="41.87919427268121" lon="15.895783930613604"><ele>453.0</ele><time>2026-03-29T08:58:16.89Z</time></trkpt><trkpt lat="41.87925165977017" lon="15.895714181566277"><ele>452.99999999999994</ele><time>2026-03-29T08:58:18.89Z</time></trkpt><trkpt lat="41.87932894170665" lon="15.895671487294635"><ele>452.99999999999994</ele><time>2026-03-29T08:58:20.891Z</time></trkpt><trkpt lat="41.87943353099281" lon="15.895650483442166"><ele>454.0</ele><time>2026-03-29T08:58:22.89Z</time></trkpt><trkpt lat="41.879558222938925" lon="15.895609270331656"><ele>454.99999999999994</ele><time>2026-03-29T08:58:24.891Z</time></trkpt><trkpt lat="41.87966736367313" lon="15.895555353628726"><ele>455.99999999999994</ele><time>2026-03-29T08:58:26.891Z</time></trkpt><trkpt lat="41.879753705484326" lon="15.89548733275393"><ele>457.0</ele><time>2026-03-29T08:58:28.891Z</time></trkpt><trkpt lat="41.879791347855885" lon="15.895407444378577"><ele>458.0</ele><time>2026-03-29T08:58:29.891Z</time></trkpt><trkpt lat="41.87985004236528" lon="15.895375634292188"><ele>458.0</ele><time>2026-03-29T08:58:30.891Z</time></trkpt><trkpt lat="41.87991249906336" lon="15.895363892695904"><ele>457.99999999999994</ele><time>2026-03-29T08:58:32.891Z</time></trkpt><trkpt lat="41.88008580539056" lon="15.895289749188715"><ele>457.99999999999994</ele><time>2026-03-29T08:58:34.891Z</time></trkpt><trkpt lat="41.880176479413294" lon="15.895237793859991"><ele>458.0</ele><time>2026-03-29T08:58:35.891Z</time></trkpt><trkpt lat="41.88023920443925" lon="15.895170412370875"><ele>458.0</ele><time>2026-03-29T08:58:36.891Z</time></trkpt><trkpt lat="41.880312190341904" lon="15.895134479740818"><ele>453.3333333333333</ele><time>2026-03-29T08:58:37.891Z</time></trkpt><trkpt lat="41.8803990558003" lon="15.895063326567309"><ele>448.66666666666663</ele><time>2026-03-29T08:58:38.891Z</time></trkpt><trkpt lat="41.88047055470636" lon="15.894993298361706"><ele>444.0</ele><time>2026-03-29T08:58:39.891Z</time></trkpt><trkpt lat="41.880523548954706" lon="15.894934874732506"><ele>439.33333333333337</ele><time>2026-03-29T08:58:40.891Z</time></trkpt><trkpt lat="41.880574975887654" lon="15.894883321451648"><ele>434.6666666666667</ele><time>2026-03-29T08:58:41.891Z</time></trkpt><trkpt lat="41.88064681022028" lon="15.89478246363467"><ele>430.0</ele><time>2026-03-29T08:58:42.891Z</time></trkpt><trkpt lat="41.880722878626855" lon="15.894688907125449"><ele>430.00000000000006</ele><time>2026-03-29T08:58:43.89Z</time></trkpt><trkpt lat="41.880807578289065" lon="15.894641778164587"><ele>430.0</ele><time>2026-03-29T08:58:44.89Z</time></trkpt><trkpt lat="41.88089214464842" lon="15.894613909123668"><ele>430.0</ele><time>2026-03-29T08:58:46.89Z</time></trkpt><trkpt lat="41.880966108928725" lon="15.894568660554892"><ele>430.0</ele><time>2026-03-29T08:58:49.89Z</time></trkpt><trkpt lat="41.88102753285172" lon="15.894538348853214"><ele>430.00000000000006</ele><time>2026-03-29T08:58:52.89Z</time></trkpt><trkpt lat="41.88113452827869" lon="15.894483533718201"><ele>430.0</ele><time>2026-03-29T08:59:17.889Z</time></trkpt><trkpt lat="41.881178196325884" lon="15.894414099141736"><ele>427.75</ele><time>2026-03-29T08:59:22.889Z</time></trkpt><trkpt lat="41.881243831585266" lon="15.89436079674469"><ele>425.5</ele><time>2026-03-29T08:59:25.889Z</time></trkpt><trkpt lat="41.88133108606322" lon="15.894244262654087"><ele>423.25</ele><time>2026-03-29T08:59:27.889Z</time></trkpt><trkpt lat="41.88137873294834" lon="15.894101896428896"><ele>421.0</ele><time>2026-03-29T08:59:28.889Z</time></trkpt><trkpt lat="41.881426999093435" lon="15.893920629574264"><ele>418.5</ele><time>2026-03-29T08:59:29.889Z</time></trkpt><trkpt lat="41.88148141348582" lon="15.893696795214721"><ele>416.0</ele><time>2026-03-29T08:59:30.889Z</time></trkpt><trkpt lat="41.88152538991572" lon="15.893518512580357"><ele>413.5</ele><time>2026-03-29T08:59:31.889Z</time></trkpt><trkpt lat="41.881561634295764" lon="15.893386911246786"><ele>411.0</ele><time>2026-03-29T08:59:32.889Z</time></trkpt><trkpt lat="41.88159081934544" lon="15.893301458773287"><ele>409.6666666666667</ele><time>2026-03-29T08:59:33.889Z</time></trkpt><trkpt lat="41.881638740534285" lon="15.893233097115182"><ele>408.33333333333337</ele><time>2026-03-29T08:59:35.889Z</time></trkpt><trkpt lat="41.8816625868737" lon="15.893135703731092"><ele>407.0</ele><time>2026-03-29T08:59:37.889Z</time></trkpt><trkpt lat="41.88168713068224" lon="15.893024391857251"><ele>405.6666666666667</ele><time>2026-03-29T08:59:38.889Z</time></trkpt><trkpt lat="41.88169186586779" lon="15.892922844870004"><ele>404.33333333333337</ele><time>2026-03-29T08:59:39.889Z</time></trkpt><trkpt lat="41.88167590815095" lon="15.892811312944676"><ele>403.0</ele><time>2026-03-29T08:59:40.889Z</time></trkpt><trkpt lat="41.88164060750225" lon="15.89267501451364"><ele>403.0</ele><time>2026-03-29T08:59:42.889Z</time></trkpt><trkpt lat="41.88159838632059" lon="15.892603631600196"><ele>403.0</ele><time>2026-03-29T08:59:43.889Z</time></trkpt><trkpt lat="41.88153626977897" lon="15.89251619684578"><ele>403.0</ele><time>2026-03-29T08:59:44.889Z</time></trkpt><trkpt lat="41.88146347145" lon="15.892417667623507"><ele>403.0</ele><time>2026-03-29T08:59:45.889Z</time></trkpt><trkpt lat="41.88137056744609" lon="15.892327512986583"><ele>403.0</ele><time>2026-03-29T08:59:46.889Z</time></trkpt><trkpt lat="41.88125676024131" lon="15.89218252992211"><ele>403.6666666666667</ele><time>2026-03-29T08:59:47.889Z</time></trkpt><trkpt lat="41.881144803344455" lon="15.891991691477635"><ele>404.33333333333337</ele><time>2026-03-29T08:59:48.889Z</time></trkpt><trkpt lat="41.88105781167624" lon="15.891801272724237"><ele>405.0</ele><time>2026-03-29T08:59:49.889Z</time></trkpt><trkpt lat="41.88097460182755" lon="15.891621874874739"><ele>401.0</ele><time>2026-03-29T08:59:50.889Z</time></trkpt><trkpt lat="41.88089715781925" lon="15.891440585026745"><ele>397.0</ele><time>2026-03-29T08:59:51.889Z</time></trkpt><trkpt lat="41.880830314338226" lon="15.891195120666405"><ele>393.0</ele><time>2026-03-29T08:59:52.888Z</time></trkpt><trkpt lat="41.88075035245432" lon="15.890905542447104"><ele>393.0</ele><time>2026-03-29T08:59:53.888Z</time></trkpt><trkpt lat="41.88067658052833" lon="15.890625078561406"><ele>393.0</ele><time>2026-03-29T08:59:54.888Z</time></trkpt><trkpt lat="41.88060396175084" lon="15.89039050675023"><ele>393.0</ele><time>2026-03-29T08:59:55.888Z</time></trkpt><trkpt lat="41.880533812396834" lon="15.890171953221405"><ele>396.0</ele><time>2026-03-29T08:59:56.888Z</time></trkpt><trkpt lat="41.880468356970376" lon="15.889980631060784"><ele>399.0</ele><time>2026-03-29T08:59:57.888Z</time></trkpt><trkpt lat="41.880409354744955" lon="15.8897810683039"><ele>402.0</ele><time>2026-03-29T08:59:58.888Z</time></trkpt><trkpt lat="41.880335240457896" lon="15.889533257857"><ele>402.0</ele><time>2026-03-29T08:59:59.888Z</time></trkpt><trkpt lat="41.88028609292743" lon="15.889281023577494"><ele>402.0</ele><time>2026-03-29T09:00:00.888Z</time></trkpt><trkpt lat="41.88026815333604" lon="15.889066410411605"><ele>402.0</ele><time>2026-03-29T09:00:01.888Z</time></trkpt><trkpt lat="41.880255432095595" lon="15.888884285762936"><ele>403.5</ele><time>2026-03-29T09:00:02.888Z</time></trkpt><trkpt lat="41.880234440559626" lon="15.888728326150906"><ele>405.0</ele><time>2026-03-29T09:00:03.888Z</time></trkpt><trkpt lat="41.88019057488014" lon="15.888575961146563"><ele>406.5</ele><time>2026-03-29T09:00:04.888Z</time></trkpt><trkpt lat="41.88011815707561" lon="15.888408444868627"><ele>408.0</ele><time>2026-03-29T09:00:05.888Z</time></trkpt><trkpt lat="41.88001810450081" lon="15.888219352655838"><ele>401.5</ele><time>2026-03-29T09:00:06.888Z</time></trkpt><trkpt lat="41.8799110139373" lon="15.888029347337627"><ele>395.0</ele><time>2026-03-29T09:00:07.888Z</time></trkpt><trkpt lat="41.879848146345054" lon="15.887866887064488"><ele>388.5</ele><time>2026-03-29T09:00:08.888Z</time></trkpt><trkpt lat="41.879789325912384" lon="15.887720754301299"><ele>382.0</ele><time>2026-03-29T09:00:09.888Z</time></trkpt><trkpt lat="41.87974890924908" lon="15.88756992971805"><ele>382.0</ele><time>2026-03-29T09:00:10.888Z</time></trkpt><trkpt lat="41.87972848681002" lon="15.887424688805794"><ele>382.0</ele><time>2026-03-29T09:00:11.888Z</time></trkpt><trkpt lat="41.87971339103761" lon="15.887268308715388"><ele>382.0</ele><time>2026-03-29T09:00:12.888Z</time></trkpt><trkpt lat="41.87971526858673" lon="15.88708516521888"><ele>382.0</ele><time>2026-03-29T09:00:13.888Z</time></trkpt><trkpt lat="41.87974663679861" lon="15.886872498209065"><ele>381.25</ele><time>2026-03-29T09:00:14.888Z</time></trkpt><trkpt lat="41.87979711473348" lon="15.886670618168141"><ele>380.5</ele><time>2026-03-29T09:00:15.888Z</time></trkpt><trkpt lat="41.87983166766583" lon="15.886487479949883"><ele>379.75</ele><time>2026-03-29T09:00:16.888Z</time></trkpt><trkpt lat="41.8798469013041" lon="15.886319772232147"><ele>379.0</ele><time>2026-03-29T09:00:17.888Z</time></trkpt><trkpt lat="41.879863681674614" lon="15.886167623111218"><ele>379.0</ele><time>2026-03-29T09:00:18.888Z</time></trkpt><trkpt lat="41.87988495835697" lon="15.886055128578866"><ele>379.0</ele><time>2026-03-29T09:00:19.888Z</time></trkpt><trkpt lat="41.879908635726906" lon="15.885948007550923"><ele>379.0</ele><time>2026-03-29T09:00:20.888Z</time></trkpt><trkpt lat="41.87996851476738" lon="15.8858051718746"><ele>379.0</ele><time>2026-03-29T09:00:21.888Z</time></trkpt><trkpt lat="41.880024737735866" lon="15.885653045092598"><ele>379.0</ele><time>2026-03-29T09:00:22.888Z</time></trkpt><trkpt lat="41.880051262553884" lon="15.885519463007757"><ele>377.5</ele><time>2026-03-29T09:00:23.888Z</time></trkpt><trkpt lat="41.88003588982895" lon="15.885391371303724"><ele>376.0</ele><time>2026-03-29T09:00:24.888Z</time></trkpt><trkpt lat="41.87999339181211" lon="15.885284737501264"><ele>374.5</ele><time>2026-03-29T09:00:25.888Z</time></trkpt><trkpt lat="41.87995730830377" lon="15.885157514565847"><ele>373.0</ele><time>2026-03-29T09:00:26.89Z</time></trkpt><trkpt lat="41.87994200616443" lon="15.885047777239423"><ele>371.5</ele><time>2026-03-29T09:00:27.889Z</time></trkpt><trkpt lat="41.879941508958204" lon="15.884960269480954"><ele>370.0</ele><time>2026-03-29T09:00:30.889Z</time></trkpt><trkpt lat="41.879873006818045" lon="15.8849989313486"><ele>370.0</ele><time>2026-03-29T09:00:42.889Z</time></trkpt><trkpt lat="41.879830817695414" lon="15.885176043919898"><ele>370.0</ele><time>2026-03-29T09:00:44.889Z</time></trkpt><trkpt lat="41.87983182242408" lon="15.885265989160047"><ele>370.0</ele><time>2026-03-29T09:00:45.889Z</time></trkpt><trkpt lat="41.87983982058739" lon="15.885368096255798"><ele>370.0</ele><time>2026-03-29T09:00:46.889Z</time></trkpt><trkpt lat="41.87985397539901" lon="15.88547248477421"><ele>370.0</ele><time>2026-03-29T09:00:48.889Z</time></trkpt><trkpt lat="41.879816772236325" lon="15.88557469124555"><ele>370.0</ele><time>2026-03-29T09:00:53.889Z</time></trkpt><trkpt lat="41.87978722994472" lon="15.885693073319453"><ele>370.0</ele><time>2026-03-29T09:00:55.889Z</time></trkpt><trkpt lat="41.87972659492665" lon="15.885770827148423"><ele>370.0</ele><time>2026-03-29T09:00:57.888Z</time></trkpt><trkpt lat="41.87966878200169" lon="15.885872627072262"><ele>370.0</ele><time>2026-03-29T09:00:59.888Z</time></trkpt><trkpt lat="41.87962299314341" lon="15.88597659428271"><ele>370.0</ele><time>2026-03-29T09:01:01.888Z</time></trkpt><trkpt lat="41.87957022133114" lon="15.886103663743372"><ele>370.0</ele><time>2026-03-29T09:01:03.888Z</time></trkpt><trkpt lat="41.879502610515864" lon="15.886181828550017"><ele>371.8</ele><time>2026-03-29T09:01:06.888Z</time></trkpt><trkpt lat="41.87940504130792" lon="15.886182600506919"><ele>373.6</ele><time>2026-03-29T09:01:08.888Z</time></trkpt><trkpt lat="41.87930559919804" lon="15.886201822598073"><ele>375.4</ele><time>2026-03-29T09:01:10.888Z</time></trkpt><trkpt lat="41.87923582263605" lon="15.886217690315677"><ele>377.2</ele><time>2026-03-29T09:01:12.888Z</time></trkpt><trkpt lat="41.87914134705912" lon="15.88629613812938"><ele>379.0</ele><time>2026-03-29T09:01:14.888Z</time></trkpt><trkpt lat="41.87908466269408" lon="15.886376048685282"><ele>374.8333333333333</ele><time>2026-03-29T09:01:15.888Z</time></trkpt><trkpt lat="41.87903126532049" lon="15.886449634132198"><ele>370.66666666666663</ele><time>2026-03-29T09:01:16.888Z</time></trkpt><trkpt lat="41.878957437819466" lon="15.88652668198243"><ele>366.5</ele><time>2026-03-29T09:01:17.888Z</time></trkpt><trkpt lat="41.878874748327846" lon="15.886622683924449"><ele>362.3333333333333</ele><time>2026-03-29T09:01:19.888Z</time></trkpt><trkpt lat="41.878786066394404" lon="15.886635784950752"><ele>358.1666666666667</ele><time>2026-03-29T09:01:22.888Z</time></trkpt><trkpt lat="41.87871247496273" lon="15.886679160355271"><ele>354.0</ele><time>2026-03-29T09:01:25.888Z</time></trkpt><trkpt lat="41.87864840731981" lon="15.886742343275241"><ele>353.1666666666667</ele><time>2026-03-29T09:01:28.888Z</time></trkpt><trkpt lat="41.87858004685308" lon="15.886764219448176"><ele>352.3333333333333</ele><time>2026-03-29T09:01:30.888Z</time></trkpt><trkpt lat="41.87850255768959" lon="15.886782013491063"><ele>351.5</ele><time>2026-03-29T09:01:33.887Z</time></trkpt><trkpt lat="41.87843208135077" lon="15.886772262430084"><ele>350.66666666666663</ele><time>2026-03-29T09:01:37.887Z</time></trkpt><trkpt lat="41.878352920889874" lon="15.886792741965493"><ele>349.8333333333333</ele><time>2026-03-29T09:01:39.887Z</time></trkpt><trkpt lat="41.87827672659334" lon="15.886844603917533"><ele>349.0</ele><time>2026-03-29T09:01:42.887Z</time></trkpt><trkpt lat="41.87824030855436" lon="15.886940941991877"><ele>344.3333333333333</ele><time>2026-03-29T09:01:45.887Z</time></trkpt><trkpt lat="41.87821282825171" lon="15.887041019787633"><ele>339.66666666666663</ele><time>2026-03-29T09:01:47.887Z</time></trkpt><trkpt lat="41.87822582473513" lon="15.88713106232484"><ele>335.0</ele><time>2026-03-29T09:01:49.887Z</time></trkpt><trkpt lat="41.87825399797718" lon="15.887244504912799"><ele>330.3333333333333</ele><time>2026-03-29T09:01:52.887Z</time></trkpt><trkpt lat="41.87828113870013" lon="15.887371570924907"><ele>325.6666666666667</ele><time>2026-03-29T09:01:54.887Z</time></trkpt><trkpt lat="41.87833253483098" lon="15.88746549504836"><ele>321.0</ele><time>2026-03-29T09:01:56.887Z</time></trkpt><trkpt lat="41.87839649119325" lon="15.887534797803404"><ele>319.2857142857143</ele><time>2026-03-29T09:02:02.887Z</time></trkpt><trkpt lat="41.878400753953414" lon="15.887626902057399"><ele>317.57142857142856</ele><time>2026-03-29T09:02:04.887Z</time></trkpt><trkpt lat="41.87838497741808" lon="15.887752392537747"><ele>315.8571428571429</ele><time>2026-03-29T09:02:06.886Z</time></trkpt><trkpt lat="41.87836703299372" lon="15.887836998364495"><ele>314.1428571428571</ele><time>2026-03-29T09:02:08.886Z</time></trkpt><trkpt lat="41.878304977143735" lon="15.887876102054932"><ele>312.42857142857144</ele><time>2026-03-29T09:02:11.886Z</time></trkpt><trkpt lat="41.87823995565462" lon="15.887909719877795"><ele>310.7142857142857</ele><time>2026-03-29T09:02:15.886Z</time></trkpt><trkpt lat="41.8782146169772" lon="15.888013249264949"><ele>309.0</ele><time>2026-03-29T09:02:24.886Z</time></trkpt><trkpt lat="41.87822219360823" lon="15.888099522044115"><ele>309.0</ele><time>2026-03-29T09:02:30.886Z</time></trkpt><trkpt lat="41.87815850442653" lon="15.888232773095265"><ele>309.0</ele><time>2026-03-29T09:03:15.887Z</time></trkpt><trkpt lat="41.878114366177854" lon="15.888167410468633"><ele>309.0</ele><time>2026-03-29T09:03:18.886Z</time></trkpt><trkpt lat="41.878019907707255" lon="15.888111785577973"><ele>309.0</ele><time>2026-03-29T09:03:21.886Z</time></trkpt><trkpt lat="41.87793669335995" lon="15.88804938165825"><ele>309.0</ele><time>2026-03-29T09:03:23.886Z</time></trkpt><trkpt lat="41.87782649765367" lon="15.887983073934118"><ele>309.0</ele><time>2026-03-29T09:03:25.886Z</time></trkpt><trkpt lat="41.87773254471551" lon="15.88791993063871"><ele>309.0</ele><time>2026-03-29T09:03:26.886Z</time></trkpt><trkpt lat="41.877636013939146" lon="15.88784307837084"><ele>309.0</ele><time>2026-03-29T09:03:27.886Z</time></trkpt><trkpt lat="41.87758370591111" lon="15.887789511827643"><ele>309.0</ele><time>2026-03-29T09:03:28.886Z</time></trkpt><trkpt lat="41.877478795895385" lon="15.887702844109667"><ele>309.0</ele><time>2026-03-29T09:03:30.886Z</time></trkpt><trkpt lat="41.8774251781074" lon="15.887635132314086"><ele>307.4</ele><time>2026-03-29T09:03:31.886Z</time></trkpt><trkpt lat="41.87736743769258" lon="15.88754978827469"><ele>305.79999999999995</ele><time>2026-03-29T09:03:32.886Z</time></trkpt><trkpt lat="41.87731846862104" lon="15.887431211056384"><ele>304.20000000000005</ele><time>2026-03-29T09:03:33.886Z</time></trkpt><trkpt lat="41.87728102249356" lon="15.887300113764779"><ele>302.6</ele><time>2026-03-29T09:03:34.886Z</time></trkpt><trkpt lat="41.87723643493524" lon="15.88717236243009"><ele>301.0</ele><time>2026-03-29T09:03:35.886Z</time></trkpt><trkpt lat="41.87718553927134" lon="15.887086880739279"><ele>301.0</ele><time>2026-03-29T09:03:36.886Z</time></trkpt><trkpt lat="41.8771244668247" lon="15.88700106703152"><ele>301.0</ele><time>2026-03-29T09:03:37.886Z</time></trkpt><trkpt lat="41.877041053746844" lon="15.886894134885035"><ele>301.0</ele><time>2026-03-29T09:03:38.886Z</time></trkpt><trkpt lat="41.876943079401286" lon="15.886773390864574"><ele>301.0</ele><time>2026-03-29T09:03:39.886Z</time></trkpt><trkpt lat="41.87682362850592" lon="15.886661242310238"><ele>300.2</ele><time>2026-03-29T09:03:40.886Z</time></trkpt><trkpt lat="41.876727549328876" lon="15.886580356405892"><ele>299.40000000000003</ele><time>2026-03-29T09:03:41.886Z</time></trkpt><trkpt lat="41.87663924442068" lon="15.886487285209448"><ele>298.6</ele><time>2026-03-29T09:03:42.886Z</time></trkpt><trkpt lat="41.87656859234284" lon="15.886389877927186"><ele>297.8</ele><time>2026-03-29T09:03:43.886Z</time></trkpt><trkpt lat="41.87651209061908" lon="15.886302336432163"><ele>297.0</ele><time>2026-03-29T09:03:44.886Z</time></trkpt><trkpt lat="41.87647344850354" lon="15.886204958286559"><ele>297.0</ele><time>2026-03-29T09:03:45.886Z</time></trkpt><trkpt lat="41.87643023200512" lon="15.88611029358722"><ele>297.0</ele><time>2026-03-29T09:03:46.886Z</time></trkpt><trkpt lat="41.876335026585664" lon="15.886036869238543"><ele>297.0</ele><time>2026-03-29T09:03:47.886Z</time></trkpt><trkpt lat="41.8762772290805" lon="15.885979058099636"><ele>297.0</ele><time>2026-03-29T09:03:49.886Z</time></trkpt><trkpt lat="41.87618741930912" lon="15.885903801590754"><ele>297.0</ele><time>2026-03-29T09:03:52.886Z</time></trkpt><trkpt lat="41.87614000653855" lon="15.885835403808914"><ele>297.0</ele><time>2026-03-29T09:03:55.885Z</time></trkpt><trkpt lat="41.87606669419392" lon="15.885778663281231"><ele>298.6666666666667</ele><time>2026-03-29T09:03:58.885Z</time></trkpt><trkpt lat="41.87601336100799" lon="15.885710612956546"><ele>300.3333333333333</ele><time>2026-03-29T09:04:00.885Z</time></trkpt><trkpt lat="41.87597287156532" lon="15.885640509951802"><ele>302.0</ele><time>2026-03-29T09:04:02.885Z</time></trkpt><trkpt lat="41.875907252369615" lon="15.885559166559368"><ele>303.66666666666663</ele><time>2026-03-29T09:04:04.885Z</time></trkpt><trkpt lat="41.875853654565844" lon="15.885509662845818"><ele>305.3333333333333</ele><time>2026-03-29T09:04:06.885Z</time></trkpt><trkpt lat="41.87580940964266" lon="15.885429237594828"><ele>307.0</ele><time>2026-03-29T09:04:19.885Z</time></trkpt><trkpt lat="41.87575549508999" lon="15.885331077621663"><ele>307.0</ele><time>2026-03-29T09:04:22.885Z</time></trkpt><trkpt lat="41.875724837752834" lon="15.885212380659459"><ele>307.0</ele><time>2026-03-29T09:04:24.885Z</time></trkpt><trkpt lat="41.87568047832784" lon="15.88514494826569"><ele>307.0</ele><time>2026-03-29T09:04:25.885Z</time></trkpt><trkpt lat="41.87562635397218" lon="15.885085794595009"><ele>307.0</ele><time>2026-03-29T09:04:26.885Z</time></trkpt><trkpt lat="41.87555271002531" lon="15.884983089272605"><ele>307.0</ele><time>2026-03-29T09:04:28.884Z</time></trkpt><trkpt lat="41.87550049915884" lon="15.88489057662232"><ele>307.0</ele><time>2026-03-29T09:04:30.884Z</time></trkpt><trkpt lat="41.875479973695654" lon="15.884762372687332"><ele>302.4</ele><time>2026-03-29T09:04:32.884Z</time></trkpt><trkpt lat="41.8754523592593" lon="15.884636970474654"><ele>297.79999999999995</ele><time>2026-03-29T09:04:34.884Z</time></trkpt><trkpt lat="41.875428812095194" lon="15.88450771979094"><ele>293.2</ele><time>2026-03-29T09:04:36.884Z</time></trkpt><trkpt lat="41.87539664922508" lon="15.884349280424246"><ele>288.59999999999997</ele><time>2026-03-29T09:04:38.886Z</time></trkpt><trkpt lat="41.8753696086398" lon="15.884249237217043"><ele>284.0</ele><time>2026-03-29T09:04:39.886Z</time></trkpt><trkpt lat="41.875341212872385" lon="15.884162350646948"><ele>282.5</ele><time>2026-03-29T09:04:40.886Z</time></trkpt><trkpt lat="41.875321274530855" lon="15.884081043683993"><ele>281.0</ele><time>2026-03-29T09:04:41.886Z</time></trkpt><trkpt lat="41.87528686825853" lon="15.883972827254539"><ele>279.5</ele><time>2026-03-29T09:04:43.886Z</time></trkpt><trkpt lat="41.87523887807788" lon="15.883858849071784"><ele>278.0</ele><time>2026-03-29T09:04:45.886Z</time></trkpt><trkpt lat="41.87517287379464" lon="15.883765621281107"><ele>276.5</ele><time>2026-03-29T09:04:47.886Z</time></trkpt><trkpt lat="41.87510060200736" lon="15.883719975501618"><ele>275.0</ele><time>2026-03-29T09:04:49.886Z</time></trkpt><trkpt lat="41.87503337854727" lon="15.8836947951139"><ele>280.0</ele><time>2026-03-29T09:04:50.886Z</time></trkpt><trkpt lat="41.87492850870777" lon="15.883679607876482"><ele>285.0</ele><time>2026-03-29T09:04:52.886Z</time></trkpt><trkpt lat="41.87485637145891" lon="15.88369317842856"><ele>290.0</ele><time>2026-03-29T09:04:54.886Z</time></trkpt><trkpt lat="41.874786270716996" lon="15.883728467274409"><ele>295.0</ele><time>2026-03-29T09:04:56.886Z</time></trkpt><trkpt lat="41.87466837576133" lon="15.883746588689345"><ele>300.0</ele><time>2026-03-29T09:04:58.886Z</time></trkpt><trkpt lat="41.87454798760755" lon="15.883817032145254"><ele>300.0</ele><time>2026-03-29T09:05:00.886Z</time></trkpt><trkpt lat="41.87447247993396" lon="15.883918407377232"><ele>300.0</ele><time>2026-03-29T09:05:02.886Z</time></trkpt><trkpt lat="41.874410877503976" lon="15.88402160528289"><ele>300.0</ele><time>2026-03-29T09:05:03.885Z</time></trkpt><trkpt lat="41.87433986332843" lon="15.884127307522098"><ele>300.0</ele><time>2026-03-29T09:05:04.885Z</time></trkpt><trkpt lat="41.874274324857744" lon="15.884246959006122"><ele>300.0</ele><time>2026-03-29T09:05:05.885Z</time></trkpt><trkpt lat="41.87421578705784" lon="15.88435493490161"><ele>302.5</ele><time>2026-03-29T09:05:06.885Z</time></trkpt><trkpt lat="41.87416407886869" lon="15.884436438343785"><ele>305.0</ele><time>2026-03-29T09:05:07.885Z</time></trkpt><trkpt lat="41.87410202271806" lon="15.884525098732407"><ele>307.5</ele><time>2026-03-29T09:05:08.885Z</time></trkpt><trkpt lat="41.87405022780623" lon="15.884601955564802"><ele>310.0</ele><time>2026-03-29T09:05:09.885Z</time></trkpt><trkpt lat="41.87399069316828" lon="15.884672708725555"><ele>312.5</ele><time>2026-03-29T09:05:10.885Z</time></trkpt><trkpt lat="41.87392482081174" lon="15.884750607310036"><ele>315.0</ele><time>2026-03-29T09:05:11.885Z</time></trkpt><trkpt lat="41.87387406399569" lon="15.884837889921453"><ele>315.0</ele><time>2026-03-29T09:05:12.885Z</time></trkpt><trkpt lat="41.873809081309275" lon="15.884898435245152"><ele>315.0</ele><time>2026-03-29T09:05:13.885Z</time></trkpt><trkpt lat="41.87375657182331" lon="15.884983065777936"><ele>315.0</ele><time>2026-03-29T09:05:14.885Z</time></trkpt><trkpt lat="41.87369616762009" lon="15.885091879470956"><ele>315.0</ele><time>2026-03-29T09:05:15.885Z</time></trkpt><trkpt lat="41.87363749424248" lon="15.88520102919198"><ele>315.0</ele><time>2026-03-29T09:05:16.885Z</time></trkpt><trkpt lat="41.87357380749922" lon="15.885303348236487"><ele>313.0</ele><time>2026-03-29T09:05:17.885Z</time></trkpt><trkpt lat="41.87351913733715" lon="15.885396115754991"><ele>311.0</ele><time>2026-03-29T09:05:18.885Z</time></trkpt><trkpt lat="41.87346866025179" lon="15.885453025748685"><ele>309.0</ele><time>2026-03-29T09:05:19.885Z</time></trkpt><trkpt lat="41.873407955790256" lon="15.88559322312998"><ele>307.0</ele><time>2026-03-29T09:05:21.885Z</time></trkpt><trkpt lat="41.8733603267057" lon="15.885657232051992"><ele>305.0</ele><time>2026-03-29T09:05:22.885Z</time></trkpt><trkpt lat="41.8733282495241" lon="15.885745850420115"><ele>303.0</ele><time>2026-03-29T09:05:24.885Z</time></trkpt><trkpt lat="41.873284668120355" lon="15.885898194407286"><ele>304.8</ele><time>2026-03-29T09:05:26.885Z</time></trkpt><trkpt lat="41.87325207382636" lon="15.88598029420514"><ele>306.6</ele><time>2026-03-29T09:05:27.885Z</time></trkpt><trkpt lat="41.873173987071965" lon="15.886111928711246"><ele>308.4</ele><time>2026-03-29T09:05:29.885Z</time></trkpt><trkpt lat="41.873110499604515" lon="15.88626119780175"><ele>310.2</ele><time>2026-03-29T09:05:31.885Z</time></trkpt><trkpt lat="41.87304801964117" lon="15.886370729932498"><ele>312.0</ele><time>2026-03-29T09:05:33.885Z</time></trkpt><trkpt lat="41.87301592057435" lon="15.886465048223673"><ele>312.0</ele><time>2026-03-29T09:05:35.885Z</time></trkpt><trkpt lat="41.87299589427567" lon="15.886547575122066"><ele>312.0</ele><time>2026-03-29T09:05:36.885Z</time></trkpt><trkpt lat="41.87298655790925" lon="15.886685438153096"><ele>312.0</ele><time>2026-03-29T09:05:38.884Z</time></trkpt><trkpt lat="41.87301949730085" lon="15.886786733527902"><ele>312.0</ele><time>2026-03-29T09:05:40.884Z</time></trkpt><trkpt lat="41.87302443448963" lon="15.886901543781958"><ele>312.0</ele><time>2026-03-29T09:05:42.884Z</time></trkpt><trkpt lat="41.87302998852412" lon="15.887026462885318"><ele>312.0</ele><time>2026-03-29T09:05:45.884Z</time></trkpt><trkpt lat="41.87303903922612" lon="15.887169554619591"><ele>311.2</ele><time>2026-03-29T09:05:47.884Z</time></trkpt><trkpt lat="41.87305894503462" lon="15.887290617404062"><ele>310.4</ele><time>2026-03-29T09:05:49.884Z</time></trkpt><trkpt lat="41.87311706238403" lon="15.887438283140087"><ele>309.6</ele><time>2026-03-29T09:05:51.884Z</time></trkpt><trkpt lat="41.87314878268599" lon="15.887587980452015"><ele>308.8</ele><time>2026-03-29T09:05:53.884Z</time></trkpt><trkpt lat="41.873169283576395" lon="15.887690652414099"><ele>308.0</ele><time>2026-03-29T09:05:55.884Z</time></trkpt><trkpt lat="41.87320330539607" lon="15.887816919272359"><ele>306.5</ele><time>2026-03-29T09:05:58.884Z</time></trkpt><trkpt lat="41.8732226560507" lon="15.887948123548762"><ele>305.0</ele><time>2026-03-29T09:06:00.884Z</time></trkpt><trkpt lat="41.873243637998954" lon="15.888036414011632"><ele>303.5</ele><time>2026-03-29T09:06:02.884Z</time></trkpt><trkpt lat="41.873250128871135" lon="15.888123870895386"><ele>302.0</ele><time>2026-03-29T09:06:04.884Z</time></trkpt><trkpt lat="41.87325983696114" lon="15.888230194847255"><ele>300.5</ele><time>2026-03-29T09:06:06.884Z</time></trkpt><trkpt lat="41.87327069307284" lon="15.888318703959392"><ele>299.0</ele><time>2026-03-29T09:06:07.884Z</time></trkpt><trkpt lat="41.873261956575355" lon="15.88841979365133"><ele>299.2</ele><time>2026-03-29T09:06:08.884Z</time></trkpt><trkpt lat="41.87320806123692" lon="15.888585969556381"><ele>299.4</ele><time>2026-03-29T09:06:10.884Z</time></trkpt><trkpt lat="41.8731792835505" lon="15.88871255034826"><ele>299.6</ele><time>2026-03-29T09:06:11.884Z</time></trkpt><trkpt lat="41.873156137495734" lon="15.888874233070469"><ele>299.8</ele><time>2026-03-29T09:06:13.883Z</time></trkpt><trkpt lat="41.87314534717825" lon="15.888997179114044"><ele>300.0</ele><time>2026-03-29T09:06:15.883Z</time></trkpt><trkpt lat="41.87310750903845" lon="15.889178833420406"><ele>301.5</ele><time>2026-03-29T09:06:17.883Z</time></trkpt><trkpt lat="41.8730605600351" lon="15.889294606727622"><ele>303.0</ele><time>2026-03-29T09:06:18.883Z</time></trkpt><trkpt lat="41.87303785984155" lon="15.88939303657927"><ele>304.5</ele><time>2026-03-29T09:06:19.883Z</time></trkpt><trkpt lat="41.87301483524388" lon="15.889482666926495"><ele>306.0</ele><time>2026-03-29T09:06:20.883Z</time></trkpt><trkpt lat="41.87298811728805" lon="15.889559322333788"><ele>307.5</ele><time>2026-03-29T09:06:21.883Z</time></trkpt><trkpt lat="41.87293684722688" lon="15.889661963750951"><ele>309.0</ele><time>2026-03-29T09:06:23.883Z</time></trkpt><trkpt lat="41.872900872866616" lon="15.889764949770244"><ele>309.0</ele><time>2026-03-29T09:06:25.883Z</time></trkpt><trkpt lat="41.872850489981545" lon="15.889959082612855"><ele>309.0</ele><time>2026-03-29T09:06:27.883Z</time></trkpt><trkpt lat="41.87281417818377" lon="15.890121246402881"><ele>309.0</ele><time>2026-03-29T09:06:29.883Z</time></trkpt><trkpt lat="41.872823127483215" lon="15.890213173176686"><ele>309.0</ele><time>2026-03-29T09:06:30.883Z</time></trkpt><trkpt lat="41.87281961432506" lon="15.890308918218453"><ele>309.0</ele><time>2026-03-29T09:06:32.883Z</time></trkpt><trkpt lat="41.8728242547326" lon="15.890393254312617"><ele>310.1666666666667</ele><time>2026-03-29T09:06:34.883Z</time></trkpt><trkpt lat="41.87284022729421" lon="15.890496392490952"><ele>311.3333333333333</ele><time>2026-03-29T09:06:36.883Z</time></trkpt><trkpt lat="41.87285850454575" lon="15.89061024424793"><ele>312.5</ele><time>2026-03-29T09:06:39.883Z</time></trkpt><trkpt lat="41.872841884359644" lon="15.890698968012778"><ele>313.66666666666663</ele><time>2026-03-29T09:06:41.883Z</time></trkpt><trkpt lat="41.87281340295894" lon="15.890776401501865"><ele>314.8333333333333</ele><time>2026-03-29T09:06:44.885Z</time></trkpt><trkpt lat="41.87279086573833" lon="15.890860449954657"><ele>316.0</ele><time>2026-03-29T09:06:46.884Z</time></trkpt><trkpt lat="41.87276063313875" lon="15.890969448583634"><ele>317.0</ele><time>2026-03-29T09:06:49.884Z</time></trkpt><trkpt lat="41.87271214584315" lon="15.891094483741128"><ele>318.0</ele><time>2026-03-29T09:06:51.884Z</time></trkpt><trkpt lat="41.872680659851405" lon="15.89120458123734"><ele>319.0</ele><time>2026-03-29T09:06:53.884Z</time></trkpt><trkpt lat="41.87265362780837" lon="15.891310503624887"><ele>320.0</ele><time>2026-03-29T09:06:55.884Z</time></trkpt><trkpt lat="41.872633011300906" lon="15.891413821257656"><ele>321.0</ele><time>2026-03-29T09:06:57.884Z</time></trkpt><trkpt lat="41.87261413101503" lon="15.89154254467469"><ele>318.8333333333333</ele><time>2026-03-29T09:06:59.884Z</time></trkpt><trkpt lat="41.87257598182126" lon="15.891656478281714"><ele>316.6666666666667</ele><time>2026-03-29T09:07:01.884Z</time></trkpt><trkpt lat="41.87252932980604" lon="15.89174773074288"><ele>314.5</ele><time>2026-03-29T09:07:04.884Z</time></trkpt><trkpt lat="41.872505963256074" lon="15.89183377330728"><ele>312.33333333333337</ele><time>2026-03-29T09:07:07.884Z</time></trkpt><trkpt lat="41.87245099926529" lon="15.891894049295791"><ele>310.1666666666667</ele><time>2026-03-29T09:07:10.884Z</time></trkpt><trkpt lat="41.872421529010374" lon="15.891976748224572"><ele>308.0</ele><time>2026-03-29T09:07:16.884Z</time></trkpt><trkpt lat="41.872375491345906" lon="15.892044523391792"><ele>308.0</ele><time>2026-03-29T09:07:21.883Z</time></trkpt><trkpt lat="41.87231854183793" lon="15.892093519339515"><ele>308.0</ele><time>2026-03-29T09:08:36.881Z</time></trkpt><trkpt lat="41.87225596823873" lon="15.892155736481563"><ele>308.0</ele><time>2026-03-29T09:08:39.881Z</time></trkpt><trkpt lat="41.87219972989805" lon="15.892194730160247"><ele>308.0</ele><time>2026-03-29T09:08:42.881Z</time></trkpt><trkpt lat="41.872155373687924" lon="15.892260871369645"><ele>308.0</ele><time>2026-03-29T09:08:44.881Z</time></trkpt><trkpt lat="41.87209141990133" lon="15.892339964381517"><ele>308.0</ele><time>2026-03-29T09:08:47.881Z</time></trkpt><trkpt lat="41.87204491563073" lon="15.892438177830659"><ele>308.0</ele><time>2026-03-29T09:08:50.883Z</time></trkpt><trkpt lat="41.87200782469657" lon="15.892522278182641"><ele>311.1666666666667</ele><time>2026-03-29T09:08:53.882Z</time></trkpt><trkpt lat="41.871974754070486" lon="15.892614068746576"><ele>314.33333333333337</ele><time>2026-03-29T09:08:56.882Z</time></trkpt><trkpt lat="41.87196152215669" lon="15.892706848832344"><ele>317.5</ele><time>2026-03-29T09:08:58.882Z</time></trkpt><trkpt lat="41.87192571262182" lon="15.892779083922608"><ele>320.6666666666667</ele><time>2026-03-29T09:09:00.882Z</time></trkpt><trkpt lat="41.871906614426095" lon="15.892875232887127"><ele>323.8333333333333</ele><time>2026-03-29T09:09:03.883Z</time></trkpt><trkpt lat="41.871875196786526" lon="15.893014739391095"><ele>327.0</ele><time>2026-03-29T09:09:06.883Z</time></trkpt><trkpt lat="41.87185796113075" lon="15.893115883367237"><ele>327.0</ele><time>2026-03-29T09:09:09.883Z</time></trkpt><trkpt lat="41.87184751348821" lon="15.893204715670207"><ele>327.0</ele><time>2026-03-29T09:09:11.883Z</time></trkpt><trkpt lat="41.87181932627516" lon="15.893292708535114"><ele>327.0</ele><time>2026-03-29T09:09:14.882Z</time></trkpt><trkpt lat="41.87177132973536" lon="15.89335197580004"><ele>327.0</ele><time>2026-03-29T09:09:17.882Z</time></trkpt><trkpt lat="41.87173753278623" lon="15.89342402139615"><ele>327.0</ele><time>2026-03-29T09:09:21.882Z</time></trkpt><trkpt lat="41.8717349680117" lon="15.893512903631752"><ele>327.0</ele><time>2026-03-29T09:09:24.882Z</time></trkpt><trkpt lat="41.87169846107152" lon="15.89360960112542"><ele>327.0</ele><time>2026-03-29T09:09:28.882Z</time></trkpt><trkpt lat="41.87166991138887" lon="15.8937078842933"><ele>322.85714285714283</ele><time>2026-03-29T09:09:31.882Z</time></trkpt><trkpt lat="41.8716645582501" lon="15.893793203511603"><ele>318.7142857142857</ele><time>2026-03-29T09:09:33.882Z</time></trkpt><trkpt lat="41.871639632963586" lon="15.893903106321838"><ele>314.57142857142856</ele><time>2026-03-29T09:09:37.882Z</time></trkpt><trkpt lat="41.87161015875997" lon="15.893995125052253"><ele>310.42857142857144</ele><time>2026-03-29T09:09:40.882Z</time></trkpt><trkpt lat="41.87158280803715" lon="15.89407306410847"><ele>306.2857142857143</ele><time>2026-03-29T09:09:43.882Z</time></trkpt><trkpt lat="41.87157417096908" lon="15.89417377957018"><ele>302.1428571428571</ele><time>2026-03-29T09:09:46.882Z</time></trkpt><trkpt lat="41.87156913946385" lon="15.894276816529928"><ele>298.0</ele><time>2026-03-29T09:09:49.881Z</time></trkpt><trkpt lat="41.871559670454936" lon="15.894396089377109"><ele>298.0</ele><time>2026-03-29T09:09:51.881Z</time></trkpt><trkpt lat="41.871574913341426" lon="15.89452044719799"><ele>298.0</ele><time>2026-03-29T09:09:53.881Z</time></trkpt><trkpt lat="41.871604817321476" lon="15.894675546809427"><ele>298.0</ele><time>2026-03-29T09:09:55.881Z</time></trkpt><trkpt lat="41.87160287637791" lon="15.894793598668755"><ele>298.0</ele><time>2026-03-29T09:09:57.881Z</time></trkpt><trkpt lat="41.871622115633336" lon="15.894875141383396"><ele>298.0</ele><time>2026-03-29T09:09:59.881Z</time></trkpt><trkpt lat="41.87164143488901" lon="15.894978237413419"><ele>298.0</ele><time>2026-03-29T09:10:02.881Z</time></trkpt><trkpt lat="41.87165301171151" lon="15.895077795992945"><ele>298.16666666666663</ele><time>2026-03-29T09:10:04.881Z</time></trkpt><trkpt lat="41.87164688120307" lon="15.89517809784793"><ele>298.3333333333333</ele><time>2026-03-29T09:10:07.881Z</time></trkpt><trkpt lat="41.8717110005836" lon="15.89526801514081"><ele>298.5</ele><time>2026-03-29T09:10:10.881Z</time></trkpt><trkpt lat="41.87175105287052" lon="15.895357056420455"><ele>298.6666666666667</ele><time>2026-03-29T09:10:13.881Z</time></trkpt><trkpt lat="41.871715661354166" lon="15.895439713461675"><ele>298.83333333333337</ele><time>2026-03-29T09:10:21.88Z</time></trkpt><trkpt lat="41.871693628953054" lon="15.895529747082886"><ele>299.0</ele><time>2026-03-29T09:10:43.88Z</time></trkpt><trkpt lat="41.871701281480476" lon="15.895613725479995"><ele>299.0</ele><time>2026-03-29T09:11:11.881Z</time></trkpt><trkpt lat="41.87177961747691" lon="15.895653056152725"><ele>299.0</ele><time>2026-03-29T09:14:26.878Z</time></trkpt><trkpt lat="41.871730750196996" lon="15.895746469730877"><ele>299.0</ele><time>2026-03-29T09:20:27.872Z</time></trkpt><trkpt lat="41.871711365926785" lon="15.895830167350626"><ele>299.0</ele><time>2026-03-29T09:21:41.872Z</time></trkpt><trkpt lat="41.871752060363335" lon="15.895756668005914"><ele>299.0</ele><time>2026-03-29T09:23:09.87Z</time></trkpt><trkpt lat="41.87175716887656" lon="15.895668949963994"><ele>299.0</ele><time>2026-03-29T09:23:30.869Z</time></trkpt><trkpt lat="41.87172813218491" lon="15.895588467293903"><ele>299.0</ele><time>2026-03-29T09:23:38.871Z</time></trkpt><trkpt lat="41.87179870269318" lon="15.89565857581079"><ele>299.0</ele><time>2026-03-29T09:24:16.87Z</time></trkpt><trkpt lat="41.871738946666845" lon="15.895700564157751"><ele>299.0</ele><time>2026-03-29T09:25:03.869Z</time></trkpt><trkpt lat="41.87170064089292" lon="15.895632215712558"><ele>299.0</ele><time>2026-03-29T09:25:13.868Z</time></trkpt><trkpt lat="41.87175988069733" lon="15.895602308601037"><ele>299.0</ele><time>2026-03-29T09:25:29.868Z</time></trkpt><trkpt lat="41.87175417630429" lon="15.895704062197035"><ele>299.0</ele><time>2026-03-29T09:26:01.869Z</time></trkpt><trkpt lat="41.871803888812" lon="15.895639583793656"><ele>299.0</ele><time>2026-03-29T09:26:48.868Z</time></trkpt><trkpt lat="41.871757731406724" lon="15.895715815318386"><ele>299.0</ele><time>2026-03-29T09:27:48.867Z</time></trkpt><trkpt lat="41.87171341662879" lon="15.895838861779783"><ele>300.2857142857143</ele><time>2026-03-29T09:29:16.865Z</time></trkpt><trkpt lat="41.87169032806565" lon="15.895926327204863"><ele>301.57142857142856</ele><time>2026-03-29T09:29:19.865Z</time></trkpt><trkpt lat="41.87163190503181" lon="15.895986377648388"><ele>302.8571428571429</ele><time>2026-03-29T09:29:23.865Z</time></trkpt><trkpt lat="41.87156044184983" lon="15.896014033087503"><ele>304.1428571428571</ele><time>2026-03-29T09:29:28.865Z</time></trkpt><trkpt lat="41.87151089444082" lon="15.896068413484738"><ele>305.42857142857144</ele><time>2026-03-29T09:29:32.865Z</time></trkpt><trkpt lat="41.87144707487732" lon="15.896118009255245"><ele>306.7142857142857</ele><time>2026-03-29T09:29:37.865Z</time></trkpt><trkpt lat="41.87138864573593" lon="15.896157361044814"><ele>308.0</ele><time>2026-03-29T09:29:42.865Z</time></trkpt><trkpt lat="41.87130782322152" lon="15.896204028387539"><ele>308.0</ele><time>2026-03-29T09:29:52.866Z</time></trkpt><trkpt lat="41.87126598305288" lon="15.89626940784084"><ele>308.0</ele><time>2026-03-29T09:29:59.866Z</time></trkpt><trkpt lat="41.8712062693153" lon="15.896297474666117"><ele>308.0</ele><time>2026-03-29T09:30:12.865Z</time></trkpt><trkpt lat="41.87114434898926" lon="15.89626840615832"><ele>308.0</ele><time>2026-03-29T09:30:17.865Z</time></trkpt><trkpt lat="41.87109434013561" lon="15.896211738469027"><ele>308.0</ele><time>2026-03-29T09:30:31.864Z</time></trkpt><trkpt lat="41.871041355247655" lon="15.89615456366484"><ele>308.0</ele><time>2026-03-29T09:30:37.864Z</time></trkpt><trkpt lat="41.87097860211493" lon="15.896089667281641"><ele>308.0</ele><time>2026-03-29T09:30:51.864Z</time></trkpt><trkpt lat="41.870940990036615" lon="15.89602053035945"><ele>305.14285714285717</ele><time>2026-03-29T09:30:58.864Z</time></trkpt><trkpt lat="41.870918236568215" lon="15.895931142078696"><ele>302.2857142857143</ele><time>2026-03-29T09:31:06.863Z</time></trkpt><trkpt lat="41.87090707912639" lon="15.8958357043451"><ele>299.42857142857144</ele><time>2026-03-29T09:31:12.863Z</time></trkpt><trkpt lat="41.87089021413086" lon="15.895730091310591"><ele>296.57142857142856</ele><time>2026-03-29T09:31:17.863Z</time></trkpt><trkpt lat="41.870835446318935" lon="15.895679359714219"><ele>293.7142857142857</ele><time>2026-03-29T09:31:21.863Z</time></trkpt><trkpt lat="41.87077937836204" lon="15.895638493168429"><ele>290.8571428571429</ele><time>2026-03-29T09:31:26.863Z</time></trkpt><trkpt lat="41.87085760834593" lon="15.895686501324754"><ele>288.0</ele><time>2026-03-29T09:32:33.863Z</time></trkpt><trkpt lat="41.87090691863517" lon="15.895613379674094"><ele>287.8</ele><time>2026-03-29T09:32:53.863Z</time></trkpt><trkpt lat="41.87090552215573" lon="15.895492920311034"><ele>287.6</ele><time>2026-03-29T09:33:13.862Z</time></trkpt><trkpt lat="41.870983078891115" lon="15.895503334150755"><ele>287.4</ele><time>2026-03-29T09:34:03.863Z</time></trkpt><trkpt lat="41.87104595964155" lon="15.895400105383196"><ele>287.2</ele><time>2026-03-29T09:34:05.863Z</time></trkpt><trkpt lat="41.8710807868711" lon="15.895284861482256"><ele>287.0</ele><time>2026-03-29T09:34:07.862Z</time></trkpt><trkpt lat="41.871081236460995" lon="15.895156895214534"><ele>288.83333333333337</ele><time>2026-03-29T09:34:09.862Z</time></trkpt><trkpt lat="41.87109134529227" lon="15.895068959701195"><ele>290.6666666666667</ele><time>2026-03-29T09:34:11.862Z</time></trkpt><trkpt lat="41.87112014291133" lon="15.894949629554635"><ele>292.5</ele><time>2026-03-29T09:34:14.862Z</time></trkpt><trkpt lat="41.871124295408436" lon="15.89481818249517"><ele>294.3333333333333</ele><time>2026-03-29T09:34:17.862Z</time></trkpt><trkpt lat="41.871093744735255" lon="15.89473997880293"><ele>296.16666666666663</ele><time>2026-03-29T09:34:19.862Z</time></trkpt><trkpt lat="41.87107112557061" lon="15.894634458344983"><ele>298.0</ele><time>2026-03-29T09:34:22.862Z</time></trkpt><trkpt lat="41.87104150208735" lon="15.894516208728653"><ele>298.0</ele><time>2026-03-29T09:34:25.862Z</time></trkpt><trkpt lat="41.87101652038144" lon="15.894414191328798"><ele>298.0</ele><time>2026-03-29T09:34:27.862Z</time></trkpt><trkpt lat="41.87101185032722" lon="15.89430077086357"><ele>298.0</ele><time>2026-03-29T09:34:29.862Z</time></trkpt><trkpt lat="41.871008791076676" lon="15.894211406824143"><ele>298.0</ele><time>2026-03-29T09:34:31.862Z</time></trkpt><trkpt lat="41.87103129145982" lon="15.894131514027096"><ele>298.0</ele><time>2026-03-29T09:34:40.862Z</time></trkpt><trkpt lat="41.87103067455879" lon="15.894045957764813"><ele>298.0</ele><time>2026-03-29T09:35:12.861Z</time></trkpt><trkpt lat="41.87099025650443" lon="15.893940914730562"><ele>298.0</ele><time>2026-03-29T09:35:15.861Z</time></trkpt><trkpt lat="41.87094147514" lon="15.89384628177328"><ele>295.8333333333333</ele><time>2026-03-29T09:35:18.86Z</time></trkpt><trkpt lat="41.87090466502498" lon="15.893771618526289"><ele>293.66666666666663</ele><time>2026-03-29T09:35:20.86Z</time></trkpt><trkpt lat="41.87086975201101" lon="15.893680078197809"><ele>291.5</ele><time>2026-03-29T09:35:22.86Z</time></trkpt><trkpt lat="41.87086207413662" lon="15.8935828749803"><ele>289.3333333333333</ele><time>2026-03-29T09:35:24.86Z</time></trkpt><trkpt lat="41.870860000651874" lon="15.893492795372364"><ele>287.1666666666667</ele><time>2026-03-29T09:35:26.86Z</time></trkpt><trkpt lat="41.87086101970578" lon="15.89334956657505"><ele>285.0</ele><time>2026-03-29T09:35:29.86Z</time></trkpt><trkpt lat="41.87086129907845" lon="15.893229931130119"><ele>285.3333333333333</ele><time>2026-03-29T09:35:31.86Z</time></trkpt><trkpt lat="41.87088457073868" lon="15.893142444713382"><ele>285.6666666666667</ele><time>2026-03-29T09:35:33.86Z</time></trkpt><trkpt lat="41.87094807901959" lon="15.89306750431814"><ele>286.0</ele><time>2026-03-29T09:35:35.86Z</time></trkpt><trkpt lat="41.87098854775212" lon="15.89298627341042"><ele>286.33333333333337</ele><time>2026-03-29T09:35:37.86Z</time></trkpt><trkpt lat="41.87104978162967" lon="15.89291336333551"><ele>286.6666666666667</ele><time>2026-03-29T09:35:39.86Z</time></trkpt><trkpt lat="41.871115181661715" lon="15.892841399460652"><ele>287.0</ele><time>2026-03-29T09:35:41.86Z</time></trkpt><trkpt lat="41.87115537258802" lon="15.892766120690972"><ele>287.0</ele><time>2026-03-29T09:35:43.86Z</time></trkpt><trkpt lat="41.8712117629319" lon="15.892677054663583"><ele>287.0</ele><time>2026-03-29T09:35:45.86Z</time></trkpt><trkpt lat="41.8712621502244" lon="15.892587227081602"><ele>287.0</ele><time>2026-03-29T09:35:47.86Z</time></trkpt><trkpt lat="41.87128714969692" lon="15.892494185055675"><ele>287.0</ele><time>2026-03-29T09:35:49.86Z</time></trkpt><trkpt lat="41.87131871260676" lon="15.892368261555532"><ele>287.0</ele><time>2026-03-29T09:35:51.859Z</time></trkpt><trkpt lat="41.87134289816503" lon="15.892275133068129"><ele>287.0</ele><time>2026-03-29T09:35:53.859Z</time></trkpt><trkpt lat="41.871379651943826" lon="15.89220002816604"><ele>285.83333333333337</ele><time>2026-03-29T09:35:55.859Z</time></trkpt><trkpt lat="41.871403584991974" lon="15.892107176139394"><ele>284.6666666666667</ele><time>2026-03-29T09:35:57.859Z</time></trkpt><trkpt lat="41.87141757415267" lon="15.892008395453606"><ele>283.5</ele><time>2026-03-29T09:35:59.859Z</time></trkpt><trkpt lat="41.8714096257468" lon="15.891896859952324"><ele>282.3333333333333</ele><time>2026-03-29T09:36:02.859Z</time></trkpt><trkpt lat="41.87139159861185" lon="15.891774931590648"><ele>281.16666666666663</ele><time>2026-03-29T09:36:04.859Z</time></trkpt><trkpt lat="41.8714109533326" lon="15.891673522915012"><ele>280.0</ele><time>2026-03-29T09:36:06.861Z</time></trkpt><trkpt lat="41.87145140472092" lon="15.89158494627404"><ele>278.6</ele><time>2026-03-29T09:36:08.86Z</time></trkpt><trkpt lat="41.871467990879395" lon="15.891420596082197"><ele>277.2</ele><time>2026-03-29T09:36:11.861Z</time></trkpt><trkpt lat="41.87146076205782" lon="15.891304303274474"><ele>275.8</ele><time>2026-03-29T09:36:13.861Z</time></trkpt><trkpt lat="41.87145094258981" lon="15.891195628922837"><ele>274.4</ele><time>2026-03-29T09:36:15.861Z</time></trkpt><trkpt lat="41.871439103408306" lon="15.891053371331171"><ele>273.0</ele><time>2026-03-29T09:36:17.861Z</time></trkpt><trkpt lat="41.871427586603275" lon="15.890919736848023"><ele>272.1666666666667</ele><time>2026-03-29T09:36:19.861Z</time></trkpt><trkpt lat="41.87141785017524" lon="15.89081673756813"><ele>271.3333333333333</ele><time>2026-03-29T09:36:21.861Z</time></trkpt><trkpt lat="41.87141791831282" lon="15.890700091410828"><ele>270.5</ele><time>2026-03-29T09:36:23.861Z</time></trkpt><trkpt lat="41.871411530123" lon="15.890605980112602"><ele>269.66666666666663</ele><time>2026-03-29T09:36:25.861Z</time></trkpt><trkpt lat="41.871397312478216" lon="15.890481734543812"><ele>268.8333333333333</ele><time>2026-03-29T09:36:27.861Z</time></trkpt><trkpt lat="41.87140916358042" lon="15.8903676708551"><ele>268.0</ele><time>2026-03-29T09:36:29.86Z</time></trkpt><trkpt lat="41.87139822696422" lon="15.890245142051285"><ele>268.0</ele><time>2026-03-29T09:36:31.86Z</time></trkpt><trkpt lat="41.87142518937127" lon="15.890148625389545"><ele>268.0</ele><time>2026-03-29T09:36:33.86Z</time></trkpt><trkpt lat="41.87146328107593" lon="15.890069006846074"><ele>268.0</ele><time>2026-03-29T09:36:35.86Z</time></trkpt><trkpt lat="41.871507560945844" lon="15.889973865712578"><ele>268.0</ele><time>2026-03-29T09:36:37.86Z</time></trkpt><trkpt lat="41.871562781300774" lon="15.889889973064765"><ele>268.0</ele><time>2026-03-29T09:36:39.86Z</time></trkpt><trkpt lat="41.87160467335939" lon="15.889799871661564"><ele>268.0</ele><time>2026-03-29T09:36:41.86Z</time></trkpt><trkpt lat="41.87164218389908" lon="15.889715965785916"><ele>267.66666666666663</ele><time>2026-03-29T09:36:43.86Z</time></trkpt><trkpt lat="41.871686630072126" lon="15.88965221999617"><ele>267.3333333333333</ele><time>2026-03-29T09:36:45.86Z</time></trkpt><trkpt lat="41.87175768780259" lon="15.88956060352323"><ele>267.0</ele><time>2026-03-29T09:36:47.86Z</time></trkpt><trkpt lat="41.87185176124719" lon="15.889492351628837"><ele>266.6666666666667</ele><time>2026-03-29T09:36:49.86Z</time></trkpt><trkpt lat="41.87192713712963" lon="15.889431137438443"><ele>266.33333333333337</ele><time>2026-03-29T09:36:51.86Z</time></trkpt><trkpt lat="41.87200032807213" lon="15.889396278024781"><ele>266.0</ele><time>2026-03-29T09:36:53.86Z</time></trkpt><trkpt lat="41.87208266728586" lon="15.889354625923664"><ele>265.33333333333337</ele><time>2026-03-29T09:36:55.86Z</time></trkpt><trkpt lat="41.8721517195642" lon="15.889324208116568"><ele>264.6666666666667</ele><time>2026-03-29T09:36:57.86Z</time></trkpt><trkpt lat="41.8722423488324" lon="15.88927748380069"><ele>264.0</ele><time>2026-03-29T09:36:59.86Z</time></trkpt><trkpt lat="41.87233991845562" lon="15.889232587647271"><ele>263.3333333333333</ele><time>2026-03-29T09:37:01.86Z</time></trkpt><trkpt lat="41.87241051876099" lon="15.889183941749065"><ele>262.66666666666663</ele><time>2026-03-29T09:37:03.86Z</time></trkpt><trkpt lat="41.87246756816091" lon="15.889118694363287"><ele>262.0</ele><time>2026-03-29T09:37:05.859Z</time></trkpt><trkpt lat="41.87249840748793" lon="15.889012010803803"><ele>262.0</ele><time>2026-03-29T09:37:07.859Z</time></trkpt><trkpt lat="41.87251657191666" lon="15.888899424331829"><ele>262.0</ele><time>2026-03-29T09:37:09.859Z</time></trkpt><trkpt lat="41.87252714500648" lon="15.88879491614218"><ele>262.0</ele><time>2026-03-29T09:37:11.859Z</time></trkpt><trkpt lat="41.87253460468708" lon="15.888697029203692"><ele>262.0</ele><time>2026-03-29T09:37:13.859Z</time></trkpt><trkpt lat="41.87253753845438" lon="15.888612109951845"><ele>262.0</ele><time>2026-03-29T09:37:15.859Z</time></trkpt><trkpt lat="41.872528074961764" lon="15.888525634062693"><ele>262.0</ele><time>2026-03-29T09:37:17.859Z</time></trkpt><trkpt lat="41.87252721856647" lon="15.888437514772013"><ele>262.0</ele><time>2026-03-29T09:37:19.859Z</time></trkpt><trkpt lat="41.87250186295193" lon="15.888356548282745"><ele>261.66666666666663</ele><time>2026-03-29T09:37:21.859Z</time></trkpt><trkpt lat="41.87245666438224" lon="15.88826109416501"><ele>261.3333333333333</ele><time>2026-03-29T09:37:24.859Z</time></trkpt><trkpt lat="41.8724388402986" lon="15.888175813789546"><ele>261.0</ele><time>2026-03-29T09:37:27.859Z</time></trkpt><trkpt lat="41.87237506430306" lon="15.888118210863173"><ele>260.6666666666667</ele><time>2026-03-29T09:37:30.859Z</time></trkpt><trkpt lat="41.87231795948131" lon="15.88802792533353"><ele>260.33333333333337</ele><time>2026-03-29T09:37:33.859Z</time></trkpt><trkpt lat="41.87223953923964" lon="15.887961757976784"><ele>260.0</ele><time>2026-03-29T09:37:36.859Z</time></trkpt><trkpt lat="41.87217367091352" lon="15.887888094554448"><ele>260.0</ele><time>2026-03-29T09:37:39.858Z</time></trkpt><trkpt lat="41.87210883400119" lon="15.887836373486461"><ele>260.0</ele><time>2026-03-29T09:37:41.858Z</time></trkpt><trkpt lat="41.872058319712075" lon="15.887773063786456"><ele>260.0</ele><time>2026-03-29T09:37:43.858Z</time></trkpt><trkpt lat="41.87201220185656" lon="15.887714992833194"><ele>260.0</ele><time>2026-03-29T09:37:45.858Z</time></trkpt><trkpt lat="41.87194155773981" lon="15.887622223135605"><ele>260.0</ele><time>2026-03-29T09:37:47.858Z</time></trkpt><trkpt lat="41.87188643946028" lon="15.887543405529772"><ele>260.0</ele><time>2026-03-29T09:37:49.858Z</time></trkpt><trkpt lat="41.87187545991224" lon="15.887428007637414"><ele>261.0</ele><time>2026-03-29T09:37:51.858Z</time></trkpt><trkpt lat="41.871873476212464" lon="15.887326206131746"><ele>262.0</ele><time>2026-03-29T09:37:53.858Z</time></trkpt><trkpt lat="41.87191563731578" lon="15.887238054911794"><ele>263.0</ele><time>2026-03-29T09:37:55.858Z</time></trkpt><trkpt lat="41.87191672993698" lon="15.887121524607808"><ele>264.0</ele><time>2026-03-29T09:37:58.858Z</time></trkpt><trkpt lat="41.87188550687562" lon="15.887026291190185"><ele>265.0</ele><time>2026-03-29T09:38:00.858Z</time></trkpt><trkpt lat="41.871854189636565" lon="15.886908678447167"><ele>266.0</ele><time>2026-03-29T09:38:02.858Z</time></trkpt><trkpt lat="41.87185069763868" lon="15.886798996490759"><ele>266.5</ele><time>2026-03-29T09:38:04.858Z</time></trkpt><trkpt lat="41.87182616234684" lon="15.886690906654392"><ele>267.0</ele><time>2026-03-29T09:38:06.858Z</time></trkpt><trkpt lat="41.871825966267394" lon="15.886604103520982"><ele>267.5</ele><time>2026-03-29T09:38:08.858Z</time></trkpt><trkpt lat="41.871806109932166" lon="15.886492179063474"><ele>268.0</ele><time>2026-03-29T09:38:10.858Z</time></trkpt><trkpt lat="41.87180957179961" lon="15.886381377061488"><ele>268.5</ele><time>2026-03-29T09:38:12.859Z</time></trkpt><trkpt lat="41.87181055709892" lon="15.886254189827515"><ele>269.0</ele><time>2026-03-29T09:38:14.86Z</time></trkpt><trkpt lat="41.871795156637454" lon="15.886114712607828"><ele>269.0</ele><time>2026-03-29T09:38:16.859Z</time></trkpt><trkpt lat="41.871799707129526" lon="15.886016387988787"><ele>269.0</ele><time>2026-03-29T09:38:18.86Z</time></trkpt><trkpt lat="41.87182578511916" lon="15.885898284257742"><ele>269.0</ele><time>2026-03-29T09:38:20.859Z</time></trkpt><trkpt lat="41.87182855935822" lon="15.88578739193341"><ele>269.0</ele><time>2026-03-29T09:38:22.859Z</time></trkpt><trkpt lat="41.87182424419122" lon="15.885695457489867"><ele>269.0</ele><time>2026-03-29T09:38:24.859Z</time></trkpt><trkpt lat="41.87178439035924" lon="15.885585648826268"><ele>269.0</ele><time>2026-03-29T09:38:26.859Z</time></trkpt><trkpt lat="41.87179254221665" lon="15.885463706235837"><ele>268.1666666666667</ele><time>2026-03-29T09:38:28.859Z</time></trkpt><trkpt lat="41.87182192098155" lon="15.88536351495184"><ele>267.33333333333337</ele><time>2026-03-29T09:38:30.859Z</time></trkpt><trkpt lat="41.87184780170133" lon="15.885252382012796"><ele>266.5</ele><time>2026-03-29T09:38:32.859Z</time></trkpt><trkpt lat="41.87186020036775" lon="15.885163488924993"><ele>265.6666666666667</ele><time>2026-03-29T09:38:34.859Z</time></trkpt><trkpt lat="41.87186790098503" lon="15.885057221005074"><ele>264.8333333333333</ele><time>2026-03-29T09:38:36.859Z</time></trkpt><trkpt lat="41.87190394245356" lon="15.884984678700878"><ele>264.0</ele><time>2026-03-29T09:38:37.859Z</time></trkpt><trkpt lat="41.87194371032676" lon="15.884899865689587"><ele>261.59999999999997</ele><time>2026-03-29T09:38:38.859Z</time></trkpt><trkpt lat="41.871995566357846" lon="15.884804298859395"><ele>259.2</ele><time>2026-03-29T09:38:39.859Z</time></trkpt><trkpt lat="41.872056397445895" lon="15.884668838881836"><ele>256.79999999999995</ele><time>2026-03-29T09:38:41.859Z</time></trkpt><trkpt lat="41.87207353050076" lon="15.884572223532599"><ele>254.39999999999998</ele><time>2026-03-29T09:38:42.859Z</time></trkpt><trkpt lat="41.87212949306971" lon="15.884456748324583"><ele>252.0</ele><time>2026-03-29T09:38:44.859Z</time></trkpt><trkpt lat="41.872174823845164" lon="15.884387699207204"><ele>252.0</ele><time>2026-03-29T09:38:45.859Z</time></trkpt><trkpt lat="41.87223776346374" lon="15.88426707883195"><ele>252.0</ele><time>2026-03-29T09:38:47.859Z</time></trkpt><trkpt lat="41.87231317062312" lon="15.884202049240063"><ele>252.0</ele><time>2026-03-29T09:38:49.859Z</time></trkpt><trkpt lat="41.87241303793009" lon="15.88415698009595"><ele>252.0</ele><time>2026-03-29T09:38:51.859Z</time></trkpt><trkpt lat="41.87251263169235" lon="15.884105093294309"><ele>252.0</ele><time>2026-03-29T09:38:53.859Z</time></trkpt><trkpt lat="41.872580827577494" lon="15.884037599436288"><ele>255.0</ele><time>2026-03-29T09:38:55.859Z</time></trkpt><trkpt lat="41.87266056086622" lon="15.88392280686758"><ele>258.0</ele><time>2026-03-29T09:38:57.859Z</time></trkpt><trkpt lat="41.872692406123676" lon="15.883849714048143"><ele>261.0</ele><time>2026-03-29T09:38:58.859Z</time></trkpt><trkpt lat="41.872741489263205" lon="15.883742773996707"><ele>264.0</ele><time>2026-03-29T09:39:00.858Z</time></trkpt><trkpt lat="41.8728129297627" lon="15.88362540597102"><ele>267.0</ele><time>2026-03-29T09:39:02.858Z</time></trkpt><trkpt lat="41.872858114340424" lon="15.883564734588019"><ele>267.0</ele><time>2026-03-29T09:39:03.858Z</time></trkpt><trkpt lat="41.87292018256993" lon="15.883454247848865"><ele>267.0</ele><time>2026-03-29T09:39:05.858Z</time></trkpt><trkpt lat="41.87297378687268" lon="15.883326823510641"><ele>267.0</ele><time>2026-03-29T09:39:07.858Z</time></trkpt><trkpt lat="41.873031502132726" lon="15.8832259472621"><ele>267.0</ele><time>2026-03-29T09:39:09.858Z</time></trkpt><trkpt lat="41.87308630216283" lon="15.88310275163815"><ele>267.0</ele><time>2026-03-29T09:39:11.858Z</time></trkpt><trkpt lat="41.87312829770605" lon="15.883001687062956"><ele>263.4</ele><time>2026-03-29T09:39:13.858Z</time></trkpt><trkpt lat="41.8731747624115" lon="15.882886847293406"><ele>259.79999999999995</ele><time>2026-03-29T09:39:15.858Z</time></trkpt><trkpt lat="41.87324040188397" lon="15.882778411968953"><ele>256.2</ele><time>2026-03-29T09:39:17.858Z</time></trkpt><trkpt lat="41.87327260732053" lon="15.882680239358509"><ele>252.6</ele><time>2026-03-29T09:39:19.858Z</time></trkpt><trkpt lat="41.87335071084722" lon="15.882553712765377"><ele>249.0</ele><time>2026-03-29T09:39:21.858Z</time></trkpt><trkpt lat="41.87339568223433" lon="15.882493849998795"><ele>250.0</ele><time>2026-03-29T09:39:22.858Z</time></trkpt><trkpt lat="41.87346338663807" lon="15.88242641051227"><ele>250.99999999999997</ele><time>2026-03-29T09:39:24.858Z</time></trkpt><trkpt lat="41.87353270042543" lon="15.882319127142795"><ele>251.99999999999997</ele><time>2026-03-29T09:39:26.858Z</time></trkpt><trkpt lat="41.873607301405436" lon="15.882212575140079"><ele>253.0</ele><time>2026-03-29T09:39:28.858Z</time></trkpt><trkpt lat="41.87366633931264" lon="15.882161782141626"><ele>254.0</ele><time>2026-03-29T09:39:29.858Z</time></trkpt><trkpt lat="41.87375023799317" lon="15.882082784363964"><ele>254.0</ele><time>2026-03-29T09:39:31.858Z</time></trkpt><trkpt lat="41.87379632146029" lon="15.882010082058565"><ele>253.99999999999997</ele><time>2026-03-29T09:39:32.858Z</time></trkpt><trkpt lat="41.873849495624725" lon="15.881879372217943"><ele>253.99999999999997</ele><time>2026-03-29T09:39:34.858Z</time></trkpt><trkpt lat="41.87391946072705" lon="15.881727425802364"><ele>254.0</ele><time>2026-03-29T09:39:36.857Z</time></trkpt><trkpt lat="41.8739686067141" lon="15.88163178274381"><ele>254.0</ele><time>2026-03-29T09:39:37.857Z</time></trkpt><trkpt lat="41.874020609989365" lon="15.881541354703785"><ele>254.50000000000003</ele><time>2026-03-29T09:39:38.857Z</time></trkpt><trkpt lat="41.87408399825136" lon="15.881454628994582"><ele>255.0</ele><time>2026-03-29T09:39:39.857Z</time></trkpt><trkpt lat="41.87413818302983" lon="15.881336083027618"><ele>255.5</ele><time>2026-03-29T09:39:40.857Z</time></trkpt><trkpt lat="41.874181091793524" lon="15.88125366477775"><ele>256.0</ele><time>2026-03-29T09:39:41.857Z</time></trkpt><trkpt lat="41.87422298358054" lon="15.881167546085601"><ele>256.5</ele><time>2026-03-29T09:39:42.857Z</time></trkpt><trkpt lat="41.87427134733276" lon="15.881100721147128"><ele>257.0</ele><time>2026-03-29T09:39:43.857Z</time></trkpt><trkpt lat="41.874325304217365" lon="15.88102493313133"><ele>257.0</ele><time>2026-03-29T09:39:44.857Z</time></trkpt><trkpt lat="41.874390908128476" lon="15.88093775755107"><ele>257.0</ele><time>2026-03-29T09:39:45.857Z</time></trkpt><trkpt lat="41.87441905513482" lon="15.88085521236685"><ele>257.0</ele><time>2026-03-29T09:39:46.857Z</time></trkpt><trkpt lat="41.87450022785196" lon="15.880720885968094"><ele>257.0</ele><time>2026-03-29T09:39:48.857Z</time></trkpt><trkpt lat="41.87457409393166" lon="15.88066974960891"><ele>257.0</ele><time>2026-03-29T09:39:49.857Z</time></trkpt><trkpt lat="41.8746405930037" lon="15.880644642994417"><ele>257.0</ele><time>2026-03-29T09:39:50.857Z</time></trkpt><trkpt lat="41.87470224410363" lon="15.88060700362266"><ele>254.83333333333334</ele><time>2026-03-29T09:39:51.857Z</time></trkpt><trkpt lat="41.87480564836254" lon="15.880543177895873"><ele>252.66666666666669</ele><time>2026-03-29T09:39:53.857Z</time></trkpt><trkpt lat="41.87487501683681" lon="15.880538525622908"><ele>250.5</ele><time>2026-03-29T09:39:54.857Z</time></trkpt><trkpt lat="41.87495421085999" lon="15.880543256370062"><ele>248.33333333333331</ele><time>2026-03-29T09:39:55.857Z</time></trkpt><trkpt lat="41.875037259305586" lon="15.880549586910519"><ele>246.16666666666666</ele><time>2026-03-29T09:39:56.857Z</time></trkpt><trkpt lat="41.875105701123935" lon="15.880557959616883"><ele>244.0</ele><time>2026-03-29T09:39:57.857Z</time></trkpt><trkpt lat="41.87517077524866" lon="15.880579558429998"><ele>243.28571428571425</ele><time>2026-03-29T09:39:58.857Z</time></trkpt><trkpt lat="41.87524105631645" lon="15.880588263176518"><ele>242.57142857142856</ele><time>2026-03-29T09:39:59.857Z</time></trkpt><trkpt lat="41.875303894512335" lon="15.880599883668845"><ele>241.85714285714286</ele><time>2026-03-29T09:40:00.857Z</time></trkpt><trkpt lat="41.875374741134884" lon="15.880608465922341"><ele>241.14285714285714</ele><time>2026-03-29T09:40:01.857Z</time></trkpt><trkpt lat="41.87544877465414" lon="15.88062675980499"><ele>240.42857142857144</ele><time>2026-03-29T09:40:02.857Z</time></trkpt><trkpt lat="41.87552254234377" lon="15.880640125414105"><ele>239.71428571428575</ele><time>2026-03-29T09:40:03.857Z</time></trkpt><trkpt lat="41.87559149855511" lon="15.880653736880992"><ele>239.00000000000003</ele><time>2026-03-29T09:40:04.857Z</time></trkpt><trkpt lat="41.875656692003254" lon="15.88066704584277"><ele>239.0</ele><time>2026-03-29T09:40:05.857Z</time></trkpt><trkpt lat="41.87576486315555" lon="15.88068078028455"><ele>238.99999999999997</ele><time>2026-03-29T09:40:07.857Z</time></trkpt><trkpt lat="41.87585256962656" lon="15.880669887744842"><ele>238.99999999999997</ele><time>2026-03-29T09:40:09.857Z</time></trkpt><trkpt lat="41.87593837630103" lon="15.880651719720609"><ele>239.0</ele><time>2026-03-29T09:40:11.856Z</time></trkpt><trkpt lat="41.876051822641635" lon="15.880655989786646"><ele>239.0</ele><time>2026-03-29T09:40:13.856Z</time></trkpt><trkpt lat="41.87615844259358" lon="15.8806698446743"><ele>238.79999999999998</ele><time>2026-03-29T09:40:15.856Z</time></trkpt><trkpt lat="41.87625958746748" lon="15.88068564459969"><ele>238.59999999999997</ele><time>2026-03-29T09:40:17.856Z</time></trkpt><trkpt lat="41.87637099507967" lon="15.880763120063019"><ele>238.4</ele><time>2026-03-29T09:40:19.858Z</time></trkpt><trkpt lat="41.8764780467794" lon="15.880780201879281"><ele>238.2</ele><time>2026-03-29T09:40:21.858Z</time></trkpt><trkpt lat="41.876538671421706" lon="15.880754461943736"><ele>238.0</ele><time>2026-03-29T09:40:22.858Z</time></trkpt><trkpt lat="41.87664219219353" lon="15.880680272552452"><ele>238.0</ele><time>2026-03-29T09:40:24.858Z</time></trkpt><trkpt lat="41.876683293465554" lon="15.880542142801785"><ele>238.0</ele><time>2026-03-29T09:40:26.858Z</time></trkpt><trkpt lat="41.876689876808534" lon="15.880458000786827"><ele>238.0</ele><time>2026-03-29T09:40:27.857Z</time></trkpt><trkpt lat="41.87669054393177" lon="15.880318651735395"><ele>238.0</ele><time>2026-03-29T09:40:29.858Z</time></trkpt><trkpt lat="41.87667468830885" lon="15.880173192871451"><ele>238.0</ele><time>2026-03-29T09:40:31.858Z</time></trkpt><trkpt lat="41.87668263315499" lon="15.880054071604965"><ele>236.99999999999997</ele><time>2026-03-29T09:40:33.858Z</time></trkpt><trkpt lat="41.876694200093" lon="15.87991588476057"><ele>236.0</ele><time>2026-03-29T09:40:35.858Z</time></trkpt><trkpt lat="41.876723897672186" lon="15.879831828820016"><ele>235.0</ele><time>2026-03-29T09:40:36.858Z</time></trkpt><trkpt lat="41.87676855805688" lon="15.879732894494445"><ele>234.0</ele><time>2026-03-29T09:40:37.858Z</time></trkpt><trkpt lat="41.8768145950492" lon="15.879642550268494"><ele>232.99999999999997</ele><time>2026-03-29T09:40:38.858Z</time></trkpt><trkpt lat="41.87687552370698" lon="15.879564550955777"><ele>232.0</ele><time>2026-03-29T09:40:39.858Z</time></trkpt><trkpt lat="41.87691366165396" lon="15.879495651803133"><ele>234.6</ele><time>2026-03-29T09:40:40.858Z</time></trkpt><trkpt lat="41.876950989938635" lon="15.879421945169485"><ele>237.2</ele><time>2026-03-29T09:40:41.858Z</time></trkpt><trkpt lat="41.87705321301889" lon="15.879322771721686"><ele>239.8</ele><time>2026-03-29T09:40:43.858Z</time></trkpt><trkpt lat="41.87712255049396" lon="15.879277456071952"><ele>242.4</ele><time>2026-03-29T09:40:44.858Z</time></trkpt><trkpt lat="41.87718227391966" lon="15.879227643064569"><ele>245.0</ele><time>2026-03-29T09:40:45.858Z</time></trkpt><trkpt lat="41.87729354692586" lon="15.879166573882976"><ele>245.0</ele><time>2026-03-29T09:40:47.858Z</time></trkpt><trkpt lat="41.87736078496826" lon="15.879166821252321"><ele>245.0</ele><time>2026-03-29T09:40:48.858Z</time></trkpt><trkpt lat="41.87745507861172" lon="15.879143363647543"><ele>245.0</ele><time>2026-03-29T09:40:50.858Z</time></trkpt><trkpt lat="41.877577659838714" lon="15.879081377397393"><ele>245.0</ele><time>2026-03-29T09:40:52.857Z</time></trkpt><trkpt lat="41.87763660261891" lon="15.87905085725638"><ele>245.0</ele><time>2026-03-29T09:40:53.857Z</time></trkpt><trkpt lat="41.87773920394269" lon="15.878936131214015"><ele>247.50000000000003</ele><time>2026-03-29T09:40:55.857Z</time></trkpt><trkpt lat="41.877790822000854" lon="15.87887526487567"><ele>250.0</ele><time>2026-03-29T09:40:56.857Z</time></trkpt><trkpt lat="41.87785254921045" lon="15.87881344397524"><ele>252.5</ele><time>2026-03-29T09:40:57.857Z</time></trkpt><trkpt lat="41.8779099757595" lon="15.878740686148355"><ele>255.0</ele><time>2026-03-29T09:40:58.857Z</time></trkpt><trkpt lat="41.877966706410945" lon="15.87866006239822"><ele>257.5</ele><time>2026-03-29T09:40:59.857Z</time></trkpt><trkpt lat="41.878027284535676" lon="15.878571831597464"><ele>260.0</ele><time>2026-03-29T09:41:00.857Z</time></trkpt><trkpt lat="41.878075239866746" lon="15.878495628683853"><ele>258.83333333333337</ele><time>2026-03-29T09:41:01.857Z</time></trkpt><trkpt lat="41.87811780632216" lon="15.87841232866643"><ele>257.6666666666667</ele><time>2026-03-29T09:41:02.857Z</time></trkpt><trkpt lat="41.878161042994655" lon="15.878338584064776"><ele>256.5</ele><time>2026-03-29T09:41:03.857Z</time></trkpt><trkpt lat="41.8781975038892" lon="15.878264021879476"><ele>255.33333333333331</ele><time>2026-03-29T09:41:04.857Z</time></trkpt><trkpt lat="41.87824382756844" lon="15.878168061388035"><ele>254.16666666666666</ele><time>2026-03-29T09:41:05.857Z</time></trkpt><trkpt lat="41.878292359371834" lon="15.878069849794626"><ele>253.0</ele><time>2026-03-29T09:41:06.857Z</time></trkpt><trkpt lat="41.8783530203142" lon="15.87799239427722"><ele>252.99999999999997</ele><time>2026-03-29T09:41:07.857Z</time></trkpt><trkpt lat="41.87841340136469" lon="15.877890788983736"><ele>253.0</ele><time>2026-03-29T09:41:08.857Z</time></trkpt><trkpt lat="41.8784641772569" lon="15.877791898119186"><ele>253.0</ele><time>2026-03-29T09:41:09.857Z</time></trkpt><trkpt lat="41.87850316509224" lon="15.877720438752082"><ele>253.0</ele><time>2026-03-29T09:41:10.857Z</time></trkpt><trkpt lat="41.87854348578282" lon="15.877637308120875"><ele>252.99999999999997</ele><time>2026-03-29T09:41:11.857Z</time></trkpt><trkpt lat="41.878546423343934" lon="15.877548040862024"><ele>253.0</ele><time>2026-03-29T09:41:12.857Z</time></trkpt><trkpt lat="41.87855636129094" lon="15.87745093409751"><ele>255.14285714285717</ele><time>2026-03-29T09:41:13.857Z</time></trkpt><trkpt lat="41.87857068551693" lon="15.877350727259762"><ele>257.2857142857143</ele><time>2026-03-29T09:41:14.857Z</time></trkpt><trkpt lat="41.87857707663104" lon="15.877259974921575"><ele>259.42857142857144</ele><time>2026-03-29T09:41:15.857Z</time></trkpt><trkpt lat="41.878588163761684" lon="15.877162250561847"><ele>261.57142857142856</ele><time>2026-03-29T09:41:16.857Z</time></trkpt><trkpt lat="41.87860964965924" lon="15.877077761866156"><ele>263.7142857142857</ele><time>2026-03-29T09:41:17.857Z</time></trkpt><trkpt lat="41.87862727079975" lon="15.876982229986178"><ele>265.8571428571429</ele><time>2026-03-29T09:41:18.857Z</time></trkpt><trkpt lat="41.87864970351557" lon="15.87690287439407"><ele>268.0</ele><time>2026-03-29T09:41:19.857Z</time></trkpt><trkpt lat="41.878656146539875" lon="15.876784116399623"><ele>267.25</ele><time>2026-03-29T09:41:21.857Z</time></trkpt><trkpt lat="41.878589863301386" lon="15.876697650939237"><ele>266.5</ele><time>2026-03-29T09:41:23.857Z</time></trkpt><trkpt lat="41.87848110767859" lon="15.876622910796094"><ele>265.75</ele><time>2026-03-29T09:41:25.856Z</time></trkpt><trkpt lat="41.87836630066811" lon="15.876565966047856"><ele>265.0</ele><time>2026-03-29T09:41:27.856Z</time></trkpt><trkpt lat="41.87824513671147" lon="15.876535029717585"><ele>263.0</ele><time>2026-03-29T09:41:29.856Z</time></trkpt><trkpt lat="41.87817617243126" lon="15.87652004070518"><ele>261.0</ele><time>2026-03-29T09:41:30.856Z</time></trkpt><trkpt lat="41.878109369518015" lon="15.876499147568122"><ele>259.0</ele><time>2026-03-29T09:41:31.856Z</time></trkpt><trkpt lat="41.878051124352886" lon="15.876464149214396"><ele>257.0</ele><time>2026-03-29T09:41:32.856Z</time></trkpt><trkpt lat="41.877921110517555" lon="15.876448225095475"><ele>254.99999999999997</ele><time>2026-03-29T09:41:34.856Z</time></trkpt><trkpt lat="41.87785659862868" lon="15.876440323670119"><ele>253.0</ele><time>2026-03-29T09:41:35.856Z</time></trkpt><trkpt lat="41.877774773882685" lon="15.876430301767503"><ele>253.00000000000003</ele><time>2026-03-29T09:41:36.856Z</time></trkpt><trkpt lat="41.87770381907063" lon="15.876421027389101"><ele>253.0</ele><time>2026-03-29T09:41:37.856Z</time></trkpt><trkpt lat="41.87763127780522" lon="15.876411063280065"><ele>253.00000000000003</ele><time>2026-03-29T09:41:38.856Z</time></trkpt><trkpt lat="41.8775672919009" lon="15.876402274316375"><ele>253.00000000000003</ele><time>2026-03-29T09:41:39.856Z</time></trkpt><trkpt lat="41.87750092047717" lon="15.876404498674686"><ele>253.0</ele><time>2026-03-29T09:41:40.856Z</time></trkpt><trkpt lat="41.877430015840275" lon="15.87638549430827"><ele>253.00000000000003</ele><time>2026-03-29T09:41:41.856Z</time></trkpt><trkpt lat="41.877353333129" lon="15.876376473331726"><ele>253.00000000000003</ele><time>2026-03-29T09:41:42.856Z</time></trkpt><trkpt lat="41.87728005562097" lon="15.876355755617244"><ele>250.83333333333331</ele><time>2026-03-29T09:41:43.856Z</time></trkpt><trkpt lat="41.87720904935639" lon="15.876327938392231"><ele>248.66666666666666</ele><time>2026-03-29T09:41:44.856Z</time></trkpt><trkpt lat="41.87712751141046" lon="15.876295914933074"><ele>246.5</ele><time>2026-03-29T09:41:45.856Z</time></trkpt><trkpt lat="41.87705802264191" lon="15.876276130789643"><ele>244.33333333333331</ele><time>2026-03-29T09:41:46.856Z</time></trkpt><trkpt lat="41.87699161887128" lon="15.876248393194144"><ele>242.16666666666666</ele><time>2026-03-29T09:41:47.856Z</time></trkpt><trkpt lat="41.876927140673466" lon="15.876202546840751"><ele>240.0</ele><time>2026-03-29T09:41:48.856Z</time></trkpt><trkpt lat="41.87685885338545" lon="15.876153604244697"><ele>240.0</ele><time>2026-03-29T09:41:49.856Z</time></trkpt><trkpt lat="41.87677970700222" lon="15.87610357958389"><ele>240.0</ele><time>2026-03-29T09:41:50.856Z</time></trkpt><trkpt lat="41.87670682869278" lon="15.876054012124245"><ele>240.0</ele><time>2026-03-29T09:41:51.856Z</time></trkpt><trkpt lat="41.87664861393227" lon="15.876000052915908"><ele>240.0</ele><time>2026-03-29T09:41:52.856Z</time></trkpt><trkpt lat="41.87654946696968" lon="15.875884526288656"><ele>240.0</ele><time>2026-03-29T09:41:54.856Z</time></trkpt><trkpt lat="41.87647739652157" lon="15.875800089521155"><ele>240.0</ele><time>2026-03-29T09:41:55.856Z</time></trkpt><trkpt lat="41.8764235890449" lon="15.875747354756111"><ele>240.0</ele><time>2026-03-29T09:41:56.856Z</time></trkpt><trkpt lat="41.876331587007726" lon="15.875623586436934"><ele>240.0</ele><time>2026-03-29T09:41:58.856Z</time></trkpt><trkpt lat="41.87627183282279" lon="15.875547069938879"><ele>240.0</ele><time>2026-03-29T09:41:59.856Z</time></trkpt><trkpt lat="41.87622080333641" lon="15.875478059667953"><ele>240.0</ele><time>2026-03-29T09:42:00.855Z</time></trkpt><trkpt lat="41.8761602151019" lon="15.875387575061795"><ele>240.0</ele><time>2026-03-29T09:42:01.855Z</time></trkpt><trkpt lat="41.87611056430143" lon="15.875304135613481"><ele>240.0</ele><time>2026-03-29T09:42:02.855Z</time></trkpt><trkpt lat="41.8760546877358" lon="15.875236368623163"><ele>240.0</ele><time>2026-03-29T09:42:03.855Z</time></trkpt><trkpt lat="41.87601822309812" lon="15.87516219030293"><ele>240.0</ele><time>2026-03-29T09:42:04.855Z</time></trkpt><trkpt lat="41.87597418722094" lon="15.875085367311803"><ele>240.0</ele><time>2026-03-29T09:42:05.855Z</time></trkpt><trkpt lat="41.875926428897955" lon="15.8750199846794"><ele>240.0</ele><time>2026-03-29T09:42:06.855Z</time></trkpt><trkpt lat="41.87588208525287" lon="15.874941634004102"><ele>240.0</ele><time>2026-03-29T09:42:07.855Z</time></trkpt><trkpt lat="41.87582967323" lon="15.874849984891325"><ele>240.0</ele><time>2026-03-29T09:42:08.855Z</time></trkpt><trkpt lat="41.87579390147725" lon="15.874742156485944"><ele>239.16666666666666</ele><time>2026-03-29T09:42:09.855Z</time></trkpt><trkpt lat="41.87574245157823" lon="15.874670547208085"><ele>238.33333333333331</ele><time>2026-03-29T09:42:10.855Z</time></trkpt><trkpt lat="41.875683345240034" lon="15.87451635754985"><ele>237.5</ele><time>2026-03-29T09:42:12.855Z</time></trkpt><trkpt lat="41.875654706668904" lon="15.874432601379599"><ele>236.66666666666666</ele><time>2026-03-29T09:42:13.855Z</time></trkpt><trkpt lat="41.87562279534065" lon="15.874347347740962"><ele>235.83333333333331</ele><time>2026-03-29T09:42:14.855Z</time></trkpt><trkpt lat="41.87560066451438" lon="15.874254840938226"><ele>235.0</ele><time>2026-03-29T09:42:15.855Z</time></trkpt><trkpt lat="41.87557215652911" lon="15.874163451993727"><ele>234.99999999999997</ele><time>2026-03-29T09:42:16.855Z</time></trkpt><trkpt lat="41.87554063297046" lon="15.874073637747452"><ele>235.0</ele><time>2026-03-29T09:42:17.855Z</time></trkpt><trkpt lat="41.87552581884191" lon="15.873987322707201"><ele>235.0</ele><time>2026-03-29T09:42:18.855Z</time></trkpt><trkpt lat="41.87550492553611" lon="15.873821563875259"><ele>235.0</ele><time>2026-03-29T09:42:20.855Z</time></trkpt><trkpt lat="41.875500422486795" lon="15.873727577960924"><ele>234.99999999999997</ele><time>2026-03-29T09:42:21.855Z</time></trkpt><trkpt lat="41.875493725565235" lon="15.873639491691012"><ele>235.0</ele><time>2026-03-29T09:42:22.855Z</time></trkpt><trkpt lat="41.87549071672983" lon="15.873554739203263"><ele>235.0</ele><time>2026-03-29T09:42:23.856Z</time></trkpt><trkpt lat="41.87549139573171" lon="15.873465274698619"><ele>234.99999999999997</ele><time>2026-03-29T09:42:24.856Z</time></trkpt><trkpt lat="41.875489361387984" lon="15.873374165948968"><ele>235.0</ele><time>2026-03-29T09:42:25.856Z</time></trkpt><trkpt lat="41.87548932462802" lon="15.873283183952314"><ele>235.0</ele><time>2026-03-29T09:42:26.856Z</time></trkpt><trkpt lat="41.87550284635655" lon="15.87317648974417"><ele>234.99999999999997</ele><time>2026-03-29T09:42:27.856Z</time></trkpt><trkpt lat="41.875525170701" lon="15.8730699405705"><ele>235.0</ele><time>2026-03-29T09:42:28.856Z</time></trkpt><trkpt lat="41.87554254122038" lon="15.872971052411572"><ele>235.0</ele><time>2026-03-29T09:42:29.857Z</time></trkpt><trkpt lat="41.875565608239334" lon="15.872862772067473"><ele>234.85714285714283</ele><time>2026-03-29T09:42:30.856Z</time></trkpt><trkpt lat="41.87558285367186" lon="15.872767292408065"><ele>234.7142857142857</ele><time>2026-03-29T09:42:31.856Z</time></trkpt><trkpt lat="41.87560478570987" lon="15.872672230276006"><ele>234.57142857142856</ele><time>2026-03-29T09:42:32.856Z</time></trkpt><trkpt lat="41.875626793960315" lon="15.872582002514491"><ele>234.42857142857144</ele><time>2026-03-29T09:42:33.856Z</time></trkpt><trkpt lat="41.875645121243906" lon="15.872491403486615"><ele>234.2857142857143</ele><time>2026-03-29T09:42:34.856Z</time></trkpt><trkpt lat="41.87566594224295" lon="15.872395616182777"><ele>234.14285714285717</ele><time>2026-03-29T09:42:35.856Z</time></trkpt><trkpt lat="41.87568584667071" lon="15.872303095007098"><ele>234.0</ele><time>2026-03-29T09:42:36.856Z</time></trkpt><trkpt lat="41.875706120217245" lon="15.87221335510491"><ele>232.14285714285717</ele><time>2026-03-29T09:42:37.856Z</time></trkpt><trkpt lat="41.875723225235134" lon="15.872118784787787"><ele>230.2857142857143</ele><time>2026-03-29T09:42:38.856Z</time></trkpt><trkpt lat="41.87575091085082" lon="15.872030919604683"><ele>228.42857142857144</ele><time>2026-03-29T09:42:39.856Z</time></trkpt><trkpt lat="41.87577646869903" lon="15.871938596946935"><ele>226.57142857142858</ele><time>2026-03-29T09:42:40.856Z</time></trkpt><trkpt lat="41.87579665933798" lon="15.871846937278148"><ele>224.71428571428572</ele><time>2026-03-29T09:42:41.856Z</time></trkpt><trkpt lat="41.87582894997304" lon="15.871764742671301"><ele>222.8571428571429</ele><time>2026-03-29T09:42:42.856Z</time></trkpt><trkpt lat="41.87586101749913" lon="15.871677795399314"><ele>221.0</ele><time>2026-03-29T09:42:43.856Z</time></trkpt><trkpt lat="41.87589852491213" lon="15.871596224258864"><ele>220.71428571428572</ele><time>2026-03-29T09:42:44.856Z</time></trkpt><trkpt lat="41.87592730771459" lon="15.871512066727233"><ele>220.42857142857144</ele><time>2026-03-29T09:42:45.856Z</time></trkpt><trkpt lat="41.87596587478027" lon="15.871427751256109"><ele>220.14285714285717</ele><time>2026-03-29T09:42:46.856Z</time></trkpt><trkpt lat="41.875997587541725" lon="15.871338883375728"><ele>219.85714285714286</ele><time>2026-03-29T09:42:47.855Z</time></trkpt><trkpt lat="41.87603089767554" lon="15.87124602253955"><ele>219.57142857142856</ele><time>2026-03-29T09:42:48.855Z</time></trkpt><trkpt lat="41.87606204384198" lon="15.871152542941159"><ele>219.2857142857143</ele><time>2026-03-29T09:42:49.855Z</time></trkpt><trkpt lat="41.87608862374444" lon="15.871053600159227"><ele>219.0</ele><time>2026-03-29T09:42:50.855Z</time></trkpt><trkpt lat="41.87612522049639" lon="15.870957099293515"><ele>215.66666666666666</ele><time>2026-03-29T09:42:51.855Z</time></trkpt><trkpt lat="41.87616613535916" lon="15.870857254652565"><ele>212.33333333333331</ele><time>2026-03-29T09:42:52.855Z</time></trkpt><trkpt lat="41.8762023913783" lon="15.870754915633457"><ele>209.0</ele><time>2026-03-29T09:42:53.855Z</time></trkpt><trkpt lat="41.87623742687851" lon="15.870649253594046"><ele>205.66666666666666</ele><time>2026-03-29T09:42:54.855Z</time></trkpt><trkpt lat="41.87627193085313" lon="15.87054175129333"><ele>202.33333333333331</ele><time>2026-03-29T09:42:55.855Z</time></trkpt><trkpt lat="41.876306788322694" lon="15.870432100209564"><ele>199.0</ele><time>2026-03-29T09:42:56.855Z</time></trkpt><trkpt lat="41.876343922682715" lon="15.87032956545047"><ele>198.99999999999997</ele><time>2026-03-29T09:42:57.855Z</time></trkpt><trkpt lat="41.87638584076733" lon="15.870232531253736"><ele>199.0</ele><time>2026-03-29T09:42:58.855Z</time></trkpt><trkpt lat="41.876418437798655" lon="15.870132122671741"><ele>199.0</ele><time>2026-03-29T09:42:59.855Z</time></trkpt><trkpt lat="41.87645926312511" lon="15.870028746612004"><ele>199.0</ele><time>2026-03-29T09:43:00.855Z</time></trkpt><trkpt lat="41.87650551195785" lon="15.869930003471818"><ele>198.99999999999997</ele><time>2026-03-29T09:43:01.855Z</time></trkpt><trkpt lat="41.87655329947417" lon="15.86982887783263"><ele>199.0</ele><time>2026-03-29T09:43:02.855Z</time></trkpt><trkpt lat="41.87660202033053" lon="15.86973368144811"><ele>196.99999999999997</ele><time>2026-03-29T09:43:03.855Z</time></trkpt><trkpt lat="41.876643692819734" lon="15.869635340144416"><ele>195.0</ele><time>2026-03-29T09:43:04.855Z</time></trkpt><trkpt lat="41.87668507176134" lon="15.869539297861285"><ele>193.0</ele><time>2026-03-29T09:43:05.855Z</time></trkpt><trkpt lat="41.87672085259637" lon="15.869446326098696"><ele>191.0</ele><time>2026-03-29T09:43:06.855Z</time></trkpt><trkpt lat="41.87675029691782" lon="15.869365270109192"><ele>189.0</ele><time>2026-03-29T09:43:07.855Z</time></trkpt><trkpt lat="41.876766724104066" lon="15.869283088624575"><ele>187.0</ele><time>2026-03-29T09:43:08.855Z</time></trkpt><trkpt lat="41.876814799593404" lon="15.86912339860328"><ele>185.5</ele><time>2026-03-29T09:43:10.855Z</time></trkpt><trkpt lat="41.87684471370251" lon="15.869045807080914"><ele>184.0</ele><time>2026-03-29T09:43:11.855Z</time></trkpt><trkpt lat="41.8768618855329" lon="15.86895684202124"><ele>182.5</ele><time>2026-03-29T09:43:12.855Z</time></trkpt><trkpt lat="41.87685778826879" lon="15.86886042006658"><ele>181.0</ele><time>2026-03-29T09:43:13.855Z</time></trkpt><trkpt lat="41.87696604769428" lon="15.868763058613546"><ele>179.5</ele><time>2026-03-29T09:43:14.855Z</time></trkpt><trkpt lat="41.87702838070101" lon="15.868641203584879"><ele>178.0</ele><time>2026-03-29T09:43:15.855Z</time></trkpt><trkpt lat="41.87709169717101" lon="15.868525330332739"><ele>176.60000000000002</ele><time>2026-03-29T09:43:16.855Z</time></trkpt><trkpt lat="41.87715396254874" lon="15.868412782325256"><ele>175.20000000000002</ele><time>2026-03-29T09:43:17.855Z</time></trkpt><trkpt lat="41.87721354374524" lon="15.868305049867107"><ele>173.8</ele><time>2026-03-29T09:43:18.855Z</time></trkpt><trkpt lat="41.87727906451398" lon="15.868196081738283"><ele>172.4</ele><time>2026-03-29T09:43:19.855Z</time></trkpt><trkpt lat="41.87734646155337" lon="15.868097052731242"><ele>171.0</ele><time>2026-03-29T09:43:20.855Z</time></trkpt><trkpt lat="41.87741374237407" lon="15.867990682602528"><ele>171.0</ele><time>2026-03-29T09:43:21.855Z</time></trkpt><trkpt lat="41.87748109596373" lon="15.86787522742026"><ele>171.0</ele><time>2026-03-29T09:43:22.854Z</time></trkpt><trkpt lat="41.877544208334314" lon="15.86775293150618"><ele>171.0</ele><time>2026-03-29T09:43:23.854Z</time></trkpt><trkpt lat="41.877600953438666" lon="15.867642768944867"><ele>171.0</ele><time>2026-03-29T09:43:24.854Z</time></trkpt><trkpt lat="41.877665845163236" lon="15.867529844120385"><ele>171.0</ele><time>2026-03-29T09:43:25.854Z</time></trkpt><trkpt lat="41.87774027169916" lon="15.867420545260934"><ele>168.8</ele><time>2026-03-29T09:43:26.854Z</time></trkpt><trkpt lat="41.877797849850076" lon="15.86732165476077"><ele>166.60000000000002</ele><time>2026-03-29T09:43:27.854Z</time></trkpt><trkpt lat="41.87786699774463" lon="15.867194041505954"><ele>164.4</ele><time>2026-03-29T09:43:28.854Z</time></trkpt><trkpt lat="41.877936579744365" lon="15.867077197925708"><ele>162.2</ele><time>2026-03-29T09:43:29.854Z</time></trkpt><trkpt lat="41.877992685782495" lon="15.866963562724584"><ele>160.0</ele><time>2026-03-29T09:43:30.854Z</time></trkpt><trkpt lat="41.878048386951185" lon="15.866844034711935"><ele>160.0</ele><time>2026-03-29T09:43:31.854Z</time></trkpt><trkpt lat="41.87809543521979" lon="15.86672534870191"><ele>160.0</ele><time>2026-03-29T09:43:32.854Z</time></trkpt><trkpt lat="41.87814534272726" lon="15.866607725476493"><ele>160.0</ele><time>2026-03-29T09:43:33.854Z</time></trkpt><trkpt lat="41.87819417483843" lon="15.86648183973773"><ele>160.0</ele><time>2026-03-29T09:43:34.854Z</time></trkpt><trkpt lat="41.87824199400322" lon="15.866359990719083"><ele>160.0</ele><time>2026-03-29T09:43:35.854Z</time></trkpt><trkpt lat="41.87829197129771" lon="15.866237517243103"><ele>160.0</ele><time>2026-03-29T09:43:36.854Z</time></trkpt><trkpt lat="41.87834266041064" lon="15.866115213420413"><ele>160.0</ele><time>2026-03-29T09:43:37.854Z</time></trkpt><trkpt lat="41.878398758180076" lon="15.865993499267269"><ele>160.0</ele><time>2026-03-29T09:43:38.854Z</time></trkpt><trkpt lat="41.878475251870505" lon="15.86588432207682"><ele>160.0</ele><time>2026-03-29T09:43:39.854Z</time></trkpt><trkpt lat="41.878562094690025" lon="15.865787938423018"><ele>160.0</ele><time>2026-03-29T09:43:40.854Z</time></trkpt><trkpt lat="41.87867106048631" lon="15.865706105698093"><ele>157.0</ele><time>2026-03-29T09:43:41.854Z</time></trkpt><trkpt lat="41.87876184047235" lon="15.865601680181099"><ele>154.0</ele><time>2026-03-29T09:43:42.854Z</time></trkpt><trkpt lat="41.87885586386381" lon="15.865498738086808"><ele>151.0</ele><time>2026-03-29T09:43:43.854Z</time></trkpt><trkpt lat="41.87895666648823" lon="15.865415562388954"><ele>148.0</ele><time>2026-03-29T09:43:44.854Z</time></trkpt><trkpt lat="41.87905618615338" lon="15.865304432922905"><ele>148.0</ele><time>2026-03-29T09:43:45.854Z</time></trkpt><trkpt lat="41.87913729533697" lon="15.865205190614988"><ele>148.0</ele><time>2026-03-29T09:43:46.854Z</time></trkpt><trkpt lat="41.87922054869577" lon="15.865098393631596"><ele>148.0</ele><time>2026-03-29T09:43:47.854Z</time></trkpt><trkpt lat="41.879306404821115" lon="15.864990282976827"><ele>148.0</ele><time>2026-03-29T09:43:48.854Z</time></trkpt><trkpt lat="41.879390386927966" lon="15.864890817165469"><ele>146.8</ele><time>2026-03-29T09:43:49.854Z</time></trkpt><trkpt lat="41.879473164126445" lon="15.864796928066678"><ele>145.60000000000002</ele><time>2026-03-29T09:43:50.854Z</time></trkpt><trkpt lat="41.87955382849177" lon="15.864712116572372"><ele>144.39999999999998</ele><time>2026-03-29T09:43:51.854Z</time></trkpt><trkpt lat="41.87964133177688" lon="15.864641260869039"><ele>143.2</ele><time>2026-03-29T09:43:52.854Z</time></trkpt><trkpt lat="41.87974573772976" lon="15.864560732898335"><ele>142.0</ele><time>2026-03-29T09:43:53.854Z</time></trkpt><trkpt lat="41.879865834886324" lon="15.86448139611986"><ele>142.0</ele><time>2026-03-29T09:43:54.854Z</time></trkpt><trkpt lat="41.879983739817014" lon="15.864401207964299"><ele>142.0</ele><time>2026-03-29T09:43:55.854Z</time></trkpt><trkpt lat="41.88010662352125" lon="15.864337734508688"><ele>142.0</ele><time>2026-03-29T09:43:56.853Z</time></trkpt><trkpt lat="41.880219098910665" lon="15.864277888514476"><ele>142.0</ele><time>2026-03-29T09:43:57.853Z</time></trkpt><trkpt lat="41.88033343855956" lon="15.864221409565756"><ele>140.5</ele><time>2026-03-29T09:43:58.853Z</time></trkpt><trkpt lat="41.88044416757633" lon="15.864164252996806"><ele>139.0</ele><time>2026-03-29T09:43:59.853Z</time></trkpt><trkpt lat="41.88055526451333" lon="15.864112262679559"><ele>137.5</ele><time>2026-03-29T09:44:00.853Z</time></trkpt><trkpt lat="41.88066634142431" lon="15.864062234874408"><ele>136.0</ele><time>2026-03-29T09:44:01.853Z</time></trkpt><trkpt lat="41.88077985516781" lon="15.864032388261618"><ele>136.0</ele><time>2026-03-29T09:44:02.853Z</time></trkpt><trkpt lat="41.88088817599963" lon="15.863977951632432"><ele>136.0</ele><time>2026-03-29T09:44:03.853Z</time></trkpt><trkpt lat="41.88099304863544" lon="15.863919261023314"><ele>136.0</ele><time>2026-03-29T09:44:04.853Z</time></trkpt><trkpt lat="41.88109842138339" lon="15.863855073241346"><ele>136.0</ele><time>2026-03-29T09:44:05.853Z</time></trkpt><trkpt lat="41.88119301041942" lon="15.863761762207602"><ele>134.25</ele><time>2026-03-29T09:44:06.853Z</time></trkpt><trkpt lat="41.88128919381561" lon="15.863690549322218"><ele>132.5</ele><time>2026-03-29T09:44:07.853Z</time></trkpt><trkpt lat="41.8813959618679" lon="15.863622439023704"><ele>130.75</ele><time>2026-03-29T09:44:08.853Z</time></trkpt><trkpt lat="41.88149583659412" lon="15.863545028899397"><ele>129.0</ele><time>2026-03-29T09:44:09.853Z</time></trkpt><trkpt lat="41.88160066153424" lon="15.863459375956683"><ele>129.25</ele><time>2026-03-29T09:44:10.853Z</time></trkpt><trkpt lat="41.881710190972626" lon="15.863374100580984"><ele>129.5</ele><time>2026-03-29T09:44:11.853Z</time></trkpt><trkpt lat="41.88182124606068" lon="15.863292982254631"><ele>129.75</ele><time>2026-03-29T09:44:12.853Z</time></trkpt><trkpt lat="41.88194340044717" lon="15.863220576163856"><ele>130.0</ele><time>2026-03-29T09:44:13.853Z</time></trkpt><trkpt lat="41.882073526628055" lon="15.863138271214192"><ele>127.25</ele><time>2026-03-29T09:44:14.853Z</time></trkpt><trkpt lat="41.88220023580752" lon="15.86306737490191"><ele>124.5</ele><time>2026-03-29T09:44:15.853Z</time></trkpt><trkpt lat="41.882326262864105" lon="15.862996649445416"><ele>121.75</ele><time>2026-03-29T09:44:16.853Z</time></trkpt><trkpt lat="41.882458287061894" lon="15.862919267974892"><ele>119.0</ele><time>2026-03-29T09:44:17.853Z</time></trkpt><trkpt lat="41.88259638699472" lon="15.862841379229044"><ele>119.66666666666666</ele><time>2026-03-29T09:44:18.853Z</time></trkpt><trkpt lat="41.882738744855175" lon="15.862763870701054"><ele>120.33333333333334</ele><time>2026-03-29T09:44:19.853Z</time></trkpt><trkpt lat="41.88287764766852" lon="15.862686658292315"><ele>121.0</ele><time>2026-03-29T09:44:20.853Z</time></trkpt><trkpt lat="41.88301425337866" lon="15.862614583946547"><ele>120.0</ele><time>2026-03-29T09:44:21.853Z</time></trkpt><trkpt lat="41.883148368068724" lon="15.86254543343645"><ele>119.0</ele><time>2026-03-29T09:44:22.853Z</time></trkpt><trkpt lat="41.88327676823837" lon="15.862477065242535"><ele>118.0</ele><time>2026-03-29T09:44:23.853Z</time></trkpt><trkpt lat="41.88340569489194" lon="15.862409311313028"><ele>117.0</ele><time>2026-03-29T09:44:24.853Z</time></trkpt><trkpt lat="41.88353970228713" lon="15.86233803222293"><ele>117.0</ele><time>2026-03-29T09:44:25.853Z</time></trkpt><trkpt lat="41.88367610118747" lon="15.862267650046407"><ele>117.0</ele><time>2026-03-29T09:44:26.853Z</time></trkpt><trkpt lat="41.88380796618672" lon="15.862198348428043"><ele>117.0</ele><time>2026-03-29T09:44:27.853Z</time></trkpt><trkpt lat="41.883931528890066" lon="15.862134590071264"><ele>117.0</ele><time>2026-03-29T09:44:28.853Z</time></trkpt><trkpt lat="41.88405314173994" lon="15.862074969157739"><ele>117.0</ele><time>2026-03-29T09:44:29.854Z</time></trkpt><trkpt lat="41.884172942739234" lon="15.86200658738651"><ele>117.0</ele><time>2026-03-29T09:44:30.855Z</time></trkpt><trkpt lat="41.88428892852602" lon="15.861942277422044"><ele>117.0</ele><time>2026-03-29T09:44:31.855Z</time></trkpt><trkpt lat="41.88440132624708" lon="15.861868883851741"><ele>117.0</ele><time>2026-03-29T09:44:32.855Z</time></trkpt><trkpt lat="41.88451855696144" lon="15.861808185221474"><ele>114.25</ele><time>2026-03-29T09:44:33.854Z</time></trkpt><trkpt lat="41.8846454581318" lon="15.861754054101784"><ele>111.5</ele><time>2026-03-29T09:44:34.854Z</time></trkpt><trkpt lat="41.88477619795097" lon="15.861705358137687"><ele>108.75</ele><time>2026-03-29T09:44:35.855Z</time></trkpt><trkpt lat="41.8849032562874" lon="15.86166049919893"><ele>106.0</ele><time>2026-03-29T09:44:36.854Z</time></trkpt><trkpt lat="41.88503510498125" lon="15.861630617930858"><ele>106.0</ele><time>2026-03-29T09:44:37.854Z</time></trkpt><trkpt lat="41.88516481580236" lon="15.861625708509976"><ele>106.0</ele><time>2026-03-29T09:44:38.855Z</time></trkpt><trkpt lat="41.88529863808188" lon="15.861629296126651"><ele>106.0</ele><time>2026-03-29T09:44:39.854Z</time></trkpt><trkpt lat="41.885421183068836" lon="15.861668045641501"><ele>106.0</ele><time>2026-03-29T09:44:40.854Z</time></trkpt><trkpt lat="41.88555600146089" lon="15.86171100006094"><ele>106.0</ele><time>2026-03-29T09:44:41.854Z</time></trkpt><trkpt lat="41.88570624094589" lon="15.861753457403744"><ele>106.0</ele><time>2026-03-29T09:44:42.854Z</time></trkpt><trkpt lat="41.885849509026805" lon="15.861798167573058"><ele>106.0</ele><time>2026-03-29T09:44:43.854Z</time></trkpt><trkpt lat="41.88598483806711" lon="15.861842708392285"><ele>106.0</ele><time>2026-03-29T09:44:44.854Z</time></trkpt><trkpt lat="41.886115348991204" lon="15.861877103501875"><ele>106.75</ele><time>2026-03-29T09:44:45.854Z</time></trkpt><trkpt lat="41.88623313292589" lon="15.861920196098513"><ele>107.5</ele><time>2026-03-29T09:44:46.854Z</time></trkpt><trkpt lat="41.886357482244826" lon="15.861978118257307"><ele>108.25</ele><time>2026-03-29T09:44:47.854Z</time></trkpt><trkpt lat="41.88647812256288" lon="15.86203925143012"><ele>109.0</ele><time>2026-03-29T09:44:48.854Z</time></trkpt><trkpt lat="41.886597317923986" lon="15.86210681030228"><ele>109.0</ele><time>2026-03-29T09:44:49.854Z</time></trkpt><trkpt lat="41.88672128713791" lon="15.862182635347722"><ele>109.0</ele><time>2026-03-29T09:44:50.854Z</time></trkpt><trkpt lat="41.886835733585066" lon="15.862281610028914"><ele>109.0</ele><time>2026-03-29T09:44:51.854Z</time></trkpt><trkpt lat="41.886953251549635" lon="15.862365977847384"><ele>109.0</ele><time>2026-03-29T09:44:52.854Z</time></trkpt><trkpt lat="41.887077729034694" lon="15.86243098741658"><ele>107.25</ele><time>2026-03-29T09:44:53.854Z</time></trkpt><trkpt lat="41.88718015447879" lon="15.862527443164575"><ele>105.5</ele><time>2026-03-29T09:44:54.854Z</time></trkpt><trkpt lat="41.88728511500584" lon="15.8626097319848"><ele>103.75</ele><time>2026-03-29T09:44:55.854Z</time></trkpt><trkpt lat="41.88738453803679" lon="15.862691430602775"><ele>102.0</ele><time>2026-03-29T09:44:56.854Z</time></trkpt><trkpt lat="41.88747909811791" lon="15.862776201175086"><ele>101.75</ele><time>2026-03-29T09:44:57.854Z</time></trkpt><trkpt lat="41.88757540078573" lon="15.862864537040755"><ele>101.5</ele><time>2026-03-29T09:44:58.854Z</time></trkpt><trkpt lat="41.88767307278992" lon="15.86295499423266"><ele>101.25</ele><time>2026-03-29T09:44:59.854Z</time></trkpt><trkpt lat="41.887757944152405" lon="15.86306035810672"><ele>101.0</ele><time>2026-03-29T09:45:00.854Z</time></trkpt><trkpt lat="41.88785865538547" lon="15.863155228037488"><ele>101.25</ele><time>2026-03-29T09:45:01.854Z</time></trkpt><trkpt lat="41.887950966752605" lon="15.863244880629933"><ele>101.5</ele><time>2026-03-29T09:45:02.854Z</time></trkpt><trkpt lat="41.88804142147221" lon="15.863330213690478"><ele>101.75</ele><time>2026-03-29T09:45:03.854Z</time></trkpt><trkpt lat="41.88813036189018" lon="15.863425672414435"><ele>102.0</ele><time>2026-03-29T09:45:04.854Z</time></trkpt><trkpt lat="41.888228284854584" lon="15.863517388254397"><ele>102.0</ele><time>2026-03-29T09:45:05.854Z</time></trkpt><trkpt lat="41.88832111170042" lon="15.863604797343658"><ele>102.0</ele><time>2026-03-29T09:45:06.854Z</time></trkpt><trkpt lat="41.888409252284326" lon="15.863678879676645"><ele>102.0</ele><time>2026-03-29T09:45:07.853Z</time></trkpt><trkpt lat="41.888493108054206" lon="15.8637577320798"><ele>102.0</ele><time>2026-03-29T09:45:08.853Z</time></trkpt><trkpt lat="41.88858263953653" lon="15.863828619714473"><ele>102.0</ele><time>2026-03-29T09:45:09.853Z</time></trkpt><trkpt lat="41.88867818600166" lon="15.863885634868756"><ele>101.6</ele><time>2026-03-29T09:45:10.853Z</time></trkpt><trkpt lat="41.88878037566705" lon="15.863927773262914"><ele>101.19999999999999</ele><time>2026-03-29T09:45:11.853Z</time></trkpt><trkpt lat="41.88888787336711" lon="15.863957689904266"><ele>100.8</ele><time>2026-03-29T09:45:12.853Z</time></trkpt><trkpt lat="41.888991654257005" lon="15.86397415147957"><ele>100.4</ele><time>2026-03-29T09:45:13.853Z</time></trkpt><trkpt lat="41.88909381532145" lon="15.863981692086739"><ele>100.0</ele><time>2026-03-29T09:45:14.853Z</time></trkpt><trkpt lat="41.88920067234057" lon="15.86397645408404"><ele>101.6</ele><time>2026-03-29T09:45:15.853Z</time></trkpt><trkpt lat="41.88930110195657" lon="15.863954181214032"><ele>103.2</ele><time>2026-03-29T09:45:16.853Z</time></trkpt><trkpt lat="41.88939689299927" lon="15.863919747231073"><ele>104.80000000000001</ele><time>2026-03-29T09:45:17.853Z</time></trkpt><trkpt lat="41.88949327374567" lon="15.863873899930784"><ele>106.4</ele><time>2026-03-29T09:45:18.853Z</time></trkpt><trkpt lat="41.88958714735773" lon="15.863814604989722"><ele>108.0</ele><time>2026-03-29T09:45:19.853Z</time></trkpt><trkpt lat="41.889680221719736" lon="15.863743897492103"><ele>108.0</ele><time>2026-03-29T09:45:20.853Z</time></trkpt><trkpt lat="41.88977755854053" lon="15.863655112916847"><ele>108.0</ele><time>2026-03-29T09:45:21.853Z</time></trkpt><trkpt lat="41.88985571172412" lon="15.863531958145993"><ele>108.0</ele><time>2026-03-29T09:45:22.853Z</time></trkpt><trkpt lat="41.88993795635101" lon="15.863399017661472"><ele>108.0</ele><time>2026-03-29T09:45:23.853Z</time></trkpt><trkpt lat="41.89001783087376" lon="15.863270382730823"><ele>108.0</ele><time>2026-03-29T09:45:24.853Z</time></trkpt><trkpt lat="41.89009745969552" lon="15.86314449590877"><ele>108.0</ele><time>2026-03-29T09:45:25.853Z</time></trkpt><trkpt lat="41.89017690917495" lon="15.863019144376178"><ele>108.0</ele><time>2026-03-29T09:45:26.853Z</time></trkpt><trkpt lat="41.89025765116161" lon="15.862894624752853"><ele>108.0</ele><time>2026-03-29T09:45:27.853Z</time></trkpt><trkpt lat="41.89033462177963" lon="15.862769751031555"><ele>108.0</ele><time>2026-03-29T09:45:28.853Z</time></trkpt><trkpt lat="41.89041479896242" lon="15.862637781173202"><ele>108.0</ele><time>2026-03-29T09:45:29.853Z</time></trkpt><trkpt lat="41.89049361704596" lon="15.862510199719857"><ele>108.0</ele><time>2026-03-29T09:45:30.853Z</time></trkpt><trkpt lat="41.89060261893012" lon="15.86242587251748"><ele>108.0</ele><time>2026-03-29T09:45:31.853Z</time></trkpt><trkpt lat="41.89070369273317" lon="15.862335955333212"><ele>107.25</ele><time>2026-03-29T09:45:32.853Z</time></trkpt><trkpt lat="41.89079794362742" lon="15.862235204688945"><ele>106.5</ele><time>2026-03-29T09:45:33.853Z</time></trkpt><trkpt lat="41.89091361860654" lon="15.862168193980986"><ele>105.75</ele><time>2026-03-29T09:45:34.853Z</time></trkpt><trkpt lat="41.8910319941956" lon="15.86209610161494"><ele>105.0</ele><time>2026-03-29T09:45:35.853Z</time></trkpt><trkpt lat="41.89115558332695" lon="15.862025564269286"><ele>105.0</ele><time>2026-03-29T09:45:36.853Z</time></trkpt><trkpt lat="41.891293240247094" lon="15.861952282364914"><ele>105.0</ele><time>2026-03-29T09:45:37.853Z</time></trkpt><trkpt lat="41.89143649743356" lon="15.861883280218128"><ele>105.0</ele><time>2026-03-29T09:45:38.853Z</time></trkpt><trkpt lat="41.8915746348359" lon="15.861805789195603"><ele>103.75</ele><time>2026-03-29T09:45:39.853Z</time></trkpt><trkpt lat="41.891710313860195" lon="15.86173557017506"><ele>102.5</ele><time>2026-03-29T09:45:40.853Z</time></trkpt><trkpt lat="41.89184321582903" lon="15.86166627266533"><ele>101.25</ele><time>2026-03-29T09:45:41.852Z</time></trkpt><trkpt lat="41.891975509773815" lon="15.861599256827414"><ele>100.0</ele><time>2026-03-29T09:45:42.852Z</time></trkpt><trkpt lat="41.892114380254505" lon="15.861522821741584"><ele>100.0</ele><time>2026-03-29T09:45:43.852Z</time></trkpt><trkpt lat="41.892247637034295" lon="15.861452759886213"><ele>100.0</ele><time>2026-03-29T09:45:44.852Z</time></trkpt><trkpt lat="41.89238559981593" lon="15.861388495113125"><ele>100.0</ele><time>2026-03-29T09:45:45.852Z</time></trkpt><trkpt lat="41.892526801427785" lon="15.861323948592"><ele>100.0</ele><time>2026-03-29T09:45:46.852Z</time></trkpt><trkpt lat="41.89265406582233" lon="15.861263212528302"><ele>99.0</ele><time>2026-03-29T09:45:47.852Z</time></trkpt><trkpt lat="41.892775238344825" lon="15.861219048898004"><ele>98.0</ele><time>2026-03-29T09:45:48.852Z</time></trkpt><trkpt lat="41.89289116772014" lon="15.861213362925872"><ele>97.0</ele><time>2026-03-29T09:45:49.852Z</time></trkpt><trkpt lat="41.89299461473486" lon="15.861228891659751"><ele>96.0</ele><time>2026-03-29T09:45:50.852Z</time></trkpt><trkpt lat="41.89309415186042" lon="15.861262874817585"><ele>95.0</ele><time>2026-03-29T09:45:51.852Z</time></trkpt><trkpt lat="41.89320033787093" lon="15.861315194564913"><ele>95.0</ele><time>2026-03-29T09:45:52.852Z</time></trkpt><trkpt lat="41.89329492378431" lon="15.86138051579384"><ele>95.0</ele><time>2026-03-29T09:45:53.852Z</time></trkpt><trkpt lat="41.89338192637794" lon="15.86144288927852"><ele>95.0</ele><time>2026-03-29T09:45:54.852Z</time></trkpt><trkpt lat="41.89347951574234" lon="15.861519598091219"><ele>95.0</ele><time>2026-03-29T09:45:55.852Z</time></trkpt><trkpt lat="41.8935713046912" lon="15.861589507267345"><ele>95.0</ele><time>2026-03-29T09:45:56.852Z</time></trkpt><trkpt lat="41.893657600002996" lon="15.861659967065336"><ele>94.6</ele><time>2026-03-29T09:45:57.852Z</time></trkpt><trkpt lat="41.89373752201773" lon="15.861726386185095"><ele>94.2</ele><time>2026-03-29T09:45:58.852Z</time></trkpt><trkpt lat="41.89381107196858" lon="15.861801839724166"><ele>93.80000000000001</ele><time>2026-03-29T09:45:59.852Z</time></trkpt><trkpt lat="41.8938873643218" lon="15.86187643317485"><ele>93.4</ele><time>2026-03-29T09:46:00.852Z</time></trkpt><trkpt lat="41.89396407300189" lon="15.861938113036695"><ele>93.0</ele><time>2026-03-29T09:46:01.852Z</time></trkpt><trkpt lat="41.89404451712798" lon="15.862002456059951"><ele>93.0</ele><time>2026-03-29T09:46:02.852Z</time></trkpt><trkpt lat="41.89412930983659" lon="15.86206908056603"><ele>93.0</ele><time>2026-03-29T09:46:03.852Z</time></trkpt><trkpt lat="41.89421149711304" lon="15.862137744841995"><ele>93.0</ele><time>2026-03-29T09:46:04.852Z</time></trkpt><trkpt lat="41.894292278105624" lon="15.862203104162766"><ele>93.0</ele><time>2026-03-29T09:46:05.852Z</time></trkpt><trkpt lat="41.89436713924407" lon="15.86226514333571"><ele>93.0</ele><time>2026-03-29T09:46:06.852Z</time></trkpt><trkpt lat="41.89443609354528" lon="15.862325978655424"><ele>93.0</ele><time>2026-03-29T09:46:07.852Z</time></trkpt><trkpt lat="41.894500862369824" lon="15.862387653509211"><ele>93.0</ele><time>2026-03-29T09:46:08.852Z</time></trkpt><trkpt lat="41.89456501136287" lon="15.862454481398006"><ele>93.0</ele><time>2026-03-29T09:46:09.852Z</time></trkpt><trkpt lat="41.89463102100554" lon="15.862521943382609"><ele>93.0</ele><time>2026-03-29T09:46:10.852Z</time></trkpt><trkpt lat="41.89469547333072" lon="15.862598044917426"><ele>93.0</ele><time>2026-03-29T09:46:11.852Z</time></trkpt><trkpt lat="41.89476094439632" lon="15.862686178674666"><ele>93.0</ele><time>2026-03-29T09:46:12.852Z</time></trkpt><trkpt lat="41.89482305804097" lon="15.862778246502225"><ele>93.0</ele><time>2026-03-29T09:46:13.852Z</time></trkpt><trkpt lat="41.89488579479664" lon="15.86287305925141"><ele>93.0</ele><time>2026-03-29T09:46:14.852Z</time></trkpt><trkpt lat="41.89495321154972" lon="15.86296844668796"><ele>93.0</ele><time>2026-03-29T09:46:15.852Z</time></trkpt><trkpt lat="41.8950158273022" lon="15.863064147090432"><ele>93.0</ele><time>2026-03-29T09:46:16.851Z</time></trkpt><trkpt lat="41.89507978642734" lon="15.863156874699229"><ele>93.0</ele><time>2026-03-29T09:46:17.851Z</time></trkpt><trkpt lat="41.895144974356946" lon="15.863260767052456"><ele>93.0</ele><time>2026-03-29T09:46:18.851Z</time></trkpt><trkpt lat="41.89520321709906" lon="15.863373256608783"><ele>93.0</ele><time>2026-03-29T09:46:19.851Z</time></trkpt><trkpt lat="41.89526596678488" lon="15.863477307011534"><ele>93.0</ele><time>2026-03-29T09:46:20.851Z</time></trkpt><trkpt lat="41.8953332180222" lon="15.86357565923069"><ele>93.0</ele><time>2026-03-29T09:46:21.851Z</time></trkpt><trkpt lat="41.89539837466225" lon="15.863679393688601"><ele>93.0</ele><time>2026-03-29T09:46:22.851Z</time></trkpt><trkpt lat="41.895464032155466" lon="15.863793710125151"><ele>93.4</ele><time>2026-03-29T09:46:23.851Z</time></trkpt><trkpt lat="41.89552413414946" lon="15.86390541125549"><ele>93.80000000000001</ele><time>2026-03-29T09:46:24.851Z</time></trkpt><trkpt lat="41.895585387674856" lon="15.864015044966132"><ele>94.2</ele><time>2026-03-29T09:46:25.851Z</time></trkpt><trkpt lat="41.89563647536699" lon="15.864121955784022"><ele>94.6</ele><time>2026-03-29T09:46:26.851Z</time></trkpt><trkpt lat="41.89569266813355" lon="15.864232475295353"><ele>95.0</ele><time>2026-03-29T09:46:27.851Z</time></trkpt><trkpt lat="41.89574360862921" lon="15.864359431273721"><ele>95.0</ele><time>2026-03-29T09:46:28.851Z</time></trkpt><trkpt lat="41.89577556881885" lon="15.864497148551193"><ele>95.0</ele><time>2026-03-29T09:46:29.851Z</time></trkpt><trkpt lat="41.895812134025654" lon="15.86463430224335"><ele>95.0</ele><time>2026-03-29T09:46:30.851Z</time></trkpt><trkpt lat="41.895852714972484" lon="15.864769137586684"><ele>95.0</ele><time>2026-03-29T09:46:31.851Z</time></trkpt><trkpt lat="41.895890320631786" lon="15.864902980482368"><ele>95.0</ele><time>2026-03-29T09:46:32.851Z</time></trkpt><trkpt lat="41.8959263523566" lon="15.865028645410979"><ele>95.0</ele><time>2026-03-29T09:46:33.851Z</time></trkpt><trkpt lat="41.89595976880671" lon="15.865148751457141"><ele>95.0</ele><time>2026-03-29T09:46:34.851Z</time></trkpt><trkpt lat="41.895989515388344" lon="15.865267805747703"><ele>95.0</ele><time>2026-03-29T09:46:35.853Z</time></trkpt><trkpt lat="41.89601867874906" lon="15.865379991250737"><ele>95.0</ele><time>2026-03-29T09:46:36.853Z</time></trkpt><trkpt lat="41.89604944612629" lon="15.86548912747113"><ele>95.0</ele><time>2026-03-29T09:46:37.853Z</time></trkpt><trkpt lat="41.89608008608271" lon="15.865602188491318"><ele>95.0</ele><time>2026-03-29T09:46:38.852Z</time></trkpt><trkpt lat="41.89611149171504" lon="15.865714270459856"><ele>95.0</ele><time>2026-03-29T09:46:39.853Z</time></trkpt><trkpt lat="41.89614218357716" lon="15.865821806479827"><ele>95.0</ele><time>2026-03-29T09:46:40.853Z</time></trkpt><trkpt lat="41.89617303718438" lon="15.86592559584728"><ele>95.0</ele><time>2026-03-29T09:46:41.853Z</time></trkpt><trkpt lat="41.89620139713078" lon="15.866024709836218"><ele>95.0</ele><time>2026-03-29T09:46:42.853Z</time></trkpt><trkpt lat="41.89623243980073" lon="15.86611484441158"><ele>95.0</ele><time>2026-03-29T09:46:43.853Z</time></trkpt><trkpt lat="41.89626563316918" lon="15.866191183059119"><ele>95.16666666666667</ele><time>2026-03-29T09:46:44.852Z</time></trkpt><trkpt lat="41.89629286692582" lon="15.866271358925928"><ele>95.33333333333334</ele><time>2026-03-29T09:46:45.853Z</time></trkpt><trkpt lat="41.89632203216573" lon="15.866360000983976"><ele>95.5</ele><time>2026-03-29T09:46:46.853Z</time></trkpt><trkpt lat="41.89636487996209" lon="15.86645476920349"><ele>95.66666666666667</ele><time>2026-03-29T09:46:47.853Z</time></trkpt><trkpt lat="41.896414132115645" lon="15.866546212517873"><ele>95.83333333333333</ele><time>2026-03-29T09:46:48.853Z</time></trkpt><trkpt lat="41.89646448651126" lon="15.86663607687591"><ele>96.0</ele><time>2026-03-29T09:46:49.852Z</time></trkpt><trkpt lat="41.896524503930024" lon="15.866731055647772"><ele>96.16666666666667</ele><time>2026-03-29T09:46:50.852Z</time></trkpt><trkpt lat="41.896584205792735" lon="15.86681998624089"><ele>96.33333333333334</ele><time>2026-03-29T09:46:51.852Z</time></trkpt><trkpt lat="41.896646324461486" lon="15.866902583238108"><ele>96.5</ele><time>2026-03-29T09:46:52.852Z</time></trkpt><trkpt lat="41.8967134831201" lon="15.866985994294962"><ele>96.66666666666667</ele><time>2026-03-29T09:46:53.852Z</time></trkpt><trkpt lat="41.89677970868306" lon="15.867061585687487"><ele>96.83333333333334</ele><time>2026-03-29T09:46:54.852Z</time></trkpt><trkpt lat="41.8968424324902" lon="15.867142398532822"><ele>97.0</ele><time>2026-03-29T09:46:55.852Z</time></trkpt><trkpt lat="41.89690906749844" lon="15.867230731863017"><ele>97.0</ele><time>2026-03-29T09:46:56.852Z</time></trkpt><trkpt lat="41.89697419312758" lon="15.867309340456625"><ele>97.0</ele><time>2026-03-29T09:46:57.852Z</time></trkpt><trkpt lat="41.89703341308489" lon="15.867386789072993"><ele>97.0</ele><time>2026-03-29T09:46:58.852Z</time></trkpt><trkpt lat="41.89709038402752" lon="15.867466079062341"><ele>97.0</ele><time>2026-03-29T09:46:59.852Z</time></trkpt><trkpt lat="41.8971457929162" lon="15.867537945425314"><ele>97.0</ele><time>2026-03-29T09:47:00.852Z</time></trkpt><trkpt lat="41.89724196700807" lon="15.867647530862115"><ele>98.16666666666667</ele><time>2026-03-29T09:47:02.852Z</time></trkpt><trkpt lat="41.89729428699158" lon="15.867702558376331"><ele>99.33333333333334</ele><time>2026-03-29T09:47:03.852Z</time></trkpt><trkpt lat="41.897352029585974" lon="15.867756523859276"><ele>100.5</ele><time>2026-03-29T09:47:04.852Z</time></trkpt><trkpt lat="41.89741674298212" lon="15.867801974533888"><ele>101.66666666666666</ele><time>2026-03-29T09:47:05.852Z</time></trkpt><trkpt lat="41.89749195987623" lon="15.867842969423117"><ele>102.83333333333333</ele><time>2026-03-29T09:47:06.852Z</time></trkpt><trkpt lat="41.89758021852769" lon="15.867875169047432"><ele>104.0</ele><time>2026-03-29T09:47:07.852Z</time></trkpt><trkpt lat="41.897670666903764" lon="15.86789456700925"><ele>104.4</ele><time>2026-03-29T09:47:08.852Z</time></trkpt><trkpt lat="41.89776888044039" lon="15.867901341795543"><ele>104.80000000000001</ele><time>2026-03-29T09:47:09.852Z</time></trkpt><trkpt lat="41.897860321321" lon="15.867901129823679"><ele>105.19999999999999</ele><time>2026-03-29T09:47:10.852Z</time></trkpt><trkpt lat="41.89795786519037" lon="15.86790462247975"><ele>105.6</ele><time>2026-03-29T09:47:11.852Z</time></trkpt><trkpt lat="41.898059744431976" lon="15.867897787259134"><ele>106.0</ele><time>2026-03-29T09:47:12.852Z</time></trkpt><trkpt lat="41.898169479542986" lon="15.867892833505705"><ele>106.0</ele><time>2026-03-29T09:47:13.852Z</time></trkpt><trkpt lat="41.89829693491648" lon="15.867889139833341"><ele>106.0</ele><time>2026-03-29T09:47:14.852Z</time></trkpt><trkpt lat="41.89842058445825" lon="15.867885774021168"><ele>106.0</ele><time>2026-03-29T09:47:15.852Z</time></trkpt><trkpt lat="41.898556318781935" lon="15.867895567612612"><ele>106.0</ele><time>2026-03-29T09:47:16.852Z</time></trkpt><trkpt lat="41.898688436805536" lon="15.867902629574026"><ele>106.0</ele><time>2026-03-29T09:47:17.852Z</time></trkpt><trkpt lat="41.89882184542127" lon="15.867925907465954"><ele>106.0</ele><time>2026-03-29T09:47:18.852Z</time></trkpt><trkpt lat="41.89894685274743" lon="15.867951605897703"><ele>106.0</ele><time>2026-03-29T09:47:19.852Z</time></trkpt><trkpt lat="41.89906035556722" lon="15.867981864290511"><ele>106.0</ele><time>2026-03-29T09:47:20.852Z</time></trkpt><trkpt lat="41.89917881448308" lon="15.868014760237518"><ele>106.5</ele><time>2026-03-29T09:47:21.852Z</time></trkpt><trkpt lat="41.899292551672346" lon="15.868058160445184"><ele>107.0</ele><time>2026-03-29T09:47:22.852Z</time></trkpt><trkpt lat="41.899408266119075" lon="15.868116972579667"><ele>107.5</ele><time>2026-03-29T09:47:23.851Z</time></trkpt><trkpt lat="41.899527483603066" lon="15.86819406769651"><ele>108.0</ele><time>2026-03-29T09:47:24.851Z</time></trkpt><trkpt lat="41.89965798414631" lon="15.868271675947028"><ele>108.0</ele><time>2026-03-29T09:47:25.851Z</time></trkpt><trkpt lat="41.89978844362504" lon="15.868356206927839"><ele>108.0</ele><time>2026-03-29T09:47:26.851Z</time></trkpt><trkpt lat="41.899918880955504" lon="15.868442923589344"><ele>108.0</ele><time>2026-03-29T09:47:27.851Z</time></trkpt><trkpt lat="41.90005397224952" lon="15.8685339634764"><ele>108.0</ele><time>2026-03-29T09:47:28.851Z</time></trkpt><trkpt lat="41.90018199084952" lon="15.868619730063507"><ele>109.5</ele><time>2026-03-29T09:47:29.851Z</time></trkpt><trkpt lat="41.900311828581565" lon="15.868703863999475"><ele>111.0</ele><time>2026-03-29T09:47:30.851Z</time></trkpt><trkpt lat="41.900439053838745" lon="15.868789632939917"><ele>112.5</ele><time>2026-03-29T09:47:31.851Z</time></trkpt><trkpt lat="41.900570698581284" lon="15.868877845096446"><ele>114.0</ele><time>2026-03-29T09:47:32.851Z</time></trkpt><trkpt lat="41.900693331205446" lon="15.868959308080468"><ele>114.0</ele><time>2026-03-29T09:47:33.851Z</time></trkpt><trkpt lat="41.90080443168952" lon="15.869037786829635"><ele>114.0</ele><time>2026-03-29T09:47:34.851Z</time></trkpt><trkpt lat="41.90090978388777" lon="15.869112452745622"><ele>114.0</ele><time>2026-03-29T09:47:35.851Z</time></trkpt><trkpt lat="41.90101460508681" lon="15.869186856000088"><ele>114.0</ele><time>2026-03-29T09:47:36.851Z</time></trkpt><trkpt lat="41.90112295823471" lon="15.869267152552707"><ele>114.0</ele><time>2026-03-29T09:47:37.851Z</time></trkpt><trkpt lat="41.9012323307187" lon="15.86934130177167"><ele>114.0</ele><time>2026-03-29T09:47:38.851Z</time></trkpt><trkpt lat="41.90133293035148" lon="15.86940621076202"><ele>114.0</ele><time>2026-03-29T09:47:39.851Z</time></trkpt><trkpt lat="41.90143354394526" lon="15.869469741134797"><ele>114.0</ele><time>2026-03-29T09:47:40.851Z</time></trkpt><trkpt lat="41.90153568744696" lon="15.869536827084564"><ele>114.0</ele><time>2026-03-29T09:47:41.851Z</time></trkpt><trkpt lat="41.90163897994785" lon="15.869614379293976"><ele>114.0</ele><time>2026-03-29T09:47:42.851Z</time></trkpt><trkpt lat="41.90174245114758" lon="15.869686461621416"><ele>114.0</ele><time>2026-03-29T09:47:43.851Z</time></trkpt><trkpt lat="41.90183997355321" lon="15.869760100062306"><ele>114.0</ele><time>2026-03-29T09:47:44.851Z</time></trkpt><trkpt lat="41.901925206564826" lon="15.869836055536819"><ele>114.0</ele><time>2026-03-29T09:47:45.851Z</time></trkpt><trkpt lat="41.9020025087282" lon="15.86991694834883"><ele>112.0</ele><time>2026-03-29T09:47:46.851Z</time></trkpt><trkpt lat="41.902057445473616" lon="15.870022217988975"><ele>110.0</ele><time>2026-03-29T09:47:47.851Z</time></trkpt><trkpt lat="41.9021163976968" lon="15.870116667693408"><ele>108.0</ele><time>2026-03-29T09:47:48.851Z</time></trkpt><trkpt lat="41.90216763106608" lon="15.870228151135793"><ele>106.0</ele><time>2026-03-29T09:47:49.851Z</time></trkpt><trkpt lat="41.90221022175846" lon="15.870344173639866"><ele>104.0</ele><time>2026-03-29T09:47:50.851Z</time></trkpt><trkpt lat="41.90223915491833" lon="15.870466643412902"><ele>103.80000000000001</ele><time>2026-03-29T09:47:51.851Z</time></trkpt><trkpt lat="41.90225595319226" lon="15.870586509165463"><ele>103.60000000000001</ele><time>2026-03-29T09:47:52.851Z</time></trkpt><trkpt lat="41.90227220865931" lon="15.870713000694009"><ele>103.4</ele><time>2026-03-29T09:47:53.851Z</time></trkpt><trkpt lat="41.902285304867135" lon="15.87083523793211"><ele>103.2</ele><time>2026-03-29T09:47:54.851Z</time></trkpt><trkpt lat="41.902294613764674" lon="15.870956557761238"><ele>103.0</ele><time>2026-03-29T09:47:55.851Z</time></trkpt><trkpt lat="41.90230421010042" lon="15.871079385156934"><ele>102.83333333333334</ele><time>2026-03-29T09:47:56.851Z</time></trkpt><trkpt lat="41.90231570602946" lon="15.871196513744005"><ele>102.66666666666667</ele><time>2026-03-29T09:47:57.85Z</time></trkpt><trkpt lat="41.902329948134216" lon="15.871311205931658"><ele>102.5</ele><time>2026-03-29T09:47:58.85Z</time></trkpt><trkpt lat="41.90234081608618" lon="15.871425464359048"><ele>102.33333333333334</ele><time>2026-03-29T09:47:59.85Z</time></trkpt><trkpt lat="41.902356376863786" lon="15.87152591557096"><ele>102.16666666666667</ele><time>2026-03-29T09:48:00.85Z</time></trkpt><trkpt lat="41.90237861441685" lon="15.871636814667125"><ele>102.0</ele><time>2026-03-29T09:48:01.85Z</time></trkpt><trkpt lat="41.90245817702905" lon="15.871777283035478"><ele>102.0</ele><time>2026-03-29T09:48:03.85Z</time></trkpt><trkpt lat="41.90251910961875" lon="15.871807279703024"><ele>102.0</ele><time>2026-03-29T09:48:04.85Z</time></trkpt><trkpt lat="41.90263790371553" lon="15.871781454281383"><ele>102.0</ele><time>2026-03-29T09:48:06.85Z</time></trkpt><trkpt lat="41.90273063051702" lon="15.8716852860626"><ele>102.0</ele><time>2026-03-29T09:48:08.85Z</time></trkpt><trkpt lat="41.902768028126864" lon="15.871604681273823"><ele>102.0</ele><time>2026-03-29T09:48:09.85Z</time></trkpt><trkpt lat="41.90277667311592" lon="15.871501652041863"><ele>100.71428571428572</ele><time>2026-03-29T09:48:10.85Z</time></trkpt><trkpt lat="41.90278202743044" lon="15.871404224408641"><ele>99.42857142857143</ele><time>2026-03-29T09:48:11.85Z</time></trkpt><trkpt lat="41.902785149595864" lon="15.87130707272951"><ele>98.14285714285714</ele><time>2026-03-29T09:48:12.85Z</time></trkpt><trkpt lat="41.90278826330753" lon="15.871211847247947"><ele>96.85714285714286</ele><time>2026-03-29T09:48:13.85Z</time></trkpt><trkpt lat="41.90279541529621" lon="15.871120416860547"><ele>95.57142857142857</ele><time>2026-03-29T09:48:14.85Z</time></trkpt><trkpt lat="41.90282028270365" lon="15.871032853569126"><ele>94.28571428571429</ele><time>2026-03-29T09:48:15.85Z</time></trkpt><trkpt lat="41.90285889065705" lon="15.870957536548742"><ele>93.0</ele><time>2026-03-29T09:48:16.85Z</time></trkpt><trkpt lat="41.90291275711596" lon="15.870898028838347"><ele>93.00000000000001</ele><time>2026-03-29T09:48:17.85Z</time></trkpt><trkpt lat="41.90297543955267" lon="15.870860180191285"><ele>93.0</ele><time>2026-03-29T09:48:18.85Z</time></trkpt><trkpt lat="41.903042811935755" lon="15.870845968223874"><ele>93.0</ele><time>2026-03-29T09:48:19.85Z</time></trkpt><trkpt lat="41.9031192769826" lon="15.87084990746632"><ele>93.0</ele><time>2026-03-29T09:48:20.85Z</time></trkpt><trkpt lat="41.90319087772466" lon="15.870875446287464"><ele>93.0</ele><time>2026-03-29T09:48:21.85Z</time></trkpt><trkpt lat="41.903262379228714" lon="15.870907869842853"><ele>93.00000000000001</ele><time>2026-03-29T09:48:22.85Z</time></trkpt><trkpt lat="41.903331105845695" lon="15.87094538827033"><ele>93.0</ele><time>2026-03-29T09:48:23.85Z</time></trkpt><trkpt lat="41.903390201690875" lon="15.870985198647864"><ele>92.0</ele><time>2026-03-29T09:48:24.85Z</time></trkpt><trkpt lat="41.90347006679328" lon="15.871055074748776"><ele>91.0</ele><time>2026-03-29T09:48:26.85Z</time></trkpt><trkpt lat="41.90353243049065" lon="15.871107623044006"><ele>90.0</ele><time>2026-03-29T09:48:29.85Z</time></trkpt><trkpt lat="41.90361837139565" lon="15.871001735090784"><ele>89.0</ele><time>2026-03-29T09:48:35.849Z</time></trkpt><trkpt lat="41.90366809292245" lon="15.870855391124687"><ele>88.0</ele><time>2026-03-29T09:48:37.849Z</time></trkpt><trkpt lat="41.90366158481497" lon="15.870732850200683"><ele>88.0</ele><time>2026-03-29T09:48:38.849Z</time></trkpt><trkpt lat="41.90364951028919" lon="15.8706234764792"><ele>88.0</ele><time>2026-03-29T09:48:39.849Z</time></trkpt><trkpt lat="41.90363533670076" lon="15.8704894309833"><ele>88.0</ele><time>2026-03-29T09:48:40.849Z</time></trkpt><trkpt lat="41.903615912853475" lon="15.870336616256898"><ele>88.0</ele><time>2026-03-29T09:48:41.851Z</time></trkpt><trkpt lat="41.903595341843456" lon="15.870191185103346"><ele>88.0</ele><time>2026-03-29T09:48:42.851Z</time></trkpt><trkpt lat="41.903574040796094" lon="15.870033344231757"><ele>88.0</ele><time>2026-03-29T09:48:43.851Z</time></trkpt><trkpt lat="41.90354800910951" lon="15.869858694226949"><ele>88.0</ele><time>2026-03-29T09:48:44.851Z</time></trkpt><trkpt lat="41.90351667228006" lon="15.869689747387628"><ele>88.0</ele><time>2026-03-29T09:48:45.851Z</time></trkpt><trkpt lat="41.90347225940374" lon="15.86952743421433"><ele>88.0</ele><time>2026-03-29T09:48:46.851Z</time></trkpt><trkpt lat="41.90341611134659" lon="15.869359286665123"><ele>88.75</ele><time>2026-03-29T09:48:47.851Z</time></trkpt><trkpt lat="41.90336338332983" lon="15.869200990806872"><ele>89.5</ele><time>2026-03-29T09:48:48.851Z</time></trkpt><trkpt lat="41.9033176859632" lon="15.869033702802017"><ele>90.25</ele><time>2026-03-29T09:48:49.851Z</time></trkpt><trkpt lat="41.90329136552208" lon="15.868873381888763"><ele>91.0</ele><time>2026-03-29T09:48:50.851Z</time></trkpt><trkpt lat="41.90326602942741" lon="15.868715437641589"><ele>91.0</ele><time>2026-03-29T09:48:51.85Z</time></trkpt><trkpt lat="41.903250191229155" lon="15.868561117600073"><ele>91.0</ele><time>2026-03-29T09:48:52.85Z</time></trkpt><trkpt lat="41.90323089149367" lon="15.868399044141844"><ele>91.0</ele><time>2026-03-29T09:48:53.851Z</time></trkpt><trkpt lat="41.903220695828836" lon="15.868236813035079"><ele>91.0</ele><time>2026-03-29T09:48:54.851Z</time></trkpt><trkpt lat="41.90321592684079" lon="15.868083397890093"><ele>90.6</ele><time>2026-03-29T09:48:55.851Z</time></trkpt><trkpt lat="41.903217916475455" lon="15.867936525031812"><ele>90.19999999999999</ele><time>2026-03-29T09:48:56.851Z</time></trkpt><trkpt lat="41.90323349188745" lon="15.867800000025936"><ele>89.80000000000001</ele><time>2026-03-29T09:48:57.851Z</time></trkpt><trkpt lat="41.903251705749625" lon="15.867657758186779"><ele>89.4</ele><time>2026-03-29T09:48:58.851Z</time></trkpt><trkpt lat="41.90326938584235" lon="15.867521166974694"><ele>89.0</ele><time>2026-03-29T09:48:59.851Z</time></trkpt><trkpt lat="41.90329641844485" lon="15.867367869796556"><ele>88.25</ele><time>2026-03-29T09:49:00.851Z</time></trkpt><trkpt lat="41.90332593184016" lon="15.867207350246776"><ele>87.5</ele><time>2026-03-29T09:49:01.851Z</time></trkpt><trkpt lat="41.9033540675467" lon="15.867038295857016"><ele>86.75</ele><time>2026-03-29T09:49:02.851Z</time></trkpt><trkpt lat="41.903384303306225" lon="15.86688622333459"><ele>86.0</ele><time>2026-03-29T09:49:03.851Z</time></trkpt><trkpt lat="41.90341052900703" lon="15.866735590094683"><ele>84.75</ele><time>2026-03-29T09:49:04.85Z</time></trkpt><trkpt lat="41.90343161483543" lon="15.866585193411767"><ele>83.5</ele><time>2026-03-29T09:49:05.85Z</time></trkpt><trkpt lat="41.90345219635603" lon="15.866437936276245"><ele>82.25</ele><time>2026-03-29T09:49:06.85Z</time></trkpt><trkpt lat="41.903469904845835" lon="15.866286061140796"><ele>81.0</ele><time>2026-03-29T09:49:07.85Z</time></trkpt><trkpt lat="41.90348482947993" lon="15.866128958703326"><ele>81.0</ele><time>2026-03-29T09:49:08.85Z</time></trkpt><trkpt lat="41.90349336817003" lon="15.865964723312873"><ele>81.0</ele><time>2026-03-29T09:49:09.85Z</time></trkpt><trkpt lat="41.90349626563069" lon="15.865805500578034"><ele>81.0</ele><time>2026-03-29T09:49:10.85Z</time></trkpt><trkpt lat="41.9034893101746" lon="15.865657445848846"><ele>81.0</ele><time>2026-03-29T09:49:11.85Z</time></trkpt><trkpt lat="41.90348072318381" lon="15.865507927138538"><ele>80.75</ele><time>2026-03-29T09:49:12.85Z</time></trkpt><trkpt lat="41.90347041927637" lon="15.865354458918748"><ele>80.5</ele><time>2026-03-29T09:49:13.85Z</time></trkpt><trkpt lat="41.903457500498" lon="15.865204915668212"><ele>80.25</ele><time>2026-03-29T09:49:14.85Z</time></trkpt><trkpt lat="41.90344140212549" lon="15.865054621608984"><ele>80.0</ele><time>2026-03-29T09:49:15.85Z</time></trkpt><trkpt lat="41.9034257848148" lon="15.864903720401978"><ele>81.8</ele><time>2026-03-29T09:49:16.85Z</time></trkpt><trkpt lat="41.90340864781775" lon="15.86475004303987"><ele>83.6</ele><time>2026-03-29T09:49:17.85Z</time></trkpt><trkpt lat="41.90338858063507" lon="15.864603869242767"><ele>85.4</ele><time>2026-03-29T09:49:18.85Z</time></trkpt><trkpt lat="41.903370647783156" lon="15.864467837244094"><ele>87.2</ele><time>2026-03-29T09:49:19.85Z</time></trkpt><trkpt lat="41.90334643853854" lon="15.864327825633334"><ele>89.0</ele><time>2026-03-29T09:49:20.85Z</time></trkpt><trkpt lat="41.90332522397605" lon="15.864193139973853"><ele>89.0</ele><time>2026-03-29T09:49:21.85Z</time></trkpt><trkpt lat="41.9033078760825" lon="15.864060024954034"><ele>89.0</ele><time>2026-03-29T09:49:22.85Z</time></trkpt><trkpt lat="41.90328868506241" lon="15.8639375180337"><ele>89.0</ele><time>2026-03-29T09:49:23.85Z</time></trkpt><trkpt lat="41.90327611178718" lon="15.863820821898038"><ele>89.0</ele><time>2026-03-29T09:49:24.85Z</time></trkpt><trkpt lat="41.903270575018" lon="15.863712082177955"><ele>89.0</ele><time>2026-03-29T09:49:25.85Z</time></trkpt><trkpt lat="41.90326289583612" lon="15.86360572849533"><ele>89.0</ele><time>2026-03-29T09:49:26.85Z</time></trkpt><trkpt lat="41.90325361407179" lon="15.863504919027699"><ele>88.5</ele><time>2026-03-29T09:49:27.85Z</time></trkpt><trkpt lat="41.90324994511469" lon="15.863400775429167"><ele>88.0</ele><time>2026-03-29T09:49:28.85Z</time></trkpt><trkpt lat="41.903261874068484" lon="15.8632868784127"><ele>87.5</ele><time>2026-03-29T09:49:29.85Z</time></trkpt><trkpt lat="41.9033014912499" lon="15.863176673727768"><ele>87.0</ele><time>2026-03-29T09:49:30.85Z</time></trkpt><trkpt lat="41.90336251398094" lon="15.863088139405587"><ele>86.5</ele><time>2026-03-29T09:49:31.85Z</time></trkpt><trkpt lat="41.90344962799584" lon="15.863032161165172"><ele>86.0</ele><time>2026-03-29T09:49:32.85Z</time></trkpt><trkpt lat="41.903549735542896" lon="15.862984812092737"><ele>84.6</ele><time>2026-03-29T09:49:33.85Z</time></trkpt><trkpt lat="41.90365326395713" lon="15.862941252232293"><ele>83.19999999999999</ele><time>2026-03-29T09:49:34.85Z</time></trkpt><trkpt lat="41.90375848988094" lon="15.862894774721967"><ele>81.80000000000001</ele><time>2026-03-29T09:49:35.85Z</time></trkpt><trkpt lat="41.90386459242153" lon="15.862848127831773"><ele>80.4</ele><time>2026-03-29T09:49:36.85Z</time></trkpt><trkpt lat="41.90396409560273" lon="15.862795997883257"><ele>79.0</ele><time>2026-03-29T09:49:37.85Z</time></trkpt><trkpt lat="41.90406707644454" lon="15.862722360222136"><ele>79.0</ele><time>2026-03-29T09:49:38.85Z</time></trkpt><trkpt lat="41.90417374405506" lon="15.862626877179572"><ele>79.0</ele><time>2026-03-29T09:49:39.849Z</time></trkpt><trkpt lat="41.90427367240534" lon="15.86252892327497"><ele>79.0</ele><time>2026-03-29T09:49:40.849Z</time></trkpt><trkpt lat="41.904378594053505" lon="15.862417220616155"><ele>79.0</ele><time>2026-03-29T09:49:41.849Z</time></trkpt><trkpt lat="41.90448539636916" lon="15.862285921713417"><ele>79.5</ele><time>2026-03-29T09:49:42.849Z</time></trkpt><trkpt lat="41.90459283703979" lon="15.862140761661921"><ele>80.0</ele><time>2026-03-29T09:49:43.849Z</time></trkpt><trkpt lat="41.90469168726358" lon="15.86199990106863"><ele>80.5</ele><time>2026-03-29T09:49:44.849Z</time></trkpt><trkpt lat="41.90478525990675" lon="15.861864279663934"><ele>81.0</ele><time>2026-03-29T09:49:45.849Z</time></trkpt><trkpt lat="41.904876704825256" lon="15.86173048840617"><ele>81.0</ele><time>2026-03-29T09:49:46.849Z</time></trkpt><trkpt lat="41.90497092078591" lon="15.861594399444478"><ele>81.0</ele><time>2026-03-29T09:49:47.849Z</time></trkpt><trkpt lat="41.9050626217758" lon="15.861458382757299"><ele>81.0</ele><time>2026-03-29T09:49:48.849Z</time></trkpt><trkpt lat="41.905146862037" lon="15.861319756278112"><ele>81.0</ele><time>2026-03-29T09:49:49.849Z</time></trkpt><trkpt lat="41.90523886034411" lon="15.861173327134047"><ele>77.33333333333333</ele><time>2026-03-29T09:49:50.849Z</time></trkpt><trkpt lat="41.90533584013152" lon="15.86101490259849"><ele>73.66666666666666</ele><time>2026-03-29T09:49:51.849Z</time></trkpt><trkpt lat="41.90544116118087" lon="15.860844116049233"><ele>70.0</ele><time>2026-03-29T09:49:52.849Z</time></trkpt><trkpt lat="41.90554110312724" lon="15.8606749482899"><ele>70.0</ele><time>2026-03-29T09:49:53.849Z</time></trkpt><trkpt lat="41.905633292000125" lon="15.860526566193315"><ele>70.0</ele><time>2026-03-29T09:49:54.849Z</time></trkpt><trkpt lat="41.90572121994885" lon="15.860389331871003"><ele>70.0</ele><time>2026-03-29T09:49:55.849Z</time></trkpt><trkpt lat="41.90580224609444" lon="15.860261522019409"><ele>70.0</ele><time>2026-03-29T09:49:56.849Z</time></trkpt><trkpt lat="41.90587990483743" lon="15.860142906154966"><ele>68.75</ele><time>2026-03-29T09:49:57.849Z</time></trkpt><trkpt lat="41.905963413525924" lon="15.86002933020826"><ele>67.5</ele><time>2026-03-29T09:49:58.849Z</time></trkpt><trkpt lat="41.90605969032936" lon="15.8599239792257"><ele>66.25</ele><time>2026-03-29T09:49:59.849Z</time></trkpt><trkpt lat="41.90616163643066" lon="15.859826646328168"><ele>65.0</ele><time>2026-03-29T09:50:00.849Z</time></trkpt><trkpt lat="41.90626372685248" lon="15.859747782309656"><ele>65.0</ele><time>2026-03-29T09:50:01.849Z</time></trkpt><trkpt lat="41.906367011422105" lon="15.859664156100727"><ele>65.0</ele><time>2026-03-29T09:50:02.849Z</time></trkpt><trkpt lat="41.90647653858583" lon="15.85958844355809"><ele>65.0</ele><time>2026-03-29T09:50:03.849Z</time></trkpt><trkpt lat="41.90660551461145" lon="15.859511532016956"><ele>65.0</ele><time>2026-03-29T09:50:04.849Z</time></trkpt><trkpt lat="41.906743827252406" lon="15.859442885882185"><ele>65.25</ele><time>2026-03-29T09:50:05.849Z</time></trkpt><trkpt lat="41.90687904604335" lon="15.85938610022471"><ele>65.5</ele><time>2026-03-29T09:50:06.849Z</time></trkpt><trkpt lat="41.90701949693942" lon="15.85932777643777"><ele>65.75</ele><time>2026-03-29T09:50:07.849Z</time></trkpt><trkpt lat="41.90716706564282" lon="15.859247468609587"><ele>66.0</ele><time>2026-03-29T09:50:08.849Z</time></trkpt><trkpt lat="41.90730207435391" lon="15.859161635777372"><ele>66.0</ele><time>2026-03-29T09:50:09.849Z</time></trkpt><trkpt lat="41.90743150586888" lon="15.859084273799285"><ele>66.0</ele><time>2026-03-29T09:50:10.849Z</time></trkpt><trkpt lat="41.90756177636837" lon="15.859006933510734"><ele>66.0</ele><time>2026-03-29T09:50:11.849Z</time></trkpt><trkpt lat="41.9076867340323" lon="15.858930452858859"><ele>66.0</ele><time>2026-03-29T09:50:12.849Z</time></trkpt><trkpt lat="41.90780424496892" lon="15.858854043416427"><ele>63.75</ele><time>2026-03-29T09:50:13.848Z</time></trkpt><trkpt lat="41.90791751199018" lon="15.858785991692583"><ele>61.5</ele><time>2026-03-29T09:50:14.848Z</time></trkpt><trkpt lat="41.908031816705915" lon="15.858718341700555"><ele>59.25</ele><time>2026-03-29T09:50:15.848Z</time></trkpt><trkpt lat="41.90815256897629" lon="15.858647236703526"><ele>57.0</ele><time>2026-03-29T09:50:16.848Z</time></trkpt><trkpt lat="41.90827179930315" lon="15.858580715680995"><ele>57.0</ele><time>2026-03-29T09:50:17.848Z</time></trkpt><trkpt lat="41.9083836984517" lon="15.858510958284445"><ele>57.0</ele><time>2026-03-29T09:50:18.848Z</time></trkpt><trkpt lat="41.908495052659646" lon="15.858448564996538"><ele>57.0</ele><time>2026-03-29T09:50:19.848Z</time></trkpt><trkpt lat="41.90860008437457" lon="15.858384845012411"><ele>57.0</ele><time>2026-03-29T09:50:20.848Z</time></trkpt><trkpt lat="41.908704293777895" lon="15.858323250855914"><ele>57.75</ele><time>2026-03-29T09:50:21.848Z</time></trkpt><trkpt lat="41.90880887463223" lon="15.8582557316798"><ele>58.5</ele><time>2026-03-29T09:50:22.848Z</time></trkpt><trkpt lat="41.908922367685236" lon="15.858185351572208"><ele>59.25</ele><time>2026-03-29T09:50:23.848Z</time></trkpt><trkpt lat="41.909033185331346" lon="15.858115688093395"><ele>60.0</ele><time>2026-03-29T09:50:24.848Z</time></trkpt><trkpt lat="41.90913617787101" lon="15.85804789009661"><ele>60.0</ele><time>2026-03-29T09:50:25.848Z</time></trkpt><trkpt lat="41.90923875812725" lon="15.85798666982921"><ele>60.0</ele><time>2026-03-29T09:50:26.848Z</time></trkpt><trkpt lat="41.90933903834408" lon="15.857945767065583"><ele>60.0</ele><time>2026-03-29T09:50:27.848Z</time></trkpt><trkpt lat="41.90943341880301" lon="15.857933671261238"><ele>60.0</ele><time>2026-03-29T09:50:28.848Z</time></trkpt><trkpt lat="41.90952874543768" lon="15.857940860446348"><ele>60.0</ele><time>2026-03-29T09:50:29.848Z</time></trkpt><trkpt lat="41.909621941772585" lon="15.857962977766162"><ele>58.6</ele><time>2026-03-29T09:50:30.848Z</time></trkpt><trkpt lat="41.90971501263031" lon="15.858005261665172"><ele>57.2</ele><time>2026-03-29T09:50:31.848Z</time></trkpt><trkpt lat="41.90980557908037" lon="15.85806283670711"><ele>55.8</ele><time>2026-03-29T09:50:32.848Z</time></trkpt><trkpt lat="41.90988300004782" lon="15.858130504388974"><ele>54.4</ele><time>2026-03-29T09:50:33.848Z</time></trkpt><trkpt lat="41.909945163733894" lon="15.858220447153919"><ele>53.0</ele><time>2026-03-29T09:50:34.848Z</time></trkpt><trkpt lat="41.909991565421876" lon="15.858329606555369"><ele>52.4</ele><time>2026-03-29T09:50:35.848Z</time></trkpt><trkpt lat="41.91000012825372" lon="15.858455390067844"><ele>51.8</ele><time>2026-03-29T09:50:36.848Z</time></trkpt><trkpt lat="41.909979903874344" lon="15.858596296591895"><ele>51.2</ele><time>2026-03-29T09:50:37.848Z</time></trkpt><trkpt lat="41.90992729574716" lon="15.858724694617065"><ele>50.6</ele><time>2026-03-29T09:50:38.848Z</time></trkpt><trkpt lat="41.90989150325988" lon="15.858885436112867"><ele>50.0</ele><time>2026-03-29T09:50:39.848Z</time></trkpt><trkpt lat="41.9098426157017" lon="15.859054985907093"><ele>50.0</ele><time>2026-03-29T09:50:40.848Z</time></trkpt><trkpt lat="41.909776267033216" lon="15.85922032113404"><ele>50.0</ele><time>2026-03-29T09:50:41.848Z</time></trkpt><trkpt lat="41.909727063534675" lon="15.859385690662124"><ele>50.0</ele><time>2026-03-29T09:50:42.848Z</time></trkpt><trkpt lat="41.90968031874116" lon="15.859544725927108"><ele>50.0</ele><time>2026-03-29T09:50:43.848Z</time></trkpt><trkpt lat="41.90963514834269" lon="15.859701652850637"><ele>50.75</ele><time>2026-03-29T09:50:44.848Z</time></trkpt><trkpt lat="41.90959097811863" lon="15.859863491994236"><ele>51.5</ele><time>2026-03-29T09:50:45.848Z</time></trkpt><trkpt lat="41.90954844734314" lon="15.860023997799939"><ele>52.25</ele><time>2026-03-29T09:50:46.85Z</time></trkpt><trkpt lat="41.90950834578241" lon="15.860182334320193"><ele>53.0</ele><time>2026-03-29T09:50:47.849Z</time></trkpt><trkpt lat="41.90946980519644" lon="15.860325891993497"><ele>54.2</ele><time>2026-03-29T09:50:48.849Z</time></trkpt><trkpt lat="41.90942880087081" lon="15.860458222466642"><ele>55.4</ele><time>2026-03-29T09:50:49.85Z</time></trkpt><trkpt lat="41.90939104448453" lon="15.860586729879373"><ele>56.60000000000001</ele><time>2026-03-29T09:50:50.849Z</time></trkpt><trkpt lat="41.90933852442299" lon="15.860694293973996"><ele>57.800000000000004</ele><time>2026-03-29T09:50:51.849Z</time></trkpt><trkpt lat="41.90929437673876" lon="15.860784239082468"><ele>59.0</ele><time>2026-03-29T09:50:52.85Z</time></trkpt><trkpt lat="41.90923732173752" lon="15.860834872322288"><ele>59.00000000000001</ele><time>2026-03-29T09:50:53.85Z</time></trkpt><trkpt lat="41.90917670717608" lon="15.860864134220435"><ele>59.0</ele><time>2026-03-29T09:50:54.85Z</time></trkpt><trkpt lat="41.90910100347326" lon="15.860884231348834"><ele>59.0</ele><time>2026-03-29T09:50:55.85Z</time></trkpt><trkpt lat="41.90901795973844" lon="15.86083682588086"><ele>59.0</ele><time>2026-03-29T09:50:56.849Z</time></trkpt><trkpt lat="41.90893398551535" lon="15.86079245561384"><ele>59.00000000000001</ele><time>2026-03-29T09:50:57.849Z</time></trkpt><trkpt lat="41.90884133307039" lon="15.86078291187441"><ele>59.0</ele><time>2026-03-29T09:50:58.85Z</time></trkpt><trkpt lat="41.90873309967069" lon="15.860769040084298"><ele>59.0</ele><time>2026-03-29T09:50:59.849Z</time></trkpt><trkpt lat="41.90860876869464" lon="15.860833298317944"><ele>59.0</ele><time>2026-03-29T09:51:00.849Z</time></trkpt><trkpt lat="41.90850552722102" lon="15.860912056437558"><ele>59.0</ele><time>2026-03-29T09:51:01.849Z</time></trkpt><trkpt lat="41.90840375078181" lon="15.860996872540778"><ele>59.0</ele><time>2026-03-29T09:51:02.849Z</time></trkpt><trkpt lat="41.90831373562503" lon="15.861079729920538"><ele>61.0</ele><time>2026-03-29T09:51:03.849Z</time></trkpt><trkpt lat="41.908225272470716" lon="15.861189110602444"><ele>63.0</ele><time>2026-03-29T09:51:04.849Z</time></trkpt><trkpt lat="41.90815701821711" lon="15.861312549186549"><ele>65.0</ele><time>2026-03-29T09:51:05.849Z</time></trkpt><trkpt lat="41.90810197214088" lon="15.861442973536427"><ele>67.0</ele><time>2026-03-29T09:51:06.849Z</time></trkpt><trkpt lat="41.90805029737638" lon="15.861573003664985"><ele>67.0</ele><time>2026-03-29T09:51:07.849Z</time></trkpt><trkpt lat="41.90800828140452" lon="15.861695408578585"><ele>67.0</ele><time>2026-03-29T09:51:08.849Z</time></trkpt><trkpt lat="41.907978510854754" lon="15.861820751725284"><ele>67.0</ele><time>2026-03-29T09:51:09.849Z</time></trkpt><trkpt lat="41.90798398511976" lon="15.86195844000564"><ele>67.0</ele><time>2026-03-29T09:51:10.849Z</time></trkpt><trkpt lat="41.908047787109396" lon="15.862080257930293"><ele>67.0</ele><time>2026-03-29T09:51:11.849Z</time></trkpt><trkpt lat="41.9081120622707" lon="15.862200601653798"><ele>68.25</ele><time>2026-03-29T09:51:12.849Z</time></trkpt><trkpt lat="41.90820036293223" lon="15.86231546232627"><ele>69.5</ele><time>2026-03-29T09:51:13.849Z</time></trkpt><trkpt lat="41.908293814529884" lon="15.862454322428212"><ele>70.75</ele><time>2026-03-29T09:51:14.849Z</time></trkpt><trkpt lat="41.90838053621195" lon="15.86259407535174"><ele>72.0</ele><time>2026-03-29T09:51:15.849Z</time></trkpt><trkpt lat="41.90845468105015" lon="15.862725902149595"><ele>73.25</ele><time>2026-03-29T09:51:16.849Z</time></trkpt><trkpt lat="41.908523543356786" lon="15.862858176336882"><ele>74.5</ele><time>2026-03-29T09:51:17.849Z</time></trkpt><trkpt lat="41.90858510698268" lon="15.863004514199408"><ele>75.75</ele><time>2026-03-29T09:51:18.849Z</time></trkpt><trkpt lat="41.90863396154087" lon="15.863160692475585"><ele>77.0</ele><time>2026-03-29T09:51:19.849Z</time></trkpt><trkpt lat="41.90867294307736" lon="15.863335411839314"><ele>78.25</ele><time>2026-03-29T09:51:20.848Z</time></trkpt><trkpt lat="41.90868411892158" lon="15.863490468746981"><ele>79.5</ele><time>2026-03-29T09:51:21.848Z</time></trkpt><trkpt lat="41.90870204402618" lon="15.863661094773612"><ele>80.75</ele><time>2026-03-29T09:51:22.848Z</time></trkpt><trkpt lat="41.9087168076066" lon="15.863815647303543"><ele>82.0</ele><time>2026-03-29T09:51:23.848Z</time></trkpt><trkpt lat="41.90873095132537" lon="15.863963710906615"><ele>82.0</ele><time>2026-03-29T09:51:24.848Z</time></trkpt><trkpt lat="41.908743092145194" lon="15.864110557462784"><ele>82.0</ele><time>2026-03-29T09:51:25.848Z</time></trkpt><trkpt lat="41.908758082489314" lon="15.864235128478072"><ele>82.0</ele><time>2026-03-29T09:51:26.848Z</time></trkpt><trkpt lat="41.90878551399559" lon="15.864337758934173"><ele>82.0</ele><time>2026-03-29T09:51:27.848Z</time></trkpt><trkpt lat="41.90881141781216" lon="15.864426874039632"><ele>82.0</ele><time>2026-03-29T09:51:28.848Z</time></trkpt><trkpt lat="41.908901502718194" lon="15.86454387959739"><ele>83.16666666666666</ele><time>2026-03-29T09:51:30.848Z</time></trkpt><trkpt lat="41.90896395209996" lon="15.864562553538518"><ele>84.33333333333333</ele><time>2026-03-29T09:51:31.848Z</time></trkpt><trkpt lat="41.909033008913326" lon="15.864541244472356"><ele>85.5</ele><time>2026-03-29T09:51:32.848Z</time></trkpt><trkpt lat="41.909095565726155" lon="15.86447574628576"><ele>86.66666666666667</ele><time>2026-03-29T09:51:33.848Z</time></trkpt><trkpt lat="41.90916408069219" lon="15.864383744283785"><ele>87.83333333333334</ele><time>2026-03-29T09:51:34.848Z</time></trkpt><trkpt lat="41.909231738245175" lon="15.864283662335772"><ele>89.0</ele><time>2026-03-29T09:51:35.848Z</time></trkpt><trkpt lat="41.9093042239066" lon="15.864168761085764"><ele>89.75</ele><time>2026-03-29T09:51:36.848Z</time></trkpt><trkpt lat="41.90939586007245" lon="15.864061510697749"><ele>90.5</ele><time>2026-03-29T09:51:37.848Z</time></trkpt><trkpt lat="41.90948681145605" lon="15.863972751031278"><ele>91.25</ele><time>2026-03-29T09:51:38.848Z</time></trkpt><trkpt lat="41.90958038528066" lon="15.863872425877691"><ele>92.0</ele><time>2026-03-29T09:51:39.848Z</time></trkpt><trkpt lat="41.909678865656375" lon="15.863778957193214"><ele>92.0</ele><time>2026-03-29T09:51:40.848Z</time></trkpt><trkpt lat="41.90978600317588" lon="15.863675403218648"><ele>92.0</ele><time>2026-03-29T09:51:41.848Z</time></trkpt><trkpt lat="41.90988987834341" lon="15.863575267331735"><ele>92.0</ele><time>2026-03-29T09:51:42.848Z</time></trkpt><trkpt lat="41.90999136284915" lon="15.863483146978702"><ele>92.0</ele><time>2026-03-29T09:51:43.848Z</time></trkpt><trkpt lat="41.9100975422579" lon="15.863406289554776"><ele>92.0</ele><time>2026-03-29T09:51:44.848Z</time></trkpt><trkpt lat="41.91020074630376" lon="15.863329796727188"><ele>92.0</ele><time>2026-03-29T09:51:45.848Z</time></trkpt><trkpt lat="41.910309791520696" lon="15.863271336130492"><ele>92.0</ele><time>2026-03-29T09:51:46.848Z</time></trkpt><trkpt lat="41.910423116852606" lon="15.86322086209017"><ele>92.0</ele><time>2026-03-29T09:51:47.848Z</time></trkpt><trkpt lat="41.910539372949636" lon="15.863183411694"><ele>92.0</ele><time>2026-03-29T09:51:48.848Z</time></trkpt><trkpt lat="41.91065590416869" lon="15.863145846032983"><ele>92.0</ele><time>2026-03-29T09:51:49.848Z</time></trkpt><trkpt lat="41.91075813666861" lon="15.863108972039807"><ele>92.0</ele><time>2026-03-29T09:51:50.848Z</time></trkpt><trkpt lat="41.91085497330205" lon="15.863073560474529"><ele>92.0</ele><time>2026-03-29T09:51:51.848Z</time></trkpt><trkpt lat="41.91094779821095" lon="15.863043788834696"><ele>92.0</ele><time>2026-03-29T09:51:52.848Z</time></trkpt><trkpt lat="41.91104269990679" lon="15.863026462265152"><ele>91.19999999999999</ele><time>2026-03-29T09:51:53.848Z</time></trkpt><trkpt lat="41.91113322136137" lon="15.863026484012508"><ele>90.4</ele><time>2026-03-29T09:51:54.847Z</time></trkpt><trkpt lat="41.91122431452494" lon="15.863039634960678"><ele>89.6</ele><time>2026-03-29T09:51:55.847Z</time></trkpt><trkpt lat="41.91130473673841" lon="15.863088023853683"><ele>88.80000000000001</ele><time>2026-03-29T09:51:56.847Z</time></trkpt><trkpt lat="41.91137893997615" lon="15.863163124668949"><ele>88.0</ele><time>2026-03-29T09:51:57.847Z</time></trkpt><trkpt lat="41.91145581743278" lon="15.863253304733604"><ele>88.0</ele><time>2026-03-29T09:51:58.847Z</time></trkpt><trkpt lat="41.91150879324512" lon="15.863392030236616"><ele>88.0</ele><time>2026-03-29T09:51:59.847Z</time></trkpt><trkpt lat="41.911546350940164" lon="15.863521134091336"><ele>88.0</ele><time>2026-03-29T09:52:00.847Z</time></trkpt><trkpt lat="41.91157292500652" lon="15.863658389161374"><ele>88.0</ele><time>2026-03-29T09:52:01.847Z</time></trkpt><trkpt lat="41.911586132200235" lon="15.863792645031419"><ele>88.0</ele><time>2026-03-29T09:52:02.847Z</time></trkpt><trkpt lat="41.91158973458452" lon="15.863922694893983"><ele>87.60000000000001</ele><time>2026-03-29T09:52:03.847Z</time></trkpt><trkpt lat="41.91157651883715" lon="15.864056611517373"><ele>87.2</ele><time>2026-03-29T09:52:04.847Z</time></trkpt><trkpt lat="41.91156194916635" lon="15.864201219837422"><ele>86.8</ele><time>2026-03-29T09:52:05.847Z</time></trkpt><trkpt lat="41.91153856534505" lon="15.864339838470382"><ele>86.4</ele><time>2026-03-29T09:52:06.847Z</time></trkpt><trkpt lat="41.91151621614898" lon="15.864481449951215"><ele>86.0</ele><time>2026-03-29T09:52:07.847Z</time></trkpt><trkpt lat="41.9115016144684" lon="15.864616242204068"><ele>85.8</ele><time>2026-03-29T09:52:08.847Z</time></trkpt><trkpt lat="41.911485402722825" lon="15.864752313949275"><ele>85.6</ele><time>2026-03-29T09:52:09.847Z</time></trkpt><trkpt lat="41.91147272478435" lon="15.864889304639583"><ele>85.4</ele><time>2026-03-29T09:52:10.847Z</time></trkpt><trkpt lat="41.91146848009356" lon="15.865015816707663"><ele>85.2</ele><time>2026-03-29T09:52:11.847Z</time></trkpt><trkpt lat="41.911472312345296" lon="15.86513417223562"><ele>85.0</ele><time>2026-03-29T09:52:12.847Z</time></trkpt><trkpt lat="41.91149900332418" lon="15.865250592005872"><ele>85.4</ele><time>2026-03-29T09:52:13.847Z</time></trkpt><trkpt lat="41.911552892569546" lon="15.865359623627386"><ele>85.8</ele><time>2026-03-29T09:52:14.847Z</time></trkpt><trkpt lat="41.91162199408243" lon="15.865452472257044"><ele>86.19999999999999</ele><time>2026-03-29T09:52:15.847Z</time></trkpt><trkpt lat="41.91170474287618" lon="15.865534314401893"><ele>86.6</ele><time>2026-03-29T09:52:16.847Z</time></trkpt><trkpt lat="41.91179452878499" lon="15.865608787999802"><ele>87.0</ele><time>2026-03-29T09:52:17.847Z</time></trkpt><trkpt lat="41.91189126848736" lon="15.865664958102823"><ele>87.0</ele><time>2026-03-29T09:52:18.847Z</time></trkpt><trkpt lat="41.91199396184268" lon="15.865679842756892"><ele>87.0</ele><time>2026-03-29T09:52:19.847Z</time></trkpt><trkpt lat="41.91209712818634" lon="15.865658409156012"><ele>87.0</ele><time>2026-03-29T09:52:20.847Z</time></trkpt><trkpt lat="41.91219586559406" lon="15.86559976194711"><ele>87.0</ele><time>2026-03-29T09:52:21.847Z</time></trkpt><trkpt lat="41.91229050004325" lon="15.865524617156236"><ele>87.0</ele><time>2026-03-29T09:52:22.847Z</time></trkpt><trkpt lat="41.91239260203148" lon="15.86545301409513"><ele>87.0</ele><time>2026-03-29T09:52:23.847Z</time></trkpt><trkpt lat="41.91249546334046" lon="15.865381302619992"><ele>87.0</ele><time>2026-03-29T09:52:24.847Z</time></trkpt><trkpt lat="41.91259571834957" lon="15.865311324534797"><ele>87.0</ele><time>2026-03-29T09:52:25.847Z</time></trkpt><trkpt lat="41.91268859540892" lon="15.86524903361866"><ele>87.0</ele><time>2026-03-29T09:52:26.847Z</time></trkpt><trkpt lat="41.91278153446735" lon="15.86521797117686"><ele>87.0</ele><time>2026-03-29T09:52:27.847Z</time></trkpt><trkpt lat="41.912874928579534" lon="15.865199362167797"><ele>85.8</ele><time>2026-03-29T09:52:28.847Z</time></trkpt><trkpt lat="41.91295709137033" lon="15.865248067672885"><ele>84.6</ele><time>2026-03-29T09:52:29.846Z</time></trkpt><trkpt lat="41.91301751097908" lon="15.865327635984317"><ele>83.39999999999999</ele><time>2026-03-29T09:52:30.846Z</time></trkpt><trkpt lat="41.91304977184328" lon="15.865427986515769"><ele>82.19999999999999</ele><time>2026-03-29T09:52:31.846Z</time></trkpt><trkpt lat="41.91309033938421" lon="15.865540116001997"><ele>81.0</ele><time>2026-03-29T09:52:32.846Z</time></trkpt><trkpt lat="41.913124615526385" lon="15.865674407721697"><ele>81.0</ele><time>2026-03-29T09:52:33.846Z</time></trkpt><trkpt lat="41.91315466159362" lon="15.865814680501785"><ele>81.0</ele><time>2026-03-29T09:52:34.846Z</time></trkpt><trkpt lat="41.913179222786454" lon="15.865939931222961"><ele>81.0</ele><time>2026-03-29T09:52:35.846Z</time></trkpt><trkpt lat="41.913203276367646" lon="15.8660773237997"><ele>81.0</ele><time>2026-03-29T09:52:36.846Z</time></trkpt><trkpt lat="41.913227876628355" lon="15.866217819440356"><ele>81.0</ele><time>2026-03-29T09:52:37.846Z</time></trkpt><trkpt lat="41.9132512879134" lon="15.866351525237615"><ele>80.2</ele><time>2026-03-29T09:52:38.846Z</time></trkpt><trkpt lat="41.91327360720159" lon="15.866485742039544"><ele>79.39999999999999</ele><time>2026-03-29T09:52:39.846Z</time></trkpt><trkpt lat="41.91329404205383" lon="15.866623045228671"><ele>78.6</ele><time>2026-03-29T09:52:40.846Z</time></trkpt><trkpt lat="41.91330637742948" lon="15.866754653243932"><ele>77.8</ele><time>2026-03-29T09:52:41.846Z</time></trkpt><trkpt lat="41.913309455200014" lon="15.866878054624829"><ele>77.0</ele><time>2026-03-29T09:52:42.846Z</time></trkpt><trkpt lat="41.91329319811848" lon="15.866995980027031"><ele>75.6</ele><time>2026-03-29T09:52:43.846Z</time></trkpt><trkpt lat="41.91326488383729" lon="15.867124495501645"><ele>74.2</ele><time>2026-03-29T09:52:44.846Z</time></trkpt><trkpt lat="41.91323583314956" lon="15.867249344275146"><ele>72.8</ele><time>2026-03-29T09:52:45.846Z</time></trkpt><trkpt lat="41.91319257963161" lon="15.867362726483922"><ele>71.4</ele><time>2026-03-29T09:52:46.846Z</time></trkpt><trkpt lat="41.91314463678487" lon="15.867470624917992"><ele>70.0</ele><time>2026-03-29T09:52:47.846Z</time></trkpt><trkpt lat="41.9130813432828" lon="15.867578942616975"><ele>68.8</ele><time>2026-03-29T09:52:48.846Z</time></trkpt><trkpt lat="41.9130047115724" lon="15.86769584318063"><ele>67.6</ele><time>2026-03-29T09:52:49.846Z</time></trkpt><trkpt lat="41.91293840688837" lon="15.867826479737143"><ele>66.4</ele><time>2026-03-29T09:52:50.846Z</time></trkpt><trkpt lat="41.912844670996826" lon="15.867905873305048"><ele>65.2</ele><time>2026-03-29T09:52:51.848Z</time></trkpt><trkpt lat="41.91277208967095" lon="15.868007151205235"><ele>64.0</ele><time>2026-03-29T09:52:52.848Z</time></trkpt><trkpt lat="41.91270460243424" lon="15.86810511378475"><ele>63.99999999999999</ele><time>2026-03-29T09:52:53.848Z</time></trkpt><trkpt lat="41.91264107114978" lon="15.86819039965509"><ele>64.0</ele><time>2026-03-29T09:52:54.848Z</time></trkpt><trkpt lat="41.91257954088383" lon="15.868268360443691"><ele>64.0</ele><time>2026-03-29T09:52:55.848Z</time></trkpt><trkpt lat="41.912528452812765" lon="15.86834159016849"><ele>64.0</ele><time>2026-03-29T09:52:56.848Z</time></trkpt><trkpt lat="41.91247331516617" lon="15.868415699644952"><ele>63.99999999999999</ele><time>2026-03-29T09:52:57.848Z</time></trkpt><trkpt lat="41.912432187992096" lon="15.868512023445474"><ele>64.0</ele><time>2026-03-29T09:52:58.848Z</time></trkpt><trkpt lat="41.91241989629831" lon="15.86864625336869"><ele>65.60000000000001</ele><time>2026-03-29T09:52:59.848Z</time></trkpt><trkpt lat="41.91240498071056" lon="15.868777725406014"><ele>67.2</ele><time>2026-03-29T09:53:00.848Z</time></trkpt><trkpt lat="41.91245101015783" lon="15.868905744382882"><ele>68.80000000000001</ele><time>2026-03-29T09:53:01.848Z</time></trkpt><trkpt lat="41.912533105845675" lon="15.868987917994026"><ele>70.4</ele><time>2026-03-29T09:53:02.848Z</time></trkpt><trkpt lat="41.91262923309949" lon="15.869019951579316"><ele>72.0</ele><time>2026-03-29T09:53:03.847Z</time></trkpt><trkpt lat="41.912729603765676" lon="15.869024142172485"><ele>72.0</ele><time>2026-03-29T09:53:04.847Z</time></trkpt><trkpt lat="41.912838371166266" lon="15.869041844621965"><ele>72.0</ele><time>2026-03-29T09:53:05.847Z</time></trkpt><trkpt lat="41.912958359913404" lon="15.869055099775046"><ele>72.0</ele><time>2026-03-29T09:53:06.847Z</time></trkpt><trkpt lat="41.91305985699542" lon="15.869057782174911"><ele>72.0</ele><time>2026-03-29T09:53:07.847Z</time></trkpt><trkpt lat="41.91316188416235" lon="15.869059142392647"><ele>72.0</ele><time>2026-03-29T09:53:08.847Z</time></trkpt><trkpt lat="41.9132642041949" lon="15.86905690619123"><ele>72.0</ele><time>2026-03-29T09:53:09.847Z</time></trkpt><trkpt lat="41.91336557921549" lon="15.86904744066371"><ele>72.0</ele><time>2026-03-29T09:53:10.847Z</time></trkpt><trkpt lat="41.913466231698415" lon="15.86904899320675"><ele>72.0</ele><time>2026-03-29T09:53:11.847Z</time></trkpt><trkpt lat="41.91357473499853" lon="15.869042958023016"><ele>72.0</ele><time>2026-03-29T09:53:12.847Z</time></trkpt><trkpt lat="41.913688154016995" lon="15.869038531541214"><ele>72.0</ele><time>2026-03-29T09:53:13.847Z</time></trkpt><trkpt lat="41.913804789712174" lon="15.869033670523041"><ele>73.25</ele><time>2026-03-29T09:53:14.847Z</time></trkpt><trkpt lat="41.9139267395695" lon="15.869030652895988"><ele>74.5</ele><time>2026-03-29T09:53:15.847Z</time></trkpt><trkpt lat="41.914047070230815" lon="15.869007354534459"><ele>75.75</ele><time>2026-03-29T09:53:16.847Z</time></trkpt><trkpt lat="41.914156627681535" lon="15.868951008248875"><ele>77.0</ele><time>2026-03-29T09:53:17.847Z</time></trkpt><trkpt lat="41.91426727014009" lon="15.868882799598898"><ele>77.0</ele><time>2026-03-29T09:53:18.847Z</time></trkpt><trkpt lat="41.914358592836194" lon="15.868792790165125"><ele>77.0</ele><time>2026-03-29T09:53:19.847Z</time></trkpt><trkpt lat="41.91445492720388" lon="15.868712361524965"><ele>77.0</ele><time>2026-03-29T09:53:20.847Z</time></trkpt><trkpt lat="41.91455291894078" lon="15.868641437898253"><ele>77.0</ele><time>2026-03-29T09:53:21.847Z</time></trkpt><trkpt lat="41.91463707789252" lon="15.868589025572199"><ele>77.0</ele><time>2026-03-29T09:53:22.847Z</time></trkpt><trkpt lat="41.91471743974497" lon="15.868542062845888"><ele>77.0</ele><time>2026-03-29T09:53:23.847Z</time></trkpt><trkpt lat="41.914800072784054" lon="15.868497816650345"><ele>77.0</ele><time>2026-03-29T09:53:24.847Z</time></trkpt><trkpt lat="41.91487809576858" lon="15.868456600782745"><ele>77.0</ele><time>2026-03-29T09:53:25.847Z</time></trkpt><trkpt lat="41.91494807370555" lon="15.868429077469036"><ele>77.0</ele><time>2026-03-29T09:53:26.847Z</time></trkpt><trkpt lat="41.91501864612874" lon="15.868433832368869"><ele>77.0</ele><time>2026-03-29T09:53:27.847Z</time></trkpt><trkpt lat="41.91512648389598" lon="15.868490635156425"><ele>77.0</ele><time>2026-03-29T09:53:28.847Z</time></trkpt><trkpt lat="41.91520317694205" lon="15.86857321969369"><ele>75.6</ele><time>2026-03-29T09:53:29.847Z</time></trkpt><trkpt lat="41.91525163314849" lon="15.868687276496685"><ele>74.2</ele><time>2026-03-29T09:53:30.847Z</time></trkpt><trkpt lat="41.9153073928165" lon="15.868817410151241"><ele>72.8</ele><time>2026-03-29T09:53:31.847Z</time></trkpt><trkpt lat="41.91537086815729" lon="15.868947412477366"><ele>71.4</ele><time>2026-03-29T09:53:32.847Z</time></trkpt><trkpt lat="41.915432622059804" lon="15.869058612648663"><ele>70.0</ele><time>2026-03-29T09:53:33.847Z</time></trkpt><trkpt lat="41.91549436018292" lon="15.86917236716906"><ele>71.0</ele><time>2026-03-29T09:53:34.846Z</time></trkpt><trkpt lat="41.915558589434646" lon="15.869285181383283"><ele>72.0</ele><time>2026-03-29T09:53:35.846Z</time></trkpt><trkpt lat="41.91562691574672" lon="15.869367830570834"><ele>73.0</ele><time>2026-03-29T09:53:36.846Z</time></trkpt><trkpt lat="41.915693595223765" lon="15.869451830386392"><ele>74.0</ele><time>2026-03-29T09:53:37.846Z</time></trkpt><trkpt lat="41.915769658802176" lon="15.86954963647857"><ele>75.0</ele><time>2026-03-29T09:53:38.846Z</time></trkpt><trkpt lat="41.915840700209074" lon="15.869619867053878"><ele>76.4</ele><time>2026-03-29T09:53:39.846Z</time></trkpt><trkpt lat="41.91593083674317" lon="15.869664582396558"><ele>77.8</ele><time>2026-03-29T09:53:40.846Z</time></trkpt><trkpt lat="41.9160228496687" lon="15.869677351591513"><ele>79.19999999999999</ele><time>2026-03-29T09:53:41.846Z</time></trkpt><trkpt lat="41.91611382064425" lon="15.869637441883436"><ele>80.6</ele><time>2026-03-29T09:53:42.846Z</time></trkpt><trkpt lat="41.916181818358325" lon="15.869571618751998"><ele>82.0</ele><time>2026-03-29T09:53:43.846Z</time></trkpt><trkpt lat="41.91626393046841" lon="15.869496403912354"><ele>82.0</ele><time>2026-03-29T09:53:44.846Z</time></trkpt><trkpt lat="41.91633959724218" lon="15.869423035270302"><ele>82.0</ele><time>2026-03-29T09:53:45.846Z</time></trkpt><trkpt lat="41.916407352026624" lon="15.869376174524163"><ele>82.0</ele><time>2026-03-29T09:53:46.846Z</time></trkpt><trkpt lat="41.91642427247979" lon="15.869276627293333"><ele>82.0</ele><time>2026-03-29T09:53:47.846Z</time></trkpt><trkpt lat="41.916468416969394" lon="15.869210448145642"><ele>82.0</ele><time>2026-03-29T09:53:48.846Z</time></trkpt><trkpt lat="41.916514924168276" lon="15.86914599029165"><ele>82.0</ele><time>2026-03-29T09:53:49.846Z</time></trkpt><trkpt lat="41.91661528320031" lon="15.869044506104887"><ele>80.66666666666666</ele><time>2026-03-29T09:53:50.846Z</time></trkpt><trkpt lat="41.916700661279904" lon="15.868994994053617"><ele>79.33333333333333</ele><time>2026-03-29T09:53:51.846Z</time></trkpt><trkpt lat="41.91679007420317" lon="15.868992812144404"><ele>78.0</ele><time>2026-03-29T09:53:52.846Z</time></trkpt><trkpt lat="41.916858630224816" lon="15.86901716582661"><ele>76.66666666666667</ele><time>2026-03-29T09:53:53.846Z</time></trkpt><trkpt lat="41.916944964316" lon="15.869047151741661"><ele>75.33333333333334</ele><time>2026-03-29T09:53:54.846Z</time></trkpt><trkpt lat="41.91704962568452" lon="15.869061109208092"><ele>74.0</ele><time>2026-03-29T09:53:55.846Z</time></trkpt><trkpt lat="41.91716150407155" lon="15.86905602168528"><ele>74.0</ele><time>2026-03-29T09:53:56.846Z</time></trkpt><trkpt lat="41.917248969809435" lon="15.869069037720909"><ele>74.0</ele><time>2026-03-29T09:53:57.846Z</time></trkpt><trkpt lat="41.91733898040679" lon="15.869091983611753"><ele>74.0</ele><time>2026-03-29T09:53:58.846Z</time></trkpt><trkpt lat="41.91744489560364" lon="15.869124841315966"><ele>74.0</ele><time>2026-03-29T09:53:59.846Z</time></trkpt><trkpt lat="41.9175333019833" lon="15.869169237967137"><ele>74.0</ele><time>2026-03-29T09:54:00.846Z</time></trkpt><trkpt lat="41.91760953762314" lon="15.869259950522276"><ele>73.0</ele><time>2026-03-29T09:54:01.846Z</time></trkpt><trkpt lat="41.91767435268495" lon="15.869357026039571"><ele>72.0</ele><time>2026-03-29T09:54:02.846Z</time></trkpt><trkpt lat="41.91766401126869" lon="15.869476437062058"><ele>71.0</ele><time>2026-03-29T09:54:03.846Z</time></trkpt><trkpt lat="41.91766254030847" lon="15.86960259564509"><ele>70.0</ele><time>2026-03-29T09:54:04.846Z</time></trkpt><trkpt lat="41.917631478651636" lon="15.869725772724646"><ele>69.0</ele><time>2026-03-29T09:54:05.846Z</time></trkpt><trkpt lat="41.91760081220309" lon="15.869843204687696"><ele>69.0</ele><time>2026-03-29T09:54:06.846Z</time></trkpt><trkpt lat="41.91759461399993" lon="15.869957221652218"><ele>69.0</ele><time>2026-03-29T09:54:07.846Z</time></trkpt><trkpt lat="41.91761334644701" lon="15.870072330100916"><ele>69.0</ele><time>2026-03-29T09:54:08.845Z</time></trkpt><trkpt lat="41.91765679009291" lon="15.870174785928734"><ele>69.0</ele><time>2026-03-29T09:54:09.845Z</time></trkpt><trkpt lat="41.91771890343743" lon="15.870258141321232"><ele>69.0</ele><time>2026-03-29T09:54:10.845Z</time></trkpt><trkpt lat="41.917806723274495" lon="15.870340002188438"><ele>69.8</ele><time>2026-03-29T09:54:11.845Z</time></trkpt><trkpt lat="41.917898647599564" lon="15.870402113132739"><ele>70.60000000000001</ele><time>2026-03-29T09:54:12.845Z</time></trkpt><trkpt lat="41.9179971944396" lon="15.870471697519687"><ele>71.4</ele><time>2026-03-29T09:54:13.845Z</time></trkpt><trkpt lat="41.9181063989281" lon="15.8705357528329"><ele>72.2</ele><time>2026-03-29T09:54:14.845Z</time></trkpt><trkpt lat="41.91820900462506" lon="15.870603147366808"><ele>73.0</ele><time>2026-03-29T09:54:15.845Z</time></trkpt><trkpt lat="41.91831430297793" lon="15.870672630440295"><ele>73.0</ele><time>2026-03-29T09:54:16.845Z</time></trkpt><trkpt lat="41.91841605385129" lon="15.870734323230556"><ele>73.0</ele><time>2026-03-29T09:54:17.845Z</time></trkpt><trkpt lat="41.91852197833999" lon="15.870812067634581"><ele>73.0</ele><time>2026-03-29T09:54:18.845Z</time></trkpt><trkpt lat="41.918613838370725" lon="15.870884014851942"><ele>73.0</ele><time>2026-03-29T09:54:19.845Z</time></trkpt><trkpt lat="41.91870129177714" lon="15.870978770289538"><ele>73.5</ele><time>2026-03-29T09:54:20.845Z</time></trkpt><trkpt lat="41.918796409058615" lon="15.871061106799447"><ele>74.0</ele><time>2026-03-29T09:54:21.845Z</time></trkpt><trkpt lat="41.91889469501781" lon="15.871152404359647"><ele>74.5</ele><time>2026-03-29T09:54:22.845Z</time></trkpt><trkpt lat="41.918995507723665" lon="15.871254646594679"><ele>75.0</ele><time>2026-03-29T09:54:23.845Z</time></trkpt><trkpt lat="41.91909005831186" lon="15.871353460221245"><ele>75.0</ele><time>2026-03-29T09:54:24.845Z</time></trkpt><trkpt lat="41.91918354996338" lon="15.871448093940865"><ele>75.0</ele><time>2026-03-29T09:54:25.845Z</time></trkpt><trkpt lat="41.91928992213983" lon="15.871543176580316"><ele>75.0</ele><time>2026-03-29T09:54:26.845Z</time></trkpt><trkpt lat="41.919401816460734" lon="15.871646077505293"><ele>75.0</ele><time>2026-03-29T09:54:27.845Z</time></trkpt><trkpt lat="41.91950624677115" lon="15.871791491456362"><ele>73.33333333333333</ele><time>2026-03-29T09:54:28.845Z</time></trkpt><trkpt lat="41.919619710263554" lon="15.871946267873476"><ele>71.66666666666666</ele><time>2026-03-29T09:54:29.845Z</time></trkpt><trkpt lat="41.91972916359613" lon="15.872095841775437"><ele>70.0</ele><time>2026-03-29T09:54:30.845Z</time></trkpt><trkpt lat="41.91983312857268" lon="15.872237915304847"><ele>70.0</ele><time>2026-03-29T09:54:31.845Z</time></trkpt><trkpt lat="41.91993195613588" lon="15.872372417461527"><ele>70.0</ele><time>2026-03-29T09:54:32.845Z</time></trkpt><trkpt lat="41.9200305984722" lon="15.872499887437373"><ele>70.0</ele><time>2026-03-29T09:54:33.845Z</time></trkpt><trkpt lat="41.9201341966044" lon="15.872607596914229"><ele>70.0</ele><time>2026-03-29T09:54:34.845Z</time></trkpt><trkpt lat="41.92024196364346" lon="15.87268005105021"><ele>69.6</ele><time>2026-03-29T09:54:35.845Z</time></trkpt><trkpt lat="41.92033715287678" lon="15.872745223541084"><ele>69.2</ele><time>2026-03-29T09:54:36.909Z</time></trkpt><trkpt lat="41.92043533816649" lon="15.87279656521658"><ele>68.8</ele><time>2026-03-29T09:54:37.909Z</time></trkpt><trkpt lat="41.92054448900276" lon="15.872825859007937"><ele>68.4</ele><time>2026-03-29T09:54:38.909Z</time></trkpt><trkpt lat="41.92064810730743" lon="15.872839292601242"><ele>68.0</ele><time>2026-03-29T09:54:39.909Z</time></trkpt><trkpt lat="41.920758925516886" lon="15.87285004436846"><ele>68.0</ele><time>2026-03-29T09:54:40.909Z</time></trkpt><trkpt lat="41.92086932708168" lon="15.872857335101907"><ele>68.0</ele><time>2026-03-29T09:54:41.909Z</time></trkpt><trkpt lat="41.92098274892181" lon="15.872862334173348"><ele>68.0</ele><time>2026-03-29T09:54:42.909Z</time></trkpt><trkpt lat="41.92108747701909" lon="15.872874878773018"><ele>68.0</ele><time>2026-03-29T09:54:43.909Z</time></trkpt><trkpt lat="41.92118528000039" lon="15.872932875857334"><ele>68.0</ele><time>2026-03-29T09:54:44.909Z</time></trkpt><trkpt lat="41.92127760013888" lon="15.872993502584146"><ele>65.83333333333334</ele><time>2026-03-29T09:54:45.909Z</time></trkpt><trkpt lat="41.92135718404647" lon="15.873069279287032"><ele>63.66666666666667</ele><time>2026-03-29T09:54:46.909Z</time></trkpt><trkpt lat="41.92141597762556" lon="15.873150030315871"><ele>61.5</ele><time>2026-03-29T09:54:47.909Z</time></trkpt><trkpt lat="41.92143867657869" lon="15.873253276043345"><ele>59.33333333333333</ele><time>2026-03-29T09:54:48.909Z</time></trkpt><trkpt lat="41.92142905425167" lon="15.87335506308372"><ele>57.166666666666664</ele><time>2026-03-29T09:54:49.909Z</time></trkpt><trkpt lat="41.92141055927186" lon="15.873466485892859"><ele>55.0</ele><time>2026-03-29T09:54:50.908Z</time></trkpt><trkpt lat="41.92136595144785" lon="15.873576433860595"><ele>55.0</ele><time>2026-03-29T09:54:51.908Z</time></trkpt><trkpt lat="41.92132452650119" lon="15.873696302652988"><ele>55.0</ele><time>2026-03-29T09:54:52.908Z</time></trkpt><trkpt lat="41.92129034649376" lon="15.873838549987745"><ele>55.0</ele><time>2026-03-29T09:54:53.908Z</time></trkpt><trkpt lat="41.92127218050818" lon="15.873974704738664"><ele>55.0</ele><time>2026-03-29T09:54:54.908Z</time></trkpt><trkpt lat="41.92128368948853" lon="15.874123786580446"><ele>55.0</ele><time>2026-03-29T09:54:55.908Z</time></trkpt><trkpt lat="41.92132127116674" lon="15.874263165364308"><ele>56.5</ele><time>2026-03-29T09:54:56.908Z</time></trkpt><trkpt lat="41.92139477151512" lon="15.874408573379856"><ele>58.0</ele><time>2026-03-29T09:54:57.911Z</time></trkpt><trkpt lat="41.9214736019825" lon="15.87451895684546"><ele>59.5</ele><time>2026-03-29T09:54:58.911Z</time></trkpt><trkpt lat="41.92155797725164" lon="15.874607459644611"><ele>61.0</ele><time>2026-03-29T09:54:59.911Z</time></trkpt><trkpt lat="41.9216694144225" lon="15.874655317389863"><ele>61.0</ele><time>2026-03-29T09:55:00.911Z</time></trkpt><trkpt lat="41.92176788034604" lon="15.874649707023048"><ele>60.99999999999999</ele><time>2026-03-29T09:55:01.911Z</time></trkpt><trkpt lat="41.921868636870876" lon="15.874649251834478"><ele>60.99999999999999</ele><time>2026-03-29T09:55:02.911Z</time></trkpt><trkpt lat="41.9219755132688" lon="15.874619646014215"><ele>61.0</ele><time>2026-03-29T09:55:03.911Z</time></trkpt><trkpt lat="41.92210276353801" lon="15.874566638351961"><ele>61.0</ele><time>2026-03-29T09:55:04.91Z</time></trkpt><trkpt lat="41.92224049582714" lon="15.874509353128625"><ele>61.0</ele><time>2026-03-29T09:55:05.91Z</time></trkpt><trkpt lat="41.92237526957576" lon="15.874455787108012"><ele>61.0</ele><time>2026-03-29T09:55:06.911Z</time></trkpt><trkpt lat="41.92250391004355" lon="15.874403976771065"><ele>61.0</ele><time>2026-03-29T09:55:07.91Z</time></trkpt><trkpt lat="41.92262751454645" lon="15.874351112709878"><ele>61.0</ele><time>2026-03-29T09:55:08.91Z</time></trkpt><trkpt lat="41.92276218544355" lon="15.874310938180898"><ele>59.0</ele><time>2026-03-29T09:55:09.911Z</time></trkpt><trkpt lat="41.922898117307426" lon="15.874260399612652"><ele>57.0</ele><time>2026-03-29T09:55:10.911Z</time></trkpt><trkpt lat="41.92303011567395" lon="15.874215072366368"><ele>55.0</ele><time>2026-03-29T09:55:11.911Z</time></trkpt><trkpt lat="41.92315668941317" lon="15.874173014068905"><ele>53.0</ele><time>2026-03-29T09:55:12.911Z</time></trkpt><trkpt lat="41.92326617742203" lon="15.874160317115592"><ele>53.0</ele><time>2026-03-29T09:55:13.911Z</time></trkpt><trkpt lat="41.923370420741634" lon="15.874208060061708"><ele>53.0</ele><time>2026-03-29T09:55:14.911Z</time></trkpt><trkpt lat="41.92346257651796" lon="15.874257211922606"><ele>53.0</ele><time>2026-03-29T09:55:15.911Z</time></trkpt><trkpt lat="41.923566550564864" lon="15.87432558638021"><ele>53.0</ele><time>2026-03-29T09:55:16.91Z</time></trkpt><trkpt lat="41.923656647957195" lon="15.87441125724871"><ele>53.0</ele><time>2026-03-29T09:55:17.91Z</time></trkpt><trkpt lat="41.92372142705724" lon="15.874528339955939"><ele>52.75</ele><time>2026-03-29T09:55:18.91Z</time></trkpt><trkpt lat="41.92376250889499" lon="15.874652767849877"><ele>52.5</ele><time>2026-03-29T09:55:19.91Z</time></trkpt><trkpt lat="41.923803584249306" lon="15.874800439396894"><ele>52.25</ele><time>2026-03-29T09:55:20.91Z</time></trkpt><trkpt lat="41.92383902902552" lon="15.874958117017808"><ele>52.0</ele><time>2026-03-29T09:55:21.91Z</time></trkpt><trkpt lat="41.92386935588819" lon="15.875106356408828"><ele>52.0</ele><time>2026-03-29T09:55:22.91Z</time></trkpt><trkpt lat="41.92389486480755" lon="15.875237945831614"><ele>52.0</ele><time>2026-03-29T09:55:23.91Z</time></trkpt><trkpt lat="41.923919219293246" lon="15.8753814881743"><ele>52.0</ele><time>2026-03-29T09:55:24.91Z</time></trkpt><trkpt lat="41.92395743234028" lon="15.875523486890934"><ele>52.0</ele><time>2026-03-29T09:55:25.91Z</time></trkpt><trkpt lat="41.92395465534942" lon="15.875664253100828"><ele>52.0</ele><time>2026-03-29T09:55:26.91Z</time></trkpt><trkpt lat="41.92396703921222" lon="15.875807948775599"><ele>53.0</ele><time>2026-03-29T09:55:27.91Z</time></trkpt><trkpt lat="41.92398169082615" lon="15.875948146720766"><ele>54.0</ele><time>2026-03-29T09:55:28.91Z</time></trkpt><trkpt lat="41.92399846750218" lon="15.876070880609499"><ele>55.0</ele><time>2026-03-29T09:55:29.91Z</time></trkpt><trkpt lat="41.92403264578314" lon="15.876187706050912"><ele>56.0</ele><time>2026-03-29T09:55:30.91Z</time></trkpt><trkpt lat="41.924086583859406" lon="15.876276910263242"><ele>57.0</ele><time>2026-03-29T09:55:31.91Z</time></trkpt><trkpt lat="41.92416141745766" lon="15.876350207749384"><ele>58.2</ele><time>2026-03-29T09:55:32.91Z</time></trkpt><trkpt lat="41.924253328698505" lon="15.87639942153342"><ele>59.400000000000006</ele><time>2026-03-29T09:55:33.91Z</time></trkpt><trkpt lat="41.924364252906265" lon="15.876406949720904"><ele>60.599999999999994</ele><time>2026-03-29T09:55:34.91Z</time></trkpt><trkpt lat="41.92448254579797" lon="15.876383541874825"><ele>61.8</ele><time>2026-03-29T09:55:35.91Z</time></trkpt><trkpt lat="41.924597940547514" lon="15.876357501877326"><ele>63.0</ele><time>2026-03-29T09:55:36.91Z</time></trkpt><trkpt lat="41.924727054176486" lon="15.87633844980357"><ele>63.0</ele><time>2026-03-29T09:55:37.91Z</time></trkpt><trkpt lat="41.92481844782705" lon="15.876302619209616"><ele>63.0</ele><time>2026-03-29T09:55:38.91Z</time></trkpt><trkpt lat="41.92491492575654" lon="15.876271853447914"><ele>63.0</ele><time>2026-03-29T09:55:39.91Z</time></trkpt><trkpt lat="41.92500142505044" lon="15.876248471896643"><ele>63.0</ele><time>2026-03-29T09:55:40.91Z</time></trkpt><trkpt lat="41.925085742333344" lon="15.876233980164036"><ele>63.0</ele><time>2026-03-29T09:55:41.91Z</time></trkpt><trkpt lat="41.92516971795455" lon="15.876223461668351"><ele>63.166666666666664</ele><time>2026-03-29T09:55:42.91Z</time></trkpt><trkpt lat="41.925253534044444" lon="15.876205737031338"><ele>63.33333333333333</ele><time>2026-03-29T09:55:43.91Z</time></trkpt><trkpt lat="41.92533520409029" lon="15.876190366312624"><ele>63.5</ele><time>2026-03-29T09:55:44.91Z</time></trkpt><trkpt lat="41.92540652701877" lon="15.876177630638693"><ele>63.666666666666664</ele><time>2026-03-29T09:55:45.91Z</time></trkpt><trkpt lat="41.925472448014546" lon="15.876170517883873"><ele>63.83333333333333</ele><time>2026-03-29T09:55:46.91Z</time></trkpt><trkpt lat="41.925563667457936" lon="15.876199133005988"><ele>64.0</ele><time>2026-03-29T09:55:48.91Z</time></trkpt><trkpt lat="41.9256285603255" lon="15.876035956379015"><ele>63.400000000000006</ele><time>2026-03-29T09:55:50.91Z</time></trkpt><trkpt lat="41.92561517685076" lon="15.87589798444784"><ele>62.800000000000004</ele><time>2026-03-29T09:55:52.91Z</time></trkpt><trkpt lat="41.92558429012918" lon="15.875817956669755"><ele>62.199999999999996</ele><time>2026-03-29T09:55:54.91Z</time></trkpt><trkpt lat="41.92566334014198" lon="15.875785059102583"><ele>61.599999999999994</ele><time>2026-03-29T09:56:14.909Z</time></trkpt><trkpt lat="41.925537584588504" lon="15.875637156183531"><ele>61.0</ele><time>2026-03-29T09:59:40.909Z</time></trkpt><trkpt lat="41.925488190050494" lon="15.875581608517683"><ele>61.0</ele><time>2026-03-29T10:10:44.86Z</time></trkpt></trkseg></trk></gpx>